<?xml version="1.0" encoding="UTF-8" standalone="no" ?>
<gpx xmlns="http://www.topografix.com/GPX/1/1" xmlns:xsi="http://www.w3.org/2001/XMLSchema-instance" xsi:schemaLocation="http://www.topografix.com/GPX/1/1 http://www.topografix.com/GPX/1/1/gpx.xsd" version="1.1" creator="VisuGPX - https://www.visugpx.com">
  <metadata>
    <name>Biganos-Arcachon 24/10/2020</name>
  </metadata>
  <trk>
    <name><![CDATA[2020-10-24 18:27:32]]></name>
    <trkseg>
      <trkpt lat="44.64269" lon="-0.99642">
        <ele>11.19</ele>
        <time>2020-10-24T09:32:28Z</time>
      </trkpt>
      <trkpt lat="44.64269" lon="-0.99642">
        <ele>11.19</ele>
        <time>2020-10-24T09:32:29Z</time>
      </trkpt>
      <trkpt lat="44.64269" lon="-0.99641">
        <ele>4.94</ele>
        <time>2020-10-24T09:32:32Z</time>
      </trkpt>
      <trkpt lat="44.64269" lon="-0.99641">
        <ele>4.94</ele>
        <time>2020-10-24T09:32:33Z</time>
      </trkpt>
      <trkpt lat="44.64269" lon="-0.99641">
        <ele>4.94</ele>
        <time>2020-10-24T09:32:41Z</time>
      </trkpt>
      <trkpt lat="44.6426" lon="-0.99622">
        <ele>5.42</ele>
        <time>2020-10-24T09:32:53Z</time>
      </trkpt>
      <trkpt lat="44.64258" lon="-0.99615">
        <ele>4.94</ele>
        <time>2020-10-24T09:32:56Z</time>
      </trkpt>
      <trkpt lat="44.64257" lon="-0.99612">
        <ele>4.94</ele>
        <time>2020-10-24T09:32:57Z</time>
      </trkpt>
      <trkpt lat="44.64255" lon="-0.9961">
        <ele>4.94</ele>
        <time>2020-10-24T09:32:58Z</time>
      </trkpt>
      <trkpt lat="44.64254" lon="-0.99608">
        <ele>4.94</ele>
        <time>2020-10-24T09:32:59Z</time>
      </trkpt>
      <trkpt lat="44.64252" lon="-0.99607">
        <ele>4.94</ele>
        <time>2020-10-24T09:33:00Z</time>
      </trkpt>
      <trkpt lat="44.64249" lon="-0.99606">
        <ele>4.94</ele>
        <time>2020-10-24T09:33:01Z</time>
      </trkpt>
      <trkpt lat="44.64247" lon="-0.99606">
        <ele>4.94</ele>
        <time>2020-10-24T09:33:02Z</time>
      </trkpt>
      <trkpt lat="44.64244" lon="-0.99606">
        <ele>4.94</ele>
        <time>2020-10-24T09:33:03Z</time>
      </trkpt>
      <trkpt lat="44.64242" lon="-0.99606">
        <ele>4.94</ele>
        <time>2020-10-24T09:33:04Z</time>
      </trkpt>
      <trkpt lat="44.64236" lon="-0.99605">
        <ele>4.94</ele>
        <time>2020-10-24T09:33:18Z</time>
      </trkpt>
      <trkpt lat="44.64222" lon="-0.9961">
        <ele>4.94</ele>
        <time>2020-10-24T09:33:34Z</time>
      </trkpt>
      <trkpt lat="44.64181" lon="-0.99628">
        <ele>4.94</ele>
        <time>2020-10-24T09:33:48Z</time>
      </trkpt>
      <trkpt lat="44.6414" lon="-0.99641">
        <ele>3.98</ele>
        <time>2020-10-24T09:34:00Z</time>
      </trkpt>
      <trkpt lat="44.64088" lon="-0.99663">
        <ele>3.98</ele>
        <time>2020-10-24T09:34:15Z</time>
      </trkpt>
      <trkpt lat="44.64065" lon="-0.99702">
        <ele>3.98</ele>
        <time>2020-10-24T09:34:25Z</time>
      </trkpt>
      <trkpt lat="44.64022" lon="-0.99738">
        <ele>3.98</ele>
        <time>2020-10-24T09:34:38Z</time>
      </trkpt>
      <trkpt lat="44.63978" lon="-0.99772">
        <ele>3.98</ele>
        <time>2020-10-24T09:34:52Z</time>
      </trkpt>
      <trkpt lat="44.63953" lon="-0.99817">
        <ele>3.98</ele>
        <time>2020-10-24T09:35:04Z</time>
      </trkpt>
      <trkpt lat="44.63948" lon="-0.99865">
        <ele>3.98</ele>
        <time>2020-10-24T09:35:15Z</time>
      </trkpt>
      <trkpt lat="44.63947" lon="-0.9988">
        <ele>3.98</ele>
        <time>2020-10-24T09:35:20Z</time>
      </trkpt>
      <trkpt lat="44.63945" lon="-0.99881">
        <ele>3.98</ele>
        <time>2020-10-24T09:35:21Z</time>
      </trkpt>
      <trkpt lat="44.63943" lon="-0.99881">
        <ele>3.98</ele>
        <time>2020-10-24T09:35:22Z</time>
      </trkpt>
      <trkpt lat="44.63941" lon="-0.9988">
        <ele>3.98</ele>
        <time>2020-10-24T09:35:23Z</time>
      </trkpt>
      <trkpt lat="44.63939" lon="-0.99878">
        <ele>3.98</ele>
        <time>2020-10-24T09:35:24Z</time>
      </trkpt>
      <trkpt lat="44.63936" lon="-0.99876">
        <ele>3.98</ele>
        <time>2020-10-24T09:35:25Z</time>
      </trkpt>
      <trkpt lat="44.63925" lon="-0.99832">
        <ele>3.98</ele>
        <time>2020-10-24T09:35:37Z</time>
      </trkpt>
      <trkpt lat="44.63917" lon="-0.99789">
        <ele>3.98</ele>
        <time>2020-10-24T09:35:48Z</time>
      </trkpt>
      <trkpt lat="44.63893" lon="-0.99763">
        <ele>3.98</ele>
        <time>2020-10-24T09:36:00Z</time>
      </trkpt>
      <trkpt lat="44.63867" lon="-0.9975">
        <ele>3.98</ele>
        <time>2020-10-24T09:36:11Z</time>
      </trkpt>
      <trkpt lat="44.63865" lon="-0.99748">
        <ele>3.98</ele>
        <time>2020-10-24T09:36:12Z</time>
      </trkpt>
      <trkpt lat="44.63863" lon="-0.99746">
        <ele>3.98</ele>
        <time>2020-10-24T09:36:13Z</time>
      </trkpt>
      <trkpt lat="44.63861" lon="-0.99744">
        <ele>3.98</ele>
        <time>2020-10-24T09:36:14Z</time>
      </trkpt>
      <trkpt lat="44.63859" lon="-0.99742">
        <ele>3.98</ele>
        <time>2020-10-24T09:36:15Z</time>
      </trkpt>
      <trkpt lat="44.63855" lon="-0.99705">
        <ele>3.98</ele>
        <time>2020-10-24T09:36:26Z</time>
      </trkpt>
      <trkpt lat="44.63856" lon="-0.9968">
        <ele>3.98</ele>
        <time>2020-10-24T09:36:32Z</time>
      </trkpt>
      <trkpt lat="44.63854" lon="-0.99678">
        <ele>3.98</ele>
        <time>2020-10-24T09:36:33Z</time>
      </trkpt>
      <trkpt lat="44.63852" lon="-0.99676">
        <ele>3.98</ele>
        <time>2020-10-24T09:36:34Z</time>
      </trkpt>
      <trkpt lat="44.63849" lon="-0.99675">
        <ele>3.98</ele>
        <time>2020-10-24T09:36:35Z</time>
      </trkpt>
      <trkpt lat="44.63846" lon="-0.99675">
        <ele>3.98</ele>
        <time>2020-10-24T09:36:36Z</time>
      </trkpt>
      <trkpt lat="44.63844" lon="-0.99675">
        <ele>3.98</ele>
        <time>2020-10-24T09:36:37Z</time>
      </trkpt>
      <trkpt lat="44.6384" lon="-0.99676">
        <ele>3.98</ele>
        <time>2020-10-24T09:36:48Z</time>
      </trkpt>
      <trkpt lat="44.63835" lon="-0.99677">
        <ele>3.5</ele>
        <time>2020-10-24T09:37:13Z</time>
      </trkpt>
      <trkpt lat="44.63828" lon="-0.9967">
        <ele>3.5</ele>
        <time>2020-10-24T09:37:26Z</time>
      </trkpt>
      <trkpt lat="44.6382" lon="-0.99651">
        <ele>3.5</ele>
        <time>2020-10-24T09:37:36Z</time>
      </trkpt>
      <trkpt lat="44.63793" lon="-0.99614">
        <ele>3.5</ele>
        <time>2020-10-24T09:37:48Z</time>
      </trkpt>
      <trkpt lat="44.63761" lon="-0.99596">
        <ele>3.5</ele>
        <time>2020-10-24T09:37:59Z</time>
      </trkpt>
      <trkpt lat="44.63736" lon="-0.99579">
        <ele>3.5</ele>
        <time>2020-10-24T09:38:11Z</time>
      </trkpt>
      <trkpt lat="44.63736" lon="-0.99582">
        <ele>3.5</ele>
        <time>2020-10-24T09:38:18Z</time>
      </trkpt>
      <trkpt lat="44.63736" lon="-0.99585">
        <ele>3.5</ele>
        <time>2020-10-24T09:38:36Z</time>
      </trkpt>
      <trkpt lat="44.63734" lon="-0.99585">
        <ele>3.5</ele>
        <time>2020-10-24T09:38:44Z</time>
      </trkpt>
      <trkpt lat="44.63733" lon="-0.99586">
        <ele>3.5</ele>
        <time>2020-10-24T09:38:45Z</time>
      </trkpt>
      <trkpt lat="44.63731" lon="-0.99588">
        <ele>3.5</ele>
        <time>2020-10-24T09:38:46Z</time>
      </trkpt>
      <trkpt lat="44.63719" lon="-0.99601">
        <ele>3.5</ele>
        <time>2020-10-24T09:38:59Z</time>
      </trkpt>
      <trkpt lat="44.63702" lon="-0.99625">
        <ele>3.5</ele>
        <time>2020-10-24T09:39:10Z</time>
      </trkpt>
      <trkpt lat="44.63688" lon="-0.99646">
        <ele>3.5</ele>
        <time>2020-10-24T09:39:20Z</time>
      </trkpt>
      <trkpt lat="44.63683" lon="-0.99655">
        <ele>3.5</ele>
        <time>2020-10-24T09:39:30Z</time>
      </trkpt>
      <trkpt lat="44.63677" lon="-0.99665">
        <ele>3.5</ele>
        <time>2020-10-24T09:39:44Z</time>
      </trkpt>
      <trkpt lat="44.63671" lon="-0.99673">
        <ele>3.5</ele>
        <time>2020-10-24T09:39:57Z</time>
      </trkpt>
      <trkpt lat="44.63668" lon="-0.99675">
        <ele>3.5</ele>
        <time>2020-10-24T09:40:10Z</time>
      </trkpt>
      <trkpt lat="44.63657" lon="-0.99689">
        <ele>3.5</ele>
        <time>2020-10-24T09:40:24Z</time>
      </trkpt>
      <trkpt lat="44.63653" lon="-0.99695">
        <ele>3.5</ele>
        <time>2020-10-24T09:40:37Z</time>
      </trkpt>
      <trkpt lat="44.63651" lon="-0.99697">
        <ele>3.5</ele>
        <time>2020-10-24T09:40:47Z</time>
      </trkpt>
      <trkpt lat="44.63642" lon="-0.99702">
        <ele>3.5</ele>
        <time>2020-10-24T09:40:58Z</time>
      </trkpt>
      <trkpt lat="44.63619" lon="-0.99715">
        <ele>3.5</ele>
        <time>2020-10-24T09:41:10Z</time>
      </trkpt>
      <trkpt lat="44.63592" lon="-0.99736">
        <ele>3.5</ele>
        <time>2020-10-24T09:41:24Z</time>
      </trkpt>
      <trkpt lat="44.63566" lon="-0.99756">
        <ele>3.5</ele>
        <time>2020-10-24T09:41:38Z</time>
      </trkpt>
      <trkpt lat="44.63565" lon="-0.99759">
        <ele>3.5</ele>
        <time>2020-10-24T09:41:39Z</time>
      </trkpt>
      <trkpt lat="44.63566" lon="-0.9979">
        <ele>3.5</ele>
        <time>2020-10-24T09:41:51Z</time>
      </trkpt>
      <trkpt lat="44.63565" lon="-0.99792">
        <ele>3.5</ele>
        <time>2020-10-24T09:41:52Z</time>
      </trkpt>
      <trkpt lat="44.63564" lon="-0.99807">
        <ele>3.5</ele>
        <time>2020-10-24T09:42:06Z</time>
      </trkpt>
      <trkpt lat="44.63561" lon="-0.99816">
        <ele>3.5</ele>
        <time>2020-10-24T09:42:29Z</time>
      </trkpt>
      <trkpt lat="44.63555" lon="-0.99852">
        <ele>3.98</ele>
        <time>2020-10-24T09:42:41Z</time>
      </trkpt>
      <trkpt lat="44.6355" lon="-0.99874">
        <ele>3.98</ele>
        <time>2020-10-24T09:42:48Z</time>
      </trkpt>
      <trkpt lat="44.63532" lon="-0.99883">
        <ele>4.94</ele>
        <time>2020-10-24T09:42:59Z</time>
      </trkpt>
      <trkpt lat="44.63532" lon="-0.99882">
        <ele>4.94</ele>
        <time>2020-10-24T09:43:00Z</time>
      </trkpt>
      <trkpt lat="44.6353" lon="-0.99882">
        <ele>4.94</ele>
        <time>2020-10-24T09:43:09Z</time>
      </trkpt>
      <trkpt lat="44.63529" lon="-0.99881">
        <ele>5.42</ele>
        <time>2020-10-24T09:43:10Z</time>
      </trkpt>
      <trkpt lat="44.63519" lon="-0.99874">
        <ele>5.42</ele>
        <time>2020-10-24T09:43:16Z</time>
      </trkpt>
      <trkpt lat="44.63517" lon="-0.99875">
        <ele>5.42</ele>
        <time>2020-10-24T09:43:17Z</time>
      </trkpt>
      <trkpt lat="44.63515" lon="-0.99876">
        <ele>5.42</ele>
        <time>2020-10-24T09:43:18Z</time>
      </trkpt>
      <trkpt lat="44.63512" lon="-0.99877">
        <ele>5.42</ele>
        <time>2020-10-24T09:43:19Z</time>
      </trkpt>
      <trkpt lat="44.6351" lon="-0.99876">
        <ele>5.42</ele>
        <time>2020-10-24T09:43:20Z</time>
      </trkpt>
      <trkpt lat="44.63506" lon="-0.99875">
        <ele>5.42</ele>
        <time>2020-10-24T09:43:21Z</time>
      </trkpt>
      <trkpt lat="44.63503" lon="-0.99874">
        <ele>5.42</ele>
        <time>2020-10-24T09:43:22Z</time>
      </trkpt>
      <trkpt lat="44.635" lon="-0.99872">
        <ele>5.42</ele>
        <time>2020-10-24T09:43:23Z</time>
      </trkpt>
      <trkpt lat="44.63497" lon="-0.99871">
        <ele>5.42</ele>
        <time>2020-10-24T09:43:24Z</time>
      </trkpt>
      <trkpt lat="44.63494" lon="-0.99869">
        <ele>5.42</ele>
        <time>2020-10-24T09:43:25Z</time>
      </trkpt>
      <trkpt lat="44.6349" lon="-0.99868">
        <ele>5.42</ele>
        <time>2020-10-24T09:43:26Z</time>
      </trkpt>
      <trkpt lat="44.63487" lon="-0.99868">
        <ele>5.42</ele>
        <time>2020-10-24T09:43:27Z</time>
      </trkpt>
      <trkpt lat="44.63484" lon="-0.99867">
        <ele>5.42</ele>
        <time>2020-10-24T09:43:28Z</time>
      </trkpt>
      <trkpt lat="44.63481" lon="-0.99866">
        <ele>5.42</ele>
        <time>2020-10-24T09:43:29Z</time>
      </trkpt>
      <trkpt lat="44.63478" lon="-0.99866">
        <ele>5.42</ele>
        <time>2020-10-24T09:43:30Z</time>
      </trkpt>
      <trkpt lat="44.63476" lon="-0.99865">
        <ele>5.42</ele>
        <time>2020-10-24T09:43:31Z</time>
      </trkpt>
      <trkpt lat="44.63445" lon="-0.99849">
        <ele>5.42</ele>
        <time>2020-10-24T09:43:42Z</time>
      </trkpt>
      <trkpt lat="44.63428" lon="-0.99824">
        <ele>3.98</ele>
        <time>2020-10-24T09:43:50Z</time>
      </trkpt>
      <trkpt lat="44.63426" lon="-0.9982">
        <ele>3.98</ele>
        <time>2020-10-24T09:43:51Z</time>
      </trkpt>
      <trkpt lat="44.63425" lon="-0.99815">
        <ele>3.98</ele>
        <time>2020-10-24T09:43:52Z</time>
      </trkpt>
      <trkpt lat="44.634" lon="-0.99796">
        <ele>3.98</ele>
        <time>2020-10-24T09:44:02Z</time>
      </trkpt>
      <trkpt lat="44.6337" lon="-0.99784">
        <ele>3.98</ele>
        <time>2020-10-24T09:44:13Z</time>
      </trkpt>
      <trkpt lat="44.63342" lon="-0.99799">
        <ele>3.98</ele>
        <time>2020-10-24T09:44:23Z</time>
      </trkpt>
      <trkpt lat="44.63311" lon="-0.99819">
        <ele>4.46</ele>
        <time>2020-10-24T09:44:33Z</time>
      </trkpt>
      <trkpt lat="44.63278" lon="-0.99826">
        <ele>4.46</ele>
        <time>2020-10-24T09:44:44Z</time>
      </trkpt>
      <trkpt lat="44.63243" lon="-0.99831">
        <ele>4.46</ele>
        <time>2020-10-24T09:44:55Z</time>
      </trkpt>
      <trkpt lat="44.63208" lon="-0.99815">
        <ele>4.46</ele>
        <time>2020-10-24T09:45:07Z</time>
      </trkpt>
      <trkpt lat="44.6318" lon="-0.9977">
        <ele>4.46</ele>
        <time>2020-10-24T09:45:19Z</time>
      </trkpt>
      <trkpt lat="44.63155" lon="-0.99746">
        <ele>4.46</ele>
        <time>2020-10-24T09:45:29Z</time>
      </trkpt>
      <trkpt lat="44.63145" lon="-0.99735">
        <ele>4.46</ele>
        <time>2020-10-24T09:45:39Z</time>
      </trkpt>
      <trkpt lat="44.63137" lon="-0.99729">
        <ele>4.46</ele>
        <time>2020-10-24T09:45:49Z</time>
      </trkpt>
      <trkpt lat="44.63129" lon="-0.99726">
        <ele>4.46</ele>
        <time>2020-10-24T09:46:00Z</time>
      </trkpt>
      <trkpt lat="44.63098" lon="-0.99728">
        <ele>4.46</ele>
        <time>2020-10-24T09:46:11Z</time>
      </trkpt>
      <trkpt lat="44.63046" lon="-0.99733">
        <ele>4.46</ele>
        <time>2020-10-24T09:46:24Z</time>
      </trkpt>
      <trkpt lat="44.63001" lon="-0.99727">
        <ele>4.46</ele>
        <time>2020-10-24T09:46:38Z</time>
      </trkpt>
      <trkpt lat="44.62999" lon="-0.99726">
        <ele>4.46</ele>
        <time>2020-10-24T09:46:39Z</time>
      </trkpt>
      <trkpt lat="44.62997" lon="-0.99726">
        <ele>4.46</ele>
        <time>2020-10-24T09:46:40Z</time>
      </trkpt>
      <trkpt lat="44.62994" lon="-0.99725">
        <ele>4.46</ele>
        <time>2020-10-24T09:46:41Z</time>
      </trkpt>
      <trkpt lat="44.62991" lon="-0.99725">
        <ele>4.46</ele>
        <time>2020-10-24T09:46:42Z</time>
      </trkpt>
      <trkpt lat="44.62976" lon="-0.99722">
        <ele>4.46</ele>
        <time>2020-10-24T09:46:47Z</time>
      </trkpt>
      <trkpt lat="44.62931" lon="-0.99721">
        <ele>4.46</ele>
        <time>2020-10-24T09:47:00Z</time>
      </trkpt>
      <trkpt lat="44.62903" lon="-0.99701">
        <ele>4.46</ele>
        <time>2020-10-24T09:47:10Z</time>
      </trkpt>
      <trkpt lat="44.62874" lon="-0.99677">
        <ele>4.46</ele>
        <time>2020-10-24T09:47:21Z</time>
      </trkpt>
      <trkpt lat="44.62851" lon="-0.99634">
        <ele>4.46</ele>
        <time>2020-10-24T09:47:31Z</time>
      </trkpt>
      <trkpt lat="44.62847" lon="-0.9962">
        <ele>4.46</ele>
        <time>2020-10-24T09:47:34Z</time>
      </trkpt>
      <trkpt lat="44.62815" lon="-0.99586">
        <ele>4.46</ele>
        <time>2020-10-24T09:47:46Z</time>
      </trkpt>
      <trkpt lat="44.62777" lon="-0.99566">
        <ele>4.46</ele>
        <time>2020-10-24T09:47:57Z</time>
      </trkpt>
      <trkpt lat="44.62737" lon="-0.99556">
        <ele>4.46</ele>
        <time>2020-10-24T09:48:08Z</time>
      </trkpt>
      <trkpt lat="44.62701" lon="-0.99571">
        <ele>4.46</ele>
        <time>2020-10-24T09:48:19Z</time>
      </trkpt>
      <trkpt lat="44.62668" lon="-0.99555">
        <ele>4.46</ele>
        <time>2020-10-24T09:48:30Z</time>
      </trkpt>
      <trkpt lat="44.62664" lon="-0.99552">
        <ele>4.46</ele>
        <time>2020-10-24T09:48:38Z</time>
      </trkpt>
      <trkpt lat="44.62661" lon="-0.99552">
        <ele>4.46</ele>
        <time>2020-10-24T09:48:53Z</time>
      </trkpt>
      <trkpt lat="44.62662" lon="-0.99552">
        <ele>5.91</ele>
        <time>2020-10-24T09:49:07Z</time>
      </trkpt>
      <trkpt lat="44.62661" lon="-0.99553">
        <ele>5.91</ele>
        <time>2020-10-24T09:49:21Z</time>
      </trkpt>
      <trkpt lat="44.62661" lon="-0.99552">
        <ele>5.91</ele>
        <time>2020-10-24T09:49:33Z</time>
      </trkpt>
      <trkpt lat="44.62661" lon="-0.99553">
        <ele>5.91</ele>
        <time>2020-10-24T09:49:56Z</time>
      </trkpt>
      <trkpt lat="44.62661" lon="-0.99553">
        <ele>5.91</ele>
        <time>2020-10-24T09:50:15Z</time>
      </trkpt>
      <trkpt lat="44.62659" lon="-0.99552">
        <ele>5.91</ele>
        <time>2020-10-24T09:50:35Z</time>
      </trkpt>
      <trkpt lat="44.6266" lon="-0.99551">
        <ele>5.91</ele>
        <time>2020-10-24T09:50:57Z</time>
      </trkpt>
      <trkpt lat="44.62661" lon="-0.99551">
        <ele>5.91</ele>
        <time>2020-10-24T09:51:16Z</time>
      </trkpt>
      <trkpt lat="44.62662" lon="-0.99551">
        <ele>5.91</ele>
        <time>2020-10-24T09:51:31Z</time>
      </trkpt>
      <trkpt lat="44.62661" lon="-0.99553">
        <ele>5.91</ele>
        <time>2020-10-24T09:51:54Z</time>
      </trkpt>
      <trkpt lat="44.6266" lon="-0.99552">
        <ele>5.91</ele>
        <time>2020-10-24T09:52:08Z</time>
      </trkpt>
      <trkpt lat="44.62664" lon="-0.99503">
        <ele>5.91</ele>
        <time>2020-10-24T09:52:23Z</time>
      </trkpt>
      <trkpt lat="44.62666" lon="-0.99469">
        <ele>7.35</ele>
        <time>2020-10-24T09:52:33Z</time>
      </trkpt>
      <trkpt lat="44.62665" lon="-0.99466">
        <ele>7.83</ele>
        <time>2020-10-24T09:52:34Z</time>
      </trkpt>
      <trkpt lat="44.62664" lon="-0.99465">
        <ele>7.83</ele>
        <time>2020-10-24T09:52:35Z</time>
      </trkpt>
      <trkpt lat="44.62663" lon="-0.99466">
        <ele>7.83</ele>
        <time>2020-10-24T09:52:36Z</time>
      </trkpt>
      <trkpt lat="44.62662" lon="-0.99468">
        <ele>7.83</ele>
        <time>2020-10-24T09:52:37Z</time>
      </trkpt>
      <trkpt lat="44.62661" lon="-0.99472">
        <ele>7.83</ele>
        <time>2020-10-24T09:52:38Z</time>
      </trkpt>
      <trkpt lat="44.62661" lon="-0.99476">
        <ele>8.31</ele>
        <time>2020-10-24T09:52:39Z</time>
      </trkpt>
      <trkpt lat="44.6266" lon="-0.99479">
        <ele>7.83</ele>
        <time>2020-10-24T09:52:40Z</time>
      </trkpt>
      <trkpt lat="44.6266" lon="-0.99483">
        <ele>7.83</ele>
        <time>2020-10-24T09:52:41Z</time>
      </trkpt>
      <trkpt lat="44.6266" lon="-0.99488">
        <ele>8.31</ele>
        <time>2020-10-24T09:52:42Z</time>
      </trkpt>
      <trkpt lat="44.62657" lon="-0.99512">
        <ele>7.83</ele>
        <time>2020-10-24T09:52:47Z</time>
      </trkpt>
      <trkpt lat="44.62648" lon="-0.99619">
        <ele>9.27</ele>
        <time>2020-10-24T09:53:06Z</time>
      </trkpt>
      <trkpt lat="44.6264" lon="-0.99689">
        <ele>8.31</ele>
        <time>2020-10-24T09:53:19Z</time>
      </trkpt>
      <trkpt lat="44.62632" lon="-0.99802">
        <ele>8.31</ele>
        <time>2020-10-24T09:53:37Z</time>
      </trkpt>
      <trkpt lat="44.6263" lon="-0.99865">
        <ele>7.35</ele>
        <time>2020-10-24T09:53:46Z</time>
      </trkpt>
      <trkpt lat="44.62631" lon="-0.99872">
        <ele>7.35</ele>
        <time>2020-10-24T09:53:47Z</time>
      </trkpt>
      <trkpt lat="44.62633" lon="-0.99878">
        <ele>7.35</ele>
        <time>2020-10-24T09:53:48Z</time>
      </trkpt>
      <trkpt lat="44.62637" lon="-0.99885">
        <ele>7.35</ele>
        <time>2020-10-24T09:53:49Z</time>
      </trkpt>
      <trkpt lat="44.6264" lon="-0.99889">
        <ele>6.87</ele>
        <time>2020-10-24T09:53:50Z</time>
      </trkpt>
      <trkpt lat="44.62644" lon="-0.99894">
        <ele>6.87</ele>
        <time>2020-10-24T09:53:51Z</time>
      </trkpt>
      <trkpt lat="44.62647" lon="-0.99899">
        <ele>6.87</ele>
        <time>2020-10-24T09:53:52Z</time>
      </trkpt>
      <trkpt lat="44.6265" lon="-0.99905">
        <ele>6.87</ele>
        <time>2020-10-24T09:53:53Z</time>
      </trkpt>
      <trkpt lat="44.62652" lon="-0.99911">
        <ele>5.91</ele>
        <time>2020-10-24T09:53:54Z</time>
      </trkpt>
      <trkpt lat="44.62653" lon="-0.99919">
        <ele>5.91</ele>
        <time>2020-10-24T09:53:55Z</time>
      </trkpt>
      <trkpt lat="44.62654" lon="-0.99926">
        <ele>5.91</ele>
        <time>2020-10-24T09:53:56Z</time>
      </trkpt>
      <trkpt lat="44.62654" lon="-0.99935">
        <ele>5.91</ele>
        <time>2020-10-24T09:53:57Z</time>
      </trkpt>
      <trkpt lat="44.62653" lon="-0.99942">
        <ele>5.91</ele>
        <time>2020-10-24T09:53:58Z</time>
      </trkpt>
      <trkpt lat="44.62652" lon="-0.99951">
        <ele>5.91</ele>
        <time>2020-10-24T09:53:59Z</time>
      </trkpt>
      <trkpt lat="44.6265" lon="-0.99959">
        <ele>5.91</ele>
        <time>2020-10-24T09:54:00Z</time>
      </trkpt>
      <trkpt lat="44.62647" lon="-0.99967">
        <ele>5.42</ele>
        <time>2020-10-24T09:54:01Z</time>
      </trkpt>
      <trkpt lat="44.62643" lon="-0.99974">
        <ele>5.42</ele>
        <time>2020-10-24T09:54:02Z</time>
      </trkpt>
      <trkpt lat="44.6264" lon="-0.99982">
        <ele>5.42</ele>
        <time>2020-10-24T09:54:03Z</time>
      </trkpt>
      <trkpt lat="44.62638" lon="-0.99989">
        <ele>5.42</ele>
        <time>2020-10-24T09:54:04Z</time>
      </trkpt>
      <trkpt lat="44.62634" lon="-1.00003">
        <ele>5.42</ele>
        <time>2020-10-24T09:54:06Z</time>
      </trkpt>
      <trkpt lat="44.62632" lon="-1.00008">
        <ele>5.42</ele>
        <time>2020-10-24T09:54:07Z</time>
      </trkpt>
      <trkpt lat="44.62629" lon="-1.00013">
        <ele>6.87</ele>
        <time>2020-10-24T09:54:08Z</time>
      </trkpt>
      <trkpt lat="44.62625" lon="-1.00018">
        <ele>6.87</ele>
        <time>2020-10-24T09:54:09Z</time>
      </trkpt>
      <trkpt lat="44.62621" lon="-1.00022">
        <ele>6.87</ele>
        <time>2020-10-24T09:54:10Z</time>
      </trkpt>
      <trkpt lat="44.62618" lon="-1.00028">
        <ele>6.87</ele>
        <time>2020-10-24T09:54:11Z</time>
      </trkpt>
      <trkpt lat="44.62615" lon="-1.00034">
        <ele>6.87</ele>
        <time>2020-10-24T09:54:12Z</time>
      </trkpt>
      <trkpt lat="44.62613" lon="-1.00041">
        <ele>6.87</ele>
        <time>2020-10-24T09:54:13Z</time>
      </trkpt>
      <trkpt lat="44.62612" lon="-1.00048">
        <ele>6.87</ele>
        <time>2020-10-24T09:54:14Z</time>
      </trkpt>
      <trkpt lat="44.6261" lon="-1.00062">
        <ele>6.87</ele>
        <time>2020-10-24T09:54:16Z</time>
      </trkpt>
      <trkpt lat="44.62607" lon="-1.00069">
        <ele>6.87</ele>
        <time>2020-10-24T09:54:17Z</time>
      </trkpt>
      <trkpt lat="44.62606" lon="-1.00075">
        <ele>6.87</ele>
        <time>2020-10-24T09:54:18Z</time>
      </trkpt>
      <trkpt lat="44.62604" lon="-1.00082">
        <ele>6.87</ele>
        <time>2020-10-24T09:54:19Z</time>
      </trkpt>
      <trkpt lat="44.62603" lon="-1.00089">
        <ele>6.87</ele>
        <time>2020-10-24T09:54:20Z</time>
      </trkpt>
      <trkpt lat="44.62596" lon="-1.00147">
        <ele>6.87</ele>
        <time>2020-10-24T09:54:28Z</time>
      </trkpt>
      <trkpt lat="44.62584" lon="-1.00278">
        <ele>7.35</ele>
        <time>2020-10-24T09:54:48Z</time>
      </trkpt>
      <trkpt lat="44.62587" lon="-1.00402">
        <ele>7.83</ele>
        <time>2020-10-24T09:55:06Z</time>
      </trkpt>
      <trkpt lat="44.62615" lon="-1.0051">
        <ele>7.83</ele>
        <time>2020-10-24T09:55:22Z</time>
      </trkpt>
      <trkpt lat="44.6265" lon="-1.00631">
        <ele>7.83</ele>
        <time>2020-10-24T09:55:40Z</time>
      </trkpt>
      <trkpt lat="44.62669" lon="-1.00699">
        <ele>7.83</ele>
        <time>2020-10-24T09:55:50Z</time>
      </trkpt>
      <trkpt lat="44.62706" lon="-1.00824">
        <ele>7.83</ele>
        <time>2020-10-24T09:56:09Z</time>
      </trkpt>
      <trkpt lat="44.62743" lon="-1.00936">
        <ele>7.83</ele>
        <time>2020-10-24T09:56:26Z</time>
      </trkpt>
      <trkpt lat="44.62773" lon="-1.01037">
        <ele>7.83</ele>
        <time>2020-10-24T09:56:40Z</time>
      </trkpt>
      <trkpt lat="44.62777" lon="-1.01051">
        <ele>7.83</ele>
        <time>2020-10-24T09:56:42Z</time>
      </trkpt>
      <trkpt lat="44.6278" lon="-1.01056">
        <ele>7.83</ele>
        <time>2020-10-24T09:56:43Z</time>
      </trkpt>
      <trkpt lat="44.62784" lon="-1.01061">
        <ele>7.83</ele>
        <time>2020-10-24T09:56:44Z</time>
      </trkpt>
      <trkpt lat="44.62789" lon="-1.01062">
        <ele>7.83</ele>
        <time>2020-10-24T09:56:45Z</time>
      </trkpt>
      <trkpt lat="44.62793" lon="-1.01061">
        <ele>7.83</ele>
        <time>2020-10-24T09:56:46Z</time>
      </trkpt>
      <trkpt lat="44.62798" lon="-1.01059">
        <ele>7.83</ele>
        <time>2020-10-24T09:56:47Z</time>
      </trkpt>
      <trkpt lat="44.62855" lon="-1.01012">
        <ele>7.83</ele>
        <time>2020-10-24T09:57:00Z</time>
      </trkpt>
      <trkpt lat="44.62859" lon="-1.01008">
        <ele>7.83</ele>
        <time>2020-10-24T09:57:01Z</time>
      </trkpt>
      <trkpt lat="44.62895" lon="-1.00984">
        <ele>7.83</ele>
        <time>2020-10-24T09:57:08Z</time>
      </trkpt>
      <trkpt lat="44.62901" lon="-1.00982">
        <ele>7.83</ele>
        <time>2020-10-24T09:57:09Z</time>
      </trkpt>
      <trkpt lat="44.62923" lon="-1.00979">
        <ele>7.83</ele>
        <time>2020-10-24T09:57:13Z</time>
      </trkpt>
      <trkpt lat="44.62938" lon="-1.00981">
        <ele>7.83</ele>
        <time>2020-10-24T09:57:16Z</time>
      </trkpt>
      <trkpt lat="44.62944" lon="-1.00981">
        <ele>7.83</ele>
        <time>2020-10-24T09:57:17Z</time>
      </trkpt>
      <trkpt lat="44.62984" lon="-1.00975">
        <ele>7.83</ele>
        <time>2020-10-24T09:57:24Z</time>
      </trkpt>
      <trkpt lat="44.6299" lon="-1.00972">
        <ele>6.87</ele>
        <time>2020-10-24T09:57:25Z</time>
      </trkpt>
      <trkpt lat="44.63001" lon="-1.00966">
        <ele>6.87</ele>
        <time>2020-10-24T09:57:27Z</time>
      </trkpt>
      <trkpt lat="44.63006" lon="-1.00961">
        <ele>6.39</ele>
        <time>2020-10-24T09:57:28Z</time>
      </trkpt>
      <trkpt lat="44.63011" lon="-1.00955">
        <ele>6.39</ele>
        <time>2020-10-24T09:57:29Z</time>
      </trkpt>
      <trkpt lat="44.63015" lon="-1.00949">
        <ele>6.39</ele>
        <time>2020-10-24T09:57:30Z</time>
      </trkpt>
      <trkpt lat="44.63019" lon="-1.00943">
        <ele>6.39</ele>
        <time>2020-10-24T09:57:31Z</time>
      </trkpt>
      <trkpt lat="44.6304" lon="-1.00913">
        <ele>6.39</ele>
        <time>2020-10-24T09:57:36Z</time>
      </trkpt>
      <trkpt lat="44.63045" lon="-1.00909">
        <ele>6.39</ele>
        <time>2020-10-24T09:57:37Z</time>
      </trkpt>
      <trkpt lat="44.6305" lon="-1.00906">
        <ele>6.39</ele>
        <time>2020-10-24T09:57:38Z</time>
      </trkpt>
      <trkpt lat="44.63055" lon="-1.00901">
        <ele>6.39</ele>
        <time>2020-10-24T09:57:39Z</time>
      </trkpt>
      <trkpt lat="44.6306" lon="-1.00896">
        <ele>6.39</ele>
        <time>2020-10-24T09:57:40Z</time>
      </trkpt>
      <trkpt lat="44.63126" lon="-1.00833">
        <ele>6.39</ele>
        <time>2020-10-24T09:57:53Z</time>
      </trkpt>
      <trkpt lat="44.63137" lon="-1.00828">
        <ele>6.39</ele>
        <time>2020-10-24T09:57:55Z</time>
      </trkpt>
      <trkpt lat="44.63143" lon="-1.00826">
        <ele>6.39</ele>
        <time>2020-10-24T09:57:56Z</time>
      </trkpt>
      <trkpt lat="44.63171" lon="-1.00821">
        <ele>5.91</ele>
        <time>2020-10-24T09:58:01Z</time>
      </trkpt>
      <trkpt lat="44.63183" lon="-1.00822">
        <ele>5.91</ele>
        <time>2020-10-24T09:58:03Z</time>
      </trkpt>
      <trkpt lat="44.6323" lon="-1.00827">
        <ele>5.42</ele>
        <time>2020-10-24T09:58:11Z</time>
      </trkpt>
      <trkpt lat="44.63315" lon="-1.00872">
        <ele>5.42</ele>
        <time>2020-10-24T09:58:26Z</time>
      </trkpt>
      <trkpt lat="44.63319" lon="-1.00877">
        <ele>5.42</ele>
        <time>2020-10-24T09:58:27Z</time>
      </trkpt>
      <trkpt lat="44.63322" lon="-1.00884">
        <ele>5.42</ele>
        <time>2020-10-24T09:58:28Z</time>
      </trkpt>
      <trkpt lat="44.63323" lon="-1.00894">
        <ele>4.94</ele>
        <time>2020-10-24T09:58:29Z</time>
      </trkpt>
      <trkpt lat="44.63324" lon="-1.00902">
        <ele>4.94</ele>
        <time>2020-10-24T09:58:30Z</time>
      </trkpt>
      <trkpt lat="44.63325" lon="-1.00911">
        <ele>4.94</ele>
        <time>2020-10-24T09:58:31Z</time>
      </trkpt>
      <trkpt lat="44.63332" lon="-1.00957">
        <ele>4.46</ele>
        <time>2020-10-24T09:58:36Z</time>
      </trkpt>
      <trkpt lat="44.63334" lon="-1.00964">
        <ele>4.46</ele>
        <time>2020-10-24T09:58:37Z</time>
      </trkpt>
      <trkpt lat="44.63338" lon="-1.0097">
        <ele>4.46</ele>
        <time>2020-10-24T09:58:38Z</time>
      </trkpt>
      <trkpt lat="44.63342" lon="-1.00975">
        <ele>4.46</ele>
        <time>2020-10-24T09:58:39Z</time>
      </trkpt>
      <trkpt lat="44.63347" lon="-1.00979">
        <ele>4.46</ele>
        <time>2020-10-24T09:58:40Z</time>
      </trkpt>
      <trkpt lat="44.63361" lon="-1.0099">
        <ele>4.46</ele>
        <time>2020-10-24T09:58:43Z</time>
      </trkpt>
      <trkpt lat="44.63366" lon="-1.00994">
        <ele>4.46</ele>
        <time>2020-10-24T09:58:44Z</time>
      </trkpt>
      <trkpt lat="44.63395" lon="-1.01015">
        <ele>4.46</ele>
        <time>2020-10-24T09:58:50Z</time>
      </trkpt>
      <trkpt lat="44.63398" lon="-1.01022">
        <ele>4.46</ele>
        <time>2020-10-24T09:58:51Z</time>
      </trkpt>
      <trkpt lat="44.63399" lon="-1.01029">
        <ele>4.46</ele>
        <time>2020-10-24T09:58:52Z</time>
      </trkpt>
      <trkpt lat="44.63406" lon="-1.01086">
        <ele>4.46</ele>
        <time>2020-10-24T09:59:00Z</time>
      </trkpt>
      <trkpt lat="44.63407" lon="-1.01094">
        <ele>4.46</ele>
        <time>2020-10-24T09:59:01Z</time>
      </trkpt>
      <trkpt lat="44.63407" lon="-1.01101">
        <ele>4.46</ele>
        <time>2020-10-24T09:59:02Z</time>
      </trkpt>
      <trkpt lat="44.63416" lon="-1.01186">
        <ele>4.46</ele>
        <time>2020-10-24T09:59:13Z</time>
      </trkpt>
      <trkpt lat="44.63418" lon="-1.01222">
        <ele>4.46</ele>
        <time>2020-10-24T09:59:18Z</time>
      </trkpt>
      <trkpt lat="44.63422" lon="-1.01257">
        <ele>4.46</ele>
        <time>2020-10-24T09:59:23Z</time>
      </trkpt>
      <trkpt lat="44.63423" lon="-1.01264">
        <ele>4.46</ele>
        <time>2020-10-24T09:59:24Z</time>
      </trkpt>
      <trkpt lat="44.63427" lon="-1.01286">
        <ele>5.91</ele>
        <time>2020-10-24T09:59:27Z</time>
      </trkpt>
      <trkpt lat="44.63428" lon="-1.01293">
        <ele>5.91</ele>
        <time>2020-10-24T09:59:28Z</time>
      </trkpt>
      <trkpt lat="44.63431" lon="-1.01307">
        <ele>5.42</ele>
        <time>2020-10-24T09:59:30Z</time>
      </trkpt>
      <trkpt lat="44.63431" lon="-1.01313">
        <ele>5.42</ele>
        <time>2020-10-24T09:59:31Z</time>
      </trkpt>
      <trkpt lat="44.63433" lon="-1.01342">
        <ele>5.42</ele>
        <time>2020-10-24T09:59:35Z</time>
      </trkpt>
      <trkpt lat="44.63465" lon="-1.01446">
        <ele>5.42</ele>
        <time>2020-10-24T09:59:50Z</time>
      </trkpt>
      <trkpt lat="44.63474" lon="-1.0156">
        <ele>5.42</ele>
        <time>2020-10-24T10:00:07Z</time>
      </trkpt>
      <trkpt lat="44.63474" lon="-1.01567">
        <ele>5.42</ele>
        <time>2020-10-24T10:00:08Z</time>
      </trkpt>
      <trkpt lat="44.63472" lon="-1.0158">
        <ele>5.42</ele>
        <time>2020-10-24T10:00:10Z</time>
      </trkpt>
      <trkpt lat="44.63454" lon="-1.01659">
        <ele>6.39</ele>
        <time>2020-10-24T10:00:22Z</time>
      </trkpt>
      <trkpt lat="44.63442" lon="-1.01767">
        <ele>6.39</ele>
        <time>2020-10-24T10:00:38Z</time>
      </trkpt>
      <trkpt lat="44.63443" lon="-1.01772">
        <ele>6.39</ele>
        <time>2020-10-24T10:00:39Z</time>
      </trkpt>
      <trkpt lat="44.63447" lon="-1.01777">
        <ele>6.39</ele>
        <time>2020-10-24T10:00:40Z</time>
      </trkpt>
      <trkpt lat="44.63449" lon="-1.01779">
        <ele>6.39</ele>
        <time>2020-10-24T10:00:41Z</time>
      </trkpt>
      <trkpt lat="44.63452" lon="-1.01783">
        <ele>6.39</ele>
        <time>2020-10-24T10:00:42Z</time>
      </trkpt>
      <trkpt lat="44.63458" lon="-1.01786">
        <ele>6.39</ele>
        <time>2020-10-24T10:00:44Z</time>
      </trkpt>
      <trkpt lat="44.6346" lon="-1.01785">
        <ele>6.39</ele>
        <time>2020-10-24T10:00:45Z</time>
      </trkpt>
      <trkpt lat="44.63463" lon="-1.01783">
        <ele>6.39</ele>
        <time>2020-10-24T10:00:46Z</time>
      </trkpt>
      <trkpt lat="44.63466" lon="-1.01781">
        <ele>6.39</ele>
        <time>2020-10-24T10:00:47Z</time>
      </trkpt>
      <trkpt lat="44.63469" lon="-1.01778">
        <ele>6.39</ele>
        <time>2020-10-24T10:00:48Z</time>
      </trkpt>
      <trkpt lat="44.63472" lon="-1.01776">
        <ele>6.39</ele>
        <time>2020-10-24T10:00:49Z</time>
      </trkpt>
      <trkpt lat="44.63493" lon="-1.01767">
        <ele>6.39</ele>
        <time>2020-10-24T10:00:55Z</time>
      </trkpt>
      <trkpt lat="44.63495" lon="-1.0177">
        <ele>6.39</ele>
        <time>2020-10-24T10:00:56Z</time>
      </trkpt>
      <trkpt lat="44.63495" lon="-1.01774">
        <ele>6.39</ele>
        <time>2020-10-24T10:00:57Z</time>
      </trkpt>
      <trkpt lat="44.63496" lon="-1.01778">
        <ele>6.39</ele>
        <time>2020-10-24T10:00:58Z</time>
      </trkpt>
      <trkpt lat="44.63496" lon="-1.01783">
        <ele>6.39</ele>
        <time>2020-10-24T10:00:59Z</time>
      </trkpt>
      <trkpt lat="44.63497" lon="-1.01786">
        <ele>6.39</ele>
        <time>2020-10-24T10:01:00Z</time>
      </trkpt>
      <trkpt lat="44.63498" lon="-1.0179">
        <ele>6.39</ele>
        <time>2020-10-24T10:01:01Z</time>
      </trkpt>
      <trkpt lat="44.635" lon="-1.01793">
        <ele>6.39</ele>
        <time>2020-10-24T10:01:02Z</time>
      </trkpt>
      <trkpt lat="44.63503" lon="-1.01802">
        <ele>6.39</ele>
        <time>2020-10-24T10:01:11Z</time>
      </trkpt>
      <trkpt lat="44.63504" lon="-1.01803">
        <ele>6.39</ele>
        <time>2020-10-24T10:01:12Z</time>
      </trkpt>
      <trkpt lat="44.63517" lon="-1.01846">
        <ele>6.39</ele>
        <time>2020-10-24T10:01:25Z</time>
      </trkpt>
      <trkpt lat="44.63533" lon="-1.01912">
        <ele>6.39</ele>
        <time>2020-10-24T10:01:40Z</time>
      </trkpt>
      <trkpt lat="44.63548" lon="-1.01952">
        <ele>6.39</ele>
        <time>2020-10-24T10:01:51Z</time>
      </trkpt>
      <trkpt lat="44.63558" lon="-1.01983">
        <ele>6.39</ele>
        <time>2020-10-24T10:02:03Z</time>
      </trkpt>
      <trkpt lat="44.63566" lon="-1.01997">
        <ele>6.39</ele>
        <time>2020-10-24T10:02:14Z</time>
      </trkpt>
      <trkpt lat="44.63568" lon="-1.01997">
        <ele>6.39</ele>
        <time>2020-10-24T10:02:15Z</time>
      </trkpt>
      <trkpt lat="44.63569" lon="-1.01997">
        <ele>6.39</ele>
        <time>2020-10-24T10:02:16Z</time>
      </trkpt>
      <trkpt lat="44.63571" lon="-1.01997">
        <ele>6.39</ele>
        <time>2020-10-24T10:02:17Z</time>
      </trkpt>
      <trkpt lat="44.63573" lon="-1.01996">
        <ele>6.39</ele>
        <time>2020-10-24T10:02:18Z</time>
      </trkpt>
      <trkpt lat="44.63574" lon="-1.01995">
        <ele>6.39</ele>
        <time>2020-10-24T10:02:19Z</time>
      </trkpt>
      <trkpt lat="44.63575" lon="-1.01993">
        <ele>6.39</ele>
        <time>2020-10-24T10:02:20Z</time>
      </trkpt>
      <trkpt lat="44.63577" lon="-1.01992">
        <ele>6.39</ele>
        <time>2020-10-24T10:02:21Z</time>
      </trkpt>
      <trkpt lat="44.63578" lon="-1.01991">
        <ele>6.39</ele>
        <time>2020-10-24T10:02:22Z</time>
      </trkpt>
      <trkpt lat="44.6358" lon="-1.01991">
        <ele>6.39</ele>
        <time>2020-10-24T10:02:23Z</time>
      </trkpt>
      <trkpt lat="44.63581" lon="-1.01989">
        <ele>6.39</ele>
        <time>2020-10-24T10:02:24Z</time>
      </trkpt>
      <trkpt lat="44.63583" lon="-1.01988">
        <ele>6.39</ele>
        <time>2020-10-24T10:02:25Z</time>
      </trkpt>
      <trkpt lat="44.63614" lon="-1.01968">
        <ele>6.39</ele>
        <time>2020-10-24T10:02:39Z</time>
      </trkpt>
      <trkpt lat="44.63666" lon="-1.0193">
        <ele>6.39</ele>
        <time>2020-10-24T10:02:56Z</time>
      </trkpt>
      <trkpt lat="44.63694" lon="-1.0192">
        <ele>6.39</ele>
        <time>2020-10-24T10:03:07Z</time>
      </trkpt>
      <trkpt lat="44.63713" lon="-1.01956">
        <ele>5.42</ele>
        <time>2020-10-24T10:03:16Z</time>
      </trkpt>
      <trkpt lat="44.63718" lon="-1.01966">
        <ele>5.42</ele>
        <time>2020-10-24T10:03:18Z</time>
      </trkpt>
      <trkpt lat="44.63736" lon="-1.01986">
        <ele>5.42</ele>
        <time>2020-10-24T10:03:25Z</time>
      </trkpt>
      <trkpt lat="44.63762" lon="-1.01954">
        <ele>5.42</ele>
        <time>2020-10-24T10:03:35Z</time>
      </trkpt>
      <trkpt lat="44.63796" lon="-1.0191">
        <ele>5.42</ele>
        <time>2020-10-24T10:03:47Z</time>
      </trkpt>
      <trkpt lat="44.63868" lon="-1.01872">
        <ele>5.42</ele>
        <time>2020-10-24T10:04:04Z</time>
      </trkpt>
      <trkpt lat="44.63893" lon="-1.01857">
        <ele>4.46</ele>
        <time>2020-10-24T10:04:10Z</time>
      </trkpt>
      <trkpt lat="44.63927" lon="-1.01836">
        <ele>4.46</ele>
        <time>2020-10-24T10:04:21Z</time>
      </trkpt>
      <trkpt lat="44.63989" lon="-1.0186">
        <ele>4.46</ele>
        <time>2020-10-24T10:04:37Z</time>
      </trkpt>
      <trkpt lat="44.63991" lon="-1.01865">
        <ele>4.46</ele>
        <time>2020-10-24T10:04:38Z</time>
      </trkpt>
      <trkpt lat="44.63991" lon="-1.01869">
        <ele>4.46</ele>
        <time>2020-10-24T10:04:39Z</time>
      </trkpt>
      <trkpt lat="44.63992" lon="-1.01874">
        <ele>4.46</ele>
        <time>2020-10-24T10:04:40Z</time>
      </trkpt>
      <trkpt lat="44.63992" lon="-1.01879">
        <ele>4.46</ele>
        <time>2020-10-24T10:04:41Z</time>
      </trkpt>
      <trkpt lat="44.63993" lon="-1.01883">
        <ele>4.46</ele>
        <time>2020-10-24T10:04:42Z</time>
      </trkpt>
      <trkpt lat="44.63994" lon="-1.01887">
        <ele>4.46</ele>
        <time>2020-10-24T10:04:43Z</time>
      </trkpt>
      <trkpt lat="44.63997" lon="-1.01892">
        <ele>4.46</ele>
        <time>2020-10-24T10:04:44Z</time>
      </trkpt>
      <trkpt lat="44.64001" lon="-1.01905">
        <ele>4.46</ele>
        <time>2020-10-24T10:04:47Z</time>
      </trkpt>
      <trkpt lat="44.64002" lon="-1.01911">
        <ele>4.46</ele>
        <time>2020-10-24T10:04:48Z</time>
      </trkpt>
      <trkpt lat="44.64002" lon="-1.01916">
        <ele>4.46</ele>
        <time>2020-10-24T10:04:49Z</time>
      </trkpt>
      <trkpt lat="44.64002" lon="-1.01935">
        <ele>4.46</ele>
        <time>2020-10-24T10:04:52Z</time>
      </trkpt>
      <trkpt lat="44.64003" lon="-1.0194">
        <ele>3.98</ele>
        <time>2020-10-24T10:04:53Z</time>
      </trkpt>
      <trkpt lat="44.64013" lon="-1.0201">
        <ele>3.98</ele>
        <time>2020-10-24T10:05:08Z</time>
      </trkpt>
      <trkpt lat="44.64023" lon="-1.0204">
        <ele>3.98</ele>
        <time>2020-10-24T10:05:16Z</time>
      </trkpt>
      <trkpt lat="44.64036" lon="-1.02034">
        <ele>3.98</ele>
        <time>2020-10-24T10:05:20Z</time>
      </trkpt>
      <trkpt lat="44.64059" lon="-1.02019">
        <ele>3.98</ele>
        <time>2020-10-24T10:05:27Z</time>
      </trkpt>
      <trkpt lat="44.64073" lon="-1.02029">
        <ele>3.98</ele>
        <time>2020-10-24T10:05:35Z</time>
      </trkpt>
      <trkpt lat="44.64104" lon="-1.02018">
        <ele>3.98</ele>
        <time>2020-10-24T10:05:47Z</time>
      </trkpt>
      <trkpt lat="44.64146" lon="-1.01996">
        <ele>3.98</ele>
        <time>2020-10-24T10:05:59Z</time>
      </trkpt>
      <trkpt lat="44.64168" lon="-1.01987">
        <ele>3.98</ele>
        <time>2020-10-24T10:06:05Z</time>
      </trkpt>
      <trkpt lat="44.6417" lon="-1.01989">
        <ele>3.98</ele>
        <time>2020-10-24T10:06:06Z</time>
      </trkpt>
      <trkpt lat="44.64172" lon="-1.01993">
        <ele>3.98</ele>
        <time>2020-10-24T10:06:07Z</time>
      </trkpt>
      <trkpt lat="44.64173" lon="-1.01997">
        <ele>3.98</ele>
        <time>2020-10-24T10:06:08Z</time>
      </trkpt>
      <trkpt lat="44.64174" lon="-1.02001">
        <ele>3.98</ele>
        <time>2020-10-24T10:06:09Z</time>
      </trkpt>
      <trkpt lat="44.64175" lon="-1.02006">
        <ele>3.98</ele>
        <time>2020-10-24T10:06:10Z</time>
      </trkpt>
      <trkpt lat="44.64189" lon="-1.02075">
        <ele>3.98</ele>
        <time>2020-10-24T10:06:25Z</time>
      </trkpt>
      <trkpt lat="44.64197" lon="-1.0213">
        <ele>3.98</ele>
        <time>2020-10-24T10:06:36Z</time>
      </trkpt>
      <trkpt lat="44.64204" lon="-1.02166">
        <ele>5.42</ele>
        <time>2020-10-24T10:06:48Z</time>
      </trkpt>
      <trkpt lat="44.64206" lon="-1.02175">
        <ele>4.94</ele>
        <time>2020-10-24T10:06:54Z</time>
      </trkpt>
      <trkpt lat="44.6421" lon="-1.02177">
        <ele>4.94</ele>
        <time>2020-10-24T10:06:57Z</time>
      </trkpt>
      <trkpt lat="44.6421" lon="-1.02184">
        <ele>4.94</ele>
        <time>2020-10-24T10:07:00Z</time>
      </trkpt>
      <trkpt lat="44.64211" lon="-1.02188">
        <ele>4.94</ele>
        <time>2020-10-24T10:07:01Z</time>
      </trkpt>
      <trkpt lat="44.64212" lon="-1.02191">
        <ele>4.94</ele>
        <time>2020-10-24T10:07:02Z</time>
      </trkpt>
      <trkpt lat="44.64242" lon="-1.0222">
        <ele>5.42</ele>
        <time>2020-10-24T10:07:14Z</time>
      </trkpt>
      <trkpt lat="44.64283" lon="-1.02253">
        <ele>5.42</ele>
        <time>2020-10-24T10:07:26Z</time>
      </trkpt>
      <trkpt lat="44.64287" lon="-1.02255">
        <ele>5.42</ele>
        <time>2020-10-24T10:07:27Z</time>
      </trkpt>
      <trkpt lat="44.64291" lon="-1.02256">
        <ele>5.42</ele>
        <time>2020-10-24T10:07:28Z</time>
      </trkpt>
      <trkpt lat="44.64303" lon="-1.02259">
        <ele>5.42</ele>
        <time>2020-10-24T10:07:31Z</time>
      </trkpt>
      <trkpt lat="44.64307" lon="-1.02258">
        <ele>5.42</ele>
        <time>2020-10-24T10:07:32Z</time>
      </trkpt>
      <trkpt lat="44.64311" lon="-1.02257">
        <ele>5.42</ele>
        <time>2020-10-24T10:07:33Z</time>
      </trkpt>
      <trkpt lat="44.64315" lon="-1.02256">
        <ele>5.42</ele>
        <time>2020-10-24T10:07:34Z</time>
      </trkpt>
      <trkpt lat="44.64318" lon="-1.02253">
        <ele>5.42</ele>
        <time>2020-10-24T10:07:35Z</time>
      </trkpt>
      <trkpt lat="44.64322" lon="-1.0225">
        <ele>5.42</ele>
        <time>2020-10-24T10:07:36Z</time>
      </trkpt>
      <trkpt lat="44.64325" lon="-1.02247">
        <ele>5.42</ele>
        <time>2020-10-24T10:07:37Z</time>
      </trkpt>
      <trkpt lat="44.64328" lon="-1.02242">
        <ele>5.42</ele>
        <time>2020-10-24T10:07:38Z</time>
      </trkpt>
      <trkpt lat="44.64334" lon="-1.02234">
        <ele>5.42</ele>
        <time>2020-10-24T10:07:40Z</time>
      </trkpt>
      <trkpt lat="44.64337" lon="-1.0223">
        <ele>5.42</ele>
        <time>2020-10-24T10:07:41Z</time>
      </trkpt>
      <trkpt lat="44.6434" lon="-1.02225">
        <ele>5.42</ele>
        <time>2020-10-24T10:07:42Z</time>
      </trkpt>
      <trkpt lat="44.64364" lon="-1.02194">
        <ele>5.42</ele>
        <time>2020-10-24T10:07:50Z</time>
      </trkpt>
      <trkpt lat="44.64367" lon="-1.02191">
        <ele>5.42</ele>
        <time>2020-10-24T10:07:51Z</time>
      </trkpt>
      <trkpt lat="44.64371" lon="-1.02188">
        <ele>5.42</ele>
        <time>2020-10-24T10:07:52Z</time>
      </trkpt>
      <trkpt lat="44.64388" lon="-1.02182">
        <ele>5.42</ele>
        <time>2020-10-24T10:07:56Z</time>
      </trkpt>
      <trkpt lat="44.64392" lon="-1.02181">
        <ele>4.46</ele>
        <time>2020-10-24T10:07:57Z</time>
      </trkpt>
      <trkpt lat="44.64396" lon="-1.02182">
        <ele>4.46</ele>
        <time>2020-10-24T10:07:58Z</time>
      </trkpt>
      <trkpt lat="44.644" lon="-1.02183">
        <ele>4.46</ele>
        <time>2020-10-24T10:07:59Z</time>
      </trkpt>
      <trkpt lat="44.64404" lon="-1.02185">
        <ele>4.46</ele>
        <time>2020-10-24T10:08:00Z</time>
      </trkpt>
      <trkpt lat="44.64407" lon="-1.02188">
        <ele>4.46</ele>
        <time>2020-10-24T10:08:01Z</time>
      </trkpt>
      <trkpt lat="44.64411" lon="-1.02192">
        <ele>4.46</ele>
        <time>2020-10-24T10:08:02Z</time>
      </trkpt>
      <trkpt lat="44.64414" lon="-1.02196">
        <ele>4.46</ele>
        <time>2020-10-24T10:08:03Z</time>
      </trkpt>
      <trkpt lat="44.64416" lon="-1.02201">
        <ele>4.46</ele>
        <time>2020-10-24T10:08:04Z</time>
      </trkpt>
      <trkpt lat="44.64419" lon="-1.02206">
        <ele>4.46</ele>
        <time>2020-10-24T10:08:05Z</time>
      </trkpt>
      <trkpt lat="44.64421" lon="-1.02211">
        <ele>4.46</ele>
        <time>2020-10-24T10:08:06Z</time>
      </trkpt>
      <trkpt lat="44.64422" lon="-1.02216">
        <ele>4.46</ele>
        <time>2020-10-24T10:08:07Z</time>
      </trkpt>
      <trkpt lat="44.64424" lon="-1.02222">
        <ele>4.46</ele>
        <time>2020-10-24T10:08:08Z</time>
      </trkpt>
      <trkpt lat="44.64425" lon="-1.02228">
        <ele>4.46</ele>
        <time>2020-10-24T10:08:09Z</time>
      </trkpt>
      <trkpt lat="44.64426" lon="-1.02252">
        <ele>4.46</ele>
        <time>2020-10-24T10:08:13Z</time>
      </trkpt>
      <trkpt lat="44.64425" lon="-1.02264">
        <ele>4.46</ele>
        <time>2020-10-24T10:08:15Z</time>
      </trkpt>
      <trkpt lat="44.64402" lon="-1.02363">
        <ele>4.46</ele>
        <time>2020-10-24T10:08:33Z</time>
      </trkpt>
      <trkpt lat="44.64399" lon="-1.02375">
        <ele>4.46</ele>
        <time>2020-10-24T10:08:35Z</time>
      </trkpt>
      <trkpt lat="44.64372" lon="-1.02483">
        <ele>3.98</ele>
        <time>2020-10-24T10:08:53Z</time>
      </trkpt>
      <trkpt lat="44.64357" lon="-1.02544">
        <ele>3.98</ele>
        <time>2020-10-24T10:09:03Z</time>
      </trkpt>
      <trkpt lat="44.64356" lon="-1.0255">
        <ele>3.98</ele>
        <time>2020-10-24T10:09:04Z</time>
      </trkpt>
      <trkpt lat="44.64356" lon="-1.02562">
        <ele>3.98</ele>
        <time>2020-10-24T10:09:06Z</time>
      </trkpt>
      <trkpt lat="44.64356" lon="-1.02568">
        <ele>3.98</ele>
        <time>2020-10-24T10:09:07Z</time>
      </trkpt>
      <trkpt lat="44.64357" lon="-1.02574">
        <ele>3.98</ele>
        <time>2020-10-24T10:09:08Z</time>
      </trkpt>
      <trkpt lat="44.64369" lon="-1.02611">
        <ele>3.98</ele>
        <time>2020-10-24T10:09:15Z</time>
      </trkpt>
      <trkpt lat="44.64371" lon="-1.02616">
        <ele>3.98</ele>
        <time>2020-10-24T10:09:16Z</time>
      </trkpt>
      <trkpt lat="44.64375" lon="-1.02628">
        <ele>3.98</ele>
        <time>2020-10-24T10:09:18Z</time>
      </trkpt>
      <trkpt lat="44.64377" lon="-1.02633">
        <ele>3.98</ele>
        <time>2020-10-24T10:09:19Z</time>
      </trkpt>
      <trkpt lat="44.64379" lon="-1.02638">
        <ele>3.98</ele>
        <time>2020-10-24T10:09:20Z</time>
      </trkpt>
      <trkpt lat="44.64383" lon="-1.02648">
        <ele>3.98</ele>
        <time>2020-10-24T10:09:22Z</time>
      </trkpt>
      <trkpt lat="44.64386" lon="-1.02653">
        <ele>3.98</ele>
        <time>2020-10-24T10:09:23Z</time>
      </trkpt>
      <trkpt lat="44.6442" lon="-1.02695">
        <ele>3.98</ele>
        <time>2020-10-24T10:09:36Z</time>
      </trkpt>
      <trkpt lat="44.6444" lon="-1.02715">
        <ele>3.98</ele>
        <time>2020-10-24T10:09:46Z</time>
      </trkpt>
      <trkpt lat="44.64468" lon="-1.02741">
        <ele>3.98</ele>
        <time>2020-10-24T10:09:58Z</time>
      </trkpt>
      <trkpt lat="44.64503" lon="-1.02766">
        <ele>3.98</ele>
        <time>2020-10-24T10:10:11Z</time>
      </trkpt>
      <trkpt lat="44.64539" lon="-1.02784">
        <ele>3.98</ele>
        <time>2020-10-24T10:10:22Z</time>
      </trkpt>
      <trkpt lat="44.64553" lon="-1.0279">
        <ele>3.98</ele>
        <time>2020-10-24T10:10:27Z</time>
      </trkpt>
      <trkpt lat="44.64556" lon="-1.02791">
        <ele>3.98</ele>
        <time>2020-10-24T10:10:28Z</time>
      </trkpt>
      <trkpt lat="44.6456" lon="-1.02791">
        <ele>3.98</ele>
        <time>2020-10-24T10:10:29Z</time>
      </trkpt>
      <trkpt lat="44.64563" lon="-1.02792">
        <ele>3.98</ele>
        <time>2020-10-24T10:10:30Z</time>
      </trkpt>
      <trkpt lat="44.64566" lon="-1.02793">
        <ele>3.98</ele>
        <time>2020-10-24T10:10:31Z</time>
      </trkpt>
      <trkpt lat="44.64576" lon="-1.02793">
        <ele>3.98</ele>
        <time>2020-10-24T10:10:34Z</time>
      </trkpt>
      <trkpt lat="44.64608" lon="-1.02802">
        <ele>3.98</ele>
        <time>2020-10-24T10:10:46Z</time>
      </trkpt>
      <trkpt lat="44.64641" lon="-1.0281">
        <ele>3.98</ele>
        <time>2020-10-24T10:10:58Z</time>
      </trkpt>
      <trkpt lat="44.64676" lon="-1.02822">
        <ele>3.98</ele>
        <time>2020-10-24T10:11:10Z</time>
      </trkpt>
      <trkpt lat="44.64726" lon="-1.02846">
        <ele>3.98</ele>
        <time>2020-10-24T10:11:26Z</time>
      </trkpt>
      <trkpt lat="44.64727" lon="-1.02851">
        <ele>3.98</ele>
        <time>2020-10-24T10:11:27Z</time>
      </trkpt>
      <trkpt lat="44.64728" lon="-1.02856">
        <ele>3.98</ele>
        <time>2020-10-24T10:11:28Z</time>
      </trkpt>
      <trkpt lat="44.64751" lon="-1.02878">
        <ele>3.98</ele>
        <time>2020-10-24T10:11:38Z</time>
      </trkpt>
      <trkpt lat="44.64787" lon="-1.02879">
        <ele>4.94</ele>
        <time>2020-10-24T10:11:51Z</time>
      </trkpt>
      <trkpt lat="44.64793" lon="-1.0292">
        <ele>4.94</ele>
        <time>2020-10-24T10:12:03Z</time>
      </trkpt>
      <trkpt lat="44.64798" lon="-1.02979">
        <ele>5.42</ele>
        <time>2020-10-24T10:12:16Z</time>
      </trkpt>
      <trkpt lat="44.64808" lon="-1.03047">
        <ele>5.42</ele>
        <time>2020-10-24T10:12:30Z</time>
      </trkpt>
      <trkpt lat="44.64816" lon="-1.03105">
        <ele>5.42</ele>
        <time>2020-10-24T10:12:44Z</time>
      </trkpt>
      <trkpt lat="44.64822" lon="-1.03159">
        <ele>5.42</ele>
        <time>2020-10-24T10:12:58Z</time>
      </trkpt>
      <trkpt lat="44.64832" lon="-1.0324">
        <ele>5.42</ele>
        <time>2020-10-24T10:13:17Z</time>
      </trkpt>
      <trkpt lat="44.64841" lon="-1.03307">
        <ele>4.94</ele>
        <time>2020-10-24T10:13:35Z</time>
      </trkpt>
      <trkpt lat="44.6485" lon="-1.03371">
        <ele>4.94</ele>
        <time>2020-10-24T10:13:52Z</time>
      </trkpt>
      <trkpt lat="44.64858" lon="-1.03431">
        <ele>4.94</ele>
        <time>2020-10-24T10:14:06Z</time>
      </trkpt>
      <trkpt lat="44.64869" lon="-1.03506">
        <ele>4.94</ele>
        <time>2020-10-24T10:14:22Z</time>
      </trkpt>
      <trkpt lat="44.64875" lon="-1.03561">
        <ele>4.94</ele>
        <time>2020-10-24T10:14:36Z</time>
      </trkpt>
      <trkpt lat="44.64892" lon="-1.03608">
        <ele>4.94</ele>
        <time>2020-10-24T10:14:49Z</time>
      </trkpt>
      <trkpt lat="44.64929" lon="-1.0365">
        <ele>4.94</ele>
        <time>2020-10-24T10:15:05Z</time>
      </trkpt>
      <trkpt lat="44.64956" lon="-1.03679">
        <ele>4.94</ele>
        <time>2020-10-24T10:15:17Z</time>
      </trkpt>
      <trkpt lat="44.64984" lon="-1.037">
        <ele>4.94</ele>
        <time>2020-10-24T10:15:30Z</time>
      </trkpt>
      <trkpt lat="44.65016" lon="-1.03706">
        <ele>4.94</ele>
        <time>2020-10-24T10:15:42Z</time>
      </trkpt>
      <trkpt lat="44.65061" lon="-1.03717">
        <ele>4.94</ele>
        <time>2020-10-24T10:15:58Z</time>
      </trkpt>
      <trkpt lat="44.65092" lon="-1.03721">
        <ele>4.94</ele>
        <time>2020-10-24T10:16:10Z</time>
      </trkpt>
      <trkpt lat="44.65125" lon="-1.03731">
        <ele>4.94</ele>
        <time>2020-10-24T10:16:23Z</time>
      </trkpt>
      <trkpt lat="44.65165" lon="-1.0374">
        <ele>4.94</ele>
        <time>2020-10-24T10:16:34Z</time>
      </trkpt>
      <trkpt lat="44.65202" lon="-1.03734">
        <ele>4.94</ele>
        <time>2020-10-24T10:16:44Z</time>
      </trkpt>
      <trkpt lat="44.65206" lon="-1.03734">
        <ele>4.94</ele>
        <time>2020-10-24T10:16:45Z</time>
      </trkpt>
      <trkpt lat="44.6521" lon="-1.03734">
        <ele>4.94</ele>
        <time>2020-10-24T10:16:46Z</time>
      </trkpt>
      <trkpt lat="44.65214" lon="-1.03735">
        <ele>4.94</ele>
        <time>2020-10-24T10:16:47Z</time>
      </trkpt>
      <trkpt lat="44.65217" lon="-1.03737">
        <ele>4.94</ele>
        <time>2020-10-24T10:16:48Z</time>
      </trkpt>
      <trkpt lat="44.65221" lon="-1.0374">
        <ele>4.94</ele>
        <time>2020-10-24T10:16:49Z</time>
      </trkpt>
      <trkpt lat="44.65224" lon="-1.03743">
        <ele>4.94</ele>
        <time>2020-10-24T10:16:50Z</time>
      </trkpt>
      <trkpt lat="44.6525" lon="-1.03772">
        <ele>4.94</ele>
        <time>2020-10-24T10:17:01Z</time>
      </trkpt>
      <trkpt lat="44.65274" lon="-1.03803">
        <ele>4.94</ele>
        <time>2020-10-24T10:17:12Z</time>
      </trkpt>
      <trkpt lat="44.65299" lon="-1.03832">
        <ele>4.94</ele>
        <time>2020-10-24T10:17:22Z</time>
      </trkpt>
      <trkpt lat="44.65346" lon="-1.03886">
        <ele>4.94</ele>
        <time>2020-10-24T10:17:39Z</time>
      </trkpt>
      <trkpt lat="44.65374" lon="-1.03929">
        <ele>4.94</ele>
        <time>2020-10-24T10:17:50Z</time>
      </trkpt>
      <trkpt lat="44.65373" lon="-1.03934">
        <ele>4.94</ele>
        <time>2020-10-24T10:17:51Z</time>
      </trkpt>
      <trkpt lat="44.65372" lon="-1.03938">
        <ele>4.94</ele>
        <time>2020-10-24T10:17:52Z</time>
      </trkpt>
      <trkpt lat="44.6537" lon="-1.03942">
        <ele>4.46</ele>
        <time>2020-10-24T10:17:53Z</time>
      </trkpt>
      <trkpt lat="44.65368" lon="-1.03945">
        <ele>4.46</ele>
        <time>2020-10-24T10:17:54Z</time>
      </trkpt>
      <trkpt lat="44.65365" lon="-1.03949">
        <ele>4.46</ele>
        <time>2020-10-24T10:17:55Z</time>
      </trkpt>
      <trkpt lat="44.65314" lon="-1.04013">
        <ele>4.46</ele>
        <time>2020-10-24T10:18:14Z</time>
      </trkpt>
      <trkpt lat="44.65284" lon="-1.0408">
        <ele>4.46</ele>
        <time>2020-10-24T10:18:30Z</time>
      </trkpt>
      <trkpt lat="44.65265" lon="-1.04151">
        <ele>4.94</ele>
        <time>2020-10-24T10:18:46Z</time>
      </trkpt>
      <trkpt lat="44.65248" lon="-1.04184">
        <ele>4.94</ele>
        <time>2020-10-24T10:18:55Z</time>
      </trkpt>
      <trkpt lat="44.65245" lon="-1.04184">
        <ele>4.94</ele>
        <time>2020-10-24T10:18:56Z</time>
      </trkpt>
      <trkpt lat="44.65243" lon="-1.04183">
        <ele>4.94</ele>
        <time>2020-10-24T10:18:57Z</time>
      </trkpt>
      <trkpt lat="44.65239" lon="-1.04181">
        <ele>4.94</ele>
        <time>2020-10-24T10:18:58Z</time>
      </trkpt>
      <trkpt lat="44.65237" lon="-1.0418">
        <ele>4.94</ele>
        <time>2020-10-24T10:18:59Z</time>
      </trkpt>
      <trkpt lat="44.65231" lon="-1.04178">
        <ele>4.94</ele>
        <time>2020-10-24T10:19:07Z</time>
      </trkpt>
      <trkpt lat="44.65231" lon="-1.04178">
        <ele>5.91</ele>
        <time>2020-10-24T10:19:28Z</time>
      </trkpt>
      <trkpt lat="44.65231" lon="-1.04179">
        <ele>5.91</ele>
        <time>2020-10-24T10:19:48Z</time>
      </trkpt>
      <trkpt lat="44.65232" lon="-1.0418">
        <ele>3.98</ele>
        <time>2020-10-24T10:20:10Z</time>
      </trkpt>
      <trkpt lat="44.65231" lon="-1.04179">
        <ele>3.98</ele>
        <time>2020-10-24T10:20:33Z</time>
      </trkpt>
      <trkpt lat="44.65231" lon="-1.04181">
        <ele>3.98</ele>
        <time>2020-10-24T10:21:04Z</time>
      </trkpt>
      <trkpt lat="44.65232" lon="-1.0418">
        <ele>3.98</ele>
        <time>2020-10-24T10:21:25Z</time>
      </trkpt>
      <trkpt lat="44.65233" lon="-1.04179">
        <ele>3.98</ele>
        <time>2020-10-24T10:21:53Z</time>
      </trkpt>
      <trkpt lat="44.65231" lon="-1.04178">
        <ele>3.98</ele>
        <time>2020-10-24T10:22:15Z</time>
      </trkpt>
      <trkpt lat="44.65225" lon="-1.04174">
        <ele>3.98</ele>
        <time>2020-10-24T10:22:26Z</time>
      </trkpt>
      <trkpt lat="44.65219" lon="-1.04172">
        <ele>3.5</ele>
        <time>2020-10-24T10:22:36Z</time>
      </trkpt>
      <trkpt lat="44.65218" lon="-1.04172">
        <ele>5.42</ele>
        <time>2020-10-24T10:22:37Z</time>
      </trkpt>
      <trkpt lat="44.65217" lon="-1.04171">
        <ele>5.42</ele>
        <time>2020-10-24T10:22:38Z</time>
      </trkpt>
      <trkpt lat="44.65174" lon="-1.0415">
        <ele>5.42</ele>
        <time>2020-10-24T10:22:52Z</time>
      </trkpt>
      <trkpt lat="44.65133" lon="-1.0413">
        <ele>3.98</ele>
        <time>2020-10-24T10:23:05Z</time>
      </trkpt>
      <trkpt lat="44.65104" lon="-1.04115">
        <ele>5.42</ele>
        <time>2020-10-24T10:23:12Z</time>
      </trkpt>
      <trkpt lat="44.651" lon="-1.04113">
        <ele>3.5</ele>
        <time>2020-10-24T10:23:13Z</time>
      </trkpt>
      <trkpt lat="44.65095" lon="-1.04111">
        <ele>2.54</ele>
        <time>2020-10-24T10:23:14Z</time>
      </trkpt>
      <trkpt lat="44.65082" lon="-1.04107">
        <ele>3.98</ele>
        <time>2020-10-24T10:23:16Z</time>
      </trkpt>
      <trkpt lat="44.65077" lon="-1.04105">
        <ele>3.98</ele>
        <time>2020-10-24T10:23:17Z</time>
      </trkpt>
      <trkpt lat="44.65051" lon="-1.04088">
        <ele>3.98</ele>
        <time>2020-10-24T10:23:25Z</time>
      </trkpt>
      <trkpt lat="44.65046" lon="-1.04089">
        <ele>3.98</ele>
        <time>2020-10-24T10:23:26Z</time>
      </trkpt>
      <trkpt lat="44.65042" lon="-1.04091">
        <ele>3.98</ele>
        <time>2020-10-24T10:23:27Z</time>
      </trkpt>
      <trkpt lat="44.6504" lon="-1.04096">
        <ele>3.98</ele>
        <time>2020-10-24T10:23:28Z</time>
      </trkpt>
      <trkpt lat="44.65038" lon="-1.04101">
        <ele>2.54</ele>
        <time>2020-10-24T10:23:29Z</time>
      </trkpt>
      <trkpt lat="44.65037" lon="-1.04107">
        <ele>2.54</ele>
        <time>2020-10-24T10:23:30Z</time>
      </trkpt>
      <trkpt lat="44.65037" lon="-1.04112">
        <ele>2.54</ele>
        <time>2020-10-24T10:23:31Z</time>
      </trkpt>
      <trkpt lat="44.65036" lon="-1.04118">
        <ele>2.54</ele>
        <time>2020-10-24T10:23:32Z</time>
      </trkpt>
      <trkpt lat="44.65035" lon="-1.0417">
        <ele>2.54</ele>
        <time>2020-10-24T10:23:41Z</time>
      </trkpt>
      <trkpt lat="44.6506" lon="-1.0424">
        <ele>3.98</ele>
        <time>2020-10-24T10:23:55Z</time>
      </trkpt>
      <trkpt lat="44.65061" lon="-1.04245">
        <ele>3.98</ele>
        <time>2020-10-24T10:23:56Z</time>
      </trkpt>
      <trkpt lat="44.65061" lon="-1.04251">
        <ele>3.98</ele>
        <time>2020-10-24T10:23:57Z</time>
      </trkpt>
      <trkpt lat="44.65059" lon="-1.04256">
        <ele>3.98</ele>
        <time>2020-10-24T10:23:58Z</time>
      </trkpt>
      <trkpt lat="44.65057" lon="-1.04261">
        <ele>3.98</ele>
        <time>2020-10-24T10:23:59Z</time>
      </trkpt>
      <trkpt lat="44.65054" lon="-1.04266">
        <ele>3.98</ele>
        <time>2020-10-24T10:24:00Z</time>
      </trkpt>
      <trkpt lat="44.65052" lon="-1.04269">
        <ele>3.98</ele>
        <time>2020-10-24T10:24:01Z</time>
      </trkpt>
      <trkpt lat="44.65005" lon="-1.04339">
        <ele>3.98</ele>
        <time>2020-10-24T10:24:18Z</time>
      </trkpt>
      <trkpt lat="44.64978" lon="-1.04382">
        <ele>3.98</ele>
        <time>2020-10-24T10:24:28Z</time>
      </trkpt>
      <trkpt lat="44.64975" lon="-1.04386">
        <ele>3.98</ele>
        <time>2020-10-24T10:24:29Z</time>
      </trkpt>
      <trkpt lat="44.64971" lon="-1.04388">
        <ele>3.98</ele>
        <time>2020-10-24T10:24:30Z</time>
      </trkpt>
      <trkpt lat="44.64967" lon="-1.04388">
        <ele>3.98</ele>
        <time>2020-10-24T10:24:31Z</time>
      </trkpt>
      <trkpt lat="44.64963" lon="-1.04386">
        <ele>3.98</ele>
        <time>2020-10-24T10:24:32Z</time>
      </trkpt>
      <trkpt lat="44.6496" lon="-1.04383">
        <ele>3.98</ele>
        <time>2020-10-24T10:24:33Z</time>
      </trkpt>
      <trkpt lat="44.64957" lon="-1.04379">
        <ele>3.98</ele>
        <time>2020-10-24T10:24:34Z</time>
      </trkpt>
      <trkpt lat="44.64954" lon="-1.04374">
        <ele>3.98</ele>
        <time>2020-10-24T10:24:35Z</time>
      </trkpt>
      <trkpt lat="44.64951" lon="-1.04369">
        <ele>3.98</ele>
        <time>2020-10-24T10:24:36Z</time>
      </trkpt>
      <trkpt lat="44.64922" lon="-1.04334">
        <ele>3.98</ele>
        <time>2020-10-24T10:24:45Z</time>
      </trkpt>
      <trkpt lat="44.64919" lon="-1.04336">
        <ele>3.98</ele>
        <time>2020-10-24T10:24:46Z</time>
      </trkpt>
      <trkpt lat="44.64915" lon="-1.0434">
        <ele>3.98</ele>
        <time>2020-10-24T10:24:47Z</time>
      </trkpt>
      <trkpt lat="44.64912" lon="-1.04345">
        <ele>3.98</ele>
        <time>2020-10-24T10:24:48Z</time>
      </trkpt>
      <trkpt lat="44.64911" lon="-1.0435">
        <ele>3.98</ele>
        <time>2020-10-24T10:24:49Z</time>
      </trkpt>
      <trkpt lat="44.64874" lon="-1.04423">
        <ele>3.98</ele>
        <time>2020-10-24T10:25:05Z</time>
      </trkpt>
      <trkpt lat="44.64871" lon="-1.04431">
        <ele>3.98</ele>
        <time>2020-10-24T10:25:13Z</time>
      </trkpt>
      <trkpt lat="44.6487" lon="-1.04431">
        <ele>4.46</ele>
        <time>2020-10-24T10:25:32Z</time>
      </trkpt>
      <trkpt lat="44.64868" lon="-1.04433">
        <ele>4.46</ele>
        <time>2020-10-24T10:25:33Z</time>
      </trkpt>
      <trkpt lat="44.64867" lon="-1.04435">
        <ele>4.46</ele>
        <time>2020-10-24T10:25:34Z</time>
      </trkpt>
      <trkpt lat="44.64865" lon="-1.04438">
        <ele>4.46</ele>
        <time>2020-10-24T10:25:35Z</time>
      </trkpt>
      <trkpt lat="44.64864" lon="-1.04441">
        <ele>4.46</ele>
        <time>2020-10-24T10:25:36Z</time>
      </trkpt>
      <trkpt lat="44.64835" lon="-1.04444">
        <ele>4.46</ele>
        <time>2020-10-24T10:25:45Z</time>
      </trkpt>
      <trkpt lat="44.64819" lon="-1.04428">
        <ele>3.02</ele>
        <time>2020-10-24T10:25:50Z</time>
      </trkpt>
      <trkpt lat="44.64816" lon="-1.04425">
        <ele>3.02</ele>
        <time>2020-10-24T10:25:51Z</time>
      </trkpt>
      <trkpt lat="44.64812" lon="-1.04423">
        <ele>3.02</ele>
        <time>2020-10-24T10:25:52Z</time>
      </trkpt>
      <trkpt lat="44.64808" lon="-1.0442">
        <ele>3.02</ele>
        <time>2020-10-24T10:25:53Z</time>
      </trkpt>
      <trkpt lat="44.64805" lon="-1.04417">
        <ele>2.54</ele>
        <time>2020-10-24T10:25:54Z</time>
      </trkpt>
      <trkpt lat="44.64801" lon="-1.04414">
        <ele>2.54</ele>
        <time>2020-10-24T10:25:55Z</time>
      </trkpt>
      <trkpt lat="44.64798" lon="-1.04411">
        <ele>2.54</ele>
        <time>2020-10-24T10:25:56Z</time>
      </trkpt>
      <trkpt lat="44.64794" lon="-1.04409">
        <ele>2.54</ele>
        <time>2020-10-24T10:25:57Z</time>
      </trkpt>
      <trkpt lat="44.64783" lon="-1.04411">
        <ele>2.54</ele>
        <time>2020-10-24T10:26:00Z</time>
      </trkpt>
      <trkpt lat="44.64782" lon="-1.04414">
        <ele>2.54</ele>
        <time>2020-10-24T10:26:01Z</time>
      </trkpt>
      <trkpt lat="44.64782" lon="-1.04417">
        <ele>2.54</ele>
        <time>2020-10-24T10:26:02Z</time>
      </trkpt>
      <trkpt lat="44.64781" lon="-1.04421">
        <ele>2.54</ele>
        <time>2020-10-24T10:26:03Z</time>
      </trkpt>
      <trkpt lat="44.64781" lon="-1.04426">
        <ele>2.54</ele>
        <time>2020-10-24T10:26:04Z</time>
      </trkpt>
      <trkpt lat="44.6478" lon="-1.04431">
        <ele>2.54</ele>
        <time>2020-10-24T10:26:05Z</time>
      </trkpt>
      <trkpt lat="44.6478" lon="-1.04436">
        <ele>2.54</ele>
        <time>2020-10-24T10:26:06Z</time>
      </trkpt>
      <trkpt lat="44.64782" lon="-1.04502">
        <ele>2.54</ele>
        <time>2020-10-24T10:26:20Z</time>
      </trkpt>
      <trkpt lat="44.64794" lon="-1.04537">
        <ele>2.54</ele>
        <time>2020-10-24T10:26:29Z</time>
      </trkpt>
      <trkpt lat="44.64817" lon="-1.04573">
        <ele>2.54</ele>
        <time>2020-10-24T10:26:41Z</time>
      </trkpt>
      <trkpt lat="44.64841" lon="-1.04638">
        <ele>2.54</ele>
        <time>2020-10-24T10:26:57Z</time>
      </trkpt>
      <trkpt lat="44.64854" lon="-1.04677">
        <ele>2.54</ele>
        <time>2020-10-24T10:27:06Z</time>
      </trkpt>
      <trkpt lat="44.64853" lon="-1.04681">
        <ele>2.54</ele>
        <time>2020-10-24T10:27:07Z</time>
      </trkpt>
      <trkpt lat="44.6485" lon="-1.04683">
        <ele>2.54</ele>
        <time>2020-10-24T10:27:08Z</time>
      </trkpt>
      <trkpt lat="44.64847" lon="-1.04684">
        <ele>2.54</ele>
        <time>2020-10-24T10:27:09Z</time>
      </trkpt>
      <trkpt lat="44.64844" lon="-1.04685">
        <ele>2.54</ele>
        <time>2020-10-24T10:27:10Z</time>
      </trkpt>
      <trkpt lat="44.6484" lon="-1.04685">
        <ele>2.54</ele>
        <time>2020-10-24T10:27:11Z</time>
      </trkpt>
      <trkpt lat="44.6483" lon="-1.04692">
        <ele>2.54</ele>
        <time>2020-10-24T10:27:14Z</time>
      </trkpt>
      <trkpt lat="44.64828" lon="-1.04697">
        <ele>2.54</ele>
        <time>2020-10-24T10:27:15Z</time>
      </trkpt>
      <trkpt lat="44.64828" lon="-1.04702">
        <ele>2.54</ele>
        <time>2020-10-24T10:27:16Z</time>
      </trkpt>
      <trkpt lat="44.64827" lon="-1.04706">
        <ele>2.54</ele>
        <time>2020-10-24T10:27:17Z</time>
      </trkpt>
      <trkpt lat="44.64828" lon="-1.04712">
        <ele>2.54</ele>
        <time>2020-10-24T10:27:18Z</time>
      </trkpt>
      <trkpt lat="44.6483" lon="-1.04777">
        <ele>2.54</ele>
        <time>2020-10-24T10:27:33Z</time>
      </trkpt>
      <trkpt lat="44.64833" lon="-1.04847">
        <ele>2.54</ele>
        <time>2020-10-24T10:27:49Z</time>
      </trkpt>
      <trkpt lat="44.64832" lon="-1.04873">
        <ele>2.54</ele>
        <time>2020-10-24T10:27:55Z</time>
      </trkpt>
      <trkpt lat="44.6483" lon="-1.04876">
        <ele>2.54</ele>
        <time>2020-10-24T10:27:56Z</time>
      </trkpt>
      <trkpt lat="44.64828" lon="-1.04879">
        <ele>2.54</ele>
        <time>2020-10-24T10:27:57Z</time>
      </trkpt>
      <trkpt lat="44.64825" lon="-1.0488">
        <ele>2.54</ele>
        <time>2020-10-24T10:27:58Z</time>
      </trkpt>
      <trkpt lat="44.64823" lon="-1.04881">
        <ele>2.54</ele>
        <time>2020-10-24T10:27:59Z</time>
      </trkpt>
      <trkpt lat="44.64806" lon="-1.04919">
        <ele>2.54</ele>
        <time>2020-10-24T10:28:10Z</time>
      </trkpt>
      <trkpt lat="44.64799" lon="-1.04978">
        <ele>2.54</ele>
        <time>2020-10-24T10:28:24Z</time>
      </trkpt>
      <trkpt lat="44.64833" lon="-1.05018">
        <ele>2.54</ele>
        <time>2020-10-24T10:28:38Z</time>
      </trkpt>
      <trkpt lat="44.64872" lon="-1.05053">
        <ele>3.5</ele>
        <time>2020-10-24T10:28:53Z</time>
      </trkpt>
      <trkpt lat="44.64886" lon="-1.05069">
        <ele>3.98</ele>
        <time>2020-10-24T10:29:04Z</time>
      </trkpt>
      <trkpt lat="44.64889" lon="-1.05076">
        <ele>4.94</ele>
        <time>2020-10-24T10:29:20Z</time>
      </trkpt>
      <trkpt lat="44.64888" lon="-1.05081">
        <ele>4.94</ele>
        <time>2020-10-24T10:29:26Z</time>
      </trkpt>
      <trkpt lat="44.64885" lon="-1.05105">
        <ele>4.94</ele>
        <time>2020-10-24T10:29:37Z</time>
      </trkpt>
      <trkpt lat="44.64884" lon="-1.05111">
        <ele>3.5</ele>
        <time>2020-10-24T10:29:39Z</time>
      </trkpt>
      <trkpt lat="44.64877" lon="-1.05151">
        <ele>3.5</ele>
        <time>2020-10-24T10:29:51Z</time>
      </trkpt>
      <trkpt lat="44.64861" lon="-1.05156">
        <ele>3.5</ele>
        <time>2020-10-24T10:30:02Z</time>
      </trkpt>
      <trkpt lat="44.6486" lon="-1.05155">
        <ele>3.5</ele>
        <time>2020-10-24T10:30:19Z</time>
      </trkpt>
      <trkpt lat="44.64858" lon="-1.05154">
        <ele>3.5</ele>
        <time>2020-10-24T10:30:20Z</time>
      </trkpt>
      <trkpt lat="44.64857" lon="-1.05154">
        <ele>3.5</ele>
        <time>2020-10-24T10:30:21Z</time>
      </trkpt>
      <trkpt lat="44.64855" lon="-1.05153">
        <ele>3.5</ele>
        <time>2020-10-24T10:30:22Z</time>
      </trkpt>
      <trkpt lat="44.64853" lon="-1.05151">
        <ele>3.5</ele>
        <time>2020-10-24T10:30:23Z</time>
      </trkpt>
      <trkpt lat="44.64851" lon="-1.0515">
        <ele>3.5</ele>
        <time>2020-10-24T10:30:24Z</time>
      </trkpt>
      <trkpt lat="44.64849" lon="-1.05148">
        <ele>3.5</ele>
        <time>2020-10-24T10:30:25Z</time>
      </trkpt>
      <trkpt lat="44.64847" lon="-1.05147">
        <ele>3.5</ele>
        <time>2020-10-24T10:30:26Z</time>
      </trkpt>
      <trkpt lat="44.64845" lon="-1.05145">
        <ele>3.5</ele>
        <time>2020-10-24T10:30:27Z</time>
      </trkpt>
      <trkpt lat="44.64842" lon="-1.05143">
        <ele>3.5</ele>
        <time>2020-10-24T10:30:28Z</time>
      </trkpt>
      <trkpt lat="44.6484" lon="-1.05141">
        <ele>3.5</ele>
        <time>2020-10-24T10:30:29Z</time>
      </trkpt>
      <trkpt lat="44.64805" lon="-1.05114">
        <ele>3.02</ele>
        <time>2020-10-24T10:30:44Z</time>
      </trkpt>
      <trkpt lat="44.64776" lon="-1.05093">
        <ele>3.02</ele>
        <time>2020-10-24T10:30:56Z</time>
      </trkpt>
      <trkpt lat="44.64741" lon="-1.05095">
        <ele>3.02</ele>
        <time>2020-10-24T10:31:08Z</time>
      </trkpt>
      <trkpt lat="44.64695" lon="-1.05113">
        <ele>3.02</ele>
        <time>2020-10-24T10:31:24Z</time>
      </trkpt>
      <trkpt lat="44.64665" lon="-1.05123">
        <ele>3.02</ele>
        <time>2020-10-24T10:31:39Z</time>
      </trkpt>
      <trkpt lat="44.64631" lon="-1.05134">
        <ele>2.54</ele>
        <time>2020-10-24T10:31:52Z</time>
      </trkpt>
      <trkpt lat="44.64599" lon="-1.05127">
        <ele>2.54</ele>
        <time>2020-10-24T10:32:04Z</time>
      </trkpt>
      <trkpt lat="44.64559" lon="-1.05093">
        <ele>2.06</ele>
        <time>2020-10-24T10:32:20Z</time>
      </trkpt>
      <trkpt lat="44.64526" lon="-1.05079">
        <ele>2.06</ele>
        <time>2020-10-24T10:32:33Z</time>
      </trkpt>
      <trkpt lat="44.64495" lon="-1.05069">
        <ele>2.06</ele>
        <time>2020-10-24T10:32:46Z</time>
      </trkpt>
      <trkpt lat="44.64474" lon="-1.05058">
        <ele>2.06</ele>
        <time>2020-10-24T10:32:54Z</time>
      </trkpt>
      <trkpt lat="44.64474" lon="-1.05054">
        <ele>2.06</ele>
        <time>2020-10-24T10:32:55Z</time>
      </trkpt>
      <trkpt lat="44.64467" lon="-1.04992">
        <ele>2.06</ele>
        <time>2020-10-24T10:33:10Z</time>
      </trkpt>
      <trkpt lat="44.6446" lon="-1.04907">
        <ele>2.06</ele>
        <time>2020-10-24T10:33:29Z</time>
      </trkpt>
      <trkpt lat="44.64458" lon="-1.049">
        <ele>2.06</ele>
        <time>2020-10-24T10:33:31Z</time>
      </trkpt>
      <trkpt lat="44.64455" lon="-1.04897">
        <ele>2.06</ele>
        <time>2020-10-24T10:33:32Z</time>
      </trkpt>
      <trkpt lat="44.64453" lon="-1.04895">
        <ele>2.06</ele>
        <time>2020-10-24T10:33:33Z</time>
      </trkpt>
      <trkpt lat="44.64451" lon="-1.04895">
        <ele>2.06</ele>
        <time>2020-10-24T10:33:34Z</time>
      </trkpt>
      <trkpt lat="44.6445" lon="-1.04894">
        <ele>2.06</ele>
        <time>2020-10-24T10:33:35Z</time>
      </trkpt>
      <trkpt lat="44.64449" lon="-1.04894">
        <ele>2.06</ele>
        <time>2020-10-24T10:33:36Z</time>
      </trkpt>
      <trkpt lat="44.64448" lon="-1.04893">
        <ele>2.06</ele>
        <time>2020-10-24T10:33:37Z</time>
      </trkpt>
      <trkpt lat="44.64448" lon="-1.04893">
        <ele>2.06</ele>
        <time>2020-10-24T10:33:47Z</time>
      </trkpt>
      <trkpt lat="44.64447" lon="-1.04894">
        <ele>2.06</ele>
        <time>2020-10-24T10:34:13Z</time>
      </trkpt>
      <trkpt lat="44.64447" lon="-1.04895">
        <ele>2.06</ele>
        <time>2020-10-24T10:34:14Z</time>
      </trkpt>
      <trkpt lat="44.64446" lon="-1.04897">
        <ele>2.06</ele>
        <time>2020-10-24T10:34:15Z</time>
      </trkpt>
      <trkpt lat="44.64444" lon="-1.04903">
        <ele>2.06</ele>
        <time>2020-10-24T10:34:27Z</time>
      </trkpt>
      <trkpt lat="44.64443" lon="-1.04902">
        <ele>2.06</ele>
        <time>2020-10-24T10:34:47Z</time>
      </trkpt>
      <trkpt lat="44.64443" lon="-1.04901">
        <ele>2.06</ele>
        <time>2020-10-24T10:35:09Z</time>
      </trkpt>
      <trkpt lat="44.64444" lon="-1.04902">
        <ele>2.06</ele>
        <time>2020-10-24T10:35:31Z</time>
      </trkpt>
      <trkpt lat="44.64443" lon="-1.04901">
        <ele>3.02</ele>
        <time>2020-10-24T10:35:55Z</time>
      </trkpt>
      <trkpt lat="44.64443" lon="-1.04902">
        <ele>3.02</ele>
        <time>2020-10-24T10:36:20Z</time>
      </trkpt>
      <trkpt lat="44.64444" lon="-1.04902">
        <ele>3.02</ele>
        <time>2020-10-24T10:36:44Z</time>
      </trkpt>
      <trkpt lat="44.64444" lon="-1.04902">
        <ele>3.02</ele>
        <time>2020-10-24T10:37:09Z</time>
      </trkpt>
      <trkpt lat="44.64444" lon="-1.04905">
        <ele>3.02</ele>
        <time>2020-10-24T10:37:41Z</time>
      </trkpt>
      <trkpt lat="44.64444" lon="-1.04904">
        <ele>3.02</ele>
        <time>2020-10-24T10:38:08Z</time>
      </trkpt>
      <trkpt lat="44.64444" lon="-1.04905">
        <ele>3.5</ele>
        <time>2020-10-24T10:38:34Z</time>
      </trkpt>
      <trkpt lat="44.64444" lon="-1.04906">
        <ele>3.5</ele>
        <time>2020-10-24T10:38:37Z</time>
      </trkpt>
      <trkpt lat="44.64444" lon="-1.04908">
        <ele>3.5</ele>
        <time>2020-10-24T10:38:38Z</time>
      </trkpt>
      <trkpt lat="44.64448" lon="-1.04943">
        <ele>3.02</ele>
        <time>2020-10-24T10:38:49Z</time>
      </trkpt>
      <trkpt lat="44.6445" lon="-1.04964">
        <ele>2.06</ele>
        <time>2020-10-24T10:38:53Z</time>
      </trkpt>
      <trkpt lat="44.6445" lon="-1.0497">
        <ele>2.06</ele>
        <time>2020-10-24T10:38:54Z</time>
      </trkpt>
      <trkpt lat="44.6445" lon="-1.04999">
        <ele>2.06</ele>
        <time>2020-10-24T10:38:59Z</time>
      </trkpt>
      <trkpt lat="44.64448" lon="-1.05028">
        <ele>2.06</ele>
        <time>2020-10-24T10:39:04Z</time>
      </trkpt>
      <trkpt lat="44.64448" lon="-1.05034">
        <ele>2.06</ele>
        <time>2020-10-24T10:39:05Z</time>
      </trkpt>
      <trkpt lat="44.6445" lon="-1.05052">
        <ele>2.06</ele>
        <time>2020-10-24T10:39:08Z</time>
      </trkpt>
      <trkpt lat="44.6445" lon="-1.05057">
        <ele>2.06</ele>
        <time>2020-10-24T10:39:09Z</time>
      </trkpt>
      <trkpt lat="44.64449" lon="-1.05062">
        <ele>2.06</ele>
        <time>2020-10-24T10:39:10Z</time>
      </trkpt>
      <trkpt lat="44.64448" lon="-1.05067">
        <ele>2.06</ele>
        <time>2020-10-24T10:39:11Z</time>
      </trkpt>
      <trkpt lat="44.64447" lon="-1.05072">
        <ele>2.06</ele>
        <time>2020-10-24T10:39:12Z</time>
      </trkpt>
      <trkpt lat="44.64446" lon="-1.05076">
        <ele>2.06</ele>
        <time>2020-10-24T10:39:13Z</time>
      </trkpt>
      <trkpt lat="44.64446" lon="-1.05081">
        <ele>2.06</ele>
        <time>2020-10-24T10:39:14Z</time>
      </trkpt>
      <trkpt lat="44.64443" lon="-1.05145">
        <ele>1.58</ele>
        <time>2020-10-24T10:39:26Z</time>
      </trkpt>
      <trkpt lat="44.64444" lon="-1.05215">
        <ele>2.06</ele>
        <time>2020-10-24T10:39:39Z</time>
      </trkpt>
      <trkpt lat="44.64431" lon="-1.05247">
        <ele>2.06</ele>
        <time>2020-10-24T10:39:48Z</time>
      </trkpt>
      <trkpt lat="44.64399" lon="-1.05254">
        <ele>2.06</ele>
        <time>2020-10-24T10:40:00Z</time>
      </trkpt>
      <trkpt lat="44.64376" lon="-1.05259">
        <ele>2.06</ele>
        <time>2020-10-24T10:40:13Z</time>
      </trkpt>
      <trkpt lat="44.64375" lon="-1.05259">
        <ele>2.06</ele>
        <time>2020-10-24T10:40:27Z</time>
      </trkpt>
      <trkpt lat="44.6437" lon="-1.05257">
        <ele>2.06</ele>
        <time>2020-10-24T10:40:31Z</time>
      </trkpt>
      <trkpt lat="44.64368" lon="-1.05257">
        <ele>2.06</ele>
        <time>2020-10-24T10:40:32Z</time>
      </trkpt>
      <trkpt lat="44.64359" lon="-1.05261">
        <ele>2.06</ele>
        <time>2020-10-24T10:40:36Z</time>
      </trkpt>
      <trkpt lat="44.64359" lon="-1.05264">
        <ele>2.54</ele>
        <time>2020-10-24T10:40:37Z</time>
      </trkpt>
      <trkpt lat="44.64358" lon="-1.05268">
        <ele>2.54</ele>
        <time>2020-10-24T10:40:38Z</time>
      </trkpt>
      <trkpt lat="44.64358" lon="-1.05272">
        <ele>2.54</ele>
        <time>2020-10-24T10:40:39Z</time>
      </trkpt>
      <trkpt lat="44.64358" lon="-1.05277">
        <ele>2.54</ele>
        <time>2020-10-24T10:40:40Z</time>
      </trkpt>
      <trkpt lat="44.64362" lon="-1.05335">
        <ele>3.02</ele>
        <time>2020-10-24T10:40:54Z</time>
      </trkpt>
      <trkpt lat="44.64364" lon="-1.05336">
        <ele>3.02</ele>
        <time>2020-10-24T10:40:55Z</time>
      </trkpt>
      <trkpt lat="44.64366" lon="-1.05338">
        <ele>3.02</ele>
        <time>2020-10-24T10:40:56Z</time>
      </trkpt>
      <trkpt lat="44.64368" lon="-1.05339">
        <ele>3.02</ele>
        <time>2020-10-24T10:40:57Z</time>
      </trkpt>
      <trkpt lat="44.64371" lon="-1.0534">
        <ele>3.02</ele>
        <time>2020-10-24T10:40:58Z</time>
      </trkpt>
      <trkpt lat="44.64425" lon="-1.05354">
        <ele>3.02</ele>
        <time>2020-10-24T10:41:13Z</time>
      </trkpt>
      <trkpt lat="44.64473" lon="-1.05375">
        <ele>3.02</ele>
        <time>2020-10-24T10:41:26Z</time>
      </trkpt>
      <trkpt lat="44.64474" lon="-1.05381">
        <ele>3.02</ele>
        <time>2020-10-24T10:41:27Z</time>
      </trkpt>
      <trkpt lat="44.64474" lon="-1.05387">
        <ele>3.02</ele>
        <time>2020-10-24T10:41:28Z</time>
      </trkpt>
      <trkpt lat="44.6447" lon="-1.05462">
        <ele>3.02</ele>
        <time>2020-10-24T10:41:41Z</time>
      </trkpt>
      <trkpt lat="44.64471" lon="-1.05468">
        <ele>3.02</ele>
        <time>2020-10-24T10:41:42Z</time>
      </trkpt>
      <trkpt lat="44.64472" lon="-1.05474">
        <ele>3.02</ele>
        <time>2020-10-24T10:41:43Z</time>
      </trkpt>
      <trkpt lat="44.64474" lon="-1.05479">
        <ele>3.02</ele>
        <time>2020-10-24T10:41:44Z</time>
      </trkpt>
      <trkpt lat="44.64477" lon="-1.05484">
        <ele>3.02</ele>
        <time>2020-10-24T10:41:45Z</time>
      </trkpt>
      <trkpt lat="44.64499" lon="-1.05533">
        <ele>3.02</ele>
        <time>2020-10-24T10:41:55Z</time>
      </trkpt>
      <trkpt lat="44.645" lon="-1.05538">
        <ele>3.02</ele>
        <time>2020-10-24T10:41:56Z</time>
      </trkpt>
      <trkpt lat="44.64501" lon="-1.05544">
        <ele>3.02</ele>
        <time>2020-10-24T10:41:57Z</time>
      </trkpt>
      <trkpt lat="44.64502" lon="-1.0555">
        <ele>3.02</ele>
        <time>2020-10-24T10:41:58Z</time>
      </trkpt>
      <trkpt lat="44.64502" lon="-1.05556">
        <ele>3.02</ele>
        <time>2020-10-24T10:41:59Z</time>
      </trkpt>
      <trkpt lat="44.64496" lon="-1.05634">
        <ele>3.02</ele>
        <time>2020-10-24T10:42:12Z</time>
      </trkpt>
      <trkpt lat="44.64494" lon="-1.05639">
        <ele>3.02</ele>
        <time>2020-10-24T10:42:13Z</time>
      </trkpt>
      <trkpt lat="44.64492" lon="-1.05644">
        <ele>3.02</ele>
        <time>2020-10-24T10:42:14Z</time>
      </trkpt>
      <trkpt lat="44.64489" lon="-1.05648">
        <ele>3.02</ele>
        <time>2020-10-24T10:42:15Z</time>
      </trkpt>
      <trkpt lat="44.64486" lon="-1.05652">
        <ele>3.02</ele>
        <time>2020-10-24T10:42:16Z</time>
      </trkpt>
      <trkpt lat="44.64483" lon="-1.05656">
        <ele>3.02</ele>
        <time>2020-10-24T10:42:17Z</time>
      </trkpt>
      <trkpt lat="44.64479" lon="-1.05659">
        <ele>3.02</ele>
        <time>2020-10-24T10:42:18Z</time>
      </trkpt>
      <trkpt lat="44.64476" lon="-1.05662">
        <ele>3.02</ele>
        <time>2020-10-24T10:42:19Z</time>
      </trkpt>
      <trkpt lat="44.64472" lon="-1.05664">
        <ele>3.02</ele>
        <time>2020-10-24T10:42:20Z</time>
      </trkpt>
      <trkpt lat="44.64461" lon="-1.05669">
        <ele>3.02</ele>
        <time>2020-10-24T10:42:23Z</time>
      </trkpt>
      <trkpt lat="44.64457" lon="-1.05672">
        <ele>3.02</ele>
        <time>2020-10-24T10:42:24Z</time>
      </trkpt>
      <trkpt lat="44.64444" lon="-1.05688">
        <ele>3.02</ele>
        <time>2020-10-24T10:42:28Z</time>
      </trkpt>
      <trkpt lat="44.64422" lon="-1.05713">
        <ele>3.02</ele>
        <time>2020-10-24T10:42:35Z</time>
      </trkpt>
      <trkpt lat="44.64406" lon="-1.0572">
        <ele>3.02</ele>
        <time>2020-10-24T10:42:39Z</time>
      </trkpt>
      <trkpt lat="44.64392" lon="-1.0572">
        <ele>3.5</ele>
        <time>2020-10-24T10:42:49Z</time>
      </trkpt>
      <trkpt lat="44.64391" lon="-1.0572">
        <ele>3.5</ele>
        <time>2020-10-24T10:42:56Z</time>
      </trkpt>
      <trkpt lat="44.64389" lon="-1.05717">
        <ele>3.5</ele>
        <time>2020-10-24T10:42:59Z</time>
      </trkpt>
      <trkpt lat="44.64387" lon="-1.05716">
        <ele>3.5</ele>
        <time>2020-10-24T10:43:01Z</time>
      </trkpt>
      <trkpt lat="44.64384" lon="-1.05713">
        <ele>3.5</ele>
        <time>2020-10-24T10:43:05Z</time>
      </trkpt>
      <trkpt lat="44.64377" lon="-1.05713">
        <ele>3.5</ele>
        <time>2020-10-24T10:43:10Z</time>
      </trkpt>
      <trkpt lat="44.64363" lon="-1.05715">
        <ele>3.5</ele>
        <time>2020-10-24T10:43:15Z</time>
      </trkpt>
      <trkpt lat="44.64361" lon="-1.05717">
        <ele>3.5</ele>
        <time>2020-10-24T10:43:16Z</time>
      </trkpt>
      <trkpt lat="44.64359" lon="-1.0572">
        <ele>3.5</ele>
        <time>2020-10-24T10:43:17Z</time>
      </trkpt>
      <trkpt lat="44.64357" lon="-1.05724">
        <ele>3.5</ele>
        <time>2020-10-24T10:43:18Z</time>
      </trkpt>
      <trkpt lat="44.64355" lon="-1.05727">
        <ele>2.54</ele>
        <time>2020-10-24T10:43:19Z</time>
      </trkpt>
      <trkpt lat="44.64353" lon="-1.0573">
        <ele>2.54</ele>
        <time>2020-10-24T10:43:20Z</time>
      </trkpt>
      <trkpt lat="44.6435" lon="-1.05733">
        <ele>2.54</ele>
        <time>2020-10-24T10:43:21Z</time>
      </trkpt>
      <trkpt lat="44.64338" lon="-1.05772">
        <ele>2.54</ele>
        <time>2020-10-24T10:43:32Z</time>
      </trkpt>
      <trkpt lat="44.64328" lon="-1.05838">
        <ele>2.54</ele>
        <time>2020-10-24T10:43:48Z</time>
      </trkpt>
      <trkpt lat="44.64318" lon="-1.05892">
        <ele>2.54</ele>
        <time>2020-10-24T10:44:02Z</time>
      </trkpt>
      <trkpt lat="44.64308" lon="-1.05952">
        <ele>2.54</ele>
        <time>2020-10-24T10:44:17Z</time>
      </trkpt>
      <trkpt lat="44.64293" lon="-1.06028">
        <ele>2.54</ele>
        <time>2020-10-24T10:44:34Z</time>
      </trkpt>
      <trkpt lat="44.64294" lon="-1.06031">
        <ele>2.54</ele>
        <time>2020-10-24T10:44:35Z</time>
      </trkpt>
      <trkpt lat="44.64295" lon="-1.06034">
        <ele>2.54</ele>
        <time>2020-10-24T10:44:36Z</time>
      </trkpt>
      <trkpt lat="44.64302" lon="-1.06045">
        <ele>3.5</ele>
        <time>2020-10-24T10:44:39Z</time>
      </trkpt>
      <trkpt lat="44.64333" lon="-1.06067">
        <ele>3.5</ele>
        <time>2020-10-24T10:44:50Z</time>
      </trkpt>
      <trkpt lat="44.64344" lon="-1.06099">
        <ele>2.06</ele>
        <time>2020-10-24T10:44:58Z</time>
      </trkpt>
      <trkpt lat="44.64326" lon="-1.0616">
        <ele>1.58</ele>
        <time>2020-10-24T10:45:13Z</time>
      </trkpt>
      <trkpt lat="44.64307" lon="-1.0617">
        <ele>1.58</ele>
        <time>2020-10-24T10:45:19Z</time>
      </trkpt>
      <trkpt lat="44.64306" lon="-1.06173">
        <ele>1.58</ele>
        <time>2020-10-24T10:45:20Z</time>
      </trkpt>
      <trkpt lat="44.64303" lon="-1.06182">
        <ele>1.58</ele>
        <time>2020-10-24T10:45:22Z</time>
      </trkpt>
      <trkpt lat="44.64288" lon="-1.06213">
        <ele>1.58</ele>
        <time>2020-10-24T10:45:29Z</time>
      </trkpt>
      <trkpt lat="44.6428" lon="-1.06235">
        <ele>1.58</ele>
        <time>2020-10-24T10:45:34Z</time>
      </trkpt>
      <trkpt lat="44.64284" lon="-1.06273">
        <ele>3.02</ele>
        <time>2020-10-24T10:45:43Z</time>
      </trkpt>
      <trkpt lat="44.64284" lon="-1.06275">
        <ele>3.02</ele>
        <time>2020-10-24T10:45:44Z</time>
      </trkpt>
      <trkpt lat="44.64282" lon="-1.06278">
        <ele>3.02</ele>
        <time>2020-10-24T10:45:45Z</time>
      </trkpt>
      <trkpt lat="44.64281" lon="-1.06281">
        <ele>3.02</ele>
        <time>2020-10-24T10:45:46Z</time>
      </trkpt>
      <trkpt lat="44.6428" lon="-1.06284">
        <ele>3.5</ele>
        <time>2020-10-24T10:45:47Z</time>
      </trkpt>
      <trkpt lat="44.64279" lon="-1.06288">
        <ele>3.5</ele>
        <time>2020-10-24T10:45:48Z</time>
      </trkpt>
      <trkpt lat="44.64278" lon="-1.06294">
        <ele>3.5</ele>
        <time>2020-10-24T10:45:49Z</time>
      </trkpt>
      <trkpt lat="44.64278" lon="-1.06297">
        <ele>3.5</ele>
        <time>2020-10-24T10:45:50Z</time>
      </trkpt>
      <trkpt lat="44.64278" lon="-1.06302">
        <ele>3.5</ele>
        <time>2020-10-24T10:45:51Z</time>
      </trkpt>
      <trkpt lat="44.64279" lon="-1.06307">
        <ele>3.5</ele>
        <time>2020-10-24T10:45:52Z</time>
      </trkpt>
      <trkpt lat="44.6428" lon="-1.06311">
        <ele>3.5</ele>
        <time>2020-10-24T10:45:53Z</time>
      </trkpt>
      <trkpt lat="44.64281" lon="-1.06316">
        <ele>3.5</ele>
        <time>2020-10-24T10:45:54Z</time>
      </trkpt>
      <trkpt lat="44.64292" lon="-1.06383">
        <ele>3.5</ele>
        <time>2020-10-24T10:46:08Z</time>
      </trkpt>
      <trkpt lat="44.64296" lon="-1.06399">
        <ele>3.5</ele>
        <time>2020-10-24T10:46:12Z</time>
      </trkpt>
      <trkpt lat="44.643" lon="-1.06402">
        <ele>3.5</ele>
        <time>2020-10-24T10:46:13Z</time>
      </trkpt>
      <trkpt lat="44.64303" lon="-1.06403">
        <ele>3.5</ele>
        <time>2020-10-24T10:46:14Z</time>
      </trkpt>
      <trkpt lat="44.64324" lon="-1.06421">
        <ele>3.02</ele>
        <time>2020-10-24T10:46:22Z</time>
      </trkpt>
      <trkpt lat="44.64324" lon="-1.06427">
        <ele>3.02</ele>
        <time>2020-10-24T10:46:23Z</time>
      </trkpt>
      <trkpt lat="44.64324" lon="-1.06432">
        <ele>3.5</ele>
        <time>2020-10-24T10:46:24Z</time>
      </trkpt>
      <trkpt lat="44.6432" lon="-1.06506">
        <ele>3.5</ele>
        <time>2020-10-24T10:46:39Z</time>
      </trkpt>
      <trkpt lat="44.6432" lon="-1.06529">
        <ele>3.5</ele>
        <time>2020-10-24T10:46:43Z</time>
      </trkpt>
      <trkpt lat="44.64317" lon="-1.06613">
        <ele>3.02</ele>
        <time>2020-10-24T10:46:58Z</time>
      </trkpt>
      <trkpt lat="44.64316" lon="-1.06652">
        <ele>3.02</ele>
        <time>2020-10-24T10:47:06Z</time>
      </trkpt>
      <trkpt lat="44.64317" lon="-1.06653">
        <ele>3.02</ele>
        <time>2020-10-24T10:47:07Z</time>
      </trkpt>
      <trkpt lat="44.64317" lon="-1.06654">
        <ele>3.5</ele>
        <time>2020-10-24T10:47:18Z</time>
      </trkpt>
      <trkpt lat="44.64315" lon="-1.06657">
        <ele>3.5</ele>
        <time>2020-10-24T10:47:33Z</time>
      </trkpt>
      <trkpt lat="44.64315" lon="-1.06657">
        <ele>3.5</ele>
        <time>2020-10-24T10:47:56Z</time>
      </trkpt>
      <trkpt lat="44.64316" lon="-1.06654">
        <ele>3.5</ele>
        <time>2020-10-24T10:48:24Z</time>
      </trkpt>
      <trkpt lat="44.64314" lon="-1.06654">
        <ele>3.5</ele>
        <time>2020-10-24T10:49:02Z</time>
      </trkpt>
      <trkpt lat="44.64314" lon="-1.06656">
        <ele>3.5</ele>
        <time>2020-10-24T10:49:28Z</time>
      </trkpt>
      <trkpt lat="44.64316" lon="-1.06656">
        <ele>3.5</ele>
        <time>2020-10-24T10:49:49Z</time>
      </trkpt>
      <trkpt lat="44.64315" lon="-1.06656">
        <ele>3.5</ele>
        <time>2020-10-24T10:50:17Z</time>
      </trkpt>
      <trkpt lat="44.64317" lon="-1.06655">
        <ele>3.5</ele>
        <time>2020-10-24T10:50:38Z</time>
      </trkpt>
      <trkpt lat="44.64316" lon="-1.06655">
        <ele>3.5</ele>
        <time>2020-10-24T10:50:59Z</time>
      </trkpt>
      <trkpt lat="44.64314" lon="-1.06656">
        <ele>4.46</ele>
        <time>2020-10-24T10:51:28Z</time>
      </trkpt>
      <trkpt lat="44.64314" lon="-1.06657">
        <ele>4.46</ele>
        <time>2020-10-24T10:51:51Z</time>
      </trkpt>
      <trkpt lat="44.64314" lon="-1.06658">
        <ele>4.46</ele>
        <time>2020-10-24T10:52:22Z</time>
      </trkpt>
      <trkpt lat="44.64313" lon="-1.06658">
        <ele>4.46</ele>
        <time>2020-10-24T10:52:23Z</time>
      </trkpt>
      <trkpt lat="44.64312" lon="-1.06659">
        <ele>4.46</ele>
        <time>2020-10-24T10:52:24Z</time>
      </trkpt>
      <trkpt lat="44.64311" lon="-1.06661">
        <ele>4.46</ele>
        <time>2020-10-24T10:52:25Z</time>
      </trkpt>
      <trkpt lat="44.64311" lon="-1.06663">
        <ele>4.46</ele>
        <time>2020-10-24T10:52:26Z</time>
      </trkpt>
      <trkpt lat="44.64311" lon="-1.06665">
        <ele>4.46</ele>
        <time>2020-10-24T10:52:27Z</time>
      </trkpt>
      <trkpt lat="44.64311" lon="-1.06667">
        <ele>4.46</ele>
        <time>2020-10-24T10:52:28Z</time>
      </trkpt>
      <trkpt lat="44.64307" lon="-1.06693">
        <ele>4.46</ele>
        <time>2020-10-24T10:52:41Z</time>
      </trkpt>
      <trkpt lat="44.64307" lon="-1.06695">
        <ele>4.46</ele>
        <time>2020-10-24T10:52:42Z</time>
      </trkpt>
      <trkpt lat="44.64308" lon="-1.06697">
        <ele>4.46</ele>
        <time>2020-10-24T10:52:43Z</time>
      </trkpt>
      <trkpt lat="44.64308" lon="-1.06698">
        <ele>4.46</ele>
        <time>2020-10-24T10:52:44Z</time>
      </trkpt>
      <trkpt lat="44.64308" lon="-1.067">
        <ele>4.46</ele>
        <time>2020-10-24T10:52:45Z</time>
      </trkpt>
      <trkpt lat="44.64309" lon="-1.06702">
        <ele>4.46</ele>
        <time>2020-10-24T10:52:46Z</time>
      </trkpt>
      <trkpt lat="44.64309" lon="-1.06703">
        <ele>4.46</ele>
        <time>2020-10-24T10:52:47Z</time>
      </trkpt>
      <trkpt lat="44.64308" lon="-1.06708">
        <ele>4.46</ele>
        <time>2020-10-24T10:52:56Z</time>
      </trkpt>
      <trkpt lat="44.64308" lon="-1.06709">
        <ele>4.46</ele>
        <time>2020-10-24T10:52:57Z</time>
      </trkpt>
      <trkpt lat="44.64308" lon="-1.06712">
        <ele>4.46</ele>
        <time>2020-10-24T10:52:58Z</time>
      </trkpt>
      <trkpt lat="44.64307" lon="-1.06714">
        <ele>4.46</ele>
        <time>2020-10-24T10:52:59Z</time>
      </trkpt>
      <trkpt lat="44.64307" lon="-1.06717">
        <ele>4.46</ele>
        <time>2020-10-24T10:53:00Z</time>
      </trkpt>
      <trkpt lat="44.64306" lon="-1.0672">
        <ele>4.46</ele>
        <time>2020-10-24T10:53:01Z</time>
      </trkpt>
      <trkpt lat="44.64306" lon="-1.06723">
        <ele>4.46</ele>
        <time>2020-10-24T10:53:02Z</time>
      </trkpt>
      <trkpt lat="44.64297" lon="-1.06776">
        <ele>4.46</ele>
        <time>2020-10-24T10:53:19Z</time>
      </trkpt>
      <trkpt lat="44.64287" lon="-1.06841">
        <ele>4.46</ele>
        <time>2020-10-24T10:53:36Z</time>
      </trkpt>
      <trkpt lat="44.64264" lon="-1.06904">
        <ele>4.46</ele>
        <time>2020-10-24T10:53:53Z</time>
      </trkpt>
      <trkpt lat="44.64247" lon="-1.06985">
        <ele>3.02</ele>
        <time>2020-10-24T10:54:09Z</time>
      </trkpt>
      <trkpt lat="44.64228" lon="-1.07052">
        <ele>3.02</ele>
        <time>2020-10-24T10:54:24Z</time>
      </trkpt>
      <trkpt lat="44.64209" lon="-1.07111">
        <ele>3.02</ele>
        <time>2020-10-24T10:54:38Z</time>
      </trkpt>
      <trkpt lat="44.6419" lon="-1.07141">
        <ele>3.02</ele>
        <time>2020-10-24T10:54:50Z</time>
      </trkpt>
      <trkpt lat="44.64164" lon="-1.07178">
        <ele>3.02</ele>
        <time>2020-10-24T10:55:04Z</time>
      </trkpt>
      <trkpt lat="44.64155" lon="-1.07238">
        <ele>3.02</ele>
        <time>2020-10-24T10:55:21Z</time>
      </trkpt>
      <trkpt lat="44.64159" lon="-1.07252">
        <ele>3.02</ele>
        <time>2020-10-24T10:55:26Z</time>
      </trkpt>
      <trkpt lat="44.64158" lon="-1.07255">
        <ele>3.02</ele>
        <time>2020-10-24T10:55:27Z</time>
      </trkpt>
      <trkpt lat="44.64157" lon="-1.07257">
        <ele>3.02</ele>
        <time>2020-10-24T10:55:28Z</time>
      </trkpt>
      <trkpt lat="44.64157" lon="-1.07259">
        <ele>3.02</ele>
        <time>2020-10-24T10:55:29Z</time>
      </trkpt>
      <trkpt lat="44.64155" lon="-1.07261">
        <ele>3.02</ele>
        <time>2020-10-24T10:55:30Z</time>
      </trkpt>
      <trkpt lat="44.64155" lon="-1.07263">
        <ele>3.98</ele>
        <time>2020-10-24T10:55:31Z</time>
      </trkpt>
      <trkpt lat="44.64154" lon="-1.07265">
        <ele>3.98</ele>
        <time>2020-10-24T10:55:32Z</time>
      </trkpt>
      <trkpt lat="44.64155" lon="-1.07268">
        <ele>3.98</ele>
        <time>2020-10-24T10:55:33Z</time>
      </trkpt>
      <trkpt lat="44.64156" lon="-1.07269">
        <ele>3.98</ele>
        <time>2020-10-24T10:55:34Z</time>
      </trkpt>
      <trkpt lat="44.64159" lon="-1.0727">
        <ele>3.98</ele>
        <time>2020-10-24T10:55:35Z</time>
      </trkpt>
      <trkpt lat="44.64161" lon="-1.07269">
        <ele>3.98</ele>
        <time>2020-10-24T10:55:36Z</time>
      </trkpt>
      <trkpt lat="44.64164" lon="-1.07267">
        <ele>3.98</ele>
        <time>2020-10-24T10:55:37Z</time>
      </trkpt>
      <trkpt lat="44.64167" lon="-1.07265">
        <ele>3.98</ele>
        <time>2020-10-24T10:55:38Z</time>
      </trkpt>
      <trkpt lat="44.64169" lon="-1.07264">
        <ele>3.98</ele>
        <time>2020-10-24T10:55:39Z</time>
      </trkpt>
      <trkpt lat="44.64171" lon="-1.07265">
        <ele>3.98</ele>
        <time>2020-10-24T10:55:40Z</time>
      </trkpt>
      <trkpt lat="44.64174" lon="-1.07266">
        <ele>3.98</ele>
        <time>2020-10-24T10:55:41Z</time>
      </trkpt>
      <trkpt lat="44.64222" lon="-1.07293">
        <ele>3.98</ele>
        <time>2020-10-24T10:55:56Z</time>
      </trkpt>
      <trkpt lat="44.64265" lon="-1.07318">
        <ele>3.98</ele>
        <time>2020-10-24T10:56:11Z</time>
      </trkpt>
      <trkpt lat="44.64289" lon="-1.07332">
        <ele>3.98</ele>
        <time>2020-10-24T10:56:23Z</time>
      </trkpt>
      <trkpt lat="44.64331" lon="-1.07358">
        <ele>3.98</ele>
        <time>2020-10-24T10:56:40Z</time>
      </trkpt>
      <trkpt lat="44.64371" lon="-1.07379">
        <ele>4.46</ele>
        <time>2020-10-24T10:56:55Z</time>
      </trkpt>
      <trkpt lat="44.64421" lon="-1.07395">
        <ele>4.46</ele>
        <time>2020-10-24T10:57:10Z</time>
      </trkpt>
      <trkpt lat="44.64461" lon="-1.07394">
        <ele>4.46</ele>
        <time>2020-10-24T10:57:24Z</time>
      </trkpt>
      <trkpt lat="44.64464" lon="-1.07396">
        <ele>4.46</ele>
        <time>2020-10-24T10:57:26Z</time>
      </trkpt>
      <trkpt lat="44.64465" lon="-1.07397">
        <ele>4.46</ele>
        <time>2020-10-24T10:57:27Z</time>
      </trkpt>
      <trkpt lat="44.64467" lon="-1.07405">
        <ele>4.46</ele>
        <time>2020-10-24T10:57:32Z</time>
      </trkpt>
      <trkpt lat="44.64468" lon="-1.07406">
        <ele>4.46</ele>
        <time>2020-10-24T10:57:33Z</time>
      </trkpt>
      <trkpt lat="44.6447" lon="-1.07405">
        <ele>4.46</ele>
        <time>2020-10-24T10:57:34Z</time>
      </trkpt>
      <trkpt lat="44.64471" lon="-1.07403">
        <ele>4.46</ele>
        <time>2020-10-24T10:57:35Z</time>
      </trkpt>
      <trkpt lat="44.64472" lon="-1.07401">
        <ele>4.46</ele>
        <time>2020-10-24T10:57:36Z</time>
      </trkpt>
      <trkpt lat="44.64474" lon="-1.07399">
        <ele>4.46</ele>
        <time>2020-10-24T10:57:37Z</time>
      </trkpt>
      <trkpt lat="44.64475" lon="-1.07398">
        <ele>4.46</ele>
        <time>2020-10-24T10:57:38Z</time>
      </trkpt>
      <trkpt lat="44.64478" lon="-1.07397">
        <ele>4.46</ele>
        <time>2020-10-24T10:57:39Z</time>
      </trkpt>
      <trkpt lat="44.6448" lon="-1.07397">
        <ele>4.46</ele>
        <time>2020-10-24T10:57:40Z</time>
      </trkpt>
      <trkpt lat="44.64482" lon="-1.07398">
        <ele>4.46</ele>
        <time>2020-10-24T10:57:41Z</time>
      </trkpt>
      <trkpt lat="44.64485" lon="-1.07398">
        <ele>4.46</ele>
        <time>2020-10-24T10:57:42Z</time>
      </trkpt>
      <trkpt lat="44.64533" lon="-1.07399">
        <ele>4.94</ele>
        <time>2020-10-24T10:57:58Z</time>
      </trkpt>
      <trkpt lat="44.64584" lon="-1.07402">
        <ele>4.94</ele>
        <time>2020-10-24T10:58:14Z</time>
      </trkpt>
      <trkpt lat="44.6461" lon="-1.07402">
        <ele>4.94</ele>
        <time>2020-10-24T10:58:30Z</time>
      </trkpt>
      <trkpt lat="44.64609" lon="-1.07402">
        <ele>4.46</ele>
        <time>2020-10-24T10:58:58Z</time>
      </trkpt>
      <trkpt lat="44.64611" lon="-1.07403">
        <ele>4.46</ele>
        <time>2020-10-24T10:59:17Z</time>
      </trkpt>
      <trkpt lat="44.6461" lon="-1.07402">
        <ele>4.46</ele>
        <time>2020-10-24T10:59:50Z</time>
      </trkpt>
      <trkpt lat="44.64611" lon="-1.07402">
        <ele>4.94</ele>
        <time>2020-10-24T11:00:16Z</time>
      </trkpt>
      <trkpt lat="44.6461" lon="-1.07403">
        <ele>4.94</ele>
        <time>2020-10-24T11:00:47Z</time>
      </trkpt>
      <trkpt lat="44.6461" lon="-1.07403">
        <ele>4.94</ele>
        <time>2020-10-24T11:01:13Z</time>
      </trkpt>
      <trkpt lat="44.6461" lon="-1.07404">
        <ele>4.94</ele>
        <time>2020-10-24T11:01:38Z</time>
      </trkpt>
      <trkpt lat="44.6461" lon="-1.07403">
        <ele>4.94</ele>
        <time>2020-10-24T11:02:00Z</time>
      </trkpt>
      <trkpt lat="44.6461" lon="-1.07404">
        <ele>4.94</ele>
        <time>2020-10-24T11:02:23Z</time>
      </trkpt>
      <trkpt lat="44.64611" lon="-1.07403">
        <ele>4.94</ele>
        <time>2020-10-24T11:02:46Z</time>
      </trkpt>
      <trkpt lat="44.6461" lon="-1.07404">
        <ele>4.46</ele>
        <time>2020-10-24T11:03:07Z</time>
      </trkpt>
      <trkpt lat="44.64609" lon="-1.07404">
        <ele>4.46</ele>
        <time>2020-10-24T11:03:26Z</time>
      </trkpt>
      <trkpt lat="44.6461" lon="-1.07404">
        <ele>4.46</ele>
        <time>2020-10-24T11:03:47Z</time>
      </trkpt>
      <trkpt lat="44.6461" lon="-1.07403">
        <ele>4.94</ele>
        <time>2020-10-24T11:04:17Z</time>
      </trkpt>
      <trkpt lat="44.6461" lon="-1.07403">
        <ele>4.94</ele>
        <time>2020-10-24T11:04:41Z</time>
      </trkpt>
      <trkpt lat="44.64609" lon="-1.07401">
        <ele>4.94</ele>
        <time>2020-10-24T11:05:03Z</time>
      </trkpt>
      <trkpt lat="44.64605" lon="-1.07401">
        <ele>4.94</ele>
        <time>2020-10-24T11:05:14Z</time>
      </trkpt>
      <trkpt lat="44.64602" lon="-1.07401">
        <ele>4.94</ele>
        <time>2020-10-24T11:05:18Z</time>
      </trkpt>
      <trkpt lat="44.64599" lon="-1.07401">
        <ele>4.94</ele>
        <time>2020-10-24T11:05:19Z</time>
      </trkpt>
      <trkpt lat="44.64543" lon="-1.07399">
        <ele>3.5</ele>
        <time>2020-10-24T11:05:37Z</time>
      </trkpt>
      <trkpt lat="44.64489" lon="-1.07398">
        <ele>3.5</ele>
        <time>2020-10-24T11:05:54Z</time>
      </trkpt>
      <trkpt lat="44.64471" lon="-1.074">
        <ele>3.5</ele>
        <time>2020-10-24T11:06:02Z</time>
      </trkpt>
      <trkpt lat="44.64469" lon="-1.07404">
        <ele>3.5</ele>
        <time>2020-10-24T11:06:04Z</time>
      </trkpt>
      <trkpt lat="44.64463" lon="-1.07417">
        <ele>3.5</ele>
        <time>2020-10-24T11:06:10Z</time>
      </trkpt>
      <trkpt lat="44.64461" lon="-1.07419">
        <ele>3.5</ele>
        <time>2020-10-24T11:06:11Z</time>
      </trkpt>
      <trkpt lat="44.64459" lon="-1.0742">
        <ele>3.5</ele>
        <time>2020-10-24T11:06:12Z</time>
      </trkpt>
      <trkpt lat="44.64457" lon="-1.0742">
        <ele>3.5</ele>
        <time>2020-10-24T11:06:13Z</time>
      </trkpt>
      <trkpt lat="44.64454" lon="-1.0742">
        <ele>3.5</ele>
        <time>2020-10-24T11:06:14Z</time>
      </trkpt>
      <trkpt lat="44.64451" lon="-1.07419">
        <ele>3.5</ele>
        <time>2020-10-24T11:06:15Z</time>
      </trkpt>
      <trkpt lat="44.64403" lon="-1.07412">
        <ele>3.5</ele>
        <time>2020-10-24T11:06:31Z</time>
      </trkpt>
      <trkpt lat="44.6436" lon="-1.07399">
        <ele>3.02</ele>
        <time>2020-10-24T11:06:46Z</time>
      </trkpt>
      <trkpt lat="44.64312" lon="-1.07379">
        <ele>3.02</ele>
        <time>2020-10-24T11:07:01Z</time>
      </trkpt>
      <trkpt lat="44.64266" lon="-1.07359">
        <ele>3.02</ele>
        <time>2020-10-24T11:07:15Z</time>
      </trkpt>
      <trkpt lat="44.6421" lon="-1.07329">
        <ele>3.02</ele>
        <time>2020-10-24T11:07:31Z</time>
      </trkpt>
      <trkpt lat="44.64174" lon="-1.07313">
        <ele>2.54</ele>
        <time>2020-10-24T11:07:43Z</time>
      </trkpt>
      <trkpt lat="44.64156" lon="-1.07303">
        <ele>2.54</ele>
        <time>2020-10-24T11:07:50Z</time>
      </trkpt>
      <trkpt lat="44.64153" lon="-1.07305">
        <ele>2.54</ele>
        <time>2020-10-24T11:07:51Z</time>
      </trkpt>
      <trkpt lat="44.64151" lon="-1.07307">
        <ele>2.54</ele>
        <time>2020-10-24T11:07:52Z</time>
      </trkpt>
      <trkpt lat="44.64149" lon="-1.07309">
        <ele>2.54</ele>
        <time>2020-10-24T11:07:53Z</time>
      </trkpt>
      <trkpt lat="44.64145" lon="-1.07311">
        <ele>2.54</ele>
        <time>2020-10-24T11:07:54Z</time>
      </trkpt>
      <trkpt lat="44.64143" lon="-1.07311">
        <ele>2.54</ele>
        <time>2020-10-24T11:07:55Z</time>
      </trkpt>
      <trkpt lat="44.64139" lon="-1.07311">
        <ele>2.54</ele>
        <time>2020-10-24T11:07:56Z</time>
      </trkpt>
      <trkpt lat="44.64132" lon="-1.07317">
        <ele>3.98</ele>
        <time>2020-10-24T11:07:58Z</time>
      </trkpt>
      <trkpt lat="44.64131" lon="-1.0732">
        <ele>3.98</ele>
        <time>2020-10-24T11:07:59Z</time>
      </trkpt>
      <trkpt lat="44.6413" lon="-1.07322">
        <ele>3.98</ele>
        <time>2020-10-24T11:08:00Z</time>
      </trkpt>
      <trkpt lat="44.6413" lon="-1.07324">
        <ele>3.98</ele>
        <time>2020-10-24T11:08:01Z</time>
      </trkpt>
      <trkpt lat="44.6413" lon="-1.07326">
        <ele>3.98</ele>
        <time>2020-10-24T11:08:02Z</time>
      </trkpt>
      <trkpt lat="44.6413" lon="-1.07328">
        <ele>3.98</ele>
        <time>2020-10-24T11:08:03Z</time>
      </trkpt>
      <trkpt lat="44.6413" lon="-1.07329">
        <ele>3.98</ele>
        <time>2020-10-24T11:08:04Z</time>
      </trkpt>
      <trkpt lat="44.64127" lon="-1.07339">
        <ele>4.46</ele>
        <time>2020-10-24T11:08:14Z</time>
      </trkpt>
      <trkpt lat="44.6412" lon="-1.07368">
        <ele>4.46</ele>
        <time>2020-10-24T11:08:23Z</time>
      </trkpt>
      <trkpt lat="44.64118" lon="-1.07378">
        <ele>4.46</ele>
        <time>2020-10-24T11:08:38Z</time>
      </trkpt>
      <trkpt lat="44.64114" lon="-1.07396">
        <ele>4.46</ele>
        <time>2020-10-24T11:08:52Z</time>
      </trkpt>
      <trkpt lat="44.64112" lon="-1.07398">
        <ele>4.46</ele>
        <time>2020-10-24T11:08:53Z</time>
      </trkpt>
      <trkpt lat="44.64111" lon="-1.074">
        <ele>4.46</ele>
        <time>2020-10-24T11:08:54Z</time>
      </trkpt>
      <trkpt lat="44.6411" lon="-1.07403">
        <ele>4.46</ele>
        <time>2020-10-24T11:08:55Z</time>
      </trkpt>
      <trkpt lat="44.64109" lon="-1.07407">
        <ele>4.46</ele>
        <time>2020-10-24T11:08:56Z</time>
      </trkpt>
      <trkpt lat="44.64108" lon="-1.07411">
        <ele>4.46</ele>
        <time>2020-10-24T11:08:57Z</time>
      </trkpt>
      <trkpt lat="44.64107" lon="-1.07415">
        <ele>4.46</ele>
        <time>2020-10-24T11:08:58Z</time>
      </trkpt>
      <trkpt lat="44.64106" lon="-1.07419">
        <ele>4.46</ele>
        <time>2020-10-24T11:08:59Z</time>
      </trkpt>
      <trkpt lat="44.64105" lon="-1.07444">
        <ele>4.46</ele>
        <time>2020-10-24T11:09:05Z</time>
      </trkpt>
      <trkpt lat="44.64107" lon="-1.07447">
        <ele>4.46</ele>
        <time>2020-10-24T11:09:06Z</time>
      </trkpt>
      <trkpt lat="44.64109" lon="-1.07449">
        <ele>4.46</ele>
        <time>2020-10-24T11:09:07Z</time>
      </trkpt>
      <trkpt lat="44.64159" lon="-1.0747">
        <ele>4.46</ele>
        <time>2020-10-24T11:09:21Z</time>
      </trkpt>
      <trkpt lat="44.64171" lon="-1.07501">
        <ele>4.46</ele>
        <time>2020-10-24T11:09:29Z</time>
      </trkpt>
      <trkpt lat="44.64158" lon="-1.07564">
        <ele>4.46</ele>
        <time>2020-10-24T11:09:42Z</time>
      </trkpt>
      <trkpt lat="44.6415" lon="-1.0761">
        <ele>4.46</ele>
        <time>2020-10-24T11:09:52Z</time>
      </trkpt>
      <trkpt lat="44.64147" lon="-1.07618">
        <ele>4.46</ele>
        <time>2020-10-24T11:09:54Z</time>
      </trkpt>
      <trkpt lat="44.64144" lon="-1.07619">
        <ele>4.46</ele>
        <time>2020-10-24T11:09:55Z</time>
      </trkpt>
      <trkpt lat="44.64141" lon="-1.0762">
        <ele>4.46</ele>
        <time>2020-10-24T11:09:56Z</time>
      </trkpt>
      <trkpt lat="44.64087" lon="-1.07613">
        <ele>4.46</ele>
        <time>2020-10-24T11:10:12Z</time>
      </trkpt>
      <trkpt lat="44.64051" lon="-1.07607">
        <ele>2.54</ele>
        <time>2020-10-24T11:10:23Z</time>
      </trkpt>
      <trkpt lat="44.64048" lon="-1.07605">
        <ele>2.54</ele>
        <time>2020-10-24T11:10:24Z</time>
      </trkpt>
      <trkpt lat="44.64015" lon="-1.07576">
        <ele>2.54</ele>
        <time>2020-10-24T11:10:36Z</time>
      </trkpt>
      <trkpt lat="44.63981" lon="-1.07555">
        <ele>2.06</ele>
        <time>2020-10-24T11:10:47Z</time>
      </trkpt>
      <trkpt lat="44.63958" lon="-1.0755">
        <ele>3.02</ele>
        <time>2020-10-24T11:10:54Z</time>
      </trkpt>
      <trkpt lat="44.63956" lon="-1.0755">
        <ele>3.5</ele>
        <time>2020-10-24T11:10:55Z</time>
      </trkpt>
      <trkpt lat="44.63954" lon="-1.07551">
        <ele>3.98</ele>
        <time>2020-10-24T11:10:56Z</time>
      </trkpt>
      <trkpt lat="44.63953" lon="-1.07553">
        <ele>3.98</ele>
        <time>2020-10-24T11:10:57Z</time>
      </trkpt>
      <trkpt lat="44.63952" lon="-1.07556">
        <ele>3.98</ele>
        <time>2020-10-24T11:10:58Z</time>
      </trkpt>
      <trkpt lat="44.63952" lon="-1.07558">
        <ele>3.98</ele>
        <time>2020-10-24T11:10:59Z</time>
      </trkpt>
      <trkpt lat="44.63952" lon="-1.07561">
        <ele>3.98</ele>
        <time>2020-10-24T11:11:00Z</time>
      </trkpt>
      <trkpt lat="44.63951" lon="-1.07563">
        <ele>3.98</ele>
        <time>2020-10-24T11:11:01Z</time>
      </trkpt>
      <trkpt lat="44.63952" lon="-1.07572">
        <ele>4.46</ele>
        <time>2020-10-24T11:11:15Z</time>
      </trkpt>
      <trkpt lat="44.6395" lon="-1.07579">
        <ele>4.94</ele>
        <time>2020-10-24T11:11:34Z</time>
      </trkpt>
      <trkpt lat="44.6395" lon="-1.07582">
        <ele>4.94</ele>
        <time>2020-10-24T11:11:35Z</time>
      </trkpt>
      <trkpt lat="44.63951" lon="-1.07585">
        <ele>4.94</ele>
        <time>2020-10-24T11:11:36Z</time>
      </trkpt>
      <trkpt lat="44.63951" lon="-1.07588">
        <ele>4.94</ele>
        <time>2020-10-24T11:11:37Z</time>
      </trkpt>
      <trkpt lat="44.63951" lon="-1.07591">
        <ele>4.94</ele>
        <time>2020-10-24T11:11:38Z</time>
      </trkpt>
      <trkpt lat="44.63951" lon="-1.07595">
        <ele>4.94</ele>
        <time>2020-10-24T11:11:39Z</time>
      </trkpt>
      <trkpt lat="44.63951" lon="-1.07599">
        <ele>4.94</ele>
        <time>2020-10-24T11:11:40Z</time>
      </trkpt>
      <trkpt lat="44.63951" lon="-1.07603">
        <ele>4.94</ele>
        <time>2020-10-24T11:11:41Z</time>
      </trkpt>
      <trkpt lat="44.6395" lon="-1.07607">
        <ele>4.94</ele>
        <time>2020-10-24T11:11:42Z</time>
      </trkpt>
      <trkpt lat="44.63945" lon="-1.07676">
        <ele>3.5</ele>
        <time>2020-10-24T11:11:59Z</time>
      </trkpt>
      <trkpt lat="44.63947" lon="-1.07679">
        <ele>3.5</ele>
        <time>2020-10-24T11:12:00Z</time>
      </trkpt>
      <trkpt lat="44.63949" lon="-1.07683">
        <ele>3.5</ele>
        <time>2020-10-24T11:12:01Z</time>
      </trkpt>
      <trkpt lat="44.63952" lon="-1.07684">
        <ele>3.5</ele>
        <time>2020-10-24T11:12:02Z</time>
      </trkpt>
      <trkpt lat="44.63954" lon="-1.07685">
        <ele>3.5</ele>
        <time>2020-10-24T11:12:03Z</time>
      </trkpt>
      <trkpt lat="44.63957" lon="-1.07686">
        <ele>3.5</ele>
        <time>2020-10-24T11:12:04Z</time>
      </trkpt>
      <trkpt lat="44.6396" lon="-1.07688">
        <ele>3.5</ele>
        <time>2020-10-24T11:12:05Z</time>
      </trkpt>
      <trkpt lat="44.63964" lon="-1.07689">
        <ele>3.5</ele>
        <time>2020-10-24T11:12:06Z</time>
      </trkpt>
      <trkpt lat="44.63968" lon="-1.0769">
        <ele>3.5</ele>
        <time>2020-10-24T11:12:07Z</time>
      </trkpt>
      <trkpt lat="44.64042" lon="-1.07723">
        <ele>3.5</ele>
        <time>2020-10-24T11:12:24Z</time>
      </trkpt>
      <trkpt lat="44.64095" lon="-1.07746">
        <ele>3.5</ele>
        <time>2020-10-24T11:12:36Z</time>
      </trkpt>
      <trkpt lat="44.64099" lon="-1.07751">
        <ele>3.5</ele>
        <time>2020-10-24T11:12:37Z</time>
      </trkpt>
      <trkpt lat="44.64101" lon="-1.07756">
        <ele>3.5</ele>
        <time>2020-10-24T11:12:38Z</time>
      </trkpt>
      <trkpt lat="44.64103" lon="-1.07762">
        <ele>3.5</ele>
        <time>2020-10-24T11:12:39Z</time>
      </trkpt>
      <trkpt lat="44.64105" lon="-1.07768">
        <ele>3.5</ele>
        <time>2020-10-24T11:12:40Z</time>
      </trkpt>
      <trkpt lat="44.64122" lon="-1.0782">
        <ele>3.5</ele>
        <time>2020-10-24T11:12:51Z</time>
      </trkpt>
      <trkpt lat="44.64126" lon="-1.07842">
        <ele>3.5</ele>
        <time>2020-10-24T11:12:58Z</time>
      </trkpt>
      <trkpt lat="44.6413" lon="-1.07843">
        <ele>3.5</ele>
        <time>2020-10-24T11:13:00Z</time>
      </trkpt>
      <trkpt lat="44.64134" lon="-1.07846">
        <ele>3.5</ele>
        <time>2020-10-24T11:13:02Z</time>
      </trkpt>
      <trkpt lat="44.64136" lon="-1.07851">
        <ele>3.5</ele>
        <time>2020-10-24T11:13:03Z</time>
      </trkpt>
      <trkpt lat="44.64137" lon="-1.07855">
        <ele>3.5</ele>
        <time>2020-10-24T11:13:04Z</time>
      </trkpt>
      <trkpt lat="44.64138" lon="-1.0786">
        <ele>3.5</ele>
        <time>2020-10-24T11:13:05Z</time>
      </trkpt>
      <trkpt lat="44.64138" lon="-1.07865">
        <ele>3.5</ele>
        <time>2020-10-24T11:13:06Z</time>
      </trkpt>
      <trkpt lat="44.64139" lon="-1.0787">
        <ele>4.94</ele>
        <time>2020-10-24T11:13:07Z</time>
      </trkpt>
      <trkpt lat="44.64139" lon="-1.07875">
        <ele>4.94</ele>
        <time>2020-10-24T11:13:08Z</time>
      </trkpt>
      <trkpt lat="44.64145" lon="-1.07956">
        <ele>4.94</ele>
        <time>2020-10-24T11:13:23Z</time>
      </trkpt>
      <trkpt lat="44.64144" lon="-1.07977">
        <ele>4.94</ele>
        <time>2020-10-24T11:13:27Z</time>
      </trkpt>
      <trkpt lat="44.64141" lon="-1.07981">
        <ele>4.94</ele>
        <time>2020-10-24T11:13:28Z</time>
      </trkpt>
      <trkpt lat="44.64137" lon="-1.07983">
        <ele>4.94</ele>
        <time>2020-10-24T11:13:29Z</time>
      </trkpt>
      <trkpt lat="44.64093" lon="-1.0799">
        <ele>4.94</ele>
        <time>2020-10-24T11:13:40Z</time>
      </trkpt>
      <trkpt lat="44.64089" lon="-1.07991">
        <ele>4.94</ele>
        <time>2020-10-24T11:13:41Z</time>
      </trkpt>
      <trkpt lat="44.64069" lon="-1.07994">
        <ele>3.98</ele>
        <time>2020-10-24T11:13:46Z</time>
      </trkpt>
      <trkpt lat="44.64065" lon="-1.07997">
        <ele>3.98</ele>
        <time>2020-10-24T11:13:47Z</time>
      </trkpt>
      <trkpt lat="44.64063" lon="-1.08002">
        <ele>3.98</ele>
        <time>2020-10-24T11:13:48Z</time>
      </trkpt>
      <trkpt lat="44.64062" lon="-1.08007">
        <ele>3.98</ele>
        <time>2020-10-24T11:13:49Z</time>
      </trkpt>
      <trkpt lat="44.6406" lon="-1.08013">
        <ele>3.98</ele>
        <time>2020-10-24T11:13:50Z</time>
      </trkpt>
      <trkpt lat="44.64059" lon="-1.08018">
        <ele>3.98</ele>
        <time>2020-10-24T11:13:51Z</time>
      </trkpt>
      <trkpt lat="44.64055" lon="-1.08028">
        <ele>3.98</ele>
        <time>2020-10-24T11:13:53Z</time>
      </trkpt>
      <trkpt lat="44.64042" lon="-1.08061">
        <ele>3.98</ele>
        <time>2020-10-24T11:14:01Z</time>
      </trkpt>
      <trkpt lat="44.64041" lon="-1.08063">
        <ele>3.98</ele>
        <time>2020-10-24T11:14:02Z</time>
      </trkpt>
      <trkpt lat="44.64039" lon="-1.08065">
        <ele>3.98</ele>
        <time>2020-10-24T11:14:03Z</time>
      </trkpt>
      <trkpt lat="44.64038" lon="-1.08068">
        <ele>3.98</ele>
        <time>2020-10-24T11:14:04Z</time>
      </trkpt>
      <trkpt lat="44.64037" lon="-1.0807">
        <ele>3.98</ele>
        <time>2020-10-24T11:14:05Z</time>
      </trkpt>
      <trkpt lat="44.64037" lon="-1.08071">
        <ele>3.98</ele>
        <time>2020-10-24T11:14:06Z</time>
      </trkpt>
      <trkpt lat="44.64037" lon="-1.08073">
        <ele>3.98</ele>
        <time>2020-10-24T11:14:07Z</time>
      </trkpt>
      <trkpt lat="44.64038" lon="-1.08075">
        <ele>3.98</ele>
        <time>2020-10-24T11:14:08Z</time>
      </trkpt>
      <trkpt lat="44.64039" lon="-1.08076">
        <ele>3.98</ele>
        <time>2020-10-24T11:14:09Z</time>
      </trkpt>
      <trkpt lat="44.64041" lon="-1.08076">
        <ele>3.98</ele>
        <time>2020-10-24T11:14:10Z</time>
      </trkpt>
      <trkpt lat="44.64043" lon="-1.08075">
        <ele>3.98</ele>
        <time>2020-10-24T11:14:15Z</time>
      </trkpt>
      <trkpt lat="44.64049" lon="-1.08072">
        <ele>3.5</ele>
        <time>2020-10-24T11:14:29Z</time>
      </trkpt>
      <trkpt lat="44.64065" lon="-1.08058">
        <ele>3.5</ele>
        <time>2020-10-24T11:14:38Z</time>
      </trkpt>
      <trkpt lat="44.64094" lon="-1.08052">
        <ele>3.5</ele>
        <time>2020-10-24T11:14:48Z</time>
      </trkpt>
      <trkpt lat="44.64096" lon="-1.08056">
        <ele>3.5</ele>
        <time>2020-10-24T11:14:49Z</time>
      </trkpt>
      <trkpt lat="44.641" lon="-1.08096">
        <ele>4.94</ele>
        <time>2020-10-24T11:14:57Z</time>
      </trkpt>
      <trkpt lat="44.64106" lon="-1.08173">
        <ele>3.5</ele>
        <time>2020-10-24T11:15:11Z</time>
      </trkpt>
      <trkpt lat="44.64105" lon="-1.08181">
        <ele>3.98</ele>
        <time>2020-10-24T11:15:13Z</time>
      </trkpt>
      <trkpt lat="44.64103" lon="-1.08183">
        <ele>3.98</ele>
        <time>2020-10-24T11:15:14Z</time>
      </trkpt>
      <trkpt lat="44.641" lon="-1.08184">
        <ele>3.98</ele>
        <time>2020-10-24T11:15:15Z</time>
      </trkpt>
      <trkpt lat="44.64097" lon="-1.08184">
        <ele>3.98</ele>
        <time>2020-10-24T11:15:16Z</time>
      </trkpt>
      <trkpt lat="44.64093" lon="-1.08185">
        <ele>3.98</ele>
        <time>2020-10-24T11:15:17Z</time>
      </trkpt>
      <trkpt lat="44.6409" lon="-1.08185">
        <ele>3.98</ele>
        <time>2020-10-24T11:15:18Z</time>
      </trkpt>
      <trkpt lat="44.64062" lon="-1.08191">
        <ele>3.02</ele>
        <time>2020-10-24T11:15:26Z</time>
      </trkpt>
      <trkpt lat="44.64061" lon="-1.08196">
        <ele>3.02</ele>
        <time>2020-10-24T11:15:27Z</time>
      </trkpt>
      <trkpt lat="44.64061" lon="-1.082">
        <ele>3.02</ele>
        <time>2020-10-24T11:15:28Z</time>
      </trkpt>
      <trkpt lat="44.64062" lon="-1.08205">
        <ele>3.02</ele>
        <time>2020-10-24T11:15:29Z</time>
      </trkpt>
      <trkpt lat="44.64062" lon="-1.0821">
        <ele>4.46</ele>
        <time>2020-10-24T11:15:30Z</time>
      </trkpt>
      <trkpt lat="44.64062" lon="-1.08215">
        <ele>4.46</ele>
        <time>2020-10-24T11:15:31Z</time>
      </trkpt>
      <trkpt lat="44.64062" lon="-1.0822">
        <ele>4.46</ele>
        <time>2020-10-24T11:15:32Z</time>
      </trkpt>
      <trkpt lat="44.64053" lon="-1.08295">
        <ele>4.46</ele>
        <time>2020-10-24T11:15:46Z</time>
      </trkpt>
      <trkpt lat="44.64048" lon="-1.08309">
        <ele>4.46</ele>
        <time>2020-10-24T11:15:49Z</time>
      </trkpt>
      <trkpt lat="44.64049" lon="-1.08314">
        <ele>4.46</ele>
        <time>2020-10-24T11:15:50Z</time>
      </trkpt>
      <trkpt lat="44.6405" lon="-1.08319">
        <ele>4.46</ele>
        <time>2020-10-24T11:15:51Z</time>
      </trkpt>
      <trkpt lat="44.64052" lon="-1.08324">
        <ele>4.46</ele>
        <time>2020-10-24T11:15:52Z</time>
      </trkpt>
      <trkpt lat="44.64054" lon="-1.08329">
        <ele>4.46</ele>
        <time>2020-10-24T11:15:53Z</time>
      </trkpt>
      <trkpt lat="44.64055" lon="-1.08333">
        <ele>4.46</ele>
        <time>2020-10-24T11:15:54Z</time>
      </trkpt>
      <trkpt lat="44.64057" lon="-1.08337">
        <ele>4.46</ele>
        <time>2020-10-24T11:15:55Z</time>
      </trkpt>
      <trkpt lat="44.64059" lon="-1.08341">
        <ele>4.94</ele>
        <time>2020-10-24T11:15:56Z</time>
      </trkpt>
      <trkpt lat="44.64069" lon="-1.08359">
        <ele>5.42</ele>
        <time>2020-10-24T11:16:02Z</time>
      </trkpt>
      <trkpt lat="44.64071" lon="-1.08358">
        <ele>5.42</ele>
        <time>2020-10-24T11:16:03Z</time>
      </trkpt>
      <trkpt lat="44.64113" lon="-1.08357">
        <ele>5.42</ele>
        <time>2020-10-24T11:16:15Z</time>
      </trkpt>
      <trkpt lat="44.64132" lon="-1.08371">
        <ele>5.42</ele>
        <time>2020-10-24T11:16:24Z</time>
      </trkpt>
      <trkpt lat="44.64132" lon="-1.08376">
        <ele>5.42</ele>
        <time>2020-10-24T11:16:25Z</time>
      </trkpt>
      <trkpt lat="44.64132" lon="-1.0838">
        <ele>5.42</ele>
        <time>2020-10-24T11:16:26Z</time>
      </trkpt>
      <trkpt lat="44.64133" lon="-1.08385">
        <ele>5.42</ele>
        <time>2020-10-24T11:16:27Z</time>
      </trkpt>
      <trkpt lat="44.64133" lon="-1.0839">
        <ele>5.42</ele>
        <time>2020-10-24T11:16:28Z</time>
      </trkpt>
      <trkpt lat="44.64134" lon="-1.08395">
        <ele>5.42</ele>
        <time>2020-10-24T11:16:29Z</time>
      </trkpt>
      <trkpt lat="44.64134" lon="-1.084">
        <ele>5.42</ele>
        <time>2020-10-24T11:16:30Z</time>
      </trkpt>
      <trkpt lat="44.64134" lon="-1.08405">
        <ele>5.42</ele>
        <time>2020-10-24T11:16:31Z</time>
      </trkpt>
      <trkpt lat="44.64135" lon="-1.08409">
        <ele>5.42</ele>
        <time>2020-10-24T11:16:32Z</time>
      </trkpt>
      <trkpt lat="44.64136" lon="-1.08414">
        <ele>5.42</ele>
        <time>2020-10-24T11:16:33Z</time>
      </trkpt>
      <trkpt lat="44.64136" lon="-1.08418">
        <ele>5.42</ele>
        <time>2020-10-24T11:16:34Z</time>
      </trkpt>
      <trkpt lat="44.64137" lon="-1.08422">
        <ele>5.42</ele>
        <time>2020-10-24T11:16:35Z</time>
      </trkpt>
      <trkpt lat="44.64138" lon="-1.08427">
        <ele>5.42</ele>
        <time>2020-10-24T11:16:36Z</time>
      </trkpt>
      <trkpt lat="44.64138" lon="-1.08432">
        <ele>5.42</ele>
        <time>2020-10-24T11:16:37Z</time>
      </trkpt>
      <trkpt lat="44.64155" lon="-1.08514">
        <ele>5.42</ele>
        <time>2020-10-24T11:16:53Z</time>
      </trkpt>
      <trkpt lat="44.64155" lon="-1.08545">
        <ele>5.42</ele>
        <time>2020-10-24T11:16:58Z</time>
      </trkpt>
      <trkpt lat="44.64157" lon="-1.08551">
        <ele>5.42</ele>
        <time>2020-10-24T11:16:59Z</time>
      </trkpt>
      <trkpt lat="44.64158" lon="-1.08557">
        <ele>5.42</ele>
        <time>2020-10-24T11:17:00Z</time>
      </trkpt>
      <trkpt lat="44.64159" lon="-1.08563">
        <ele>5.42</ele>
        <time>2020-10-24T11:17:01Z</time>
      </trkpt>
      <trkpt lat="44.64158" lon="-1.08571">
        <ele>5.42</ele>
        <time>2020-10-24T11:17:02Z</time>
      </trkpt>
      <trkpt lat="44.64158" lon="-1.08576">
        <ele>5.42</ele>
        <time>2020-10-24T11:17:03Z</time>
      </trkpt>
      <trkpt lat="44.64156" lon="-1.08582">
        <ele>4.46</ele>
        <time>2020-10-24T11:17:04Z</time>
      </trkpt>
      <trkpt lat="44.64154" lon="-1.086">
        <ele>4.46</ele>
        <time>2020-10-24T11:17:13Z</time>
      </trkpt>
      <trkpt lat="44.64154" lon="-1.08599">
        <ele>4.46</ele>
        <time>2020-10-24T11:17:38Z</time>
      </trkpt>
      <trkpt lat="44.64155" lon="-1.08602">
        <ele>4.46</ele>
        <time>2020-10-24T11:18:07Z</time>
      </trkpt>
      <trkpt lat="44.64159" lon="-1.08646">
        <ele>4.46</ele>
        <time>2020-10-24T11:18:17Z</time>
      </trkpt>
      <trkpt lat="44.64159" lon="-1.08732">
        <ele>3.98</ele>
        <time>2020-10-24T11:18:34Z</time>
      </trkpt>
      <trkpt lat="44.64171" lon="-1.08749">
        <ele>3.98</ele>
        <time>2020-10-24T11:18:41Z</time>
      </trkpt>
      <trkpt lat="44.64166" lon="-1.08804">
        <ele>3.98</ele>
        <time>2020-10-24T11:18:53Z</time>
      </trkpt>
      <trkpt lat="44.6416" lon="-1.0885">
        <ele>3.98</ele>
        <time>2020-10-24T11:19:10Z</time>
      </trkpt>
      <trkpt lat="44.64158" lon="-1.08856">
        <ele>3.98</ele>
        <time>2020-10-24T11:19:13Z</time>
      </trkpt>
      <trkpt lat="44.64157" lon="-1.08858">
        <ele>3.98</ele>
        <time>2020-10-24T11:19:14Z</time>
      </trkpt>
      <trkpt lat="44.64129" lon="-1.08887">
        <ele>3.5</ele>
        <time>2020-10-24T11:19:29Z</time>
      </trkpt>
      <trkpt lat="44.64119" lon="-1.08921">
        <ele>3.5</ele>
        <time>2020-10-24T11:19:42Z</time>
      </trkpt>
      <trkpt lat="44.64114" lon="-1.08932">
        <ele>3.5</ele>
        <time>2020-10-24T11:19:55Z</time>
      </trkpt>
      <trkpt lat="44.64112" lon="-1.08939">
        <ele>3.5</ele>
        <time>2020-10-24T11:20:10Z</time>
      </trkpt>
      <trkpt lat="44.64114" lon="-1.08945">
        <ele>3.5</ele>
        <time>2020-10-24T11:20:22Z</time>
      </trkpt>
      <trkpt lat="44.64114" lon="-1.08947">
        <ele>3.5</ele>
        <time>2020-10-24T11:20:23Z</time>
      </trkpt>
      <trkpt lat="44.64115" lon="-1.08949">
        <ele>3.5</ele>
        <time>2020-10-24T11:20:24Z</time>
      </trkpt>
      <trkpt lat="44.64116" lon="-1.08951">
        <ele>3.5</ele>
        <time>2020-10-24T11:20:25Z</time>
      </trkpt>
      <trkpt lat="44.64117" lon="-1.08954">
        <ele>3.5</ele>
        <time>2020-10-24T11:20:26Z</time>
      </trkpt>
      <trkpt lat="44.64119" lon="-1.08958">
        <ele>3.5</ele>
        <time>2020-10-24T11:20:28Z</time>
      </trkpt>
      <trkpt lat="44.6412" lon="-1.08959">
        <ele>3.5</ele>
        <time>2020-10-24T11:20:29Z</time>
      </trkpt>
      <trkpt lat="44.64157" lon="-1.08975">
        <ele>3.5</ele>
        <time>2020-10-24T11:20:43Z</time>
      </trkpt>
      <trkpt lat="44.64167" lon="-1.08981">
        <ele>3.5</ele>
        <time>2020-10-24T11:20:47Z</time>
      </trkpt>
      <trkpt lat="44.64169" lon="-1.08984">
        <ele>3.5</ele>
        <time>2020-10-24T11:20:48Z</time>
      </trkpt>
      <trkpt lat="44.64181" lon="-1.09003">
        <ele>3.5</ele>
        <time>2020-10-24T11:20:55Z</time>
      </trkpt>
      <trkpt lat="44.64181" lon="-1.09006">
        <ele>3.5</ele>
        <time>2020-10-24T11:20:56Z</time>
      </trkpt>
      <trkpt lat="44.64179" lon="-1.09069">
        <ele>3.5</ele>
        <time>2020-10-24T11:21:10Z</time>
      </trkpt>
      <trkpt lat="44.64178" lon="-1.091">
        <ele>3.5</ele>
        <time>2020-10-24T11:21:17Z</time>
      </trkpt>
      <trkpt lat="44.64177" lon="-1.09103">
        <ele>3.5</ele>
        <time>2020-10-24T11:21:18Z</time>
      </trkpt>
      <trkpt lat="44.64158" lon="-1.09155">
        <ele>3.5</ele>
        <time>2020-10-24T11:21:31Z</time>
      </trkpt>
      <trkpt lat="44.64168" lon="-1.09233">
        <ele>3.5</ele>
        <time>2020-10-24T11:21:46Z</time>
      </trkpt>
      <trkpt lat="44.64171" lon="-1.09289">
        <ele>3.5</ele>
        <time>2020-10-24T11:21:57Z</time>
      </trkpt>
      <trkpt lat="44.64178" lon="-1.09341">
        <ele>3.5</ele>
        <time>2020-10-24T11:22:07Z</time>
      </trkpt>
      <trkpt lat="44.64184" lon="-1.09378">
        <ele>3.5</ele>
        <time>2020-10-24T11:22:14Z</time>
      </trkpt>
      <trkpt lat="44.64186" lon="-1.09383">
        <ele>3.5</ele>
        <time>2020-10-24T11:22:15Z</time>
      </trkpt>
      <trkpt lat="44.64189" lon="-1.09387">
        <ele>3.5</ele>
        <time>2020-10-24T11:22:16Z</time>
      </trkpt>
      <trkpt lat="44.64193" lon="-1.09391">
        <ele>3.5</ele>
        <time>2020-10-24T11:22:17Z</time>
      </trkpt>
      <trkpt lat="44.64195" lon="-1.09395">
        <ele>3.5</ele>
        <time>2020-10-24T11:22:18Z</time>
      </trkpt>
      <trkpt lat="44.64196" lon="-1.09399">
        <ele>3.5</ele>
        <time>2020-10-24T11:22:19Z</time>
      </trkpt>
      <trkpt lat="44.64197" lon="-1.09402">
        <ele>3.5</ele>
        <time>2020-10-24T11:22:20Z</time>
      </trkpt>
      <trkpt lat="44.64211" lon="-1.09467">
        <ele>4.46</ele>
        <time>2020-10-24T11:22:33Z</time>
      </trkpt>
      <trkpt lat="44.64213" lon="-1.09478">
        <ele>4.46</ele>
        <time>2020-10-24T11:22:35Z</time>
      </trkpt>
      <trkpt lat="44.64213" lon="-1.09485">
        <ele>4.46</ele>
        <time>2020-10-24T11:22:36Z</time>
      </trkpt>
      <trkpt lat="44.64217" lon="-1.09553">
        <ele>4.94</ele>
        <time>2020-10-24T11:22:49Z</time>
      </trkpt>
      <trkpt lat="44.64212" lon="-1.09629">
        <ele>4.94</ele>
        <time>2020-10-24T11:23:03Z</time>
      </trkpt>
      <trkpt lat="44.642" lon="-1.09639">
        <ele>3.5</ele>
        <time>2020-10-24T11:23:06Z</time>
      </trkpt>
      <trkpt lat="44.64193" lon="-1.09645">
        <ele>3.5</ele>
        <time>2020-10-24T11:23:08Z</time>
      </trkpt>
      <trkpt lat="44.64177" lon="-1.09653">
        <ele>3.5</ele>
        <time>2020-10-24T11:23:12Z</time>
      </trkpt>
      <trkpt lat="44.64172" lon="-1.09654">
        <ele>3.5</ele>
        <time>2020-10-24T11:23:13Z</time>
      </trkpt>
      <trkpt lat="44.64169" lon="-1.09655">
        <ele>3.5</ele>
        <time>2020-10-24T11:23:14Z</time>
      </trkpt>
      <trkpt lat="44.64166" lon="-1.09658">
        <ele>3.5</ele>
        <time>2020-10-24T11:23:15Z</time>
      </trkpt>
      <trkpt lat="44.64164" lon="-1.09663">
        <ele>3.5</ele>
        <time>2020-10-24T11:23:16Z</time>
      </trkpt>
      <trkpt lat="44.64162" lon="-1.09668">
        <ele>3.5</ele>
        <time>2020-10-24T11:23:17Z</time>
      </trkpt>
      <trkpt lat="44.64151" lon="-1.09701">
        <ele>3.98</ele>
        <time>2020-10-24T11:23:25Z</time>
      </trkpt>
      <trkpt lat="44.64149" lon="-1.09703">
        <ele>3.98</ele>
        <time>2020-10-24T11:23:29Z</time>
      </trkpt>
      <trkpt lat="44.64143" lon="-1.09709">
        <ele>3.98</ele>
        <time>2020-10-24T11:23:38Z</time>
      </trkpt>
      <trkpt lat="44.64141" lon="-1.09709">
        <ele>3.98</ele>
        <time>2020-10-24T11:23:39Z</time>
      </trkpt>
      <trkpt lat="44.6414" lon="-1.09709">
        <ele>3.98</ele>
        <time>2020-10-24T11:23:40Z</time>
      </trkpt>
      <trkpt lat="44.64139" lon="-1.09709">
        <ele>3.98</ele>
        <time>2020-10-24T11:23:41Z</time>
      </trkpt>
      <trkpt lat="44.64137" lon="-1.09709">
        <ele>3.98</ele>
        <time>2020-10-24T11:23:42Z</time>
      </trkpt>
      <trkpt lat="44.64136" lon="-1.0971">
        <ele>3.98</ele>
        <time>2020-10-24T11:23:43Z</time>
      </trkpt>
      <trkpt lat="44.64135" lon="-1.0971">
        <ele>3.98</ele>
        <time>2020-10-24T11:23:44Z</time>
      </trkpt>
      <trkpt lat="44.64134" lon="-1.0971">
        <ele>3.98</ele>
        <time>2020-10-24T11:23:45Z</time>
      </trkpt>
      <trkpt lat="44.64132" lon="-1.0971">
        <ele>3.98</ele>
        <time>2020-10-24T11:23:46Z</time>
      </trkpt>
      <trkpt lat="44.64131" lon="-1.0971">
        <ele>3.98</ele>
        <time>2020-10-24T11:23:47Z</time>
      </trkpt>
      <trkpt lat="44.64129" lon="-1.09709">
        <ele>3.98</ele>
        <time>2020-10-24T11:23:48Z</time>
      </trkpt>
      <trkpt lat="44.64127" lon="-1.09708">
        <ele>3.98</ele>
        <time>2020-10-24T11:23:49Z</time>
      </trkpt>
      <trkpt lat="44.64125" lon="-1.09708">
        <ele>3.98</ele>
        <time>2020-10-24T11:23:50Z</time>
      </trkpt>
      <trkpt lat="44.64123" lon="-1.09708">
        <ele>3.98</ele>
        <time>2020-10-24T11:23:51Z</time>
      </trkpt>
      <trkpt lat="44.64102" lon="-1.09704">
        <ele>3.98</ele>
        <time>2020-10-24T11:24:01Z</time>
      </trkpt>
      <trkpt lat="44.64101" lon="-1.09701">
        <ele>3.98</ele>
        <time>2020-10-24T11:24:02Z</time>
      </trkpt>
      <trkpt lat="44.64102" lon="-1.097">
        <ele>3.98</ele>
        <time>2020-10-24T11:24:03Z</time>
      </trkpt>
      <trkpt lat="44.64104" lon="-1.09699">
        <ele>3.98</ele>
        <time>2020-10-24T11:24:04Z</time>
      </trkpt>
      <trkpt lat="44.64105" lon="-1.09699">
        <ele>3.98</ele>
        <time>2020-10-24T11:24:05Z</time>
      </trkpt>
      <trkpt lat="44.64106" lon="-1.097">
        <ele>3.98</ele>
        <time>2020-10-24T11:24:06Z</time>
      </trkpt>
      <trkpt lat="44.64107" lon="-1.09701">
        <ele>3.98</ele>
        <time>2020-10-24T11:24:07Z</time>
      </trkpt>
      <trkpt lat="44.64108" lon="-1.09702">
        <ele>3.98</ele>
        <time>2020-10-24T11:24:08Z</time>
      </trkpt>
      <trkpt lat="44.64108" lon="-1.09703">
        <ele>3.98</ele>
        <time>2020-10-24T11:24:22Z</time>
      </trkpt>
      <trkpt lat="44.64106" lon="-1.09705">
        <ele>4.46</ele>
        <time>2020-10-24T11:24:33Z</time>
      </trkpt>
      <trkpt lat="44.64105" lon="-1.09706">
        <ele>4.46</ele>
        <time>2020-10-24T11:24:34Z</time>
      </trkpt>
      <trkpt lat="44.64104" lon="-1.09707">
        <ele>4.46</ele>
        <time>2020-10-24T11:24:35Z</time>
      </trkpt>
      <trkpt lat="44.64102" lon="-1.0971">
        <ele>4.46</ele>
        <time>2020-10-24T11:24:36Z</time>
      </trkpt>
      <trkpt lat="44.641" lon="-1.09713">
        <ele>4.46</ele>
        <time>2020-10-24T11:24:37Z</time>
      </trkpt>
      <trkpt lat="44.6409" lon="-1.09764">
        <ele>3.5</ele>
        <time>2020-10-24T11:24:49Z</time>
      </trkpt>
      <trkpt lat="44.64097" lon="-1.09826">
        <ele>3.5</ele>
        <time>2020-10-24T11:25:03Z</time>
      </trkpt>
      <trkpt lat="44.641" lon="-1.09829">
        <ele>3.5</ele>
        <time>2020-10-24T11:25:04Z</time>
      </trkpt>
      <trkpt lat="44.64102" lon="-1.09831">
        <ele>3.5</ele>
        <time>2020-10-24T11:25:05Z</time>
      </trkpt>
      <trkpt lat="44.64105" lon="-1.09834">
        <ele>4.46</ele>
        <time>2020-10-24T11:25:06Z</time>
      </trkpt>
      <trkpt lat="44.64108" lon="-1.09836">
        <ele>4.46</ele>
        <time>2020-10-24T11:25:07Z</time>
      </trkpt>
      <trkpt lat="44.64152" lon="-1.09854">
        <ele>4.46</ele>
        <time>2020-10-24T11:25:20Z</time>
      </trkpt>
      <trkpt lat="44.64154" lon="-1.09858">
        <ele>4.46</ele>
        <time>2020-10-24T11:25:21Z</time>
      </trkpt>
      <trkpt lat="44.64155" lon="-1.09864">
        <ele>4.46</ele>
        <time>2020-10-24T11:25:22Z</time>
      </trkpt>
      <trkpt lat="44.64154" lon="-1.09867">
        <ele>4.46</ele>
        <time>2020-10-24T11:25:23Z</time>
      </trkpt>
      <trkpt lat="44.64153" lon="-1.09872">
        <ele>4.46</ele>
        <time>2020-10-24T11:25:24Z</time>
      </trkpt>
      <trkpt lat="44.6415" lon="-1.09883">
        <ele>4.46</ele>
        <time>2020-10-24T11:25:27Z</time>
      </trkpt>
      <trkpt lat="44.6415" lon="-1.09886">
        <ele>4.46</ele>
        <time>2020-10-24T11:25:28Z</time>
      </trkpt>
      <trkpt lat="44.64153" lon="-1.09897">
        <ele>4.46</ele>
        <time>2020-10-24T11:25:32Z</time>
      </trkpt>
      <trkpt lat="44.64194" lon="-1.09905">
        <ele>4.46</ele>
        <time>2020-10-24T11:25:46Z</time>
      </trkpt>
      <trkpt lat="44.64203" lon="-1.09935">
        <ele>4.46</ele>
        <time>2020-10-24T11:25:53Z</time>
      </trkpt>
      <trkpt lat="44.64206" lon="-1.09937">
        <ele>4.46</ele>
        <time>2020-10-24T11:25:54Z</time>
      </trkpt>
      <trkpt lat="44.64209" lon="-1.09937">
        <ele>4.46</ele>
        <time>2020-10-24T11:25:55Z</time>
      </trkpt>
      <trkpt lat="44.64213" lon="-1.09936">
        <ele>4.46</ele>
        <time>2020-10-24T11:25:56Z</time>
      </trkpt>
      <trkpt lat="44.64216" lon="-1.09935">
        <ele>4.46</ele>
        <time>2020-10-24T11:25:57Z</time>
      </trkpt>
      <trkpt lat="44.64239" lon="-1.0995">
        <ele>4.94</ele>
        <time>2020-10-24T11:26:06Z</time>
      </trkpt>
      <trkpt lat="44.64248" lon="-1.09992">
        <ele>4.94</ele>
        <time>2020-10-24T11:26:16Z</time>
      </trkpt>
      <trkpt lat="44.64269" lon="-1.10072">
        <ele>5.42</ele>
        <time>2020-10-24T11:26:32Z</time>
      </trkpt>
      <trkpt lat="44.64272" lon="-1.1008">
        <ele>5.42</ele>
        <time>2020-10-24T11:26:34Z</time>
      </trkpt>
      <trkpt lat="44.64275" lon="-1.101">
        <ele>3.98</ele>
        <time>2020-10-24T11:26:37Z</time>
      </trkpt>
      <trkpt lat="44.64285" lon="-1.10153">
        <ele>4.46</ele>
        <time>2020-10-24T11:26:47Z</time>
      </trkpt>
      <trkpt lat="44.64284" lon="-1.10156">
        <ele>4.46</ele>
        <time>2020-10-24T11:26:48Z</time>
      </trkpt>
      <trkpt lat="44.64274" lon="-1.10194">
        <ele>4.46</ele>
        <time>2020-10-24T11:27:00Z</time>
      </trkpt>
      <trkpt lat="44.64309" lon="-1.1022">
        <ele>4.46</ele>
        <time>2020-10-24T11:27:13Z</time>
      </trkpt>
      <trkpt lat="44.64354" lon="-1.10237">
        <ele>5.42</ele>
        <time>2020-10-24T11:27:27Z</time>
      </trkpt>
      <trkpt lat="44.64384" lon="-1.10241">
        <ele>5.42</ele>
        <time>2020-10-24T11:27:38Z</time>
      </trkpt>
      <trkpt lat="44.64403" lon="-1.10305">
        <ele>5.91</ele>
        <time>2020-10-24T11:27:53Z</time>
      </trkpt>
      <trkpt lat="44.6441" lon="-1.10327">
        <ele>5.91</ele>
        <time>2020-10-24T11:27:59Z</time>
      </trkpt>
      <trkpt lat="44.64409" lon="-1.10332">
        <ele>5.91</ele>
        <time>2020-10-24T11:28:00Z</time>
      </trkpt>
      <trkpt lat="44.64408" lon="-1.10335">
        <ele>5.91</ele>
        <time>2020-10-24T11:28:01Z</time>
      </trkpt>
      <trkpt lat="44.64406" lon="-1.10338">
        <ele>5.91</ele>
        <time>2020-10-24T11:28:02Z</time>
      </trkpt>
      <trkpt lat="44.64404" lon="-1.10342">
        <ele>5.91</ele>
        <time>2020-10-24T11:28:03Z</time>
      </trkpt>
      <trkpt lat="44.64402" lon="-1.10346">
        <ele>5.91</ele>
        <time>2020-10-24T11:28:04Z</time>
      </trkpt>
      <trkpt lat="44.64399" lon="-1.1035">
        <ele>5.91</ele>
        <time>2020-10-24T11:28:05Z</time>
      </trkpt>
      <trkpt lat="44.64392" lon="-1.10382">
        <ele>5.91</ele>
        <time>2020-10-24T11:28:11Z</time>
      </trkpt>
      <trkpt lat="44.64392" lon="-1.10388">
        <ele>5.91</ele>
        <time>2020-10-24T11:28:12Z</time>
      </trkpt>
      <trkpt lat="44.644" lon="-1.10452">
        <ele>5.91</ele>
        <time>2020-10-24T11:28:25Z</time>
      </trkpt>
      <trkpt lat="44.64406" lon="-1.10508">
        <ele>5.91</ele>
        <time>2020-10-24T11:28:37Z</time>
      </trkpt>
      <trkpt lat="44.64408" lon="-1.10513">
        <ele>5.91</ele>
        <time>2020-10-24T11:28:39Z</time>
      </trkpt>
      <trkpt lat="44.64421" lon="-1.10529">
        <ele>5.91</ele>
        <time>2020-10-24T11:28:46Z</time>
      </trkpt>
      <trkpt lat="44.64421" lon="-1.10532">
        <ele>5.91</ele>
        <time>2020-10-24T11:28:47Z</time>
      </trkpt>
      <trkpt lat="44.64411" lon="-1.10548">
        <ele>5.91</ele>
        <time>2020-10-24T11:28:52Z</time>
      </trkpt>
      <trkpt lat="44.64411" lon="-1.10551">
        <ele>6.39</ele>
        <time>2020-10-24T11:28:53Z</time>
      </trkpt>
      <trkpt lat="44.64411" lon="-1.10555">
        <ele>6.39</ele>
        <time>2020-10-24T11:28:54Z</time>
      </trkpt>
      <trkpt lat="44.64428" lon="-1.10614">
        <ele>6.39</ele>
        <time>2020-10-24T11:29:07Z</time>
      </trkpt>
      <trkpt lat="44.6444" lon="-1.10679">
        <ele>6.39</ele>
        <time>2020-10-24T11:29:20Z</time>
      </trkpt>
      <trkpt lat="44.6445" lon="-1.10763">
        <ele>4.94</ele>
        <time>2020-10-24T11:29:36Z</time>
      </trkpt>
      <trkpt lat="44.64454" lon="-1.1079">
        <ele>4.94</ele>
        <time>2020-10-24T11:29:41Z</time>
      </trkpt>
      <trkpt lat="44.64454" lon="-1.10808">
        <ele>4.94</ele>
        <time>2020-10-24T11:29:44Z</time>
      </trkpt>
      <trkpt lat="44.64454" lon="-1.1082">
        <ele>4.46</ele>
        <time>2020-10-24T11:29:46Z</time>
      </trkpt>
      <trkpt lat="44.64454" lon="-1.10825">
        <ele>4.46</ele>
        <time>2020-10-24T11:29:47Z</time>
      </trkpt>
      <trkpt lat="44.64457" lon="-1.10871">
        <ele>7.35</ele>
        <time>2020-10-24T11:29:59Z</time>
      </trkpt>
      <trkpt lat="44.6447" lon="-1.10933">
        <ele>5.91</ele>
        <time>2020-10-24T11:30:12Z</time>
      </trkpt>
      <trkpt lat="44.64471" lon="-1.10939">
        <ele>5.91</ele>
        <time>2020-10-24T11:30:13Z</time>
      </trkpt>
      <trkpt lat="44.64487" lon="-1.11044">
        <ele>5.42</ele>
        <time>2020-10-24T11:30:29Z</time>
      </trkpt>
      <trkpt lat="44.64497" lon="-1.11129">
        <ele>4.94</ele>
        <time>2020-10-24T11:30:41Z</time>
      </trkpt>
      <trkpt lat="44.64499" lon="-1.11136">
        <ele>4.94</ele>
        <time>2020-10-24T11:30:42Z</time>
      </trkpt>
      <trkpt lat="44.64501" lon="-1.11143">
        <ele>4.94</ele>
        <time>2020-10-24T11:30:43Z</time>
      </trkpt>
      <trkpt lat="44.64503" lon="-1.11151">
        <ele>4.46</ele>
        <time>2020-10-24T11:30:44Z</time>
      </trkpt>
      <trkpt lat="44.64505" lon="-1.11158">
        <ele>4.46</ele>
        <time>2020-10-24T11:30:45Z</time>
      </trkpt>
      <trkpt lat="44.64509" lon="-1.11183">
        <ele>4.46</ele>
        <time>2020-10-24T11:30:49Z</time>
      </trkpt>
      <trkpt lat="44.64509" lon="-1.1119">
        <ele>4.46</ele>
        <time>2020-10-24T11:30:50Z</time>
      </trkpt>
      <trkpt lat="44.64515" lon="-1.11253">
        <ele>5.42</ele>
        <time>2020-10-24T11:31:03Z</time>
      </trkpt>
      <trkpt lat="44.64515" lon="-1.11252">
        <ele>5.91</ele>
        <time>2020-10-24T11:31:16Z</time>
      </trkpt>
      <trkpt lat="44.64516" lon="-1.11249">
        <ele>5.91</ele>
        <time>2020-10-24T11:31:19Z</time>
      </trkpt>
      <trkpt lat="44.64516" lon="-1.11247">
        <ele>5.91</ele>
        <time>2020-10-24T11:31:20Z</time>
      </trkpt>
      <trkpt lat="44.64515" lon="-1.11246">
        <ele>5.91</ele>
        <time>2020-10-24T11:31:21Z</time>
      </trkpt>
      <trkpt lat="44.6451" lon="-1.11199">
        <ele>5.91</ele>
        <time>2020-10-24T11:31:33Z</time>
      </trkpt>
      <trkpt lat="44.64509" lon="-1.11171">
        <ele>5.91</ele>
        <time>2020-10-24T11:31:40Z</time>
      </trkpt>
      <trkpt lat="44.64511" lon="-1.11169">
        <ele>5.91</ele>
        <time>2020-10-24T11:31:41Z</time>
      </trkpt>
      <trkpt lat="44.64517" lon="-1.11168">
        <ele>5.91</ele>
        <time>2020-10-24T11:31:44Z</time>
      </trkpt>
      <trkpt lat="44.64528" lon="-1.11172">
        <ele>5.91</ele>
        <time>2020-10-24T11:31:49Z</time>
      </trkpt>
      <trkpt lat="44.6454" lon="-1.11158">
        <ele>5.91</ele>
        <time>2020-10-24T11:32:02Z</time>
      </trkpt>
      <trkpt lat="44.64537" lon="-1.11156">
        <ele>5.91</ele>
        <time>2020-10-24T12:18:50Z</time>
      </trkpt>
      <trkpt lat="44.64537" lon="-1.11156">
        <ele>5.42</ele>
        <time>2020-10-24T12:18:51Z</time>
      </trkpt>
      <trkpt lat="44.64537" lon="-1.11155">
        <ele>3.5</ele>
        <time>2020-10-24T12:19:21Z</time>
      </trkpt>
      <trkpt lat="44.64539" lon="-1.11154">
        <ele>2.54</ele>
        <time>2020-10-24T12:19:43Z</time>
      </trkpt>
      <trkpt lat="44.64539" lon="-1.11153">
        <ele>1.58</ele>
        <time>2020-10-24T12:20:08Z</time>
      </trkpt>
      <trkpt lat="44.64538" lon="-1.11155">
        <ele>1.58</ele>
        <time>2020-10-24T12:20:32Z</time>
      </trkpt>
      <trkpt lat="44.64538" lon="-1.11156">
        <ele>1.58</ele>
        <time>2020-10-24T12:21:03Z</time>
      </trkpt>
      <trkpt lat="44.64537" lon="-1.11155">
        <ele>2.54</ele>
        <time>2020-10-24T12:21:30Z</time>
      </trkpt>
      <trkpt lat="44.64538" lon="-1.11158">
        <ele>2.54</ele>
        <time>2020-10-24T12:21:57Z</time>
      </trkpt>
      <trkpt lat="44.64538" lon="-1.11157">
        <ele>2.54</ele>
        <time>2020-10-24T12:22:25Z</time>
      </trkpt>
      <trkpt lat="44.64538" lon="-1.11159">
        <ele>2.54</ele>
        <time>2020-10-24T12:22:38Z</time>
      </trkpt>
      <trkpt lat="44.64534" lon="-1.1117">
        <ele>3.02</ele>
        <time>2020-10-24T12:22:53Z</time>
      </trkpt>
      <trkpt lat="44.64526" lon="-1.11172">
        <ele>3.5</ele>
        <time>2020-10-24T12:23:06Z</time>
      </trkpt>
      <trkpt lat="44.64525" lon="-1.11172">
        <ele>3.5</ele>
        <time>2020-10-24T12:23:07Z</time>
      </trkpt>
      <trkpt lat="44.64514" lon="-1.11167">
        <ele>3.5</ele>
        <time>2020-10-24T12:23:14Z</time>
      </trkpt>
      <trkpt lat="44.6451" lon="-1.11169">
        <ele>3.5</ele>
        <time>2020-10-24T12:23:16Z</time>
      </trkpt>
      <trkpt lat="44.64508" lon="-1.11172">
        <ele>3.5</ele>
        <time>2020-10-24T12:23:17Z</time>
      </trkpt>
      <trkpt lat="44.64508" lon="-1.11175">
        <ele>3.5</ele>
        <time>2020-10-24T12:23:18Z</time>
      </trkpt>
      <trkpt lat="44.64508" lon="-1.11178">
        <ele>3.5</ele>
        <time>2020-10-24T12:23:19Z</time>
      </trkpt>
      <trkpt lat="44.64508" lon="-1.11182">
        <ele>3.5</ele>
        <time>2020-10-24T12:23:20Z</time>
      </trkpt>
      <trkpt lat="44.64508" lon="-1.11186">
        <ele>3.5</ele>
        <time>2020-10-24T12:23:21Z</time>
      </trkpt>
      <trkpt lat="44.64508" lon="-1.11189">
        <ele>3.5</ele>
        <time>2020-10-24T12:23:22Z</time>
      </trkpt>
      <trkpt lat="44.64516" lon="-1.11244">
        <ele>3.5</ele>
        <time>2020-10-24T12:23:38Z</time>
      </trkpt>
      <trkpt lat="44.64515" lon="-1.11269">
        <ele>4.46</ele>
        <time>2020-10-24T12:23:49Z</time>
      </trkpt>
      <trkpt lat="44.64517" lon="-1.1129">
        <ele>4.46</ele>
        <time>2020-10-24T12:24:06Z</time>
      </trkpt>
      <trkpt lat="44.64517" lon="-1.1129">
        <ele>3.98</ele>
        <time>2020-10-24T12:24:24Z</time>
      </trkpt>
      <trkpt lat="44.64517" lon="-1.11305">
        <ele>3.98</ele>
        <time>2020-10-24T12:24:40Z</time>
      </trkpt>
      <trkpt lat="44.6451" lon="-1.11339">
        <ele>2.54</ele>
        <time>2020-10-24T12:24:47Z</time>
      </trkpt>
      <trkpt lat="44.64509" lon="-1.11374">
        <ele>3.02</ele>
        <time>2020-10-24T12:25:00Z</time>
      </trkpt>
      <trkpt lat="44.64511" lon="-1.11398">
        <ele>2.54</ele>
        <time>2020-10-24T12:25:11Z</time>
      </trkpt>
      <trkpt lat="44.64511" lon="-1.11402">
        <ele>3.98</ele>
        <time>2020-10-24T12:25:23Z</time>
      </trkpt>
      <trkpt lat="44.64511" lon="-1.11403">
        <ele>3.98</ele>
        <time>2020-10-24T12:25:53Z</time>
      </trkpt>
      <trkpt lat="44.64512" lon="-1.11402">
        <ele>4.46</ele>
        <time>2020-10-24T12:26:23Z</time>
      </trkpt>
      <trkpt lat="44.64513" lon="-1.11402">
        <ele>3.02</ele>
        <time>2020-10-24T12:26:28Z</time>
      </trkpt>
      <trkpt lat="44.64513" lon="-1.11405">
        <ele>3.98</ele>
        <time>2020-10-24T12:27:06Z</time>
      </trkpt>
      <trkpt lat="44.6451" lon="-1.11403">
        <ele>3.98</ele>
        <time>2020-10-24T12:27:47Z</time>
      </trkpt>
      <trkpt lat="44.64511" lon="-1.11402">
        <ele>3.98</ele>
        <time>2020-10-24T12:28:26Z</time>
      </trkpt>
      <trkpt lat="44.64511" lon="-1.11408">
        <ele>3.98</ele>
        <time>2020-10-24T12:29:09Z</time>
      </trkpt>
      <trkpt lat="44.64511" lon="-1.1141">
        <ele>3.98</ele>
        <time>2020-10-24T12:29:10Z</time>
      </trkpt>
      <trkpt lat="44.64511" lon="-1.11412">
        <ele>3.98</ele>
        <time>2020-10-24T12:29:11Z</time>
      </trkpt>
      <trkpt lat="44.6451" lon="-1.11413">
        <ele>3.98</ele>
        <time>2020-10-24T12:29:12Z</time>
      </trkpt>
      <trkpt lat="44.6451" lon="-1.11415">
        <ele>3.98</ele>
        <time>2020-10-24T12:29:13Z</time>
      </trkpt>
      <trkpt lat="44.6451" lon="-1.11417">
        <ele>3.98</ele>
        <time>2020-10-24T12:29:14Z</time>
      </trkpt>
      <trkpt lat="44.6451" lon="-1.11419">
        <ele>3.98</ele>
        <time>2020-10-24T12:29:15Z</time>
      </trkpt>
      <trkpt lat="44.6451" lon="-1.11421">
        <ele>3.98</ele>
        <time>2020-10-24T12:29:16Z</time>
      </trkpt>
      <trkpt lat="44.6451" lon="-1.11423">
        <ele>3.98</ele>
        <time>2020-10-24T12:29:17Z</time>
      </trkpt>
      <trkpt lat="44.6451" lon="-1.11444">
        <ele>3.98</ele>
        <time>2020-10-24T12:29:29Z</time>
      </trkpt>
      <trkpt lat="44.64511" lon="-1.11474">
        <ele>2.54</ele>
        <time>2020-10-24T12:29:40Z</time>
      </trkpt>
      <trkpt lat="44.64511" lon="-1.11477">
        <ele>2.54</ele>
        <time>2020-10-24T12:29:41Z</time>
      </trkpt>
      <trkpt lat="44.64511" lon="-1.11479">
        <ele>2.54</ele>
        <time>2020-10-24T12:29:42Z</time>
      </trkpt>
      <trkpt lat="44.64511" lon="-1.11481">
        <ele>2.54</ele>
        <time>2020-10-24T12:29:43Z</time>
      </trkpt>
      <trkpt lat="44.64511" lon="-1.11484">
        <ele>2.54</ele>
        <time>2020-10-24T12:29:44Z</time>
      </trkpt>
      <trkpt lat="44.64512" lon="-1.11486">
        <ele>2.54</ele>
        <time>2020-10-24T12:29:45Z</time>
      </trkpt>
      <trkpt lat="44.64512" lon="-1.11488">
        <ele>3.5</ele>
        <time>2020-10-24T12:29:46Z</time>
      </trkpt>
      <trkpt lat="44.64512" lon="-1.11498">
        <ele>3.5</ele>
        <time>2020-10-24T12:29:51Z</time>
      </trkpt>
      <trkpt lat="44.64513" lon="-1.11501">
        <ele>3.5</ele>
        <time>2020-10-24T12:29:52Z</time>
      </trkpt>
      <trkpt lat="44.64513" lon="-1.11503">
        <ele>3.5</ele>
        <time>2020-10-24T12:29:53Z</time>
      </trkpt>
      <trkpt lat="44.64515" lon="-1.11545">
        <ele>3.5</ele>
        <time>2020-10-24T12:30:07Z</time>
      </trkpt>
      <trkpt lat="44.64514" lon="-1.11548">
        <ele>3.5</ele>
        <time>2020-10-24T12:30:08Z</time>
      </trkpt>
      <trkpt lat="44.64514" lon="-1.1155">
        <ele>3.5</ele>
        <time>2020-10-24T12:30:09Z</time>
      </trkpt>
      <trkpt lat="44.64514" lon="-1.11552">
        <ele>3.5</ele>
        <time>2020-10-24T12:30:10Z</time>
      </trkpt>
      <trkpt lat="44.64514" lon="-1.11554">
        <ele>3.5</ele>
        <time>2020-10-24T12:30:11Z</time>
      </trkpt>
      <trkpt lat="44.64513" lon="-1.11556">
        <ele>3.5</ele>
        <time>2020-10-24T12:30:12Z</time>
      </trkpt>
      <trkpt lat="44.64512" lon="-1.11558">
        <ele>3.5</ele>
        <time>2020-10-24T12:30:13Z</time>
      </trkpt>
      <trkpt lat="44.64511" lon="-1.1156">
        <ele>3.5</ele>
        <time>2020-10-24T12:30:14Z</time>
      </trkpt>
      <trkpt lat="44.6449" lon="-1.11582">
        <ele>3.5</ele>
        <time>2020-10-24T12:30:28Z</time>
      </trkpt>
      <trkpt lat="44.64485" lon="-1.11585">
        <ele>3.5</ele>
        <time>2020-10-24T12:30:40Z</time>
      </trkpt>
      <trkpt lat="44.6448" lon="-1.11591">
        <ele>3.5</ele>
        <time>2020-10-24T12:30:57Z</time>
      </trkpt>
      <trkpt lat="44.64477" lon="-1.1159">
        <ele>3.5</ele>
        <time>2020-10-24T12:31:16Z</time>
      </trkpt>
      <trkpt lat="44.64469" lon="-1.11586">
        <ele>3.5</ele>
        <time>2020-10-24T12:31:29Z</time>
      </trkpt>
      <trkpt lat="44.64468" lon="-1.11586">
        <ele>3.5</ele>
        <time>2020-10-24T12:31:30Z</time>
      </trkpt>
      <trkpt lat="44.64467" lon="-1.11588">
        <ele>3.5</ele>
        <time>2020-10-24T12:31:31Z</time>
      </trkpt>
      <trkpt lat="44.64466" lon="-1.11589">
        <ele>3.5</ele>
        <time>2020-10-24T12:31:32Z</time>
      </trkpt>
      <trkpt lat="44.64465" lon="-1.11589">
        <ele>3.5</ele>
        <time>2020-10-24T12:31:33Z</time>
      </trkpt>
      <trkpt lat="44.64456" lon="-1.11595">
        <ele>3.5</ele>
        <time>2020-10-24T12:31:45Z</time>
      </trkpt>
      <trkpt lat="44.64455" lon="-1.11592">
        <ele>3.5</ele>
        <time>2020-10-24T12:31:56Z</time>
      </trkpt>
      <trkpt lat="44.64446" lon="-1.11575">
        <ele>3.5</ele>
        <time>2020-10-24T12:32:02Z</time>
      </trkpt>
      <trkpt lat="44.64446" lon="-1.11572">
        <ele>3.5</ele>
        <time>2020-10-24T12:32:03Z</time>
      </trkpt>
      <trkpt lat="44.64445" lon="-1.1157">
        <ele>3.5</ele>
        <time>2020-10-24T12:32:04Z</time>
      </trkpt>
      <trkpt lat="44.64444" lon="-1.11568">
        <ele>3.5</ele>
        <time>2020-10-24T12:32:05Z</time>
      </trkpt>
      <trkpt lat="44.64444" lon="-1.11568">
        <ele>2.54</ele>
        <time>2020-10-24T12:32:19Z</time>
      </trkpt>
      <trkpt lat="44.64444" lon="-1.11567">
        <ele>2.54</ele>
        <time>2020-10-24T12:32:38Z</time>
      </trkpt>
      <trkpt lat="44.64444" lon="-1.11568">
        <ele>2.06</ele>
        <time>2020-10-24T12:33:03Z</time>
      </trkpt>
      <trkpt lat="44.64446" lon="-1.11569">
        <ele>2.06</ele>
        <time>2020-10-24T12:33:35Z</time>
      </trkpt>
      <trkpt lat="44.64445" lon="-1.11569">
        <ele>2.06</ele>
        <time>2020-10-24T12:33:58Z</time>
      </trkpt>
      <trkpt lat="44.64444" lon="-1.11568">
        <ele>2.06</ele>
        <time>2020-10-24T12:34:20Z</time>
      </trkpt>
      <trkpt lat="44.64444" lon="-1.11568">
        <ele>2.06</ele>
        <time>2020-10-24T12:34:41Z</time>
      </trkpt>
      <trkpt lat="44.64443" lon="-1.11567">
        <ele>2.06</ele>
        <time>2020-10-24T12:35:10Z</time>
      </trkpt>
      <trkpt lat="44.64441" lon="-1.11565">
        <ele>2.06</ele>
        <time>2020-10-24T12:35:22Z</time>
      </trkpt>
      <trkpt lat="44.64441" lon="-1.11564">
        <ele>3.5</ele>
        <time>2020-10-24T12:35:23Z</time>
      </trkpt>
      <trkpt lat="44.6444" lon="-1.11563">
        <ele>3.5</ele>
        <time>2020-10-24T12:35:24Z</time>
      </trkpt>
      <trkpt lat="44.64439" lon="-1.11562">
        <ele>3.5</ele>
        <time>2020-10-24T12:35:25Z</time>
      </trkpt>
      <trkpt lat="44.64433" lon="-1.11562">
        <ele>3.5</ele>
        <time>2020-10-24T12:35:33Z</time>
      </trkpt>
      <trkpt lat="44.6443" lon="-1.11566">
        <ele>3.5</ele>
        <time>2020-10-24T12:35:37Z</time>
      </trkpt>
      <trkpt lat="44.64429" lon="-1.11567">
        <ele>3.5</ele>
        <time>2020-10-24T12:35:38Z</time>
      </trkpt>
      <trkpt lat="44.64428" lon="-1.11568">
        <ele>3.5</ele>
        <time>2020-10-24T12:35:39Z</time>
      </trkpt>
      <trkpt lat="44.64427" lon="-1.1157">
        <ele>3.5</ele>
        <time>2020-10-24T12:35:40Z</time>
      </trkpt>
      <trkpt lat="44.64425" lon="-1.11571">
        <ele>3.5</ele>
        <time>2020-10-24T12:35:41Z</time>
      </trkpt>
      <trkpt lat="44.644" lon="-1.11599">
        <ele>3.5</ele>
        <time>2020-10-24T12:35:54Z</time>
      </trkpt>
      <trkpt lat="44.64399" lon="-1.11603">
        <ele>3.5</ele>
        <time>2020-10-24T12:35:55Z</time>
      </trkpt>
      <trkpt lat="44.64399" lon="-1.11607">
        <ele>3.5</ele>
        <time>2020-10-24T12:35:56Z</time>
      </trkpt>
      <trkpt lat="44.64399" lon="-1.11611">
        <ele>3.5</ele>
        <time>2020-10-24T12:35:57Z</time>
      </trkpt>
      <trkpt lat="44.64399" lon="-1.11615">
        <ele>3.5</ele>
        <time>2020-10-24T12:35:58Z</time>
      </trkpt>
      <trkpt lat="44.64399" lon="-1.11619">
        <ele>3.5</ele>
        <time>2020-10-24T12:35:59Z</time>
      </trkpt>
      <trkpt lat="44.64397" lon="-1.11623">
        <ele>3.5</ele>
        <time>2020-10-24T12:36:00Z</time>
      </trkpt>
      <trkpt lat="44.64396" lon="-1.11626">
        <ele>3.5</ele>
        <time>2020-10-24T12:36:01Z</time>
      </trkpt>
      <trkpt lat="44.64368" lon="-1.11638">
        <ele>3.5</ele>
        <time>2020-10-24T12:36:11Z</time>
      </trkpt>
      <trkpt lat="44.64312" lon="-1.11636">
        <ele>3.5</ele>
        <time>2020-10-24T12:36:28Z</time>
      </trkpt>
      <trkpt lat="44.64246" lon="-1.11644">
        <ele>3.5</ele>
        <time>2020-10-24T12:36:47Z</time>
      </trkpt>
      <trkpt lat="44.64183" lon="-1.11669">
        <ele>3.5</ele>
        <time>2020-10-24T12:37:05Z</time>
      </trkpt>
      <trkpt lat="44.6411" lon="-1.11699">
        <ele>3.5</ele>
        <time>2020-10-24T12:37:25Z</time>
      </trkpt>
      <trkpt lat="44.64054" lon="-1.1172">
        <ele>3.5</ele>
        <time>2020-10-24T12:37:42Z</time>
      </trkpt>
      <trkpt lat="44.6405" lon="-1.11719">
        <ele>3.5</ele>
        <time>2020-10-24T12:37:44Z</time>
      </trkpt>
      <trkpt lat="44.64047" lon="-1.11717">
        <ele>3.5</ele>
        <time>2020-10-24T12:37:45Z</time>
      </trkpt>
      <trkpt lat="44.64046" lon="-1.11715">
        <ele>3.5</ele>
        <time>2020-10-24T12:37:46Z</time>
      </trkpt>
      <trkpt lat="44.64044" lon="-1.11712">
        <ele>3.5</ele>
        <time>2020-10-24T12:37:47Z</time>
      </trkpt>
      <trkpt lat="44.64041" lon="-1.11709">
        <ele>3.5</ele>
        <time>2020-10-24T12:37:48Z</time>
      </trkpt>
      <trkpt lat="44.64039" lon="-1.11705">
        <ele>3.5</ele>
        <time>2020-10-24T12:37:49Z</time>
      </trkpt>
      <trkpt lat="44.64038" lon="-1.11702">
        <ele>3.5</ele>
        <time>2020-10-24T12:37:50Z</time>
      </trkpt>
      <trkpt lat="44.64036" lon="-1.11699">
        <ele>3.5</ele>
        <time>2020-10-24T12:37:51Z</time>
      </trkpt>
      <trkpt lat="44.64016" lon="-1.11662">
        <ele>3.98</ele>
        <time>2020-10-24T12:38:02Z</time>
      </trkpt>
      <trkpt lat="44.64015" lon="-1.11661">
        <ele>3.98</ele>
        <time>2020-10-24T12:38:03Z</time>
      </trkpt>
      <trkpt lat="44.64009" lon="-1.11658">
        <ele>4.94</ele>
        <time>2020-10-24T12:38:07Z</time>
      </trkpt>
      <trkpt lat="44.64008" lon="-1.11656">
        <ele>4.94</ele>
        <time>2020-10-24T12:38:08Z</time>
      </trkpt>
      <trkpt lat="44.64008" lon="-1.11654">
        <ele>4.46</ele>
        <time>2020-10-24T12:38:09Z</time>
      </trkpt>
      <trkpt lat="44.64008" lon="-1.11653">
        <ele>4.46</ele>
        <time>2020-10-24T12:38:10Z</time>
      </trkpt>
      <trkpt lat="44.64009" lon="-1.11652">
        <ele>4.46</ele>
        <time>2020-10-24T12:38:11Z</time>
      </trkpt>
      <trkpt lat="44.64011" lon="-1.11651">
        <ele>4.94</ele>
        <time>2020-10-24T12:38:13Z</time>
      </trkpt>
      <trkpt lat="44.64013" lon="-1.11649">
        <ele>5.42</ele>
        <time>2020-10-24T12:38:24Z</time>
      </trkpt>
      <trkpt lat="44.64011" lon="-1.1165">
        <ele>5.42</ele>
        <time>2020-10-24T12:38:26Z</time>
      </trkpt>
      <trkpt lat="44.6401" lon="-1.1165">
        <ele>5.42</ele>
        <time>2020-10-24T12:38:27Z</time>
      </trkpt>
      <trkpt lat="44.64009" lon="-1.11651">
        <ele>5.42</ele>
        <time>2020-10-24T12:38:28Z</time>
      </trkpt>
      <trkpt lat="44.64007" lon="-1.11651">
        <ele>5.42</ele>
        <time>2020-10-24T12:38:29Z</time>
      </trkpt>
      <trkpt lat="44.64005" lon="-1.11651">
        <ele>5.42</ele>
        <time>2020-10-24T12:38:30Z</time>
      </trkpt>
      <trkpt lat="44.64003" lon="-1.1165">
        <ele>5.42</ele>
        <time>2020-10-24T12:38:43Z</time>
      </trkpt>
      <trkpt lat="44.64002" lon="-1.1165">
        <ele>5.91</ele>
        <time>2020-10-24T12:39:03Z</time>
      </trkpt>
      <trkpt lat="44.63998" lon="-1.11649">
        <ele>5.91</ele>
        <time>2020-10-24T12:39:20Z</time>
      </trkpt>
      <trkpt lat="44.63996" lon="-1.11648">
        <ele>6.87</ele>
        <time>2020-10-24T12:39:42Z</time>
      </trkpt>
      <trkpt lat="44.63995" lon="-1.11647">
        <ele>6.87</ele>
        <time>2020-10-24T12:39:43Z</time>
      </trkpt>
      <trkpt lat="44.63994" lon="-1.11646">
        <ele>6.87</ele>
        <time>2020-10-24T12:39:44Z</time>
      </trkpt>
      <trkpt lat="44.63987" lon="-1.11644">
        <ele>6.87</ele>
        <time>2020-10-24T12:39:49Z</time>
      </trkpt>
      <trkpt lat="44.63984" lon="-1.11645">
        <ele>6.87</ele>
        <time>2020-10-24T12:39:52Z</time>
      </trkpt>
      <trkpt lat="44.63983" lon="-1.11647">
        <ele>6.87</ele>
        <time>2020-10-24T12:39:53Z</time>
      </trkpt>
      <trkpt lat="44.63982" lon="-1.11651">
        <ele>6.87</ele>
        <time>2020-10-24T12:40:02Z</time>
      </trkpt>
      <trkpt lat="44.63981" lon="-1.11652">
        <ele>6.87</ele>
        <time>2020-10-24T12:40:03Z</time>
      </trkpt>
      <trkpt lat="44.6398" lon="-1.11654">
        <ele>6.87</ele>
        <time>2020-10-24T12:40:04Z</time>
      </trkpt>
      <trkpt lat="44.6398" lon="-1.11657">
        <ele>6.87</ele>
        <time>2020-10-24T12:40:05Z</time>
      </trkpt>
      <trkpt lat="44.63981" lon="-1.11659">
        <ele>6.87</ele>
        <time>2020-10-24T12:40:06Z</time>
      </trkpt>
      <trkpt lat="44.63981" lon="-1.1166">
        <ele>6.87</ele>
        <time>2020-10-24T12:40:07Z</time>
      </trkpt>
      <trkpt lat="44.63981" lon="-1.11661">
        <ele>6.87</ele>
        <time>2020-10-24T12:40:08Z</time>
      </trkpt>
      <trkpt lat="44.63976" lon="-1.11686">
        <ele>4.94</ele>
        <time>2020-10-24T12:40:18Z</time>
      </trkpt>
      <trkpt lat="44.63969" lon="-1.11742">
        <ele>4.94</ele>
        <time>2020-10-24T12:40:32Z</time>
      </trkpt>
      <trkpt lat="44.63949" lon="-1.11836">
        <ele>3.98</ele>
        <time>2020-10-24T12:40:52Z</time>
      </trkpt>
      <trkpt lat="44.63929" lon="-1.11936">
        <ele>3.98</ele>
        <time>2020-10-24T12:41:11Z</time>
      </trkpt>
      <trkpt lat="44.63924" lon="-1.11958">
        <ele>5.42</ele>
        <time>2020-10-24T12:41:16Z</time>
      </trkpt>
      <trkpt lat="44.63928" lon="-1.11966">
        <ele>5.42</ele>
        <time>2020-10-24T12:41:27Z</time>
      </trkpt>
      <trkpt lat="44.6397" lon="-1.11963">
        <ele>5.42</ele>
        <time>2020-10-24T12:41:39Z</time>
      </trkpt>
      <trkpt lat="44.64019" lon="-1.11959">
        <ele>5.42</ele>
        <time>2020-10-24T12:41:52Z</time>
      </trkpt>
      <trkpt lat="44.6406" lon="-1.11961">
        <ele>5.42</ele>
        <time>2020-10-24T12:42:03Z</time>
      </trkpt>
      <trkpt lat="44.64121" lon="-1.11969">
        <ele>3.98</ele>
        <time>2020-10-24T12:42:16Z</time>
      </trkpt>
      <trkpt lat="44.64146" lon="-1.11973">
        <ele>3.5</ele>
        <time>2020-10-24T12:42:22Z</time>
      </trkpt>
      <trkpt lat="44.64151" lon="-1.11974">
        <ele>3.5</ele>
        <time>2020-10-24T12:42:23Z</time>
      </trkpt>
      <trkpt lat="44.64154" lon="-1.11977">
        <ele>3.5</ele>
        <time>2020-10-24T12:42:24Z</time>
      </trkpt>
      <trkpt lat="44.64159" lon="-1.1198">
        <ele>3.5</ele>
        <time>2020-10-24T12:42:25Z</time>
      </trkpt>
      <trkpt lat="44.64162" lon="-1.11983">
        <ele>3.5</ele>
        <time>2020-10-24T12:42:26Z</time>
      </trkpt>
      <trkpt lat="44.64165" lon="-1.11987">
        <ele>3.5</ele>
        <time>2020-10-24T12:42:27Z</time>
      </trkpt>
      <trkpt lat="44.64178" lon="-1.12007">
        <ele>3.5</ele>
        <time>2020-10-24T12:42:33Z</time>
      </trkpt>
      <trkpt lat="44.6418" lon="-1.12009">
        <ele>3.5</ele>
        <time>2020-10-24T12:42:34Z</time>
      </trkpt>
      <trkpt lat="44.64184" lon="-1.12009">
        <ele>3.5</ele>
        <time>2020-10-24T12:42:39Z</time>
      </trkpt>
      <trkpt lat="44.64184" lon="-1.12008">
        <ele>3.5</ele>
        <time>2020-10-24T12:42:40Z</time>
      </trkpt>
      <trkpt lat="44.64188" lon="-1.12006">
        <ele>3.5</ele>
        <time>2020-10-24T12:42:45Z</time>
      </trkpt>
      <trkpt lat="44.6419" lon="-1.12005">
        <ele>3.5</ele>
        <time>2020-10-24T12:42:46Z</time>
      </trkpt>
      <trkpt lat="44.64191" lon="-1.12003">
        <ele>3.5</ele>
        <time>2020-10-24T12:42:47Z</time>
      </trkpt>
      <trkpt lat="44.6421" lon="-1.1197">
        <ele>3.5</ele>
        <time>2020-10-24T12:42:58Z</time>
      </trkpt>
      <trkpt lat="44.64218" lon="-1.11936">
        <ele>3.5</ele>
        <time>2020-10-24T12:43:06Z</time>
      </trkpt>
      <trkpt lat="44.64218" lon="-1.11931">
        <ele>3.5</ele>
        <time>2020-10-24T12:43:07Z</time>
      </trkpt>
      <trkpt lat="44.64217" lon="-1.11927">
        <ele>3.5</ele>
        <time>2020-10-24T12:43:08Z</time>
      </trkpt>
      <trkpt lat="44.64217" lon="-1.11923">
        <ele>3.5</ele>
        <time>2020-10-24T12:43:09Z</time>
      </trkpt>
      <trkpt lat="44.64217" lon="-1.1192">
        <ele>3.5</ele>
        <time>2020-10-24T12:43:10Z</time>
      </trkpt>
      <trkpt lat="44.64219" lon="-1.11917">
        <ele>3.5</ele>
        <time>2020-10-24T12:43:11Z</time>
      </trkpt>
      <trkpt lat="44.64221" lon="-1.11915">
        <ele>3.5</ele>
        <time>2020-10-24T12:43:12Z</time>
      </trkpt>
      <trkpt lat="44.64224" lon="-1.11913">
        <ele>3.5</ele>
        <time>2020-10-24T12:43:13Z</time>
      </trkpt>
      <trkpt lat="44.64227" lon="-1.11911">
        <ele>3.5</ele>
        <time>2020-10-24T12:43:14Z</time>
      </trkpt>
      <trkpt lat="44.64229" lon="-1.11908">
        <ele>3.5</ele>
        <time>2020-10-24T12:43:15Z</time>
      </trkpt>
      <trkpt lat="44.64231" lon="-1.11904">
        <ele>3.5</ele>
        <time>2020-10-24T12:43:16Z</time>
      </trkpt>
      <trkpt lat="44.64233" lon="-1.11899">
        <ele>3.5</ele>
        <time>2020-10-24T12:43:17Z</time>
      </trkpt>
      <trkpt lat="44.64234" lon="-1.11894">
        <ele>3.5</ele>
        <time>2020-10-24T12:43:18Z</time>
      </trkpt>
      <trkpt lat="44.64235" lon="-1.1189">
        <ele>3.5</ele>
        <time>2020-10-24T12:43:19Z</time>
      </trkpt>
      <trkpt lat="44.64236" lon="-1.11885">
        <ele>3.5</ele>
        <time>2020-10-24T12:43:20Z</time>
      </trkpt>
      <trkpt lat="44.64244" lon="-1.11871">
        <ele>3.5</ele>
        <time>2020-10-24T12:43:24Z</time>
      </trkpt>
      <trkpt lat="44.64247" lon="-1.11869">
        <ele>3.5</ele>
        <time>2020-10-24T12:43:25Z</time>
      </trkpt>
      <trkpt lat="44.64251" lon="-1.11868">
        <ele>4.94</ele>
        <time>2020-10-24T12:43:26Z</time>
      </trkpt>
      <trkpt lat="44.64255" lon="-1.11867">
        <ele>4.94</ele>
        <time>2020-10-24T12:43:27Z</time>
      </trkpt>
      <trkpt lat="44.64291" lon="-1.11853">
        <ele>4.94</ele>
        <time>2020-10-24T12:43:38Z</time>
      </trkpt>
      <trkpt lat="44.64321" lon="-1.1184">
        <ele>4.94</ele>
        <time>2020-10-24T12:43:49Z</time>
      </trkpt>
      <trkpt lat="44.6435" lon="-1.11833">
        <ele>4.94</ele>
        <time>2020-10-24T12:44:00Z</time>
      </trkpt>
      <trkpt lat="44.64379" lon="-1.11824">
        <ele>4.94</ele>
        <time>2020-10-24T12:44:10Z</time>
      </trkpt>
      <trkpt lat="44.64391" lon="-1.11825">
        <ele>4.94</ele>
        <time>2020-10-24T12:44:14Z</time>
      </trkpt>
      <trkpt lat="44.64393" lon="-1.11823">
        <ele>4.94</ele>
        <time>2020-10-24T12:44:15Z</time>
      </trkpt>
      <trkpt lat="44.64395" lon="-1.11822">
        <ele>4.94</ele>
        <time>2020-10-24T12:44:16Z</time>
      </trkpt>
      <trkpt lat="44.64397" lon="-1.11821">
        <ele>4.94</ele>
        <time>2020-10-24T12:44:17Z</time>
      </trkpt>
      <trkpt lat="44.64399" lon="-1.1182">
        <ele>4.94</ele>
        <time>2020-10-24T12:44:18Z</time>
      </trkpt>
      <trkpt lat="44.644" lon="-1.1182">
        <ele>4.94</ele>
        <time>2020-10-24T12:44:19Z</time>
      </trkpt>
      <trkpt lat="44.64402" lon="-1.11819">
        <ele>4.94</ele>
        <time>2020-10-24T12:44:20Z</time>
      </trkpt>
      <trkpt lat="44.64404" lon="-1.11819">
        <ele>4.94</ele>
        <time>2020-10-24T12:44:21Z</time>
      </trkpt>
      <trkpt lat="44.64412" lon="-1.11817">
        <ele>4.94</ele>
        <time>2020-10-24T12:44:32Z</time>
      </trkpt>
      <trkpt lat="44.64421" lon="-1.11819">
        <ele>4.94</ele>
        <time>2020-10-24T12:44:45Z</time>
      </trkpt>
      <trkpt lat="44.64426" lon="-1.11822">
        <ele>4.46</ele>
        <time>2020-10-24T12:45:03Z</time>
      </trkpt>
      <trkpt lat="44.64431" lon="-1.11823">
        <ele>4.94</ele>
        <time>2020-10-24T12:45:16Z</time>
      </trkpt>
      <trkpt lat="44.64433" lon="-1.11823">
        <ele>4.94</ele>
        <time>2020-10-24T12:45:21Z</time>
      </trkpt>
      <trkpt lat="44.64434" lon="-1.11824">
        <ele>4.94</ele>
        <time>2020-10-24T12:45:22Z</time>
      </trkpt>
      <trkpt lat="44.64454" lon="-1.11829">
        <ele>5.42</ele>
        <time>2020-10-24T12:45:33Z</time>
      </trkpt>
      <trkpt lat="44.64476" lon="-1.11836">
        <ele>5.42</ele>
        <time>2020-10-24T12:45:44Z</time>
      </trkpt>
      <trkpt lat="44.6449" lon="-1.11841">
        <ele>5.42</ele>
        <time>2020-10-24T12:45:50Z</time>
      </trkpt>
      <trkpt lat="44.64492" lon="-1.11844">
        <ele>5.91</ele>
        <time>2020-10-24T12:46:04Z</time>
      </trkpt>
      <trkpt lat="44.64493" lon="-1.11843">
        <ele>5.91</ele>
        <time>2020-10-24T12:46:19Z</time>
      </trkpt>
      <trkpt lat="44.64494" lon="-1.11844">
        <ele>5.91</ele>
        <time>2020-10-24T12:46:20Z</time>
      </trkpt>
      <trkpt lat="44.64495" lon="-1.11846">
        <ele>5.91</ele>
        <time>2020-10-24T12:46:21Z</time>
      </trkpt>
      <trkpt lat="44.64495" lon="-1.11849">
        <ele>5.91</ele>
        <time>2020-10-24T12:46:23Z</time>
      </trkpt>
      <trkpt lat="44.64494" lon="-1.1185">
        <ele>5.91</ele>
        <time>2020-10-24T12:46:24Z</time>
      </trkpt>
      <trkpt lat="44.64492" lon="-1.11851">
        <ele>5.91</ele>
        <time>2020-10-24T12:46:41Z</time>
      </trkpt>
      <trkpt lat="44.64491" lon="-1.11854">
        <ele>6.39</ele>
        <time>2020-10-24T12:47:09Z</time>
      </trkpt>
      <trkpt lat="44.6449" lon="-1.11859">
        <ele>6.39</ele>
        <time>2020-10-24T12:47:12Z</time>
      </trkpt>
      <trkpt lat="44.6449" lon="-1.11861">
        <ele>6.39</ele>
        <time>2020-10-24T12:47:13Z</time>
      </trkpt>
      <trkpt lat="44.64489" lon="-1.11864">
        <ele>6.39</ele>
        <time>2020-10-24T12:47:14Z</time>
      </trkpt>
      <trkpt lat="44.64489" lon="-1.11868">
        <ele>6.39</ele>
        <time>2020-10-24T12:47:15Z</time>
      </trkpt>
      <trkpt lat="44.64489" lon="-1.11872">
        <ele>6.39</ele>
        <time>2020-10-24T12:47:16Z</time>
      </trkpt>
      <trkpt lat="44.64504" lon="-1.11929">
        <ele>6.39</ele>
        <time>2020-10-24T12:47:30Z</time>
      </trkpt>
      <trkpt lat="44.64512" lon="-1.11981">
        <ele>6.39</ele>
        <time>2020-10-24T12:47:42Z</time>
      </trkpt>
      <trkpt lat="44.64509" lon="-1.12038">
        <ele>6.39</ele>
        <time>2020-10-24T12:47:55Z</time>
      </trkpt>
      <trkpt lat="44.64506" lon="-1.12096">
        <ele>5.91</ele>
        <time>2020-10-24T12:48:08Z</time>
      </trkpt>
      <trkpt lat="44.64497" lon="-1.1218">
        <ele>4.94</ele>
        <time>2020-10-24T12:48:27Z</time>
      </trkpt>
      <trkpt lat="44.64489" lon="-1.12267">
        <ele>4.94</ele>
        <time>2020-10-24T12:48:47Z</time>
      </trkpt>
      <trkpt lat="44.64481" lon="-1.12332">
        <ele>4.94</ele>
        <time>2020-10-24T12:49:02Z</time>
      </trkpt>
      <trkpt lat="44.64472" lon="-1.12404">
        <ele>4.94</ele>
        <time>2020-10-24T12:49:18Z</time>
      </trkpt>
      <trkpt lat="44.64465" lon="-1.12461">
        <ele>4.94</ele>
        <time>2020-10-24T12:49:31Z</time>
      </trkpt>
      <trkpt lat="44.64454" lon="-1.12532">
        <ele>5.91</ele>
        <time>2020-10-24T12:49:48Z</time>
      </trkpt>
      <trkpt lat="44.64452" lon="-1.12587">
        <ele>6.39</ele>
        <time>2020-10-24T12:50:02Z</time>
      </trkpt>
      <trkpt lat="44.64455" lon="-1.12613">
        <ele>6.39</ele>
        <time>2020-10-24T12:50:14Z</time>
      </trkpt>
      <trkpt lat="44.64456" lon="-1.12614">
        <ele>6.39</ele>
        <time>2020-10-24T12:50:15Z</time>
      </trkpt>
      <trkpt lat="44.64457" lon="-1.12615">
        <ele>6.39</ele>
        <time>2020-10-24T12:50:16Z</time>
      </trkpt>
      <trkpt lat="44.64458" lon="-1.12616">
        <ele>6.39</ele>
        <time>2020-10-24T12:50:17Z</time>
      </trkpt>
      <trkpt lat="44.64459" lon="-1.12618">
        <ele>6.39</ele>
        <time>2020-10-24T12:50:18Z</time>
      </trkpt>
      <trkpt lat="44.6446" lon="-1.12621">
        <ele>6.39</ele>
        <time>2020-10-24T12:50:19Z</time>
      </trkpt>
      <trkpt lat="44.64461" lon="-1.12624">
        <ele>6.39</ele>
        <time>2020-10-24T12:50:20Z</time>
      </trkpt>
      <trkpt lat="44.64461" lon="-1.12626">
        <ele>6.39</ele>
        <time>2020-10-24T12:50:21Z</time>
      </trkpt>
      <trkpt lat="44.64458" lon="-1.12668">
        <ele>6.39</ele>
        <time>2020-10-24T12:50:33Z</time>
      </trkpt>
      <trkpt lat="44.6445" lon="-1.12714">
        <ele>5.42</ele>
        <time>2020-10-24T12:50:48Z</time>
      </trkpt>
      <trkpt lat="44.64437" lon="-1.12784">
        <ele>5.42</ele>
        <time>2020-10-24T12:51:03Z</time>
      </trkpt>
      <trkpt lat="44.64423" lon="-1.12833">
        <ele>4.94</ele>
        <time>2020-10-24T12:51:15Z</time>
      </trkpt>
      <trkpt lat="44.64423" lon="-1.12838">
        <ele>4.94</ele>
        <time>2020-10-24T12:51:16Z</time>
      </trkpt>
      <trkpt lat="44.64423" lon="-1.12842">
        <ele>4.94</ele>
        <time>2020-10-24T12:51:17Z</time>
      </trkpt>
      <trkpt lat="44.64405" lon="-1.12905">
        <ele>4.94</ele>
        <time>2020-10-24T12:51:32Z</time>
      </trkpt>
      <trkpt lat="44.64394" lon="-1.12964">
        <ele>4.94</ele>
        <time>2020-10-24T12:51:46Z</time>
      </trkpt>
      <trkpt lat="44.64375" lon="-1.13041">
        <ele>4.94</ele>
        <time>2020-10-24T12:52:02Z</time>
      </trkpt>
      <trkpt lat="44.64374" lon="-1.13046">
        <ele>4.94</ele>
        <time>2020-10-24T12:52:03Z</time>
      </trkpt>
      <trkpt lat="44.64372" lon="-1.13063">
        <ele>4.94</ele>
        <time>2020-10-24T12:52:06Z</time>
      </trkpt>
      <trkpt lat="44.6437" lon="-1.13088">
        <ele>3.5</ele>
        <time>2020-10-24T12:52:09Z</time>
      </trkpt>
      <trkpt lat="44.64369" lon="-1.13096">
        <ele>3.5</ele>
        <time>2020-10-24T12:52:10Z</time>
      </trkpt>
      <trkpt lat="44.6435" lon="-1.13162">
        <ele>3.5</ele>
        <time>2020-10-24T12:52:21Z</time>
      </trkpt>
      <trkpt lat="44.64338" lon="-1.13194">
        <ele>5.42</ele>
        <time>2020-10-24T12:52:31Z</time>
      </trkpt>
      <trkpt lat="44.64321" lon="-1.13264">
        <ele>4.94</ele>
        <time>2020-10-24T12:52:50Z</time>
      </trkpt>
      <trkpt lat="44.64305" lon="-1.13328">
        <ele>5.42</ele>
        <time>2020-10-24T12:53:06Z</time>
      </trkpt>
      <trkpt lat="44.64289" lon="-1.13399">
        <ele>5.91</ele>
        <time>2020-10-24T12:53:23Z</time>
      </trkpt>
      <trkpt lat="44.6427" lon="-1.13478">
        <ele>5.91</ele>
        <time>2020-10-24T12:53:41Z</time>
      </trkpt>
      <trkpt lat="44.64253" lon="-1.13573">
        <ele>3.98</ele>
        <time>2020-10-24T12:54:00Z</time>
      </trkpt>
      <trkpt lat="44.64242" lon="-1.13654">
        <ele>3.98</ele>
        <time>2020-10-24T12:54:17Z</time>
      </trkpt>
      <trkpt lat="44.6423" lon="-1.13738">
        <ele>3.98</ele>
        <time>2020-10-24T12:54:35Z</time>
      </trkpt>
      <trkpt lat="44.64228" lon="-1.13792">
        <ele>3.98</ele>
        <time>2020-10-24T12:54:47Z</time>
      </trkpt>
      <trkpt lat="44.64212" lon="-1.13842">
        <ele>5.42</ele>
        <time>2020-10-24T12:55:00Z</time>
      </trkpt>
      <trkpt lat="44.64185" lon="-1.13907">
        <ele>5.42</ele>
        <time>2020-10-24T12:55:17Z</time>
      </trkpt>
      <trkpt lat="44.64158" lon="-1.1397">
        <ele>5.42</ele>
        <time>2020-10-24T12:55:35Z</time>
      </trkpt>
      <trkpt lat="44.6413" lon="-1.14041">
        <ele>4.46</ele>
        <time>2020-10-24T12:55:54Z</time>
      </trkpt>
      <trkpt lat="44.64126" lon="-1.1407">
        <ele>4.46</ele>
        <time>2020-10-24T12:56:05Z</time>
      </trkpt>
      <trkpt lat="44.64126" lon="-1.1407">
        <ele>4.46</ele>
        <time>2020-10-24T12:56:28Z</time>
      </trkpt>
      <trkpt lat="44.64133" lon="-1.14089">
        <ele>4.46</ele>
        <time>2020-10-24T12:56:43Z</time>
      </trkpt>
      <trkpt lat="44.64165" lon="-1.14102">
        <ele>4.46</ele>
        <time>2020-10-24T12:56:54Z</time>
      </trkpt>
      <trkpt lat="44.64213" lon="-1.14108">
        <ele>4.46</ele>
        <time>2020-10-24T12:57:09Z</time>
      </trkpt>
      <trkpt lat="44.64263" lon="-1.14119">
        <ele>4.46</ele>
        <time>2020-10-24T12:57:24Z</time>
      </trkpt>
      <trkpt lat="44.64318" lon="-1.14129">
        <ele>4.46</ele>
        <time>2020-10-24T12:57:39Z</time>
      </trkpt>
      <trkpt lat="44.6432" lon="-1.14132">
        <ele>4.46</ele>
        <time>2020-10-24T12:57:40Z</time>
      </trkpt>
      <trkpt lat="44.64322" lon="-1.14137">
        <ele>4.46</ele>
        <time>2020-10-24T12:57:41Z</time>
      </trkpt>
      <trkpt lat="44.64323" lon="-1.14144">
        <ele>3.02</ele>
        <time>2020-10-24T12:57:42Z</time>
      </trkpt>
      <trkpt lat="44.64325" lon="-1.14152">
        <ele>3.02</ele>
        <time>2020-10-24T12:57:43Z</time>
      </trkpt>
      <trkpt lat="44.64326" lon="-1.14161">
        <ele>3.02</ele>
        <time>2020-10-24T12:57:44Z</time>
      </trkpt>
      <trkpt lat="44.64326" lon="-1.14169">
        <ele>3.02</ele>
        <time>2020-10-24T12:57:45Z</time>
      </trkpt>
      <trkpt lat="44.64325" lon="-1.14176">
        <ele>3.02</ele>
        <time>2020-10-24T12:57:46Z</time>
      </trkpt>
      <trkpt lat="44.64321" lon="-1.14215">
        <ele>3.98</ele>
        <time>2020-10-24T12:57:52Z</time>
      </trkpt>
      <trkpt lat="44.64316" lon="-1.14249">
        <ele>3.98</ele>
        <time>2020-10-24T12:57:58Z</time>
      </trkpt>
      <trkpt lat="44.64315" lon="-1.14255">
        <ele>3.98</ele>
        <time>2020-10-24T12:57:59Z</time>
      </trkpt>
      <trkpt lat="44.64313" lon="-1.1426">
        <ele>3.98</ele>
        <time>2020-10-24T12:58:00Z</time>
      </trkpt>
      <trkpt lat="44.6431" lon="-1.14266">
        <ele>3.98</ele>
        <time>2020-10-24T12:58:01Z</time>
      </trkpt>
      <trkpt lat="44.64307" lon="-1.14271">
        <ele>3.98</ele>
        <time>2020-10-24T12:58:02Z</time>
      </trkpt>
      <trkpt lat="44.64302" lon="-1.14282">
        <ele>3.98</ele>
        <time>2020-10-24T12:58:04Z</time>
      </trkpt>
      <trkpt lat="44.64301" lon="-1.14287">
        <ele>3.02</ele>
        <time>2020-10-24T12:58:05Z</time>
      </trkpt>
      <trkpt lat="44.643" lon="-1.14293">
        <ele>3.02</ele>
        <time>2020-10-24T12:58:06Z</time>
      </trkpt>
      <trkpt lat="44.64298" lon="-1.14299">
        <ele>3.02</ele>
        <time>2020-10-24T12:58:07Z</time>
      </trkpt>
      <trkpt lat="44.64298" lon="-1.14305">
        <ele>3.02</ele>
        <time>2020-10-24T12:58:08Z</time>
      </trkpt>
      <trkpt lat="44.64292" lon="-1.1437">
        <ele>3.02</ele>
        <time>2020-10-24T12:58:21Z</time>
      </trkpt>
      <trkpt lat="44.64288" lon="-1.14402">
        <ele>3.98</ele>
        <time>2020-10-24T12:58:27Z</time>
      </trkpt>
      <trkpt lat="44.64277" lon="-1.14464">
        <ele>3.98</ele>
        <time>2020-10-24T12:58:41Z</time>
      </trkpt>
      <trkpt lat="44.64272" lon="-1.14477">
        <ele>4.46</ele>
        <time>2020-10-24T12:58:45Z</time>
      </trkpt>
      <trkpt lat="44.6427" lon="-1.14479">
        <ele>4.46</ele>
        <time>2020-10-24T12:58:46Z</time>
      </trkpt>
      <trkpt lat="44.64266" lon="-1.14479">
        <ele>4.46</ele>
        <time>2020-10-24T12:58:47Z</time>
      </trkpt>
      <trkpt lat="44.64264" lon="-1.14479">
        <ele>4.46</ele>
        <time>2020-10-24T12:58:48Z</time>
      </trkpt>
      <trkpt lat="44.64261" lon="-1.14478">
        <ele>4.46</ele>
        <time>2020-10-24T12:58:49Z</time>
      </trkpt>
      <trkpt lat="44.64258" lon="-1.14477">
        <ele>4.46</ele>
        <time>2020-10-24T12:58:50Z</time>
      </trkpt>
      <trkpt lat="44.64254" lon="-1.14476">
        <ele>4.46</ele>
        <time>2020-10-24T12:58:51Z</time>
      </trkpt>
      <trkpt lat="44.64187" lon="-1.14452">
        <ele>3.98</ele>
        <time>2020-10-24T12:59:11Z</time>
      </trkpt>
      <trkpt lat="44.64119" lon="-1.14427">
        <ele>3.98</ele>
        <time>2020-10-24T12:59:30Z</time>
      </trkpt>
      <trkpt lat="44.64061" lon="-1.14406">
        <ele>3.98</ele>
        <time>2020-10-24T12:59:45Z</time>
      </trkpt>
      <trkpt lat="44.63994" lon="-1.14383">
        <ele>3.98</ele>
        <time>2020-10-24T13:00:02Z</time>
      </trkpt>
      <trkpt lat="44.63915" lon="-1.14354">
        <ele>3.5</ele>
        <time>2020-10-24T13:00:21Z</time>
      </trkpt>
      <trkpt lat="44.63899" lon="-1.14348">
        <ele>3.5</ele>
        <time>2020-10-24T13:00:25Z</time>
      </trkpt>
      <trkpt lat="44.63895" lon="-1.14346">
        <ele>3.5</ele>
        <time>2020-10-24T13:00:26Z</time>
      </trkpt>
      <trkpt lat="44.63875" lon="-1.1434">
        <ele>3.5</ele>
        <time>2020-10-24T13:00:31Z</time>
      </trkpt>
      <trkpt lat="44.63803" lon="-1.1432">
        <ele>3.5</ele>
        <time>2020-10-24T13:00:49Z</time>
      </trkpt>
      <trkpt lat="44.638" lon="-1.14323">
        <ele>3.5</ele>
        <time>2020-10-24T13:00:50Z</time>
      </trkpt>
      <trkpt lat="44.63799" lon="-1.14327">
        <ele>3.5</ele>
        <time>2020-10-24T13:00:51Z</time>
      </trkpt>
      <trkpt lat="44.63796" lon="-1.1434">
        <ele>4.94</ele>
        <time>2020-10-24T13:00:54Z</time>
      </trkpt>
      <trkpt lat="44.63803" lon="-1.14392">
        <ele>4.94</ele>
        <time>2020-10-24T13:01:06Z</time>
      </trkpt>
      <trkpt lat="44.63838" lon="-1.14472">
        <ele>5.91</ele>
        <time>2020-10-24T13:01:24Z</time>
      </trkpt>
      <trkpt lat="44.63873" lon="-1.14548">
        <ele>5.91</ele>
        <time>2020-10-24T13:01:40Z</time>
      </trkpt>
      <trkpt lat="44.63902" lon="-1.14612">
        <ele>5.91</ele>
        <time>2020-10-24T13:01:53Z</time>
      </trkpt>
      <trkpt lat="44.63905" lon="-1.14616">
        <ele>5.91</ele>
        <time>2020-10-24T13:01:54Z</time>
      </trkpt>
      <trkpt lat="44.63908" lon="-1.14621">
        <ele>5.91</ele>
        <time>2020-10-24T13:01:55Z</time>
      </trkpt>
      <trkpt lat="44.63911" lon="-1.14625">
        <ele>5.91</ele>
        <time>2020-10-24T13:01:56Z</time>
      </trkpt>
      <trkpt lat="44.63913" lon="-1.1463">
        <ele>5.91</ele>
        <time>2020-10-24T13:01:57Z</time>
      </trkpt>
      <trkpt lat="44.63915" lon="-1.14635">
        <ele>5.91</ele>
        <time>2020-10-24T13:01:58Z</time>
      </trkpt>
      <trkpt lat="44.63927" lon="-1.14655">
        <ele>5.91</ele>
        <time>2020-10-24T13:02:03Z</time>
      </trkpt>
      <trkpt lat="44.6393" lon="-1.14657">
        <ele>5.91</ele>
        <time>2020-10-24T13:02:04Z</time>
      </trkpt>
      <trkpt lat="44.63934" lon="-1.14658">
        <ele>5.91</ele>
        <time>2020-10-24T13:02:05Z</time>
      </trkpt>
      <trkpt lat="44.63936" lon="-1.14658">
        <ele>5.91</ele>
        <time>2020-10-24T13:02:06Z</time>
      </trkpt>
      <trkpt lat="44.63938" lon="-1.14659">
        <ele>5.91</ele>
        <time>2020-10-24T13:02:07Z</time>
      </trkpt>
      <trkpt lat="44.63941" lon="-1.14659">
        <ele>5.42</ele>
        <time>2020-10-24T13:02:08Z</time>
      </trkpt>
      <trkpt lat="44.63944" lon="-1.14658">
        <ele>5.42</ele>
        <time>2020-10-24T13:02:09Z</time>
      </trkpt>
      <trkpt lat="44.63968" lon="-1.1466">
        <ele>5.42</ele>
        <time>2020-10-24T13:02:17Z</time>
      </trkpt>
      <trkpt lat="44.6397" lon="-1.14662">
        <ele>5.42</ele>
        <time>2020-10-24T13:02:18Z</time>
      </trkpt>
      <trkpt lat="44.63972" lon="-1.14664">
        <ele>5.42</ele>
        <time>2020-10-24T13:02:19Z</time>
      </trkpt>
      <trkpt lat="44.63975" lon="-1.14665">
        <ele>5.42</ele>
        <time>2020-10-24T13:02:20Z</time>
      </trkpt>
      <trkpt lat="44.63977" lon="-1.14664">
        <ele>5.42</ele>
        <time>2020-10-24T13:02:21Z</time>
      </trkpt>
      <trkpt lat="44.63981" lon="-1.14664">
        <ele>5.42</ele>
        <time>2020-10-24T13:02:22Z</time>
      </trkpt>
      <trkpt lat="44.63984" lon="-1.14663">
        <ele>5.42</ele>
        <time>2020-10-24T13:02:23Z</time>
      </trkpt>
      <trkpt lat="44.63988" lon="-1.14663">
        <ele>5.42</ele>
        <time>2020-10-24T13:02:24Z</time>
      </trkpt>
      <trkpt lat="44.63991" lon="-1.14663">
        <ele>5.42</ele>
        <time>2020-10-24T13:02:25Z</time>
      </trkpt>
      <trkpt lat="44.64041" lon="-1.14662">
        <ele>5.42</ele>
        <time>2020-10-24T13:02:40Z</time>
      </trkpt>
      <trkpt lat="44.64091" lon="-1.14662">
        <ele>5.42</ele>
        <time>2020-10-24T13:02:54Z</time>
      </trkpt>
      <trkpt lat="44.64158" lon="-1.14661">
        <ele>5.42</ele>
        <time>2020-10-24T13:03:11Z</time>
      </trkpt>
      <trkpt lat="44.6422" lon="-1.14661">
        <ele>5.42</ele>
        <time>2020-10-24T13:03:26Z</time>
      </trkpt>
      <trkpt lat="44.64274" lon="-1.14661">
        <ele>5.91</ele>
        <time>2020-10-24T13:03:40Z</time>
      </trkpt>
      <trkpt lat="44.6433" lon="-1.14661">
        <ele>5.91</ele>
        <time>2020-10-24T13:03:54Z</time>
      </trkpt>
      <trkpt lat="44.64386" lon="-1.1466">
        <ele>5.91</ele>
        <time>2020-10-24T13:04:10Z</time>
      </trkpt>
      <trkpt lat="44.64432" lon="-1.14661">
        <ele>5.91</ele>
        <time>2020-10-24T13:04:23Z</time>
      </trkpt>
      <trkpt lat="44.64492" lon="-1.1466">
        <ele>5.91</ele>
        <time>2020-10-24T13:04:39Z</time>
      </trkpt>
      <trkpt lat="44.64539" lon="-1.14667">
        <ele>5.91</ele>
        <time>2020-10-24T13:04:52Z</time>
      </trkpt>
      <trkpt lat="44.64547" lon="-1.14669">
        <ele>5.91</ele>
        <time>2020-10-24T13:04:54Z</time>
      </trkpt>
      <trkpt lat="44.64618" lon="-1.14684">
        <ele>5.91</ele>
        <time>2020-10-24T13:05:12Z</time>
      </trkpt>
      <trkpt lat="44.64657" lon="-1.14693">
        <ele>5.91</ele>
        <time>2020-10-24T13:05:23Z</time>
      </trkpt>
      <trkpt lat="44.64706" lon="-1.14707">
        <ele>5.91</ele>
        <time>2020-10-24T13:05:36Z</time>
      </trkpt>
      <trkpt lat="44.6471" lon="-1.1471">
        <ele>5.91</ele>
        <time>2020-10-24T13:05:37Z</time>
      </trkpt>
      <trkpt lat="44.64712" lon="-1.14714">
        <ele>5.91</ele>
        <time>2020-10-24T13:05:38Z</time>
      </trkpt>
      <trkpt lat="44.64715" lon="-1.14718">
        <ele>5.91</ele>
        <time>2020-10-24T13:05:39Z</time>
      </trkpt>
      <trkpt lat="44.64716" lon="-1.14723">
        <ele>5.91</ele>
        <time>2020-10-24T13:05:40Z</time>
      </trkpt>
      <trkpt lat="44.64718" lon="-1.14727">
        <ele>5.91</ele>
        <time>2020-10-24T13:05:41Z</time>
      </trkpt>
      <trkpt lat="44.64718" lon="-1.14731">
        <ele>5.91</ele>
        <time>2020-10-24T13:05:42Z</time>
      </trkpt>
      <trkpt lat="44.64718" lon="-1.14736">
        <ele>6.39</ele>
        <time>2020-10-24T13:05:43Z</time>
      </trkpt>
      <trkpt lat="44.64718" lon="-1.14743">
        <ele>5.91</ele>
        <time>2020-10-24T13:05:45Z</time>
      </trkpt>
      <trkpt lat="44.64719" lon="-1.14748">
        <ele>5.91</ele>
        <time>2020-10-24T13:05:46Z</time>
      </trkpt>
      <trkpt lat="44.64736" lon="-1.14795">
        <ele>5.91</ele>
        <time>2020-10-24T13:05:59Z</time>
      </trkpt>
      <trkpt lat="44.64757" lon="-1.14853">
        <ele>6.39</ele>
        <time>2020-10-24T13:06:13Z</time>
      </trkpt>
      <trkpt lat="44.64757" lon="-1.14859">
        <ele>6.39</ele>
        <time>2020-10-24T13:06:14Z</time>
      </trkpt>
      <trkpt lat="44.64757" lon="-1.14865">
        <ele>6.39</ele>
        <time>2020-10-24T13:06:15Z</time>
      </trkpt>
      <trkpt lat="44.64756" lon="-1.14871">
        <ele>5.42</ele>
        <time>2020-10-24T13:06:16Z</time>
      </trkpt>
      <trkpt lat="44.64754" lon="-1.14876">
        <ele>5.42</ele>
        <time>2020-10-24T13:06:17Z</time>
      </trkpt>
      <trkpt lat="44.64752" lon="-1.14882">
        <ele>4.94</ele>
        <time>2020-10-24T13:06:18Z</time>
      </trkpt>
      <trkpt lat="44.6475" lon="-1.14888">
        <ele>4.94</ele>
        <time>2020-10-24T13:06:19Z</time>
      </trkpt>
      <trkpt lat="44.64747" lon="-1.14895">
        <ele>4.94</ele>
        <time>2020-10-24T13:06:20Z</time>
      </trkpt>
      <trkpt lat="44.64743" lon="-1.14909">
        <ele>3.98</ele>
        <time>2020-10-24T13:06:22Z</time>
      </trkpt>
      <trkpt lat="44.64712" lon="-1.15016">
        <ele>2.54</ele>
        <time>2020-10-24T13:06:39Z</time>
      </trkpt>
      <trkpt lat="44.64704" lon="-1.15045">
        <ele>2.54</ele>
        <time>2020-10-24T13:06:44Z</time>
      </trkpt>
      <trkpt lat="44.64703" lon="-1.15051">
        <ele>2.54</ele>
        <time>2020-10-24T13:06:45Z</time>
      </trkpt>
      <trkpt lat="44.64704" lon="-1.15057">
        <ele>2.54</ele>
        <time>2020-10-24T13:06:46Z</time>
      </trkpt>
      <trkpt lat="44.64705" lon="-1.15063">
        <ele>2.54</ele>
        <time>2020-10-24T13:06:47Z</time>
      </trkpt>
      <trkpt lat="44.64706" lon="-1.15069">
        <ele>2.54</ele>
        <time>2020-10-24T13:06:48Z</time>
      </trkpt>
      <trkpt lat="44.64709" lon="-1.15081">
        <ele>2.54</ele>
        <time>2020-10-24T13:06:50Z</time>
      </trkpt>
      <trkpt lat="44.64709" lon="-1.15086">
        <ele>2.54</ele>
        <time>2020-10-24T13:06:51Z</time>
      </trkpt>
      <trkpt lat="44.64709" lon="-1.15135">
        <ele>2.54</ele>
        <time>2020-10-24T13:06:59Z</time>
      </trkpt>
      <trkpt lat="44.64709" lon="-1.15141">
        <ele>2.54</ele>
        <time>2020-10-24T13:07:00Z</time>
      </trkpt>
      <trkpt lat="44.6471" lon="-1.15147">
        <ele>2.54</ele>
        <time>2020-10-24T13:07:01Z</time>
      </trkpt>
      <trkpt lat="44.64712" lon="-1.15152">
        <ele>2.54</ele>
        <time>2020-10-24T13:07:02Z</time>
      </trkpt>
      <trkpt lat="44.64714" lon="-1.15157">
        <ele>2.54</ele>
        <time>2020-10-24T13:07:03Z</time>
      </trkpt>
      <trkpt lat="44.64716" lon="-1.15162">
        <ele>3.98</ele>
        <time>2020-10-24T13:07:04Z</time>
      </trkpt>
      <trkpt lat="44.64754" lon="-1.15204">
        <ele>4.94</ele>
        <time>2020-10-24T13:07:17Z</time>
      </trkpt>
      <trkpt lat="44.64774" lon="-1.15234">
        <ele>5.42</ele>
        <time>2020-10-24T13:07:27Z</time>
      </trkpt>
      <trkpt lat="44.64785" lon="-1.15252">
        <ele>5.91</ele>
        <time>2020-10-24T13:07:34Z</time>
      </trkpt>
      <trkpt lat="44.64786" lon="-1.15255">
        <ele>5.91</ele>
        <time>2020-10-24T13:07:35Z</time>
      </trkpt>
      <trkpt lat="44.64788" lon="-1.15257">
        <ele>5.91</ele>
        <time>2020-10-24T13:07:36Z</time>
      </trkpt>
      <trkpt lat="44.64789" lon="-1.15257">
        <ele>5.91</ele>
        <time>2020-10-24T13:07:37Z</time>
      </trkpt>
      <trkpt lat="44.64794" lon="-1.15258">
        <ele>6.39</ele>
        <time>2020-10-24T13:07:51Z</time>
      </trkpt>
      <trkpt lat="44.64795" lon="-1.15256">
        <ele>6.87</ele>
        <time>2020-10-24T13:08:16Z</time>
      </trkpt>
      <trkpt lat="44.64795" lon="-1.15255">
        <ele>6.87</ele>
        <time>2020-10-24T13:08:43Z</time>
      </trkpt>
      <trkpt lat="44.64794" lon="-1.15257">
        <ele>6.87</ele>
        <time>2020-10-24T13:09:19Z</time>
      </trkpt>
      <trkpt lat="44.64793" lon="-1.15258">
        <ele>6.87</ele>
        <time>2020-10-24T13:09:53Z</time>
      </trkpt>
      <trkpt lat="44.64795" lon="-1.15256">
        <ele>6.87</ele>
        <time>2020-10-24T13:09:56Z</time>
      </trkpt>
      <trkpt lat="44.64796" lon="-1.15254">
        <ele>6.87</ele>
        <time>2020-10-24T13:09:57Z</time>
      </trkpt>
      <trkpt lat="44.64823" lon="-1.15238">
        <ele>6.87</ele>
        <time>2020-10-24T13:10:10Z</time>
      </trkpt>
      <trkpt lat="44.6484" lon="-1.15218">
        <ele>6.87</ele>
        <time>2020-10-24T13:10:22Z</time>
      </trkpt>
      <trkpt lat="44.64871" lon="-1.15172">
        <ele>6.87</ele>
        <time>2020-10-24T13:10:36Z</time>
      </trkpt>
      <trkpt lat="44.64913" lon="-1.15117">
        <ele>6.39</ele>
        <time>2020-10-24T13:10:53Z</time>
      </trkpt>
      <trkpt lat="44.6495" lon="-1.15064">
        <ele>6.39</ele>
        <time>2020-10-24T13:11:08Z</time>
      </trkpt>
      <trkpt lat="44.64992" lon="-1.15009">
        <ele>6.39</ele>
        <time>2020-10-24T13:11:22Z</time>
      </trkpt>
      <trkpt lat="44.65026" lon="-1.1496">
        <ele>6.87</ele>
        <time>2020-10-24T13:11:34Z</time>
      </trkpt>
      <trkpt lat="44.6505" lon="-1.14931">
        <ele>6.87</ele>
        <time>2020-10-24T13:11:41Z</time>
      </trkpt>
      <trkpt lat="44.65057" lon="-1.14894">
        <ele>6.87</ele>
        <time>2020-10-24T13:11:50Z</time>
      </trkpt>
      <trkpt lat="44.65026" lon="-1.14855">
        <ele>6.87</ele>
        <time>2020-10-24T13:12:02Z</time>
      </trkpt>
      <trkpt lat="44.64976" lon="-1.14785">
        <ele>5.42</ele>
        <time>2020-10-24T13:12:19Z</time>
      </trkpt>
      <trkpt lat="44.64973" lon="-1.14781">
        <ele>5.42</ele>
        <time>2020-10-24T13:12:20Z</time>
      </trkpt>
      <trkpt lat="44.64967" lon="-1.14771">
        <ele>5.42</ele>
        <time>2020-10-24T13:12:22Z</time>
      </trkpt>
      <trkpt lat="44.64951" lon="-1.14749">
        <ele>5.42</ele>
        <time>2020-10-24T13:12:28Z</time>
      </trkpt>
      <trkpt lat="44.64951" lon="-1.14744">
        <ele>5.42</ele>
        <time>2020-10-24T13:12:29Z</time>
      </trkpt>
      <trkpt lat="44.64952" lon="-1.14741">
        <ele>5.42</ele>
        <time>2020-10-24T13:12:30Z</time>
      </trkpt>
      <trkpt lat="44.64953" lon="-1.14738">
        <ele>5.42</ele>
        <time>2020-10-24T13:12:31Z</time>
      </trkpt>
      <trkpt lat="44.64955" lon="-1.14735">
        <ele>5.42</ele>
        <time>2020-10-24T13:12:32Z</time>
      </trkpt>
      <trkpt lat="44.64958" lon="-1.14732">
        <ele>5.42</ele>
        <time>2020-10-24T13:12:33Z</time>
      </trkpt>
      <trkpt lat="44.64987" lon="-1.14694">
        <ele>4.94</ele>
        <time>2020-10-24T13:12:43Z</time>
      </trkpt>
      <trkpt lat="44.6499" lon="-1.14691">
        <ele>4.94</ele>
        <time>2020-10-24T13:12:44Z</time>
      </trkpt>
      <trkpt lat="44.64994" lon="-1.14689">
        <ele>4.94</ele>
        <time>2020-10-24T13:12:45Z</time>
      </trkpt>
      <trkpt lat="44.64997" lon="-1.14688">
        <ele>4.94</ele>
        <time>2020-10-24T13:12:46Z</time>
      </trkpt>
      <trkpt lat="44.65001" lon="-1.14687">
        <ele>4.94</ele>
        <time>2020-10-24T13:12:47Z</time>
      </trkpt>
      <trkpt lat="44.65004" lon="-1.14686">
        <ele>4.94</ele>
        <time>2020-10-24T13:12:48Z</time>
      </trkpt>
      <trkpt lat="44.65007" lon="-1.14686">
        <ele>4.94</ele>
        <time>2020-10-24T13:12:49Z</time>
      </trkpt>
      <trkpt lat="44.65044" lon="-1.1469">
        <ele>4.94</ele>
        <time>2020-10-24T13:13:01Z</time>
      </trkpt>
      <trkpt lat="44.65067" lon="-1.14705">
        <ele>4.94</ele>
        <time>2020-10-24T13:13:11Z</time>
      </trkpt>
      <trkpt lat="44.65086" lon="-1.14712">
        <ele>4.94</ele>
        <time>2020-10-24T13:13:20Z</time>
      </trkpt>
      <trkpt lat="44.65088" lon="-1.14713">
        <ele>4.94</ele>
        <time>2020-10-24T13:13:21Z</time>
      </trkpt>
      <trkpt lat="44.65097" lon="-1.14719">
        <ele>4.94</ele>
        <time>2020-10-24T13:13:32Z</time>
      </trkpt>
      <trkpt lat="44.65105" lon="-1.14718">
        <ele>4.94</ele>
        <time>2020-10-24T13:13:35Z</time>
      </trkpt>
      <trkpt lat="44.65107" lon="-1.14715">
        <ele>4.94</ele>
        <time>2020-10-24T13:13:36Z</time>
      </trkpt>
      <trkpt lat="44.65119" lon="-1.14672">
        <ele>4.94</ele>
        <time>2020-10-24T13:13:48Z</time>
      </trkpt>
      <trkpt lat="44.65122" lon="-1.14623">
        <ele>5.42</ele>
        <time>2020-10-24T13:14:00Z</time>
      </trkpt>
      <trkpt lat="44.65118" lon="-1.14581">
        <ele>6.39</ele>
        <time>2020-10-24T13:14:12Z</time>
      </trkpt>
      <trkpt lat="44.65117" lon="-1.14569">
        <ele>6.39</ele>
        <time>2020-10-24T13:14:17Z</time>
      </trkpt>
      <trkpt lat="44.65118" lon="-1.14557">
        <ele>6.39</ele>
        <time>2020-10-24T13:14:23Z</time>
      </trkpt>
      <trkpt lat="44.65125" lon="-1.14529">
        <ele>4.94</ele>
        <time>2020-10-24T13:14:34Z</time>
      </trkpt>
      <trkpt lat="44.65126" lon="-1.14528">
        <ele>4.94</ele>
        <time>2020-10-24T13:14:35Z</time>
      </trkpt>
      <trkpt lat="44.65127" lon="-1.14528">
        <ele>4.94</ele>
        <time>2020-10-24T13:14:36Z</time>
      </trkpt>
      <trkpt lat="44.65129" lon="-1.14528">
        <ele>4.94</ele>
        <time>2020-10-24T13:14:38Z</time>
      </trkpt>
      <trkpt lat="44.6513" lon="-1.14528">
        <ele>4.94</ele>
        <time>2020-10-24T13:14:39Z</time>
      </trkpt>
      <trkpt lat="44.6513" lon="-1.14527">
        <ele>4.94</ele>
        <time>2020-10-24T13:14:40Z</time>
      </trkpt>
      <trkpt lat="44.65129" lon="-1.14525">
        <ele>4.94</ele>
        <time>2020-10-24T13:14:41Z</time>
      </trkpt>
      <trkpt lat="44.65128" lon="-1.14524">
        <ele>4.94</ele>
        <time>2020-10-24T13:14:42Z</time>
      </trkpt>
      <trkpt lat="44.65127" lon="-1.14523">
        <ele>4.94</ele>
        <time>2020-10-24T13:14:43Z</time>
      </trkpt>
      <trkpt lat="44.65126" lon="-1.14522">
        <ele>4.94</ele>
        <time>2020-10-24T13:14:44Z</time>
      </trkpt>
      <trkpt lat="44.65126" lon="-1.14519">
        <ele>4.94</ele>
        <time>2020-10-24T13:14:45Z</time>
      </trkpt>
      <trkpt lat="44.65126" lon="-1.14517">
        <ele>4.94</ele>
        <time>2020-10-24T13:14:46Z</time>
      </trkpt>
      <trkpt lat="44.65126" lon="-1.14515">
        <ele>4.94</ele>
        <time>2020-10-24T13:14:47Z</time>
      </trkpt>
      <trkpt lat="44.65127" lon="-1.14513">
        <ele>4.94</ele>
        <time>2020-10-24T13:14:48Z</time>
      </trkpt>
      <trkpt lat="44.65127" lon="-1.1451">
        <ele>4.94</ele>
        <time>2020-10-24T13:14:49Z</time>
      </trkpt>
      <trkpt lat="44.65127" lon="-1.14507">
        <ele>4.94</ele>
        <time>2020-10-24T13:14:50Z</time>
      </trkpt>
      <trkpt lat="44.65127" lon="-1.14503">
        <ele>4.94</ele>
        <time>2020-10-24T13:14:51Z</time>
      </trkpt>
      <trkpt lat="44.65126" lon="-1.14499">
        <ele>4.94</ele>
        <time>2020-10-24T13:14:52Z</time>
      </trkpt>
      <trkpt lat="44.65136" lon="-1.14456">
        <ele>4.94</ele>
        <time>2020-10-24T13:15:03Z</time>
      </trkpt>
      <trkpt lat="44.65151" lon="-1.144">
        <ele>4.94</ele>
        <time>2020-10-24T13:15:17Z</time>
      </trkpt>
      <trkpt lat="44.65167" lon="-1.14362">
        <ele>4.94</ele>
        <time>2020-10-24T13:15:28Z</time>
      </trkpt>
      <trkpt lat="44.65178" lon="-1.14312">
        <ele>4.94</ele>
        <time>2020-10-24T13:15:39Z</time>
      </trkpt>
      <trkpt lat="44.65189" lon="-1.1426">
        <ele>4.94</ele>
        <time>2020-10-24T13:15:50Z</time>
      </trkpt>
      <trkpt lat="44.65199" lon="-1.14243">
        <ele>6.39</ele>
        <time>2020-10-24T13:15:54Z</time>
      </trkpt>
      <trkpt lat="44.65226" lon="-1.1419">
        <ele>4.94</ele>
        <time>2020-10-24T13:16:06Z</time>
      </trkpt>
      <trkpt lat="44.65266" lon="-1.14127">
        <ele>4.94</ele>
        <time>2020-10-24T13:16:21Z</time>
      </trkpt>
      <trkpt lat="44.65302" lon="-1.14075">
        <ele>4.46</ele>
        <time>2020-10-24T13:16:35Z</time>
      </trkpt>
      <trkpt lat="44.65317" lon="-1.14049">
        <ele>4.46</ele>
        <time>2020-10-24T13:16:46Z</time>
      </trkpt>
      <trkpt lat="44.65319" lon="-1.14047">
        <ele>4.46</ele>
        <time>2020-10-24T13:16:59Z</time>
      </trkpt>
      <trkpt lat="44.65319" lon="-1.14044">
        <ele>4.46</ele>
        <time>2020-10-24T13:17:32Z</time>
      </trkpt>
      <trkpt lat="44.6532" lon="-1.14044">
        <ele>4.46</ele>
        <time>2020-10-24T13:17:53Z</time>
      </trkpt>
      <trkpt lat="44.65322" lon="-1.1404">
        <ele>5.42</ele>
        <time>2020-10-24T13:18:08Z</time>
      </trkpt>
      <trkpt lat="44.65323" lon="-1.14039">
        <ele>5.42</ele>
        <time>2020-10-24T13:18:09Z</time>
      </trkpt>
      <trkpt lat="44.65325" lon="-1.14035">
        <ele>5.42</ele>
        <time>2020-10-24T13:18:20Z</time>
      </trkpt>
      <trkpt lat="44.65326" lon="-1.14034">
        <ele>5.42</ele>
        <time>2020-10-24T13:18:21Z</time>
      </trkpt>
      <trkpt lat="44.65327" lon="-1.14033">
        <ele>5.42</ele>
        <time>2020-10-24T13:18:22Z</time>
      </trkpt>
      <trkpt lat="44.65327" lon="-1.14031">
        <ele>5.42</ele>
        <time>2020-10-24T13:18:23Z</time>
      </trkpt>
      <trkpt lat="44.65328" lon="-1.14029">
        <ele>5.42</ele>
        <time>2020-10-24T13:18:24Z</time>
      </trkpt>
      <trkpt lat="44.65329" lon="-1.14028">
        <ele>5.42</ele>
        <time>2020-10-24T13:18:25Z</time>
      </trkpt>
      <trkpt lat="44.65332" lon="-1.14027">
        <ele>5.42</ele>
        <time>2020-10-24T13:18:28Z</time>
      </trkpt>
      <trkpt lat="44.65336" lon="-1.14027">
        <ele>5.91</ele>
        <time>2020-10-24T13:18:36Z</time>
      </trkpt>
      <trkpt lat="44.65336" lon="-1.14025">
        <ele>5.91</ele>
        <time>2020-10-24T13:18:37Z</time>
      </trkpt>
      <trkpt lat="44.65351" lon="-1.1399">
        <ele>5.91</ele>
        <time>2020-10-24T13:18:49Z</time>
      </trkpt>
      <trkpt lat="44.65365" lon="-1.13942">
        <ele>7.35</ele>
        <time>2020-10-24T13:19:03Z</time>
      </trkpt>
      <trkpt lat="44.65366" lon="-1.1394">
        <ele>7.35</ele>
        <time>2020-10-24T13:19:04Z</time>
      </trkpt>
      <trkpt lat="44.65368" lon="-1.1394">
        <ele>7.35</ele>
        <time>2020-10-24T13:19:05Z</time>
      </trkpt>
      <trkpt lat="44.6537" lon="-1.1394">
        <ele>7.35</ele>
        <time>2020-10-24T13:19:06Z</time>
      </trkpt>
      <trkpt lat="44.65372" lon="-1.13941">
        <ele>7.35</ele>
        <time>2020-10-24T13:19:07Z</time>
      </trkpt>
      <trkpt lat="44.65374" lon="-1.13943">
        <ele>7.35</ele>
        <time>2020-10-24T13:19:08Z</time>
      </trkpt>
      <trkpt lat="44.65376" lon="-1.13945">
        <ele>7.35</ele>
        <time>2020-10-24T13:19:09Z</time>
      </trkpt>
      <trkpt lat="44.65378" lon="-1.13948">
        <ele>7.35</ele>
        <time>2020-10-24T13:19:10Z</time>
      </trkpt>
      <trkpt lat="44.65379" lon="-1.1395">
        <ele>7.35</ele>
        <time>2020-10-24T13:19:11Z</time>
      </trkpt>
      <trkpt lat="44.65381" lon="-1.13952">
        <ele>7.35</ele>
        <time>2020-10-24T13:19:12Z</time>
      </trkpt>
      <trkpt lat="44.65397" lon="-1.13983">
        <ele>7.35</ele>
        <time>2020-10-24T13:19:27Z</time>
      </trkpt>
      <trkpt lat="44.654" lon="-1.13985">
        <ele>7.35</ele>
        <time>2020-10-24T13:19:39Z</time>
      </trkpt>
      <trkpt lat="44.65401" lon="-1.13984">
        <ele>7.35</ele>
        <time>2020-10-24T13:19:40Z</time>
      </trkpt>
      <trkpt lat="44.65402" lon="-1.13984">
        <ele>7.35</ele>
        <time>2020-10-24T13:19:41Z</time>
      </trkpt>
      <trkpt lat="44.65403" lon="-1.13985">
        <ele>7.35</ele>
        <time>2020-10-24T13:19:42Z</time>
      </trkpt>
      <trkpt lat="44.65405" lon="-1.13985">
        <ele>7.35</ele>
        <time>2020-10-24T13:19:43Z</time>
      </trkpt>
      <trkpt lat="44.65406" lon="-1.13985">
        <ele>7.35</ele>
        <time>2020-10-24T13:19:44Z</time>
      </trkpt>
      <trkpt lat="44.65416" lon="-1.14003">
        <ele>5.91</ele>
        <time>2020-10-24T13:20:00Z</time>
      </trkpt>
      <trkpt lat="44.65424" lon="-1.14009">
        <ele>5.91</ele>
        <time>2020-10-24T13:20:09Z</time>
      </trkpt>
      <trkpt lat="44.6544" lon="-1.14023">
        <ele>5.91</ele>
        <time>2020-10-24T13:20:28Z</time>
      </trkpt>
      <trkpt lat="44.65441" lon="-1.14027">
        <ele>5.91</ele>
        <time>2020-10-24T13:20:31Z</time>
      </trkpt>
      <trkpt lat="44.65442" lon="-1.1404">
        <ele>5.91</ele>
        <time>2020-10-24T13:20:45Z</time>
      </trkpt>
      <trkpt lat="44.6544" lon="-1.14041">
        <ele>7.35</ele>
        <time>2020-10-24T13:20:51Z</time>
      </trkpt>
      <trkpt lat="44.65423" lon="-1.14071">
        <ele>7.35</ele>
        <time>2020-10-24T13:21:05Z</time>
      </trkpt>
      <trkpt lat="44.65399" lon="-1.14113">
        <ele>5.91</ele>
        <time>2020-10-24T13:21:18Z</time>
      </trkpt>
      <trkpt lat="44.65389" lon="-1.14128">
        <ele>5.91</ele>
        <time>2020-10-24T13:21:25Z</time>
      </trkpt>
      <trkpt lat="44.65389" lon="-1.14132">
        <ele>5.91</ele>
        <time>2020-10-24T13:21:26Z</time>
      </trkpt>
      <trkpt lat="44.6539" lon="-1.14133">
        <ele>5.91</ele>
        <time>2020-10-24T13:21:27Z</time>
      </trkpt>
      <trkpt lat="44.65391" lon="-1.14136">
        <ele>5.91</ele>
        <time>2020-10-24T13:21:28Z</time>
      </trkpt>
      <trkpt lat="44.65391" lon="-1.14138">
        <ele>5.91</ele>
        <time>2020-10-24T13:21:29Z</time>
      </trkpt>
      <trkpt lat="44.65393" lon="-1.1414">
        <ele>5.91</ele>
        <time>2020-10-24T13:21:30Z</time>
      </trkpt>
      <trkpt lat="44.65395" lon="-1.14143">
        <ele>5.91</ele>
        <time>2020-10-24T13:21:31Z</time>
      </trkpt>
      <trkpt lat="44.6542" lon="-1.14181">
        <ele>5.91</ele>
        <time>2020-10-24T13:21:47Z</time>
      </trkpt>
      <trkpt lat="44.65447" lon="-1.1422">
        <ele>7.35</ele>
        <time>2020-10-24T13:22:01Z</time>
      </trkpt>
      <trkpt lat="44.65486" lon="-1.14277">
        <ele>8.31</ele>
        <time>2020-10-24T13:22:17Z</time>
      </trkpt>
      <trkpt lat="44.65524" lon="-1.14336">
        <ele>8.31</ele>
        <time>2020-10-24T13:22:33Z</time>
      </trkpt>
      <trkpt lat="44.65535" lon="-1.14353">
        <ele>8.31</ele>
        <time>2020-10-24T13:22:38Z</time>
      </trkpt>
      <trkpt lat="44.65538" lon="-1.14352">
        <ele>8.31</ele>
        <time>2020-10-24T13:22:39Z</time>
      </trkpt>
      <trkpt lat="44.6554" lon="-1.14351">
        <ele>8.31</ele>
        <time>2020-10-24T13:22:40Z</time>
      </trkpt>
      <trkpt lat="44.65593" lon="-1.14311">
        <ele>8.31</ele>
        <time>2020-10-24T13:22:55Z</time>
      </trkpt>
      <trkpt lat="44.65601" lon="-1.14303">
        <ele>6.87</ele>
        <time>2020-10-24T13:22:57Z</time>
      </trkpt>
      <trkpt lat="44.65605" lon="-1.143">
        <ele>6.87</ele>
        <time>2020-10-24T13:22:58Z</time>
      </trkpt>
      <trkpt lat="44.6561" lon="-1.143">
        <ele>6.87</ele>
        <time>2020-10-24T13:22:59Z</time>
      </trkpt>
      <trkpt lat="44.65614" lon="-1.14302">
        <ele>6.87</ele>
        <time>2020-10-24T13:23:00Z</time>
      </trkpt>
      <trkpt lat="44.65618" lon="-1.14304">
        <ele>6.87</ele>
        <time>2020-10-24T13:23:01Z</time>
      </trkpt>
      <trkpt lat="44.65622" lon="-1.14308">
        <ele>6.87</ele>
        <time>2020-10-24T13:23:02Z</time>
      </trkpt>
      <trkpt lat="44.65624" lon="-1.14313">
        <ele>6.87</ele>
        <time>2020-10-24T13:23:03Z</time>
      </trkpt>
      <trkpt lat="44.65627" lon="-1.14319">
        <ele>6.87</ele>
        <time>2020-10-24T13:23:04Z</time>
      </trkpt>
      <trkpt lat="44.65657" lon="-1.14398">
        <ele>6.39</ele>
        <time>2020-10-24T13:23:21Z</time>
      </trkpt>
      <trkpt lat="44.65664" lon="-1.14421">
        <ele>6.39</ele>
        <time>2020-10-24T13:23:26Z</time>
      </trkpt>
      <trkpt lat="44.65664" lon="-1.14426">
        <ele>6.39</ele>
        <time>2020-10-24T13:23:27Z</time>
      </trkpt>
      <trkpt lat="44.65663" lon="-1.1443">
        <ele>6.39</ele>
        <time>2020-10-24T13:23:28Z</time>
      </trkpt>
      <trkpt lat="44.65661" lon="-1.14433">
        <ele>6.39</ele>
        <time>2020-10-24T13:23:29Z</time>
      </trkpt>
      <trkpt lat="44.65659" lon="-1.14435">
        <ele>6.39</ele>
        <time>2020-10-24T13:23:30Z</time>
      </trkpt>
      <trkpt lat="44.65657" lon="-1.14438">
        <ele>6.39</ele>
        <time>2020-10-24T13:23:31Z</time>
      </trkpt>
      <trkpt lat="44.65657" lon="-1.14442">
        <ele>6.39</ele>
        <time>2020-10-24T13:23:32Z</time>
      </trkpt>
      <trkpt lat="44.65658" lon="-1.14446">
        <ele>6.39</ele>
        <time>2020-10-24T13:23:33Z</time>
      </trkpt>
      <trkpt lat="44.65659" lon="-1.14449">
        <ele>6.39</ele>
        <time>2020-10-24T13:23:34Z</time>
      </trkpt>
      <trkpt lat="44.65682" lon="-1.14509">
        <ele>6.39</ele>
        <time>2020-10-24T13:23:47Z</time>
      </trkpt>
      <trkpt lat="44.65694" lon="-1.14543">
        <ele>6.39</ele>
        <time>2020-10-24T13:23:54Z</time>
      </trkpt>
      <trkpt lat="44.65731" lon="-1.14629">
        <ele>6.39</ele>
        <time>2020-10-24T13:24:12Z</time>
      </trkpt>
      <trkpt lat="44.65752" lon="-1.14695">
        <ele>6.39</ele>
        <time>2020-10-24T13:24:26Z</time>
      </trkpt>
      <trkpt lat="44.65781" lon="-1.14781">
        <ele>7.35</ele>
        <time>2020-10-24T13:24:44Z</time>
      </trkpt>
      <trkpt lat="44.65805" lon="-1.14868">
        <ele>7.35</ele>
        <time>2020-10-24T13:25:01Z</time>
      </trkpt>
      <trkpt lat="44.65834" lon="-1.14954">
        <ele>6.39</ele>
        <time>2020-10-24T13:25:15Z</time>
      </trkpt>
      <trkpt lat="44.65876" lon="-1.15086">
        <ele>5.91</ele>
        <time>2020-10-24T13:25:36Z</time>
      </trkpt>
      <trkpt lat="44.65889" lon="-1.15122">
        <ele>5.91</ele>
        <time>2020-10-24T13:25:42Z</time>
      </trkpt>
      <trkpt lat="44.65891" lon="-1.15127">
        <ele>5.91</ele>
        <time>2020-10-24T13:25:43Z</time>
      </trkpt>
      <trkpt lat="44.65894" lon="-1.15132">
        <ele>5.91</ele>
        <time>2020-10-24T13:25:44Z</time>
      </trkpt>
      <trkpt lat="44.65943" lon="-1.15197">
        <ele>6.87</ele>
        <time>2020-10-24T13:25:58Z</time>
      </trkpt>
      <trkpt lat="44.65974" lon="-1.15234">
        <ele>6.87</ele>
        <time>2020-10-24T13:26:07Z</time>
      </trkpt>
      <trkpt lat="44.65978" lon="-1.15236">
        <ele>6.87</ele>
        <time>2020-10-24T13:26:08Z</time>
      </trkpt>
      <trkpt lat="44.65982" lon="-1.15236">
        <ele>6.87</ele>
        <time>2020-10-24T13:26:09Z</time>
      </trkpt>
      <trkpt lat="44.65987" lon="-1.15235">
        <ele>6.87</ele>
        <time>2020-10-24T13:26:10Z</time>
      </trkpt>
      <trkpt lat="44.65991" lon="-1.15234">
        <ele>6.87</ele>
        <time>2020-10-24T13:26:11Z</time>
      </trkpt>
      <trkpt lat="44.65995" lon="-1.15233">
        <ele>6.87</ele>
        <time>2020-10-24T13:26:12Z</time>
      </trkpt>
      <trkpt lat="44.66" lon="-1.15232">
        <ele>6.87</ele>
        <time>2020-10-24T13:26:13Z</time>
      </trkpt>
      <trkpt lat="44.66039" lon="-1.15231">
        <ele>6.87</ele>
        <time>2020-10-24T13:26:22Z</time>
      </trkpt>
      <trkpt lat="44.66042" lon="-1.15235">
        <ele>6.87</ele>
        <time>2020-10-24T13:26:23Z</time>
      </trkpt>
      <trkpt lat="44.66044" lon="-1.1524">
        <ele>6.87</ele>
        <time>2020-10-24T13:26:24Z</time>
      </trkpt>
      <trkpt lat="44.66045" lon="-1.15246">
        <ele>6.87</ele>
        <time>2020-10-24T13:26:25Z</time>
      </trkpt>
      <trkpt lat="44.66045" lon="-1.15252">
        <ele>6.87</ele>
        <time>2020-10-24T13:26:26Z</time>
      </trkpt>
      <trkpt lat="44.66048" lon="-1.15276">
        <ele>6.87</ele>
        <time>2020-10-24T13:26:30Z</time>
      </trkpt>
      <trkpt lat="44.6605" lon="-1.15281">
        <ele>6.87</ele>
        <time>2020-10-24T13:26:31Z</time>
      </trkpt>
      <trkpt lat="44.66053" lon="-1.15287">
        <ele>6.87</ele>
        <time>2020-10-24T13:26:32Z</time>
      </trkpt>
      <trkpt lat="44.66056" lon="-1.15291">
        <ele>6.87</ele>
        <time>2020-10-24T13:26:33Z</time>
      </trkpt>
      <trkpt lat="44.6606" lon="-1.15296">
        <ele>6.87</ele>
        <time>2020-10-24T13:26:34Z</time>
      </trkpt>
      <trkpt lat="44.66107" lon="-1.15342">
        <ele>7.35</ele>
        <time>2020-10-24T13:26:48Z</time>
      </trkpt>
      <trkpt lat="44.6611" lon="-1.15346">
        <ele>7.35</ele>
        <time>2020-10-24T13:26:49Z</time>
      </trkpt>
      <trkpt lat="44.66112" lon="-1.15351">
        <ele>7.35</ele>
        <time>2020-10-24T13:26:50Z</time>
      </trkpt>
      <trkpt lat="44.66114" lon="-1.15356">
        <ele>7.35</ele>
        <time>2020-10-24T13:26:51Z</time>
      </trkpt>
      <trkpt lat="44.66139" lon="-1.15435">
        <ele>5.91</ele>
        <time>2020-10-24T13:27:04Z</time>
      </trkpt>
      <trkpt lat="44.66187" lon="-1.15559">
        <ele>5.91</ele>
        <time>2020-10-24T13:27:25Z</time>
      </trkpt>
      <trkpt lat="44.6624" lon="-1.15679">
        <ele>5.91</ele>
        <time>2020-10-24T13:27:45Z</time>
      </trkpt>
      <trkpt lat="44.66243" lon="-1.15684">
        <ele>5.91</ele>
        <time>2020-10-24T13:27:46Z</time>
      </trkpt>
      <trkpt lat="44.66247" lon="-1.1569">
        <ele>5.91</ele>
        <time>2020-10-24T13:27:47Z</time>
      </trkpt>
      <trkpt lat="44.66251" lon="-1.15694">
        <ele>5.91</ele>
        <time>2020-10-24T13:27:48Z</time>
      </trkpt>
      <trkpt lat="44.66281" lon="-1.15739">
        <ele>5.91</ele>
        <time>2020-10-24T13:27:57Z</time>
      </trkpt>
      <trkpt lat="44.66284" lon="-1.15747">
        <ele>5.91</ele>
        <time>2020-10-24T13:27:58Z</time>
      </trkpt>
      <trkpt lat="44.66286" lon="-1.15753">
        <ele>5.91</ele>
        <time>2020-10-24T13:27:59Z</time>
      </trkpt>
      <trkpt lat="44.66305" lon="-1.15881">
        <ele>5.91</ele>
        <time>2020-10-24T13:28:18Z</time>
      </trkpt>
      <trkpt lat="44.66312" lon="-1.15932">
        <ele>5.91</ele>
        <time>2020-10-24T13:28:26Z</time>
      </trkpt>
      <trkpt lat="44.66313" lon="-1.15943">
        <ele>5.91</ele>
        <time>2020-10-24T13:28:28Z</time>
      </trkpt>
      <trkpt lat="44.66314" lon="-1.15949">
        <ele>5.91</ele>
        <time>2020-10-24T13:28:29Z</time>
      </trkpt>
      <trkpt lat="44.66323" lon="-1.16058">
        <ele>5.91</ele>
        <time>2020-10-24T13:28:47Z</time>
      </trkpt>
      <trkpt lat="44.66327" lon="-1.16157">
        <ele>5.91</ele>
        <time>2020-10-24T13:29:03Z</time>
      </trkpt>
      <trkpt lat="44.66336" lon="-1.16254">
        <ele>5.91</ele>
        <time>2020-10-24T13:29:18Z</time>
      </trkpt>
      <trkpt lat="44.66343" lon="-1.16282">
        <ele>7.35</ele>
        <time>2020-10-24T13:29:24Z</time>
      </trkpt>
      <trkpt lat="44.66363" lon="-1.16303">
        <ele>7.35</ele>
        <time>2020-10-24T13:29:34Z</time>
      </trkpt>
      <trkpt lat="44.66367" lon="-1.16305">
        <ele>7.35</ele>
        <time>2020-10-24T13:29:37Z</time>
      </trkpt>
      <trkpt lat="44.66368" lon="-1.16307">
        <ele>6.87</ele>
        <time>2020-10-24T13:29:38Z</time>
      </trkpt>
      <trkpt lat="44.66369" lon="-1.16308">
        <ele>6.87</ele>
        <time>2020-10-24T13:29:39Z</time>
      </trkpt>
      <trkpt lat="44.6637" lon="-1.1631">
        <ele>6.87</ele>
        <time>2020-10-24T13:29:55Z</time>
      </trkpt>
      <trkpt lat="44.6637" lon="-1.16308">
        <ele>7.35</ele>
        <time>2020-10-24T13:30:26Z</time>
      </trkpt>
      <trkpt lat="44.66369" lon="-1.16309">
        <ele>7.35</ele>
        <time>2020-10-24T13:30:53Z</time>
      </trkpt>
      <trkpt lat="44.66367" lon="-1.16309">
        <ele>7.35</ele>
        <time>2020-10-24T13:31:15Z</time>
      </trkpt>
      <trkpt lat="44.6637" lon="-1.16309">
        <ele>7.35</ele>
        <time>2020-10-24T13:31:37Z</time>
      </trkpt>
      <trkpt lat="44.66369" lon="-1.1631">
        <ele>7.35</ele>
        <time>2020-10-24T13:31:51Z</time>
      </trkpt>
      <trkpt lat="44.6637" lon="-1.16311">
        <ele>7.83</ele>
        <time>2020-10-24T13:32:13Z</time>
      </trkpt>
      <trkpt lat="44.6637" lon="-1.16313">
        <ele>7.83</ele>
        <time>2020-10-24T13:32:14Z</time>
      </trkpt>
      <trkpt lat="44.66371" lon="-1.16316">
        <ele>7.83</ele>
        <time>2020-10-24T13:32:15Z</time>
      </trkpt>
      <trkpt lat="44.66371" lon="-1.16317">
        <ele>7.83</ele>
        <time>2020-10-24T13:32:16Z</time>
      </trkpt>
      <trkpt lat="44.66371" lon="-1.16319">
        <ele>7.83</ele>
        <time>2020-10-24T13:32:17Z</time>
      </trkpt>
      <trkpt lat="44.66371" lon="-1.16321">
        <ele>7.83</ele>
        <time>2020-10-24T13:32:18Z</time>
      </trkpt>
      <trkpt lat="44.66371" lon="-1.16333">
        <ele>7.83</ele>
        <time>2020-10-24T13:32:25Z</time>
      </trkpt>
      <trkpt lat="44.66371" lon="-1.16335">
        <ele>7.83</ele>
        <time>2020-10-24T13:32:26Z</time>
      </trkpt>
      <trkpt lat="44.66371" lon="-1.16342">
        <ele>7.83</ele>
        <time>2020-10-24T13:32:30Z</time>
      </trkpt>
      <trkpt lat="44.66371" lon="-1.16343">
        <ele>7.83</ele>
        <time>2020-10-24T13:32:31Z</time>
      </trkpt>
      <trkpt lat="44.66371" lon="-1.16345">
        <ele>7.83</ele>
        <time>2020-10-24T13:32:32Z</time>
      </trkpt>
      <trkpt lat="44.66381" lon="-1.16375">
        <ele>7.35</ele>
        <time>2020-10-24T13:32:45Z</time>
      </trkpt>
      <trkpt lat="44.66379" lon="-1.16384">
        <ele>7.35</ele>
        <time>2020-10-24T13:32:58Z</time>
      </trkpt>
      <trkpt lat="44.66382" lon="-1.16383">
        <ele>7.35</ele>
        <time>2020-10-24T13:33:19Z</time>
      </trkpt>
      <trkpt lat="44.66378" lon="-1.16386">
        <ele>7.35</ele>
        <time>2020-10-24T13:33:38Z</time>
      </trkpt>
      <trkpt lat="44.66376" lon="-1.16386">
        <ele>7.35</ele>
        <time>2020-10-24T13:33:39Z</time>
      </trkpt>
      <trkpt lat="44.66375" lon="-1.16386">
        <ele>7.35</ele>
        <time>2020-10-24T13:33:40Z</time>
      </trkpt>
      <trkpt lat="44.66373" lon="-1.16387">
        <ele>7.83</ele>
        <time>2020-10-24T13:33:45Z</time>
      </trkpt>
      <trkpt lat="44.66372" lon="-1.1639">
        <ele>7.83</ele>
        <time>2020-10-24T13:33:47Z</time>
      </trkpt>
      <trkpt lat="44.66367" lon="-1.16427">
        <ele>7.83</ele>
        <time>2020-10-24T13:34:00Z</time>
      </trkpt>
      <trkpt lat="44.66359" lon="-1.16497">
        <ele>7.83</ele>
        <time>2020-10-24T13:34:15Z</time>
      </trkpt>
      <trkpt lat="44.6635" lon="-1.16556">
        <ele>7.83</ele>
        <time>2020-10-24T13:34:28Z</time>
      </trkpt>
      <trkpt lat="44.66341" lon="-1.16631">
        <ele>7.83</ele>
        <time>2020-10-24T13:34:43Z</time>
      </trkpt>
      <trkpt lat="44.66335" lon="-1.16678">
        <ele>7.83</ele>
        <time>2020-10-24T13:34:55Z</time>
      </trkpt>
      <trkpt lat="44.66331" lon="-1.16724">
        <ele>7.83</ele>
        <time>2020-10-24T13:35:07Z</time>
      </trkpt>
      <trkpt lat="44.66331" lon="-1.16726">
        <ele>7.83</ele>
        <time>2020-10-24T13:35:08Z</time>
      </trkpt>
      <trkpt lat="44.6633" lon="-1.16729">
        <ele>7.83</ele>
        <time>2020-10-24T13:35:09Z</time>
      </trkpt>
      <trkpt lat="44.6633" lon="-1.16732">
        <ele>7.83</ele>
        <time>2020-10-24T13:35:10Z</time>
      </trkpt>
      <trkpt lat="44.6633" lon="-1.16735">
        <ele>7.83</ele>
        <time>2020-10-24T13:35:11Z</time>
      </trkpt>
      <trkpt lat="44.6633" lon="-1.16739">
        <ele>7.83</ele>
        <time>2020-10-24T13:35:12Z</time>
      </trkpt>
      <trkpt lat="44.66329" lon="-1.16744">
        <ele>7.83</ele>
        <time>2020-10-24T13:35:13Z</time>
      </trkpt>
      <trkpt lat="44.66331" lon="-1.16791">
        <ele>7.83</ele>
        <time>2020-10-24T13:35:25Z</time>
      </trkpt>
      <trkpt lat="44.66331" lon="-1.16832">
        <ele>7.83</ele>
        <time>2020-10-24T13:35:39Z</time>
      </trkpt>
      <trkpt lat="44.66332" lon="-1.16835">
        <ele>7.83</ele>
        <time>2020-10-24T13:36:04Z</time>
      </trkpt>
      <trkpt lat="44.66332" lon="-1.16833">
        <ele>7.83</ele>
        <time>2020-10-24T13:36:30Z</time>
      </trkpt>
      <trkpt lat="44.66332" lon="-1.16834">
        <ele>7.83</ele>
        <time>2020-10-24T13:36:51Z</time>
      </trkpt>
      <trkpt lat="44.66331" lon="-1.16836">
        <ele>7.83</ele>
        <time>2020-10-24T13:37:17Z</time>
      </trkpt>
      <trkpt lat="44.6633" lon="-1.16838">
        <ele>7.83</ele>
        <time>2020-10-24T13:37:46Z</time>
      </trkpt>
      <trkpt lat="44.66331" lon="-1.16837">
        <ele>7.83</ele>
        <time>2020-10-24T13:38:11Z</time>
      </trkpt>
      <trkpt lat="44.66332" lon="-1.16836">
        <ele>7.83</ele>
        <time>2020-10-24T13:38:36Z</time>
      </trkpt>
      <trkpt lat="44.66334" lon="-1.16835">
        <ele>7.83</ele>
        <time>2020-10-24T13:38:58Z</time>
      </trkpt>
      <trkpt lat="44.66334" lon="-1.16833">
        <ele>7.83</ele>
        <time>2020-10-24T13:39:13Z</time>
      </trkpt>
      <trkpt lat="44.66332" lon="-1.16827">
        <ele>7.83</ele>
        <time>2020-10-24T13:39:26Z</time>
      </trkpt>
      <trkpt lat="44.66329" lon="-1.16822">
        <ele>7.83</ele>
        <time>2020-10-24T13:39:29Z</time>
      </trkpt>
      <trkpt lat="44.66328" lon="-1.16818">
        <ele>7.83</ele>
        <time>2020-10-24T13:39:30Z</time>
      </trkpt>
      <trkpt lat="44.66329" lon="-1.16815">
        <ele>7.83</ele>
        <time>2020-10-24T13:39:31Z</time>
      </trkpt>
      <trkpt lat="44.66329" lon="-1.16813">
        <ele>7.83</ele>
        <time>2020-10-24T13:39:32Z</time>
      </trkpt>
      <trkpt lat="44.66329" lon="-1.1681">
        <ele>7.83</ele>
        <time>2020-10-24T13:39:33Z</time>
      </trkpt>
      <trkpt lat="44.66329" lon="-1.16807">
        <ele>7.83</ele>
        <time>2020-10-24T13:39:34Z</time>
      </trkpt>
      <trkpt lat="44.66329" lon="-1.16805">
        <ele>7.83</ele>
        <time>2020-10-24T13:39:35Z</time>
      </trkpt>
      <trkpt lat="44.66329" lon="-1.16802">
        <ele>7.83</ele>
        <time>2020-10-24T13:39:36Z</time>
      </trkpt>
      <trkpt lat="44.66329" lon="-1.16798">
        <ele>7.83</ele>
        <time>2020-10-24T13:39:37Z</time>
      </trkpt>
      <trkpt lat="44.66327" lon="-1.16754">
        <ele>7.35</ele>
        <time>2020-10-24T13:39:51Z</time>
      </trkpt>
      <trkpt lat="44.66332" lon="-1.16698">
        <ele>7.35</ele>
        <time>2020-10-24T13:40:05Z</time>
      </trkpt>
      <trkpt lat="44.66338" lon="-1.16642">
        <ele>7.35</ele>
        <time>2020-10-24T13:40:18Z</time>
      </trkpt>
      <trkpt lat="44.66343" lon="-1.16589">
        <ele>7.35</ele>
        <time>2020-10-24T13:40:31Z</time>
      </trkpt>
      <trkpt lat="44.66353" lon="-1.16527">
        <ele>7.35</ele>
        <time>2020-10-24T13:40:46Z</time>
      </trkpt>
      <trkpt lat="44.66358" lon="-1.16493">
        <ele>7.35</ele>
        <time>2020-10-24T13:40:58Z</time>
      </trkpt>
      <trkpt lat="44.66364" lon="-1.16441">
        <ele>7.35</ele>
        <time>2020-10-24T13:41:11Z</time>
      </trkpt>
      <trkpt lat="44.66368" lon="-1.16383">
        <ele>7.35</ele>
        <time>2020-10-24T13:41:26Z</time>
      </trkpt>
      <trkpt lat="44.66367" lon="-1.16379">
        <ele>7.35</ele>
        <time>2020-10-24T13:41:27Z</time>
      </trkpt>
      <trkpt lat="44.66368" lon="-1.16375">
        <ele>7.35</ele>
        <time>2020-10-24T13:41:28Z</time>
      </trkpt>
      <trkpt lat="44.6637" lon="-1.1637">
        <ele>7.35</ele>
        <time>2020-10-24T13:41:29Z</time>
      </trkpt>
      <trkpt lat="44.66371" lon="-1.16366">
        <ele>7.35</ele>
        <time>2020-10-24T13:41:30Z</time>
      </trkpt>
      <trkpt lat="44.66372" lon="-1.16361">
        <ele>7.35</ele>
        <time>2020-10-24T13:41:31Z</time>
      </trkpt>
      <trkpt lat="44.66372" lon="-1.16357">
        <ele>7.35</ele>
        <time>2020-10-24T13:41:32Z</time>
      </trkpt>
      <trkpt lat="44.66372" lon="-1.16354">
        <ele>7.35</ele>
        <time>2020-10-24T13:41:33Z</time>
      </trkpt>
      <trkpt lat="44.66371" lon="-1.1635">
        <ele>7.35</ele>
        <time>2020-10-24T13:41:34Z</time>
      </trkpt>
      <trkpt lat="44.66359" lon="-1.16308">
        <ele>7.35</ele>
        <time>2020-10-24T13:41:48Z</time>
      </trkpt>
      <trkpt lat="44.66356" lon="-1.16308">
        <ele>7.35</ele>
        <time>2020-10-24T13:41:49Z</time>
      </trkpt>
      <trkpt lat="44.66353" lon="-1.16308">
        <ele>7.35</ele>
        <time>2020-10-24T13:41:50Z</time>
      </trkpt>
      <trkpt lat="44.6635" lon="-1.16307">
        <ele>7.35</ele>
        <time>2020-10-24T13:41:51Z</time>
      </trkpt>
      <trkpt lat="44.66347" lon="-1.16305">
        <ele>7.35</ele>
        <time>2020-10-24T13:41:52Z</time>
      </trkpt>
      <trkpt lat="44.66344" lon="-1.16302">
        <ele>7.35</ele>
        <time>2020-10-24T13:41:53Z</time>
      </trkpt>
      <trkpt lat="44.66343" lon="-1.16298">
        <ele>7.35</ele>
        <time>2020-10-24T13:41:54Z</time>
      </trkpt>
      <trkpt lat="44.66343" lon="-1.16294">
        <ele>7.35</ele>
        <time>2020-10-24T13:41:55Z</time>
      </trkpt>
      <trkpt lat="44.66343" lon="-1.16289">
        <ele>7.35</ele>
        <time>2020-10-24T13:41:56Z</time>
      </trkpt>
      <trkpt lat="44.66343" lon="-1.16286">
        <ele>7.35</ele>
        <time>2020-10-24T13:41:57Z</time>
      </trkpt>
      <trkpt lat="44.66342" lon="-1.16282">
        <ele>7.35</ele>
        <time>2020-10-24T13:41:58Z</time>
      </trkpt>
      <trkpt lat="44.66341" lon="-1.16279">
        <ele>7.35</ele>
        <time>2020-10-24T13:41:59Z</time>
      </trkpt>
      <trkpt lat="44.66332" lon="-1.16208">
        <ele>7.35</ele>
        <time>2020-10-24T13:42:13Z</time>
      </trkpt>
      <trkpt lat="44.66326" lon="-1.16146">
        <ele>7.35</ele>
        <time>2020-10-24T13:42:28Z</time>
      </trkpt>
      <trkpt lat="44.66325" lon="-1.16089">
        <ele>7.35</ele>
        <time>2020-10-24T13:42:41Z</time>
      </trkpt>
      <trkpt lat="44.66318" lon="-1.1601">
        <ele>5.91</ele>
        <time>2020-10-24T13:42:54Z</time>
      </trkpt>
      <trkpt lat="44.66306" lon="-1.15893">
        <ele>5.91</ele>
        <time>2020-10-24T13:43:13Z</time>
      </trkpt>
      <trkpt lat="44.66289" lon="-1.15777">
        <ele>5.91</ele>
        <time>2020-10-24T13:43:32Z</time>
      </trkpt>
      <trkpt lat="44.66266" lon="-1.15718">
        <ele>5.91</ele>
        <time>2020-10-24T13:43:45Z</time>
      </trkpt>
      <trkpt lat="44.66223" lon="-1.15644">
        <ele>5.91</ele>
        <time>2020-10-24T13:44:03Z</time>
      </trkpt>
      <trkpt lat="44.66183" lon="-1.15554">
        <ele>5.91</ele>
        <time>2020-10-24T13:44:21Z</time>
      </trkpt>
      <trkpt lat="44.66143" lon="-1.15451">
        <ele>5.91</ele>
        <time>2020-10-24T13:44:40Z</time>
      </trkpt>
      <trkpt lat="44.66113" lon="-1.15352">
        <ele>5.91</ele>
        <time>2020-10-24T13:44:59Z</time>
      </trkpt>
      <trkpt lat="44.66111" lon="-1.15347">
        <ele>5.91</ele>
        <time>2020-10-24T13:45:00Z</time>
      </trkpt>
      <trkpt lat="44.66109" lon="-1.15343">
        <ele>5.91</ele>
        <time>2020-10-24T13:45:01Z</time>
      </trkpt>
      <trkpt lat="44.66105" lon="-1.15339">
        <ele>5.91</ele>
        <time>2020-10-24T13:45:02Z</time>
      </trkpt>
      <trkpt lat="44.66102" lon="-1.15336">
        <ele>5.91</ele>
        <time>2020-10-24T13:45:03Z</time>
      </trkpt>
      <trkpt lat="44.66099" lon="-1.15334">
        <ele>5.91</ele>
        <time>2020-10-24T13:45:04Z</time>
      </trkpt>
      <trkpt lat="44.66095" lon="-1.15333">
        <ele>5.91</ele>
        <time>2020-10-24T13:45:05Z</time>
      </trkpt>
      <trkpt lat="44.66091" lon="-1.1533">
        <ele>5.91</ele>
        <time>2020-10-24T13:45:06Z</time>
      </trkpt>
      <trkpt lat="44.66089" lon="-1.15328">
        <ele>5.91</ele>
        <time>2020-10-24T13:45:07Z</time>
      </trkpt>
      <trkpt lat="44.66086" lon="-1.15325">
        <ele>5.91</ele>
        <time>2020-10-24T13:45:08Z</time>
      </trkpt>
      <trkpt lat="44.66083" lon="-1.15322">
        <ele>5.91</ele>
        <time>2020-10-24T13:45:09Z</time>
      </trkpt>
      <trkpt lat="44.6608" lon="-1.15319">
        <ele>5.91</ele>
        <time>2020-10-24T13:45:10Z</time>
      </trkpt>
      <trkpt lat="44.66061" lon="-1.15301">
        <ele>5.91</ele>
        <time>2020-10-24T13:45:21Z</time>
      </trkpt>
      <trkpt lat="44.6606" lon="-1.15301">
        <ele>5.91</ele>
        <time>2020-10-24T13:45:50Z</time>
      </trkpt>
      <trkpt lat="44.66058" lon="-1.15299">
        <ele>5.91</ele>
        <time>2020-10-24T13:46:00Z</time>
      </trkpt>
      <trkpt lat="44.66056" lon="-1.15298">
        <ele>5.91</ele>
        <time>2020-10-24T13:46:01Z</time>
      </trkpt>
      <trkpt lat="44.66028" lon="-1.15286">
        <ele>5.91</ele>
        <time>2020-10-24T13:46:14Z</time>
      </trkpt>
      <trkpt lat="44.66015" lon="-1.153">
        <ele>5.91</ele>
        <time>2020-10-24T13:46:23Z</time>
      </trkpt>
      <trkpt lat="44.66011" lon="-1.15303">
        <ele>5.91</ele>
        <time>2020-10-24T13:46:27Z</time>
      </trkpt>
      <trkpt lat="44.66008" lon="-1.15305">
        <ele>5.91</ele>
        <time>2020-10-24T13:46:29Z</time>
      </trkpt>
      <trkpt lat="44.66006" lon="-1.15308">
        <ele>5.91</ele>
        <time>2020-10-24T13:46:31Z</time>
      </trkpt>
      <trkpt lat="44.66002" lon="-1.15311">
        <ele>5.91</ele>
        <time>2020-10-24T13:46:33Z</time>
      </trkpt>
      <trkpt lat="44.66" lon="-1.15312">
        <ele>5.91</ele>
        <time>2020-10-24T13:46:34Z</time>
      </trkpt>
      <trkpt lat="44.65998" lon="-1.15311">
        <ele>5.91</ele>
        <time>2020-10-24T13:46:36Z</time>
      </trkpt>
      <trkpt lat="44.65996" lon="-1.15307">
        <ele>5.91</ele>
        <time>2020-10-24T13:46:37Z</time>
      </trkpt>
      <trkpt lat="44.65996" lon="-1.15306">
        <ele>5.91</ele>
        <time>2020-10-24T13:46:38Z</time>
      </trkpt>
      <trkpt lat="44.65996" lon="-1.15304">
        <ele>5.91</ele>
        <time>2020-10-24T13:46:39Z</time>
      </trkpt>
      <trkpt lat="44.65997" lon="-1.15301">
        <ele>5.91</ele>
        <time>2020-10-24T13:46:40Z</time>
      </trkpt>
      <trkpt lat="44.65997" lon="-1.15299">
        <ele>5.91</ele>
        <time>2020-10-24T13:46:41Z</time>
      </trkpt>
      <trkpt lat="44.66013" lon="-1.15278">
        <ele>5.91</ele>
        <time>2020-10-24T13:46:54Z</time>
      </trkpt>
      <trkpt lat="44.6603" lon="-1.15243">
        <ele>5.91</ele>
        <time>2020-10-24T13:47:05Z</time>
      </trkpt>
      <trkpt lat="44.6603" lon="-1.1524">
        <ele>5.91</ele>
        <time>2020-10-24T13:47:06Z</time>
      </trkpt>
      <trkpt lat="44.66028" lon="-1.15235">
        <ele>5.91</ele>
        <time>2020-10-24T13:47:08Z</time>
      </trkpt>
      <trkpt lat="44.66026" lon="-1.15233">
        <ele>5.91</ele>
        <time>2020-10-24T13:47:09Z</time>
      </trkpt>
      <trkpt lat="44.66023" lon="-1.15233">
        <ele>5.91</ele>
        <time>2020-10-24T13:47:10Z</time>
      </trkpt>
      <trkpt lat="44.66021" lon="-1.15233">
        <ele>5.91</ele>
        <time>2020-10-24T13:47:11Z</time>
      </trkpt>
      <trkpt lat="44.66018" lon="-1.15233">
        <ele>5.91</ele>
        <time>2020-10-24T13:47:12Z</time>
      </trkpt>
      <trkpt lat="44.65974" lon="-1.15237">
        <ele>5.91</ele>
        <time>2020-10-24T13:47:26Z</time>
      </trkpt>
      <trkpt lat="44.65971" lon="-1.15235">
        <ele>5.91</ele>
        <time>2020-10-24T13:47:27Z</time>
      </trkpt>
      <trkpt lat="44.65932" lon="-1.15184">
        <ele>5.42</ele>
        <time>2020-10-24T13:47:43Z</time>
      </trkpt>
      <trkpt lat="44.65897" lon="-1.15138">
        <ele>5.42</ele>
        <time>2020-10-24T13:47:58Z</time>
      </trkpt>
      <trkpt lat="44.65875" lon="-1.15086">
        <ele>5.42</ele>
        <time>2020-10-24T13:48:11Z</time>
      </trkpt>
      <trkpt lat="44.65859" lon="-1.15035">
        <ele>6.87</ele>
        <time>2020-10-24T13:48:22Z</time>
      </trkpt>
      <trkpt lat="44.65828" lon="-1.14939">
        <ele>6.87</ele>
        <time>2020-10-24T13:48:40Z</time>
      </trkpt>
      <trkpt lat="44.65804" lon="-1.14868">
        <ele>6.87</ele>
        <time>2020-10-24T13:48:55Z</time>
      </trkpt>
      <trkpt lat="44.65793" lon="-1.14822">
        <ele>6.87</ele>
        <time>2020-10-24T13:49:08Z</time>
      </trkpt>
      <trkpt lat="44.65767" lon="-1.14743">
        <ele>6.87</ele>
        <time>2020-10-24T13:49:24Z</time>
      </trkpt>
      <trkpt lat="44.65748" lon="-1.14676">
        <ele>6.87</ele>
        <time>2020-10-24T13:49:38Z</time>
      </trkpt>
      <trkpt lat="44.65735" lon="-1.14639">
        <ele>6.87</ele>
        <time>2020-10-24T13:49:50Z</time>
      </trkpt>
      <trkpt lat="44.65711" lon="-1.14578">
        <ele>6.87</ele>
        <time>2020-10-24T13:50:04Z</time>
      </trkpt>
      <trkpt lat="44.65682" lon="-1.14511">
        <ele>6.87</ele>
        <time>2020-10-24T13:50:19Z</time>
      </trkpt>
      <trkpt lat="44.65655" lon="-1.14437">
        <ele>6.87</ele>
        <time>2020-10-24T13:50:34Z</time>
      </trkpt>
      <trkpt lat="44.65629" lon="-1.14368">
        <ele>7.35</ele>
        <time>2020-10-24T13:50:49Z</time>
      </trkpt>
      <trkpt lat="44.65626" lon="-1.14356">
        <ele>7.35</ele>
        <time>2020-10-24T13:50:52Z</time>
      </trkpt>
      <trkpt lat="44.65626" lon="-1.14351">
        <ele>7.35</ele>
        <time>2020-10-24T13:50:54Z</time>
      </trkpt>
      <trkpt lat="44.65627" lon="-1.1435">
        <ele>7.35</ele>
        <time>2020-10-24T13:50:55Z</time>
      </trkpt>
      <trkpt lat="44.65627" lon="-1.14348">
        <ele>7.35</ele>
        <time>2020-10-24T13:50:56Z</time>
      </trkpt>
      <trkpt lat="44.65627" lon="-1.14346">
        <ele>7.35</ele>
        <time>2020-10-24T13:50:57Z</time>
      </trkpt>
      <trkpt lat="44.65627" lon="-1.14343">
        <ele>7.35</ele>
        <time>2020-10-24T13:50:58Z</time>
      </trkpt>
      <trkpt lat="44.65626" lon="-1.1434">
        <ele>7.35</ele>
        <time>2020-10-24T13:50:59Z</time>
      </trkpt>
      <trkpt lat="44.65624" lon="-1.14337">
        <ele>6.39</ele>
        <time>2020-10-24T13:51:00Z</time>
      </trkpt>
      <trkpt lat="44.65623" lon="-1.14334">
        <ele>6.39</ele>
        <time>2020-10-24T13:51:01Z</time>
      </trkpt>
      <trkpt lat="44.65611" lon="-1.14314">
        <ele>6.39</ele>
        <time>2020-10-24T13:51:11Z</time>
      </trkpt>
      <trkpt lat="44.65612" lon="-1.14314">
        <ele>7.35</ele>
        <time>2020-10-24T13:51:27Z</time>
      </trkpt>
      <trkpt lat="44.65611" lon="-1.14314">
        <ele>7.35</ele>
        <time>2020-10-24T13:51:48Z</time>
      </trkpt>
      <trkpt lat="44.6561" lon="-1.14315">
        <ele>7.35</ele>
        <time>2020-10-24T13:52:08Z</time>
      </trkpt>
      <trkpt lat="44.65608" lon="-1.14311">
        <ele>7.35</ele>
        <time>2020-10-24T13:52:33Z</time>
      </trkpt>
      <trkpt lat="44.65607" lon="-1.1431">
        <ele>7.35</ele>
        <time>2020-10-24T13:53:08Z</time>
      </trkpt>
      <trkpt lat="44.6561" lon="-1.1431">
        <ele>8.31</ele>
        <time>2020-10-24T13:53:46Z</time>
      </trkpt>
      <trkpt lat="44.65608" lon="-1.14308">
        <ele>6.87</ele>
        <time>2020-10-24T13:54:08Z</time>
      </trkpt>
      <trkpt lat="44.65607" lon="-1.1431">
        <ele>6.87</ele>
        <time>2020-10-24T13:54:40Z</time>
      </trkpt>
      <trkpt lat="44.65609" lon="-1.1431">
        <ele>6.87</ele>
        <time>2020-10-24T13:55:09Z</time>
      </trkpt>
      <trkpt lat="44.65606" lon="-1.14305">
        <ele>6.87</ele>
        <time>2020-10-24T13:55:40Z</time>
      </trkpt>
      <trkpt lat="44.65605" lon="-1.14305">
        <ele>6.87</ele>
        <time>2020-10-24T13:55:41Z</time>
      </trkpt>
      <trkpt lat="44.65604" lon="-1.14305">
        <ele>6.87</ele>
        <time>2020-10-24T13:55:42Z</time>
      </trkpt>
      <trkpt lat="44.65602" lon="-1.14305">
        <ele>6.87</ele>
        <time>2020-10-24T13:55:43Z</time>
      </trkpt>
      <trkpt lat="44.65569" lon="-1.14335">
        <ele>6.87</ele>
        <time>2020-10-24T13:55:59Z</time>
      </trkpt>
      <trkpt lat="44.65529" lon="-1.14351">
        <ele>6.87</ele>
        <time>2020-10-24T13:56:14Z</time>
      </trkpt>
      <trkpt lat="44.65517" lon="-1.14324">
        <ele>8.31</ele>
        <time>2020-10-24T13:56:22Z</time>
      </trkpt>
      <trkpt lat="44.65488" lon="-1.14282">
        <ele>8.79</ele>
        <time>2020-10-24T13:56:36Z</time>
      </trkpt>
      <trkpt lat="44.65465" lon="-1.1425">
        <ele>7.35</ele>
        <time>2020-10-24T13:56:44Z</time>
      </trkpt>
      <trkpt lat="44.65415" lon="-1.14177">
        <ele>5.91</ele>
        <time>2020-10-24T13:57:00Z</time>
      </trkpt>
      <trkpt lat="44.6538" lon="-1.14127">
        <ele>5.91</ele>
        <time>2020-10-24T13:57:11Z</time>
      </trkpt>
      <trkpt lat="44.65373" lon="-1.14119">
        <ele>5.91</ele>
        <time>2020-10-24T13:57:13Z</time>
      </trkpt>
      <trkpt lat="44.65334" lon="-1.14059">
        <ele>4.94</ele>
        <time>2020-10-24T13:57:27Z</time>
      </trkpt>
      <trkpt lat="44.65323" lon="-1.14046">
        <ele>4.94</ele>
        <time>2020-10-24T13:57:38Z</time>
      </trkpt>
      <trkpt lat="44.65322" lon="-1.14047">
        <ele>6.39</ele>
        <time>2020-10-24T13:57:40Z</time>
      </trkpt>
      <trkpt lat="44.65323" lon="-1.14047">
        <ele>6.39</ele>
        <time>2020-10-24T13:57:58Z</time>
      </trkpt>
      <trkpt lat="44.65319" lon="-1.14042">
        <ele>6.39</ele>
        <time>2020-10-24T13:58:29Z</time>
      </trkpt>
      <trkpt lat="44.65317" lon="-1.14046">
        <ele>6.39</ele>
        <time>2020-10-24T13:58:35Z</time>
      </trkpt>
      <trkpt lat="44.65316" lon="-1.14047">
        <ele>6.39</ele>
        <time>2020-10-24T13:58:36Z</time>
      </trkpt>
      <trkpt lat="44.65315" lon="-1.14049">
        <ele>6.39</ele>
        <time>2020-10-24T13:58:37Z</time>
      </trkpt>
      <trkpt lat="44.65314" lon="-1.14051">
        <ele>6.39</ele>
        <time>2020-10-24T13:58:38Z</time>
      </trkpt>
      <trkpt lat="44.65313" lon="-1.14053">
        <ele>6.39</ele>
        <time>2020-10-24T13:58:39Z</time>
      </trkpt>
      <trkpt lat="44.65311" lon="-1.14056">
        <ele>4.94</ele>
        <time>2020-10-24T13:58:40Z</time>
      </trkpt>
      <trkpt lat="44.6531" lon="-1.14059">
        <ele>4.94</ele>
        <time>2020-10-24T13:58:41Z</time>
      </trkpt>
      <trkpt lat="44.65308" lon="-1.14061">
        <ele>4.94</ele>
        <time>2020-10-24T13:58:42Z</time>
      </trkpt>
      <trkpt lat="44.65306" lon="-1.14064">
        <ele>4.94</ele>
        <time>2020-10-24T13:58:43Z</time>
      </trkpt>
      <trkpt lat="44.65304" lon="-1.14066">
        <ele>4.94</ele>
        <time>2020-10-24T13:58:44Z</time>
      </trkpt>
      <trkpt lat="44.65284" lon="-1.14097">
        <ele>6.39</ele>
        <time>2020-10-24T13:58:54Z</time>
      </trkpt>
      <trkpt lat="44.65248" lon="-1.14154">
        <ele>6.39</ele>
        <time>2020-10-24T13:59:10Z</time>
      </trkpt>
      <trkpt lat="44.6521" lon="-1.14219">
        <ele>4.94</ele>
        <time>2020-10-24T13:59:26Z</time>
      </trkpt>
      <trkpt lat="44.65189" lon="-1.14257">
        <ele>4.94</ele>
        <time>2020-10-24T13:59:36Z</time>
      </trkpt>
      <trkpt lat="44.6518" lon="-1.14309">
        <ele>5.91</ele>
        <time>2020-10-24T13:59:47Z</time>
      </trkpt>
      <trkpt lat="44.65165" lon="-1.14366">
        <ele>5.91</ele>
        <time>2020-10-24T14:00:00Z</time>
      </trkpt>
      <trkpt lat="44.6515" lon="-1.14406">
        <ele>5.91</ele>
        <time>2020-10-24T14:00:10Z</time>
      </trkpt>
      <trkpt lat="44.65143" lon="-1.14442">
        <ele>5.91</ele>
        <time>2020-10-24T14:00:17Z</time>
      </trkpt>
      <trkpt lat="44.65141" lon="-1.14446">
        <ele>5.91</ele>
        <time>2020-10-24T14:00:18Z</time>
      </trkpt>
      <trkpt lat="44.65138" lon="-1.14451">
        <ele>5.91</ele>
        <time>2020-10-24T14:00:19Z</time>
      </trkpt>
      <trkpt lat="44.65136" lon="-1.14455">
        <ele>5.91</ele>
        <time>2020-10-24T14:00:20Z</time>
      </trkpt>
      <trkpt lat="44.65135" lon="-1.1446">
        <ele>5.91</ele>
        <time>2020-10-24T14:00:21Z</time>
      </trkpt>
      <trkpt lat="44.65128" lon="-1.14508">
        <ele>5.42</ele>
        <time>2020-10-24T14:00:31Z</time>
      </trkpt>
      <trkpt lat="44.65127" lon="-1.14513">
        <ele>5.42</ele>
        <time>2020-10-24T14:00:32Z</time>
      </trkpt>
      <trkpt lat="44.65118" lon="-1.14566">
        <ele>5.91</ele>
        <time>2020-10-24T14:00:43Z</time>
      </trkpt>
      <trkpt lat="44.65121" lon="-1.14605">
        <ele>5.91</ele>
        <time>2020-10-24T14:00:53Z</time>
      </trkpt>
      <trkpt lat="44.65122" lon="-1.14636">
        <ele>5.91</ele>
        <time>2020-10-24T14:01:02Z</time>
      </trkpt>
      <trkpt lat="44.65121" lon="-1.14645">
        <ele>5.91</ele>
        <time>2020-10-24T14:01:05Z</time>
      </trkpt>
      <trkpt lat="44.6512" lon="-1.14649">
        <ele>5.91</ele>
        <time>2020-10-24T14:01:06Z</time>
      </trkpt>
      <trkpt lat="44.6512" lon="-1.14653">
        <ele>5.91</ele>
        <time>2020-10-24T14:01:07Z</time>
      </trkpt>
      <trkpt lat="44.6512" lon="-1.14656">
        <ele>5.91</ele>
        <time>2020-10-24T14:01:08Z</time>
      </trkpt>
      <trkpt lat="44.65119" lon="-1.1466">
        <ele>5.91</ele>
        <time>2020-10-24T14:01:09Z</time>
      </trkpt>
      <trkpt lat="44.65119" lon="-1.14664">
        <ele>5.91</ele>
        <time>2020-10-24T14:01:10Z</time>
      </trkpt>
      <trkpt lat="44.65119" lon="-1.14667">
        <ele>4.94</ele>
        <time>2020-10-24T14:01:11Z</time>
      </trkpt>
      <trkpt lat="44.65119" lon="-1.14671">
        <ele>4.94</ele>
        <time>2020-10-24T14:01:12Z</time>
      </trkpt>
      <trkpt lat="44.65117" lon="-1.14689">
        <ele>4.94</ele>
        <time>2020-10-24T14:01:17Z</time>
      </trkpt>
      <trkpt lat="44.65116" lon="-1.14693">
        <ele>4.94</ele>
        <time>2020-10-24T14:01:18Z</time>
      </trkpt>
      <trkpt lat="44.65114" lon="-1.14696">
        <ele>4.94</ele>
        <time>2020-10-24T14:01:19Z</time>
      </trkpt>
      <trkpt lat="44.65113" lon="-1.147">
        <ele>4.94</ele>
        <time>2020-10-24T14:01:20Z</time>
      </trkpt>
      <trkpt lat="44.65112" lon="-1.14704">
        <ele>4.94</ele>
        <time>2020-10-24T14:01:21Z</time>
      </trkpt>
      <trkpt lat="44.65106" lon="-1.14719">
        <ele>4.94</ele>
        <time>2020-10-24T14:01:25Z</time>
      </trkpt>
      <trkpt lat="44.65104" lon="-1.1472">
        <ele>4.94</ele>
        <time>2020-10-24T14:01:26Z</time>
      </trkpt>
      <trkpt lat="44.65098" lon="-1.1472">
        <ele>4.94</ele>
        <time>2020-10-24T14:01:28Z</time>
      </trkpt>
      <trkpt lat="44.65084" lon="-1.14715">
        <ele>5.91</ele>
        <time>2020-10-24T14:01:34Z</time>
      </trkpt>
      <trkpt lat="44.65082" lon="-1.14715">
        <ele>6.39</ele>
        <time>2020-10-24T14:01:46Z</time>
      </trkpt>
      <trkpt lat="44.65071" lon="-1.1471">
        <ele>7.35</ele>
        <time>2020-10-24T14:01:58Z</time>
      </trkpt>
      <trkpt lat="44.65069" lon="-1.14708">
        <ele>6.39</ele>
        <time>2020-10-24T14:02:00Z</time>
      </trkpt>
      <trkpt lat="44.65066" lon="-1.14706">
        <ele>4.94</ele>
        <time>2020-10-24T14:02:15Z</time>
      </trkpt>
      <trkpt lat="44.65066" lon="-1.14706">
        <ele>7.35</ele>
        <time>2020-10-24T14:02:17Z</time>
      </trkpt>
      <trkpt lat="44.65064" lon="-1.14703">
        <ele>7.35</ele>
        <time>2020-10-24T14:02:26Z</time>
      </trkpt>
      <trkpt lat="44.6506" lon="-1.14697">
        <ele>7.35</ele>
        <time>2020-10-24T14:02:30Z</time>
      </trkpt>
      <trkpt lat="44.65058" lon="-1.14693">
        <ele>7.35</ele>
        <time>2020-10-24T14:02:32Z</time>
      </trkpt>
      <trkpt lat="44.65055" lon="-1.1469">
        <ele>7.35</ele>
        <time>2020-10-24T14:02:33Z</time>
      </trkpt>
      <trkpt lat="44.65052" lon="-1.1469">
        <ele>7.35</ele>
        <time>2020-10-24T14:02:34Z</time>
      </trkpt>
      <trkpt lat="44.65049" lon="-1.14691">
        <ele>7.35</ele>
        <time>2020-10-24T14:02:35Z</time>
      </trkpt>
      <trkpt lat="44.65047" lon="-1.14693">
        <ele>7.35</ele>
        <time>2020-10-24T14:02:36Z</time>
      </trkpt>
      <trkpt lat="44.65045" lon="-1.14695">
        <ele>7.35</ele>
        <time>2020-10-24T14:02:37Z</time>
      </trkpt>
      <trkpt lat="44.65043" lon="-1.14697">
        <ele>7.35</ele>
        <time>2020-10-24T14:02:38Z</time>
      </trkpt>
      <trkpt lat="44.65041" lon="-1.14699">
        <ele>7.35</ele>
        <time>2020-10-24T14:02:39Z</time>
      </trkpt>
      <trkpt lat="44.65039" lon="-1.14698">
        <ele>7.35</ele>
        <time>2020-10-24T14:02:40Z</time>
      </trkpt>
      <trkpt lat="44.65037" lon="-1.14697">
        <ele>7.35</ele>
        <time>2020-10-24T14:02:41Z</time>
      </trkpt>
      <trkpt lat="44.65035" lon="-1.14695">
        <ele>7.35</ele>
        <time>2020-10-24T14:02:42Z</time>
      </trkpt>
      <trkpt lat="44.65034" lon="-1.14693">
        <ele>7.35</ele>
        <time>2020-10-24T14:02:43Z</time>
      </trkpt>
      <trkpt lat="44.65032" lon="-1.14692">
        <ele>5.91</ele>
        <time>2020-10-24T14:02:44Z</time>
      </trkpt>
      <trkpt lat="44.6503" lon="-1.14691">
        <ele>5.91</ele>
        <time>2020-10-24T14:02:45Z</time>
      </trkpt>
      <trkpt lat="44.65028" lon="-1.14689">
        <ele>5.91</ele>
        <time>2020-10-24T14:02:46Z</time>
      </trkpt>
      <trkpt lat="44.65006" lon="-1.14687">
        <ele>5.91</ele>
        <time>2020-10-24T14:02:58Z</time>
      </trkpt>
      <trkpt lat="44.65003" lon="-1.14687">
        <ele>5.91</ele>
        <time>2020-10-24T14:03:00Z</time>
      </trkpt>
      <trkpt lat="44.65002" lon="-1.14688">
        <ele>5.91</ele>
        <time>2020-10-24T14:03:01Z</time>
      </trkpt>
      <trkpt lat="44.64998" lon="-1.14689">
        <ele>5.91</ele>
        <time>2020-10-24T14:03:03Z</time>
      </trkpt>
      <trkpt lat="44.64995" lon="-1.14688">
        <ele>5.91</ele>
        <time>2020-10-24T14:03:04Z</time>
      </trkpt>
      <trkpt lat="44.64994" lon="-1.14686">
        <ele>5.91</ele>
        <time>2020-10-24T14:03:05Z</time>
      </trkpt>
      <trkpt lat="44.64993" lon="-1.14685">
        <ele>5.91</ele>
        <time>2020-10-24T14:03:06Z</time>
      </trkpt>
      <trkpt lat="44.64993" lon="-1.14683">
        <ele>5.91</ele>
        <time>2020-10-24T14:03:07Z</time>
      </trkpt>
      <trkpt lat="44.64992" lon="-1.14681">
        <ele>5.91</ele>
        <time>2020-10-24T14:03:08Z</time>
      </trkpt>
      <trkpt lat="44.64991" lon="-1.1468">
        <ele>5.91</ele>
        <time>2020-10-24T14:03:20Z</time>
      </trkpt>
      <trkpt lat="44.64996" lon="-1.14676">
        <ele>5.91</ele>
        <time>2020-10-24T14:03:34Z</time>
      </trkpt>
      <trkpt lat="44.64996" lon="-1.14677">
        <ele>5.91</ele>
        <time>2020-10-24T14:03:55Z</time>
      </trkpt>
      <trkpt lat="44.64996" lon="-1.14679">
        <ele>5.42</ele>
        <time>2020-10-24T14:04:24Z</time>
      </trkpt>
      <trkpt lat="44.64997" lon="-1.14676">
        <ele>5.42</ele>
        <time>2020-10-24T14:04:53Z</time>
      </trkpt>
      <trkpt lat="44.64997" lon="-1.14677">
        <ele>5.42</ele>
        <time>2020-10-24T14:05:23Z</time>
      </trkpt>
      <trkpt lat="44.64996" lon="-1.14678">
        <ele>5.42</ele>
        <time>2020-10-24T14:05:52Z</time>
      </trkpt>
      <trkpt lat="44.64998" lon="-1.14677">
        <ele>5.42</ele>
        <time>2020-10-24T14:06:16Z</time>
      </trkpt>
      <trkpt lat="44.64997" lon="-1.14681">
        <ele>6.39</ele>
        <time>2020-10-24T14:06:50Z</time>
      </trkpt>
      <trkpt lat="44.64996" lon="-1.14676">
        <ele>6.39</ele>
        <time>2020-10-24T14:07:15Z</time>
      </trkpt>
      <trkpt lat="44.64998" lon="-1.14675">
        <ele>6.39</ele>
        <time>2020-10-24T14:07:36Z</time>
      </trkpt>
      <trkpt lat="44.64999" lon="-1.14676">
        <ele>5.91</ele>
        <time>2020-10-24T14:08:06Z</time>
      </trkpt>
      <trkpt lat="44.64998" lon="-1.14676">
        <ele>5.91</ele>
        <time>2020-10-24T14:08:30Z</time>
      </trkpt>
      <trkpt lat="44.64999" lon="-1.14676">
        <ele>5.91</ele>
        <time>2020-10-24T14:09:05Z</time>
      </trkpt>
      <trkpt lat="44.65" lon="-1.14675">
        <ele>5.91</ele>
        <time>2020-10-24T14:09:37Z</time>
      </trkpt>
      <trkpt lat="44.65" lon="-1.14677">
        <ele>5.91</ele>
        <time>2020-10-24T14:10:07Z</time>
      </trkpt>
      <trkpt lat="44.64999" lon="-1.14676">
        <ele>5.91</ele>
        <time>2020-10-24T14:10:40Z</time>
      </trkpt>
      <trkpt lat="44.64997" lon="-1.14676">
        <ele>4.46</ele>
        <time>2020-10-24T14:11:05Z</time>
      </trkpt>
      <trkpt lat="44.64998" lon="-1.14677">
        <ele>4.46</ele>
        <time>2020-10-24T14:11:26Z</time>
      </trkpt>
      <trkpt lat="44.64999" lon="-1.14677">
        <ele>4.46</ele>
        <time>2020-10-24T14:11:47Z</time>
      </trkpt>
      <trkpt lat="44.64998" lon="-1.14677">
        <ele>4.46</ele>
        <time>2020-10-24T14:12:22Z</time>
      </trkpt>
      <trkpt lat="44.64998" lon="-1.14678">
        <ele>4.46</ele>
        <time>2020-10-24T14:12:49Z</time>
      </trkpt>
      <trkpt lat="44.64997" lon="-1.14677">
        <ele>3.98</ele>
        <time>2020-10-24T14:13:12Z</time>
      </trkpt>
      <trkpt lat="44.65" lon="-1.14677">
        <ele>3.98</ele>
        <time>2020-10-24T14:13:34Z</time>
      </trkpt>
      <trkpt lat="44.64999" lon="-1.14679">
        <ele>3.98</ele>
        <time>2020-10-24T14:14:01Z</time>
      </trkpt>
      <trkpt lat="44.64998" lon="-1.1468">
        <ele>3.98</ele>
        <time>2020-10-24T14:14:02Z</time>
      </trkpt>
      <trkpt lat="44.64997" lon="-1.14681">
        <ele>3.98</ele>
        <time>2020-10-24T14:14:03Z</time>
      </trkpt>
      <trkpt lat="44.64996" lon="-1.14683">
        <ele>3.98</ele>
        <time>2020-10-24T14:14:04Z</time>
      </trkpt>
      <trkpt lat="44.64994" lon="-1.14685">
        <ele>3.98</ele>
        <time>2020-10-24T14:14:05Z</time>
      </trkpt>
      <trkpt lat="44.64993" lon="-1.14687">
        <ele>3.98</ele>
        <time>2020-10-24T14:14:06Z</time>
      </trkpt>
      <trkpt lat="44.64992" lon="-1.14689">
        <ele>3.98</ele>
        <time>2020-10-24T14:14:07Z</time>
      </trkpt>
      <trkpt lat="44.64968" lon="-1.14721">
        <ele>3.5</ele>
        <time>2020-10-24T14:14:19Z</time>
      </trkpt>
      <trkpt lat="44.64952" lon="-1.14745">
        <ele>3.5</ele>
        <time>2020-10-24T14:14:28Z</time>
      </trkpt>
      <trkpt lat="44.64954" lon="-1.14748">
        <ele>3.5</ele>
        <time>2020-10-24T14:14:29Z</time>
      </trkpt>
      <trkpt lat="44.64985" lon="-1.14792">
        <ele>4.94</ele>
        <time>2020-10-24T14:14:43Z</time>
      </trkpt>
      <trkpt lat="44.65017" lon="-1.14839">
        <ele>4.94</ele>
        <time>2020-10-24T14:14:57Z</time>
      </trkpt>
      <trkpt lat="44.65053" lon="-1.14887">
        <ele>6.39</ele>
        <time>2020-10-24T14:15:12Z</time>
      </trkpt>
      <trkpt lat="44.6506" lon="-1.149">
        <ele>6.39</ele>
        <time>2020-10-24T14:15:16Z</time>
      </trkpt>
      <trkpt lat="44.6506" lon="-1.14904">
        <ele>6.39</ele>
        <time>2020-10-24T14:15:17Z</time>
      </trkpt>
      <trkpt lat="44.6506" lon="-1.14909">
        <ele>6.39</ele>
        <time>2020-10-24T14:15:18Z</time>
      </trkpt>
      <trkpt lat="44.65059" lon="-1.14913">
        <ele>6.39</ele>
        <time>2020-10-24T14:15:19Z</time>
      </trkpt>
      <trkpt lat="44.65057" lon="-1.14918">
        <ele>6.39</ele>
        <time>2020-10-24T14:15:20Z</time>
      </trkpt>
      <trkpt lat="44.65055" lon="-1.14923">
        <ele>6.39</ele>
        <time>2020-10-24T14:15:21Z</time>
      </trkpt>
      <trkpt lat="44.65026" lon="-1.14962">
        <ele>5.91</ele>
        <time>2020-10-24T14:15:33Z</time>
      </trkpt>
      <trkpt lat="44.64992" lon="-1.15008">
        <ele>5.91</ele>
        <time>2020-10-24T14:15:46Z</time>
      </trkpt>
      <trkpt lat="44.64952" lon="-1.15065">
        <ele>5.91</ele>
        <time>2020-10-24T14:16:01Z</time>
      </trkpt>
      <trkpt lat="44.64943" lon="-1.15078">
        <ele>5.91</ele>
        <time>2020-10-24T14:16:04Z</time>
      </trkpt>
      <trkpt lat="44.64938" lon="-1.15086">
        <ele>5.91</ele>
        <time>2020-10-24T14:16:06Z</time>
      </trkpt>
      <trkpt lat="44.64925" lon="-1.15102">
        <ele>5.91</ele>
        <time>2020-10-24T14:16:10Z</time>
      </trkpt>
      <trkpt lat="44.64873" lon="-1.15171">
        <ele>4.94</ele>
        <time>2020-10-24T14:16:28Z</time>
      </trkpt>
      <trkpt lat="44.64849" lon="-1.15207">
        <ele>3.98</ele>
        <time>2020-10-24T14:16:40Z</time>
      </trkpt>
      <trkpt lat="44.64829" lon="-1.15234">
        <ele>3.98</ele>
        <time>2020-10-24T14:16:53Z</time>
      </trkpt>
      <trkpt lat="44.64789" lon="-1.1525">
        <ele>3.98</ele>
        <time>2020-10-24T14:17:04Z</time>
      </trkpt>
      <trkpt lat="44.64784" lon="-1.15248">
        <ele>3.98</ele>
        <time>2020-10-24T14:17:05Z</time>
      </trkpt>
      <trkpt lat="44.64783" lon="-1.15246">
        <ele>3.98</ele>
        <time>2020-10-24T14:17:06Z</time>
      </trkpt>
      <trkpt lat="44.6478" lon="-1.15242">
        <ele>3.98</ele>
        <time>2020-10-24T14:17:07Z</time>
      </trkpt>
      <trkpt lat="44.64778" lon="-1.15238">
        <ele>3.5</ele>
        <time>2020-10-24T14:17:08Z</time>
      </trkpt>
      <trkpt lat="44.64776" lon="-1.15233">
        <ele>3.5</ele>
        <time>2020-10-24T14:17:09Z</time>
      </trkpt>
      <trkpt lat="44.64768" lon="-1.15219">
        <ele>3.5</ele>
        <time>2020-10-24T14:17:12Z</time>
      </trkpt>
      <trkpt lat="44.64722" lon="-1.15173">
        <ele>2.06</ele>
        <time>2020-10-24T14:17:24Z</time>
      </trkpt>
      <trkpt lat="44.64712" lon="-1.15146">
        <ele>2.06</ele>
        <time>2020-10-24T14:17:33Z</time>
      </trkpt>
      <trkpt lat="44.64707" lon="-1.15078">
        <ele>2.06</ele>
        <time>2020-10-24T14:17:46Z</time>
      </trkpt>
      <trkpt lat="44.64699" lon="-1.15058">
        <ele>1.58</ele>
        <time>2020-10-24T14:17:52Z</time>
      </trkpt>
      <trkpt lat="44.64699" lon="-1.15056">
        <ele>1.58</ele>
        <time>2020-10-24T14:17:53Z</time>
      </trkpt>
      <trkpt lat="44.64699" lon="-1.15054">
        <ele>1.58</ele>
        <time>2020-10-24T14:17:54Z</time>
      </trkpt>
      <trkpt lat="44.647" lon="-1.15052">
        <ele>1.58</ele>
        <time>2020-10-24T14:17:55Z</time>
      </trkpt>
      <trkpt lat="44.64701" lon="-1.15049">
        <ele>1.58</ele>
        <time>2020-10-24T14:17:56Z</time>
      </trkpt>
      <trkpt lat="44.64716" lon="-1.15">
        <ele>1.58</ele>
        <time>2020-10-24T14:18:10Z</time>
      </trkpt>
      <trkpt lat="44.64735" lon="-1.14926">
        <ele>3.02</ele>
        <time>2020-10-24T14:18:25Z</time>
      </trkpt>
      <trkpt lat="44.64755" lon="-1.14868">
        <ele>4.46</ele>
        <time>2020-10-24T14:18:40Z</time>
      </trkpt>
      <trkpt lat="44.64745" lon="-1.14824">
        <ele>4.94</ele>
        <time>2020-10-24T14:18:52Z</time>
      </trkpt>
      <trkpt lat="44.64729" lon="-1.14778">
        <ele>4.94</ele>
        <time>2020-10-24T14:19:04Z</time>
      </trkpt>
      <trkpt lat="44.64717" lon="-1.14731">
        <ele>4.94</ele>
        <time>2020-10-24T14:19:16Z</time>
      </trkpt>
      <trkpt lat="44.64699" lon="-1.14704">
        <ele>3.5</ele>
        <time>2020-10-24T14:19:24Z</time>
      </trkpt>
      <trkpt lat="44.64636" lon="-1.1469">
        <ele>3.02</ele>
        <time>2020-10-24T14:19:40Z</time>
      </trkpt>
      <trkpt lat="44.64575" lon="-1.14675">
        <ele>3.02</ele>
        <time>2020-10-24T14:19:54Z</time>
      </trkpt>
      <trkpt lat="44.64507" lon="-1.14662">
        <ele>3.02</ele>
        <time>2020-10-24T14:20:11Z</time>
      </trkpt>
      <trkpt lat="44.64448" lon="-1.14662">
        <ele>3.02</ele>
        <time>2020-10-24T14:20:26Z</time>
      </trkpt>
      <trkpt lat="44.64395" lon="-1.14664">
        <ele>3.98</ele>
        <time>2020-10-24T14:20:40Z</time>
      </trkpt>
      <trkpt lat="44.64344" lon="-1.14663">
        <ele>3.98</ele>
        <time>2020-10-24T14:20:56Z</time>
      </trkpt>
      <trkpt lat="44.64308" lon="-1.14664">
        <ele>3.98</ele>
        <time>2020-10-24T14:21:07Z</time>
      </trkpt>
      <trkpt lat="44.64296" lon="-1.14662">
        <ele>3.98</ele>
        <time>2020-10-24T14:21:10Z</time>
      </trkpt>
      <trkpt lat="44.64292" lon="-1.14662">
        <ele>3.98</ele>
        <time>2020-10-24T14:21:11Z</time>
      </trkpt>
      <trkpt lat="44.64215" lon="-1.14664">
        <ele>3.98</ele>
        <time>2020-10-24T14:21:29Z</time>
      </trkpt>
      <trkpt lat="44.64175" lon="-1.14664">
        <ele>3.98</ele>
        <time>2020-10-24T14:21:43Z</time>
      </trkpt>
      <trkpt lat="44.64174" lon="-1.14663">
        <ele>3.98</ele>
        <time>2020-10-24T14:22:04Z</time>
      </trkpt>
      <trkpt lat="44.64173" lon="-1.14666">
        <ele>3.98</ele>
        <time>2020-10-24T14:22:20Z</time>
      </trkpt>
      <trkpt lat="44.64172" lon="-1.14667">
        <ele>3.98</ele>
        <time>2020-10-24T14:22:21Z</time>
      </trkpt>
      <trkpt lat="44.64174" lon="-1.14683">
        <ele>3.98</ele>
        <time>2020-10-24T14:22:28Z</time>
      </trkpt>
      <trkpt lat="44.64175" lon="-1.14688">
        <ele>3.98</ele>
        <time>2020-10-24T14:22:46Z</time>
      </trkpt>
      <trkpt lat="44.64174" lon="-1.14687">
        <ele>3.5</ele>
        <time>2020-10-24T14:23:15Z</time>
      </trkpt>
      <trkpt lat="44.64171" lon="-1.14687">
        <ele>3.5</ele>
        <time>2020-10-24T14:23:43Z</time>
      </trkpt>
      <trkpt lat="44.64173" lon="-1.14689">
        <ele>3.5</ele>
        <time>2020-10-24T14:24:20Z</time>
      </trkpt>
      <trkpt lat="44.64175" lon="-1.14688">
        <ele>3.5</ele>
        <time>2020-10-24T14:24:42Z</time>
      </trkpt>
      <trkpt lat="44.64175" lon="-1.1469">
        <ele>3.5</ele>
        <time>2020-10-24T14:25:04Z</time>
      </trkpt>
      <trkpt lat="44.64174" lon="-1.1469">
        <ele>3.5</ele>
        <time>2020-10-24T14:25:22Z</time>
      </trkpt>
      <trkpt lat="44.64173" lon="-1.14691">
        <ele>3.5</ele>
        <time>2020-10-24T14:25:43Z</time>
      </trkpt>
      <trkpt lat="44.64175" lon="-1.1469">
        <ele>3.5</ele>
        <time>2020-10-24T14:25:56Z</time>
      </trkpt>
      <trkpt lat="44.64176" lon="-1.14688">
        <ele>3.5</ele>
        <time>2020-10-24T14:26:26Z</time>
      </trkpt>
      <trkpt lat="44.64177" lon="-1.14688">
        <ele>3.98</ele>
        <time>2020-10-24T14:26:47Z</time>
      </trkpt>
      <trkpt lat="44.64176" lon="-1.14687">
        <ele>3.98</ele>
        <time>2020-10-24T14:27:08Z</time>
      </trkpt>
      <trkpt lat="44.64174" lon="-1.14689">
        <ele>3.98</ele>
        <time>2020-10-24T14:27:29Z</time>
      </trkpt>
      <trkpt lat="44.64173" lon="-1.14686">
        <ele>3.98</ele>
        <time>2020-10-24T14:27:54Z</time>
      </trkpt>
      <trkpt lat="44.64177" lon="-1.14686">
        <ele>3.98</ele>
        <time>2020-10-24T14:28:09Z</time>
      </trkpt>
      <trkpt lat="44.64178" lon="-1.14689">
        <ele>4.46</ele>
        <time>2020-10-24T14:28:38Z</time>
      </trkpt>
      <trkpt lat="44.64177" lon="-1.1469">
        <ele>4.46</ele>
        <time>2020-10-24T14:29:03Z</time>
      </trkpt>
      <trkpt lat="44.64178" lon="-1.14689">
        <ele>3.98</ele>
        <time>2020-10-24T14:29:29Z</time>
      </trkpt>
      <trkpt lat="44.64178" lon="-1.14688">
        <ele>3.98</ele>
        <time>2020-10-24T14:29:59Z</time>
      </trkpt>
      <trkpt lat="44.64178" lon="-1.14687">
        <ele>3.98</ele>
        <time>2020-10-24T14:30:19Z</time>
      </trkpt>
      <trkpt lat="44.64179" lon="-1.14688">
        <ele>3.98</ele>
        <time>2020-10-24T14:30:32Z</time>
      </trkpt>
      <trkpt lat="44.64173" lon="-1.14667">
        <ele>3.98</ele>
        <time>2020-10-24T14:30:45Z</time>
      </trkpt>
      <trkpt lat="44.64167" lon="-1.14664">
        <ele>3.98</ele>
        <time>2020-10-24T14:30:49Z</time>
      </trkpt>
      <trkpt lat="44.64164" lon="-1.14664">
        <ele>3.98</ele>
        <time>2020-10-24T14:30:50Z</time>
      </trkpt>
      <trkpt lat="44.64162" lon="-1.14664">
        <ele>3.98</ele>
        <time>2020-10-24T14:30:51Z</time>
      </trkpt>
      <trkpt lat="44.6416" lon="-1.14665">
        <ele>3.98</ele>
        <time>2020-10-24T14:30:52Z</time>
      </trkpt>
      <trkpt lat="44.64158" lon="-1.14665">
        <ele>3.98</ele>
        <time>2020-10-24T14:30:53Z</time>
      </trkpt>
      <trkpt lat="44.64156" lon="-1.14665">
        <ele>3.98</ele>
        <time>2020-10-24T14:30:54Z</time>
      </trkpt>
      <trkpt lat="44.64154" lon="-1.14665">
        <ele>3.98</ele>
        <time>2020-10-24T14:30:55Z</time>
      </trkpt>
      <trkpt lat="44.64151" lon="-1.14665">
        <ele>3.98</ele>
        <time>2020-10-24T14:30:56Z</time>
      </trkpt>
      <trkpt lat="44.64149" lon="-1.14665">
        <ele>3.98</ele>
        <time>2020-10-24T14:30:57Z</time>
      </trkpt>
      <trkpt lat="44.64147" lon="-1.14665">
        <ele>3.98</ele>
        <time>2020-10-24T14:30:58Z</time>
      </trkpt>
      <trkpt lat="44.64145" lon="-1.14666">
        <ele>3.98</ele>
        <time>2020-10-24T14:30:59Z</time>
      </trkpt>
      <trkpt lat="44.64143" lon="-1.14665">
        <ele>3.98</ele>
        <time>2020-10-24T14:31:00Z</time>
      </trkpt>
      <trkpt lat="44.64141" lon="-1.14665">
        <ele>3.98</ele>
        <time>2020-10-24T14:31:01Z</time>
      </trkpt>
      <trkpt lat="44.64115" lon="-1.14664">
        <ele>3.98</ele>
        <time>2020-10-24T14:31:14Z</time>
      </trkpt>
      <trkpt lat="44.64077" lon="-1.14664">
        <ele>3.98</ele>
        <time>2020-10-24T14:31:31Z</time>
      </trkpt>
      <trkpt lat="44.64041" lon="-1.14666">
        <ele>3.98</ele>
        <time>2020-10-24T14:31:47Z</time>
      </trkpt>
      <trkpt lat="44.64011" lon="-1.14669">
        <ele>3.98</ele>
        <time>2020-10-24T14:32:01Z</time>
      </trkpt>
      <trkpt lat="44.63979" lon="-1.14669">
        <ele>3.98</ele>
        <time>2020-10-24T14:32:15Z</time>
      </trkpt>
      <trkpt lat="44.63969" lon="-1.14668">
        <ele>3.98</ele>
        <time>2020-10-24T14:32:21Z</time>
      </trkpt>
      <trkpt lat="44.63946" lon="-1.14662">
        <ele>3.98</ele>
        <time>2020-10-24T14:32:33Z</time>
      </trkpt>
      <trkpt lat="44.63918" lon="-1.14647">
        <ele>3.98</ele>
        <time>2020-10-24T14:32:46Z</time>
      </trkpt>
      <trkpt lat="44.63899" lon="-1.14609">
        <ele>4.46</ele>
        <time>2020-10-24T14:32:59Z</time>
      </trkpt>
      <trkpt lat="44.63881" lon="-1.14567">
        <ele>4.46</ele>
        <time>2020-10-24T14:33:12Z</time>
      </trkpt>
      <trkpt lat="44.63853" lon="-1.14508">
        <ele>3.98</ele>
        <time>2020-10-24T14:33:26Z</time>
      </trkpt>
      <trkpt lat="44.63851" lon="-1.14503">
        <ele>3.98</ele>
        <time>2020-10-24T14:33:27Z</time>
      </trkpt>
      <trkpt lat="44.63824" lon="-1.1444">
        <ele>3.98</ele>
        <time>2020-10-24T14:33:42Z</time>
      </trkpt>
      <trkpt lat="44.63798" lon="-1.1438">
        <ele>3.98</ele>
        <time>2020-10-24T14:33:57Z</time>
      </trkpt>
      <trkpt lat="44.63796" lon="-1.1437">
        <ele>3.98</ele>
        <time>2020-10-24T14:33:59Z</time>
      </trkpt>
      <trkpt lat="44.63795" lon="-1.14346">
        <ele>3.98</ele>
        <time>2020-10-24T14:34:04Z</time>
      </trkpt>
      <trkpt lat="44.63795" lon="-1.14342">
        <ele>3.98</ele>
        <time>2020-10-24T14:34:05Z</time>
      </trkpt>
      <trkpt lat="44.63797" lon="-1.14338">
        <ele>3.98</ele>
        <time>2020-10-24T14:34:06Z</time>
      </trkpt>
      <trkpt lat="44.63811" lon="-1.14304">
        <ele>3.98</ele>
        <time>2020-10-24T14:34:14Z</time>
      </trkpt>
      <trkpt lat="44.63814" lon="-1.14302">
        <ele>3.98</ele>
        <time>2020-10-24T14:34:15Z</time>
      </trkpt>
      <trkpt lat="44.63818" lon="-1.143">
        <ele>2.54</ele>
        <time>2020-10-24T14:34:16Z</time>
      </trkpt>
      <trkpt lat="44.63823" lon="-1.143">
        <ele>2.54</ele>
        <time>2020-10-24T14:34:17Z</time>
      </trkpt>
      <trkpt lat="44.63828" lon="-1.143">
        <ele>2.06</ele>
        <time>2020-10-24T14:34:18Z</time>
      </trkpt>
      <trkpt lat="44.63833" lon="-1.143">
        <ele>2.06</ele>
        <time>2020-10-24T14:34:19Z</time>
      </trkpt>
      <trkpt lat="44.63837" lon="-1.143">
        <ele>2.06</ele>
        <time>2020-10-24T14:34:20Z</time>
      </trkpt>
      <trkpt lat="44.63842" lon="-1.14301">
        <ele>2.06</ele>
        <time>2020-10-24T14:34:21Z</time>
      </trkpt>
      <trkpt lat="44.63899" lon="-1.1431">
        <ele>2.06</ele>
        <time>2020-10-24T14:34:34Z</time>
      </trkpt>
      <trkpt lat="44.63903" lon="-1.14309">
        <ele>2.06</ele>
        <time>2020-10-24T14:34:35Z</time>
      </trkpt>
      <trkpt lat="44.63907" lon="-1.14308">
        <ele>2.06</ele>
        <time>2020-10-24T14:34:36Z</time>
      </trkpt>
      <trkpt lat="44.6391" lon="-1.14305">
        <ele>2.06</ele>
        <time>2020-10-24T14:34:37Z</time>
      </trkpt>
      <trkpt lat="44.63913" lon="-1.14301">
        <ele>2.06</ele>
        <time>2020-10-24T14:34:38Z</time>
      </trkpt>
      <trkpt lat="44.63915" lon="-1.14296">
        <ele>2.06</ele>
        <time>2020-10-24T14:34:39Z</time>
      </trkpt>
      <trkpt lat="44.63917" lon="-1.14292">
        <ele>2.06</ele>
        <time>2020-10-24T14:34:40Z</time>
      </trkpt>
      <trkpt lat="44.63935" lon="-1.14234">
        <ele>2.06</ele>
        <time>2020-10-24T14:34:55Z</time>
      </trkpt>
      <trkpt lat="44.63955" lon="-1.14161">
        <ele>2.06</ele>
        <time>2020-10-24T14:35:10Z</time>
      </trkpt>
      <trkpt lat="44.63981" lon="-1.14068">
        <ele>2.06</ele>
        <time>2020-10-24T14:35:28Z</time>
      </trkpt>
      <trkpt lat="44.6401" lon="-1.14002">
        <ele>2.06</ele>
        <time>2020-10-24T14:35:43Z</time>
      </trkpt>
      <trkpt lat="44.64044" lon="-1.13933">
        <ele>1.58</ele>
        <time>2020-10-24T14:35:58Z</time>
      </trkpt>
      <trkpt lat="44.64087" lon="-1.13844">
        <ele>1.58</ele>
        <time>2020-10-24T14:36:16Z</time>
      </trkpt>
      <trkpt lat="44.64106" lon="-1.13813">
        <ele>1.58</ele>
        <time>2020-10-24T14:36:25Z</time>
      </trkpt>
      <trkpt lat="44.64107" lon="-1.13812">
        <ele>1.58</ele>
        <time>2020-10-24T14:36:26Z</time>
      </trkpt>
      <trkpt lat="44.64108" lon="-1.1381">
        <ele>1.58</ele>
        <time>2020-10-24T14:36:27Z</time>
      </trkpt>
      <trkpt lat="44.64109" lon="-1.13809">
        <ele>1.58</ele>
        <time>2020-10-24T14:36:28Z</time>
      </trkpt>
      <trkpt lat="44.64111" lon="-1.13807">
        <ele>1.58</ele>
        <time>2020-10-24T14:36:29Z</time>
      </trkpt>
      <trkpt lat="44.64112" lon="-1.13805">
        <ele>1.58</ele>
        <time>2020-10-24T14:36:30Z</time>
      </trkpt>
      <trkpt lat="44.64114" lon="-1.13804">
        <ele>1.58</ele>
        <time>2020-10-24T14:36:31Z</time>
      </trkpt>
      <trkpt lat="44.64116" lon="-1.13803">
        <ele>1.58</ele>
        <time>2020-10-24T14:36:32Z</time>
      </trkpt>
      <trkpt lat="44.64119" lon="-1.13803">
        <ele>1.58</ele>
        <time>2020-10-24T14:36:33Z</time>
      </trkpt>
      <trkpt lat="44.64143" lon="-1.13794">
        <ele>1.58</ele>
        <time>2020-10-24T14:36:47Z</time>
      </trkpt>
      <trkpt lat="44.64143" lon="-1.13794">
        <ele>1.58</ele>
        <time>2020-10-24T14:37:07Z</time>
      </trkpt>
      <trkpt lat="44.64144" lon="-1.13795">
        <ele>1.58</ele>
        <time>2020-10-24T14:37:30Z</time>
      </trkpt>
      <trkpt lat="44.64143" lon="-1.13794">
        <ele>1.58</ele>
        <time>2020-10-24T14:37:56Z</time>
      </trkpt>
      <trkpt lat="44.64159" lon="-1.13792">
        <ele>1.58</ele>
        <time>2020-10-24T14:38:12Z</time>
      </trkpt>
      <trkpt lat="44.64201" lon="-1.13774">
        <ele>1.58</ele>
        <time>2020-10-24T14:38:26Z</time>
      </trkpt>
      <trkpt lat="44.64228" lon="-1.13751">
        <ele>3.5</ele>
        <time>2020-10-24T14:38:38Z</time>
      </trkpt>
      <trkpt lat="44.64237" lon="-1.13683">
        <ele>3.5</ele>
        <time>2020-10-24T14:38:53Z</time>
      </trkpt>
      <trkpt lat="44.64251" lon="-1.13587">
        <ele>3.02</ele>
        <time>2020-10-24T14:39:12Z</time>
      </trkpt>
      <trkpt lat="44.64264" lon="-1.13504">
        <ele>3.98</ele>
        <time>2020-10-24T14:39:28Z</time>
      </trkpt>
      <trkpt lat="44.64283" lon="-1.13423">
        <ele>3.5</ele>
        <time>2020-10-24T14:39:45Z</time>
      </trkpt>
      <trkpt lat="44.643" lon="-1.13352">
        <ele>3.5</ele>
        <time>2020-10-24T14:40:00Z</time>
      </trkpt>
      <trkpt lat="44.64324" lon="-1.13253">
        <ele>3.5</ele>
        <time>2020-10-24T14:40:20Z</time>
      </trkpt>
      <trkpt lat="44.64344" lon="-1.13169">
        <ele>3.5</ele>
        <time>2020-10-24T14:40:39Z</time>
      </trkpt>
      <trkpt lat="44.64357" lon="-1.13153">
        <ele>1.58</ele>
        <time>2020-10-24T14:40:44Z</time>
      </trkpt>
      <trkpt lat="44.64359" lon="-1.13149">
        <ele>1.58</ele>
        <time>2020-10-24T14:40:45Z</time>
      </trkpt>
      <trkpt lat="44.64361" lon="-1.13141">
        <ele>1.58</ele>
        <time>2020-10-24T14:40:46Z</time>
      </trkpt>
      <trkpt lat="44.6438" lon="-1.1305">
        <ele>1.1</ele>
        <time>2020-10-24T14:41:03Z</time>
      </trkpt>
      <trkpt lat="44.64394" lon="-1.12987">
        <ele>1.1</ele>
        <time>2020-10-24T14:41:18Z</time>
      </trkpt>
      <trkpt lat="44.64406" lon="-1.12934">
        <ele>1.1</ele>
        <time>2020-10-24T14:41:31Z</time>
      </trkpt>
      <trkpt lat="44.64409" lon="-1.129">
        <ele>2.54</ele>
        <time>2020-10-24T14:41:38Z</time>
      </trkpt>
      <trkpt lat="44.64411" lon="-1.12893">
        <ele>3.02</ele>
        <time>2020-10-24T14:41:47Z</time>
      </trkpt>
      <trkpt lat="44.64412" lon="-1.12893">
        <ele>3.02</ele>
        <time>2020-10-24T14:42:20Z</time>
      </trkpt>
      <trkpt lat="44.64412" lon="-1.12891">
        <ele>3.5</ele>
        <time>2020-10-24T14:42:46Z</time>
      </trkpt>
      <trkpt lat="44.64413" lon="-1.12888">
        <ele>3.02</ele>
        <time>2020-10-24T14:43:16Z</time>
      </trkpt>
      <trkpt lat="44.64414" lon="-1.12883">
        <ele>3.02</ele>
        <time>2020-10-24T14:43:32Z</time>
      </trkpt>
      <trkpt lat="44.64415" lon="-1.12884">
        <ele>3.02</ele>
        <time>2020-10-24T14:44:00Z</time>
      </trkpt>
      <trkpt lat="44.64414" lon="-1.12886">
        <ele>3.02</ele>
        <time>2020-10-24T14:44:32Z</time>
      </trkpt>
      <trkpt lat="44.64415" lon="-1.12884">
        <ele>3.02</ele>
        <time>2020-10-24T14:45:00Z</time>
      </trkpt>
      <trkpt lat="44.64414" lon="-1.12883">
        <ele>3.02</ele>
        <time>2020-10-24T14:45:21Z</time>
      </trkpt>
      <trkpt lat="44.64415" lon="-1.12884">
        <ele>3.02</ele>
        <time>2020-10-24T14:45:48Z</time>
      </trkpt>
      <trkpt lat="44.64414" lon="-1.12884">
        <ele>3.02</ele>
        <time>2020-10-24T14:46:08Z</time>
      </trkpt>
      <trkpt lat="44.64416" lon="-1.12883">
        <ele>3.5</ele>
        <time>2020-10-24T14:46:30Z</time>
      </trkpt>
      <trkpt lat="44.64414" lon="-1.12883">
        <ele>3.02</ele>
        <time>2020-10-24T14:46:51Z</time>
      </trkpt>
      <trkpt lat="44.64415" lon="-1.12884">
        <ele>3.02</ele>
        <time>2020-10-24T14:47:16Z</time>
      </trkpt>
      <trkpt lat="44.64416" lon="-1.12885">
        <ele>3.02</ele>
        <time>2020-10-24T14:47:44Z</time>
      </trkpt>
      <trkpt lat="44.64415" lon="-1.12884">
        <ele>3.5</ele>
        <time>2020-10-24T14:48:13Z</time>
      </trkpt>
      <trkpt lat="44.64416" lon="-1.12885">
        <ele>3.5</ele>
        <time>2020-10-24T14:48:40Z</time>
      </trkpt>
      <trkpt lat="44.64416" lon="-1.12882">
        <ele>3.98</ele>
        <time>2020-10-24T14:48:52Z</time>
      </trkpt>
      <trkpt lat="44.64417" lon="-1.1288">
        <ele>3.98</ele>
        <time>2020-10-24T14:48:53Z</time>
      </trkpt>
      <trkpt lat="44.64417" lon="-1.12879">
        <ele>3.98</ele>
        <time>2020-10-24T14:48:54Z</time>
      </trkpt>
      <trkpt lat="44.64418" lon="-1.12877">
        <ele>3.98</ele>
        <time>2020-10-24T14:48:55Z</time>
      </trkpt>
      <trkpt lat="44.64419" lon="-1.12874">
        <ele>3.98</ele>
        <time>2020-10-24T14:48:56Z</time>
      </trkpt>
      <trkpt lat="44.64419" lon="-1.12872">
        <ele>3.98</ele>
        <time>2020-10-24T14:48:57Z</time>
      </trkpt>
      <trkpt lat="44.64419" lon="-1.12869">
        <ele>3.98</ele>
        <time>2020-10-24T14:48:58Z</time>
      </trkpt>
      <trkpt lat="44.6442" lon="-1.12866">
        <ele>3.98</ele>
        <time>2020-10-24T14:48:59Z</time>
      </trkpt>
      <trkpt lat="44.6442" lon="-1.12863">
        <ele>3.98</ele>
        <time>2020-10-24T14:49:00Z</time>
      </trkpt>
      <trkpt lat="44.64425" lon="-1.12833">
        <ele>3.5</ele>
        <time>2020-10-24T14:49:13Z</time>
      </trkpt>
      <trkpt lat="44.64427" lon="-1.12828">
        <ele>3.5</ele>
        <time>2020-10-24T14:49:16Z</time>
      </trkpt>
      <trkpt lat="44.6444" lon="-1.12764">
        <ele>3.5</ele>
        <time>2020-10-24T14:49:31Z</time>
      </trkpt>
      <trkpt lat="44.64456" lon="-1.12684">
        <ele>2.54</ele>
        <time>2020-10-24T14:49:46Z</time>
      </trkpt>
      <trkpt lat="44.64456" lon="-1.12607">
        <ele>2.54</ele>
        <time>2020-10-24T14:50:02Z</time>
      </trkpt>
      <trkpt lat="44.64453" lon="-1.12554">
        <ele>3.5</ele>
        <time>2020-10-24T14:50:15Z</time>
      </trkpt>
      <trkpt lat="44.64461" lon="-1.1249">
        <ele>3.5</ele>
        <time>2020-10-24T14:50:29Z</time>
      </trkpt>
      <trkpt lat="44.64472" lon="-1.12407">
        <ele>3.5</ele>
        <time>2020-10-24T14:50:46Z</time>
      </trkpt>
      <trkpt lat="44.64482" lon="-1.12324">
        <ele>3.5</ele>
        <time>2020-10-24T14:51:03Z</time>
      </trkpt>
      <trkpt lat="44.64492" lon="-1.12228">
        <ele>3.5</ele>
        <time>2020-10-24T14:51:23Z</time>
      </trkpt>
      <trkpt lat="44.645" lon="-1.1215">
        <ele>3.5</ele>
        <time>2020-10-24T14:51:39Z</time>
      </trkpt>
      <trkpt lat="44.64506" lon="-1.1207">
        <ele>3.5</ele>
        <time>2020-10-24T14:51:55Z</time>
      </trkpt>
      <trkpt lat="44.6451" lon="-1.1199">
        <ele>3.5</ele>
        <time>2020-10-24T14:52:11Z</time>
      </trkpt>
      <trkpt lat="44.64501" lon="-1.11928">
        <ele>3.5</ele>
        <time>2020-10-24T14:52:25Z</time>
      </trkpt>
      <trkpt lat="44.6449" lon="-1.11886">
        <ele>3.02</ele>
        <time>2020-10-24T14:52:36Z</time>
      </trkpt>
      <trkpt lat="44.64484" lon="-1.11841">
        <ele>3.02</ele>
        <time>2020-10-24T14:52:48Z</time>
      </trkpt>
      <trkpt lat="44.64482" lon="-1.11839">
        <ele>3.02</ele>
        <time>2020-10-24T14:52:49Z</time>
      </trkpt>
      <trkpt lat="44.6448" lon="-1.11838">
        <ele>3.02</ele>
        <time>2020-10-24T14:52:50Z</time>
      </trkpt>
      <trkpt lat="44.64478" lon="-1.11838">
        <ele>3.02</ele>
        <time>2020-10-24T14:52:51Z</time>
      </trkpt>
      <trkpt lat="44.64476" lon="-1.11839">
        <ele>3.02</ele>
        <time>2020-10-24T14:52:52Z</time>
      </trkpt>
      <trkpt lat="44.64474" lon="-1.11838">
        <ele>3.02</ele>
        <time>2020-10-24T14:52:53Z</time>
      </trkpt>
      <trkpt lat="44.64472" lon="-1.11838">
        <ele>3.02</ele>
        <time>2020-10-24T14:52:54Z</time>
      </trkpt>
      <trkpt lat="44.6447" lon="-1.11837">
        <ele>3.02</ele>
        <time>2020-10-24T14:52:55Z</time>
      </trkpt>
      <trkpt lat="44.64468" lon="-1.11837">
        <ele>3.02</ele>
        <time>2020-10-24T14:52:56Z</time>
      </trkpt>
      <trkpt lat="44.64442" lon="-1.11825">
        <ele>3.5</ele>
        <time>2020-10-24T14:53:09Z</time>
      </trkpt>
      <trkpt lat="44.64433" lon="-1.11824">
        <ele>3.5</ele>
        <time>2020-10-24T14:53:19Z</time>
      </trkpt>
      <trkpt lat="44.64426" lon="-1.11822">
        <ele>2.54</ele>
        <time>2020-10-24T14:53:34Z</time>
      </trkpt>
      <trkpt lat="44.64424" lon="-1.11822">
        <ele>2.54</ele>
        <time>2020-10-24T14:53:39Z</time>
      </trkpt>
      <trkpt lat="44.64423" lon="-1.11821">
        <ele>2.54</ele>
        <time>2020-10-24T14:53:40Z</time>
      </trkpt>
      <trkpt lat="44.64421" lon="-1.1182">
        <ele>2.54</ele>
        <time>2020-10-24T14:53:41Z</time>
      </trkpt>
      <trkpt lat="44.6442" lon="-1.11819">
        <ele>2.54</ele>
        <time>2020-10-24T14:53:42Z</time>
      </trkpt>
      <trkpt lat="44.64418" lon="-1.11819">
        <ele>2.54</ele>
        <time>2020-10-24T14:53:43Z</time>
      </trkpt>
      <trkpt lat="44.64415" lon="-1.11819">
        <ele>2.54</ele>
        <time>2020-10-24T14:53:44Z</time>
      </trkpt>
      <trkpt lat="44.64413" lon="-1.1182">
        <ele>2.54</ele>
        <time>2020-10-24T14:53:45Z</time>
      </trkpt>
      <trkpt lat="44.64411" lon="-1.11821">
        <ele>2.54</ele>
        <time>2020-10-24T14:53:46Z</time>
      </trkpt>
      <trkpt lat="44.64408" lon="-1.11821">
        <ele>2.06</ele>
        <time>2020-10-24T14:53:47Z</time>
      </trkpt>
      <trkpt lat="44.64407" lon="-1.11822">
        <ele>2.06</ele>
        <time>2020-10-24T14:53:48Z</time>
      </trkpt>
      <trkpt lat="44.64406" lon="-1.11822">
        <ele>2.06</ele>
        <time>2020-10-24T14:53:49Z</time>
      </trkpt>
      <trkpt lat="44.64404" lon="-1.11823">
        <ele>2.06</ele>
        <time>2020-10-24T14:53:50Z</time>
      </trkpt>
      <trkpt lat="44.64394" lon="-1.11827">
        <ele>2.06</ele>
        <time>2020-10-24T14:53:55Z</time>
      </trkpt>
      <trkpt lat="44.64391" lon="-1.11826">
        <ele>2.06</ele>
        <time>2020-10-24T14:53:56Z</time>
      </trkpt>
      <trkpt lat="44.6436" lon="-1.11833">
        <ele>2.06</ele>
        <time>2020-10-24T14:54:08Z</time>
      </trkpt>
      <trkpt lat="44.64352" lon="-1.11835">
        <ele>2.06</ele>
        <time>2020-10-24T14:54:11Z</time>
      </trkpt>
      <trkpt lat="44.6435" lon="-1.11836">
        <ele>2.06</ele>
        <time>2020-10-24T14:54:12Z</time>
      </trkpt>
      <trkpt lat="44.64348" lon="-1.11837">
        <ele>2.06</ele>
        <time>2020-10-24T14:54:13Z</time>
      </trkpt>
      <trkpt lat="44.64345" lon="-1.11839">
        <ele>2.06</ele>
        <time>2020-10-24T14:54:14Z</time>
      </trkpt>
      <trkpt lat="44.64343" lon="-1.1184">
        <ele>2.06</ele>
        <time>2020-10-24T14:54:15Z</time>
      </trkpt>
      <trkpt lat="44.6434" lon="-1.1184">
        <ele>2.06</ele>
        <time>2020-10-24T14:54:16Z</time>
      </trkpt>
      <trkpt lat="44.64337" lon="-1.11841">
        <ele>2.06</ele>
        <time>2020-10-24T14:54:17Z</time>
      </trkpt>
      <trkpt lat="44.64328" lon="-1.11841">
        <ele>2.06</ele>
        <time>2020-10-24T14:54:26Z</time>
      </trkpt>
      <trkpt lat="44.64311" lon="-1.11848">
        <ele>2.06</ele>
        <time>2020-10-24T14:54:38Z</time>
      </trkpt>
      <trkpt lat="44.64284" lon="-1.11856">
        <ele>2.06</ele>
        <time>2020-10-24T14:54:50Z</time>
      </trkpt>
      <trkpt lat="44.64266" lon="-1.11861">
        <ele>2.06</ele>
        <time>2020-10-24T14:54:58Z</time>
      </trkpt>
      <trkpt lat="44.64265" lon="-1.11863">
        <ele>2.06</ele>
        <time>2020-10-24T14:54:59Z</time>
      </trkpt>
      <trkpt lat="44.64247" lon="-1.11871">
        <ele>2.06</ele>
        <time>2020-10-24T14:55:06Z</time>
      </trkpt>
      <trkpt lat="44.64245" lon="-1.11874">
        <ele>2.06</ele>
        <time>2020-10-24T14:55:07Z</time>
      </trkpt>
      <trkpt lat="44.64244" lon="-1.11877">
        <ele>2.06</ele>
        <time>2020-10-24T14:55:08Z</time>
      </trkpt>
      <trkpt lat="44.64242" lon="-1.1188">
        <ele>2.06</ele>
        <time>2020-10-24T14:55:09Z</time>
      </trkpt>
      <trkpt lat="44.64241" lon="-1.11883">
        <ele>2.06</ele>
        <time>2020-10-24T14:55:10Z</time>
      </trkpt>
      <trkpt lat="44.6424" lon="-1.11887">
        <ele>2.06</ele>
        <time>2020-10-24T14:55:11Z</time>
      </trkpt>
      <trkpt lat="44.64232" lon="-1.11909">
        <ele>2.06</ele>
        <time>2020-10-24T14:55:17Z</time>
      </trkpt>
      <trkpt lat="44.64229" lon="-1.11911">
        <ele>2.06</ele>
        <time>2020-10-24T14:55:18Z</time>
      </trkpt>
      <trkpt lat="44.64225" lon="-1.11913">
        <ele>2.06</ele>
        <time>2020-10-24T14:55:20Z</time>
      </trkpt>
      <trkpt lat="44.64223" lon="-1.11916">
        <ele>2.06</ele>
        <time>2020-10-24T14:55:21Z</time>
      </trkpt>
      <trkpt lat="44.64222" lon="-1.11919">
        <ele>2.06</ele>
        <time>2020-10-24T14:55:22Z</time>
      </trkpt>
      <trkpt lat="44.64222" lon="-1.11923">
        <ele>2.06</ele>
        <time>2020-10-24T14:55:23Z</time>
      </trkpt>
      <trkpt lat="44.64223" lon="-1.11927">
        <ele>2.06</ele>
        <time>2020-10-24T14:55:24Z</time>
      </trkpt>
      <trkpt lat="44.64224" lon="-1.1193">
        <ele>2.06</ele>
        <time>2020-10-24T14:55:25Z</time>
      </trkpt>
      <trkpt lat="44.64224" lon="-1.11934">
        <ele>2.06</ele>
        <time>2020-10-24T14:55:26Z</time>
      </trkpt>
      <trkpt lat="44.64224" lon="-1.11938">
        <ele>2.06</ele>
        <time>2020-10-24T14:55:27Z</time>
      </trkpt>
      <trkpt lat="44.64224" lon="-1.11942">
        <ele>2.06</ele>
        <time>2020-10-24T14:55:28Z</time>
      </trkpt>
      <trkpt lat="44.64223" lon="-1.11945">
        <ele>2.06</ele>
        <time>2020-10-24T14:55:29Z</time>
      </trkpt>
      <trkpt lat="44.64221" lon="-1.11949">
        <ele>2.06</ele>
        <time>2020-10-24T14:55:30Z</time>
      </trkpt>
      <trkpt lat="44.6422" lon="-1.11952">
        <ele>2.06</ele>
        <time>2020-10-24T14:55:31Z</time>
      </trkpt>
      <trkpt lat="44.64219" lon="-1.11956">
        <ele>2.06</ele>
        <time>2020-10-24T14:55:32Z</time>
      </trkpt>
      <trkpt lat="44.64204" lon="-1.11999">
        <ele>1.58</ele>
        <time>2020-10-24T14:55:45Z</time>
      </trkpt>
      <trkpt lat="44.64202" lon="-1.12001">
        <ele>1.58</ele>
        <time>2020-10-24T14:55:47Z</time>
      </trkpt>
      <trkpt lat="44.64201" lon="-1.12001">
        <ele>1.58</ele>
        <time>2020-10-24T14:55:48Z</time>
      </trkpt>
      <trkpt lat="44.64199" lon="-1.12002">
        <ele>1.58</ele>
        <time>2020-10-24T14:55:49Z</time>
      </trkpt>
      <trkpt lat="44.64197" lon="-1.12003">
        <ele>1.58</ele>
        <time>2020-10-24T14:55:50Z</time>
      </trkpt>
      <trkpt lat="44.64196" lon="-1.12003">
        <ele>1.58</ele>
        <time>2020-10-24T14:55:51Z</time>
      </trkpt>
      <trkpt lat="44.64194" lon="-1.12004">
        <ele>1.58</ele>
        <time>2020-10-24T14:55:52Z</time>
      </trkpt>
      <trkpt lat="44.64193" lon="-1.12006">
        <ele>1.58</ele>
        <time>2020-10-24T14:55:53Z</time>
      </trkpt>
      <trkpt lat="44.64191" lon="-1.12008">
        <ele>1.58</ele>
        <time>2020-10-24T14:55:54Z</time>
      </trkpt>
      <trkpt lat="44.64189" lon="-1.1201">
        <ele>1.58</ele>
        <time>2020-10-24T14:55:55Z</time>
      </trkpt>
      <trkpt lat="44.64188" lon="-1.12011">
        <ele>1.58</ele>
        <time>2020-10-24T14:55:56Z</time>
      </trkpt>
      <trkpt lat="44.64187" lon="-1.12013">
        <ele>1.58</ele>
        <time>2020-10-24T14:56:13Z</time>
      </trkpt>
      <trkpt lat="44.64184" lon="-1.12012">
        <ele>1.58</ele>
        <time>2020-10-24T14:56:33Z</time>
      </trkpt>
      <trkpt lat="44.64182" lon="-1.12007">
        <ele>1.58</ele>
        <time>2020-10-24T14:56:37Z</time>
      </trkpt>
      <trkpt lat="44.64181" lon="-1.12006">
        <ele>1.58</ele>
        <time>2020-10-24T14:56:38Z</time>
      </trkpt>
      <trkpt lat="44.64179" lon="-1.12004">
        <ele>1.58</ele>
        <time>2020-10-24T14:56:39Z</time>
      </trkpt>
      <trkpt lat="44.64177" lon="-1.12002">
        <ele>1.58</ele>
        <time>2020-10-24T14:56:40Z</time>
      </trkpt>
      <trkpt lat="44.64175" lon="-1.12">
        <ele>1.58</ele>
        <time>2020-10-24T14:56:41Z</time>
      </trkpt>
      <trkpt lat="44.64173" lon="-1.11996">
        <ele>1.58</ele>
        <time>2020-10-24T14:56:42Z</time>
      </trkpt>
      <trkpt lat="44.64171" lon="-1.11993">
        <ele>1.58</ele>
        <time>2020-10-24T14:56:43Z</time>
      </trkpt>
      <trkpt lat="44.64169" lon="-1.11991">
        <ele>1.58</ele>
        <time>2020-10-24T14:56:44Z</time>
      </trkpt>
      <trkpt lat="44.64168" lon="-1.11988">
        <ele>1.58</ele>
        <time>2020-10-24T14:56:45Z</time>
      </trkpt>
      <trkpt lat="44.64128" lon="-1.11974">
        <ele>1.58</ele>
        <time>2020-10-24T14:56:57Z</time>
      </trkpt>
      <trkpt lat="44.64069" lon="-1.11964">
        <ele>1.58</ele>
        <time>2020-10-24T14:57:12Z</time>
      </trkpt>
      <trkpt lat="44.64044" lon="-1.11962">
        <ele>2.06</ele>
        <time>2020-10-24T14:57:19Z</time>
      </trkpt>
      <trkpt lat="44.63995" lon="-1.11965">
        <ele>2.54</ele>
        <time>2020-10-24T14:57:32Z</time>
      </trkpt>
      <trkpt lat="44.63939" lon="-1.11973">
        <ele>2.54</ele>
        <time>2020-10-24T14:57:47Z</time>
      </trkpt>
      <trkpt lat="44.63926" lon="-1.11963">
        <ele>2.54</ele>
        <time>2020-10-24T14:57:58Z</time>
      </trkpt>
      <trkpt lat="44.63922" lon="-1.11957">
        <ele>3.02</ele>
        <time>2020-10-24T14:58:04Z</time>
      </trkpt>
      <trkpt lat="44.63933" lon="-1.11891">
        <ele>3.02</ele>
        <time>2020-10-24T14:58:18Z</time>
      </trkpt>
      <trkpt lat="44.63944" lon="-1.11837">
        <ele>1.58</ele>
        <time>2020-10-24T14:58:30Z</time>
      </trkpt>
      <trkpt lat="44.63961" lon="-1.11761">
        <ele>3.02</ele>
        <time>2020-10-24T14:58:45Z</time>
      </trkpt>
      <trkpt lat="44.63966" lon="-1.11714">
        <ele>3.02</ele>
        <time>2020-10-24T14:58:57Z</time>
      </trkpt>
      <trkpt lat="44.63965" lon="-1.1171">
        <ele>3.5</ele>
        <time>2020-10-24T14:59:00Z</time>
      </trkpt>
      <trkpt lat="44.63962" lon="-1.11713">
        <ele>3.5</ele>
        <time>2020-10-24T14:59:05Z</time>
      </trkpt>
      <trkpt lat="44.63962" lon="-1.11714">
        <ele>3.5</ele>
        <time>2020-10-24T14:59:06Z</time>
      </trkpt>
      <trkpt lat="44.63962" lon="-1.11724">
        <ele>3.5</ele>
        <time>2020-10-24T14:59:10Z</time>
      </trkpt>
      <trkpt lat="44.63958" lon="-1.11753">
        <ele>3.5</ele>
        <time>2020-10-24T14:59:22Z</time>
      </trkpt>
      <trkpt lat="44.63955" lon="-1.11755">
        <ele>3.5</ele>
        <time>2020-10-24T14:59:24Z</time>
      </trkpt>
      <trkpt lat="44.63926" lon="-1.11741">
        <ele>3.5</ele>
        <time>2020-10-24T14:59:34Z</time>
      </trkpt>
      <trkpt lat="44.63894" lon="-1.11731">
        <ele>3.5</ele>
        <time>2020-10-24T14:59:44Z</time>
      </trkpt>
      <trkpt lat="44.63886" lon="-1.11739">
        <ele>3.5</ele>
        <time>2020-10-24T14:59:48Z</time>
      </trkpt>
      <trkpt lat="44.63884" lon="-1.1174">
        <ele>3.5</ele>
        <time>2020-10-24T14:59:49Z</time>
      </trkpt>
      <trkpt lat="44.63881" lon="-1.1174">
        <ele>3.5</ele>
        <time>2020-10-24T14:59:50Z</time>
      </trkpt>
      <trkpt lat="44.63879" lon="-1.11739">
        <ele>3.5</ele>
        <time>2020-10-24T14:59:51Z</time>
      </trkpt>
      <trkpt lat="44.63877" lon="-1.11737">
        <ele>3.5</ele>
        <time>2020-10-24T14:59:52Z</time>
      </trkpt>
      <trkpt lat="44.63874" lon="-1.11735">
        <ele>3.5</ele>
        <time>2020-10-24T14:59:53Z</time>
      </trkpt>
      <trkpt lat="44.63871" lon="-1.11733">
        <ele>3.5</ele>
        <time>2020-10-24T14:59:54Z</time>
      </trkpt>
      <trkpt lat="44.63868" lon="-1.11732">
        <ele>3.5</ele>
        <time>2020-10-24T14:59:55Z</time>
      </trkpt>
      <trkpt lat="44.63866" lon="-1.11731">
        <ele>3.5</ele>
        <time>2020-10-24T14:59:56Z</time>
      </trkpt>
      <trkpt lat="44.63863" lon="-1.1173">
        <ele>3.5</ele>
        <time>2020-10-24T14:59:57Z</time>
      </trkpt>
      <trkpt lat="44.6386" lon="-1.11729">
        <ele>3.5</ele>
        <time>2020-10-24T14:59:58Z</time>
      </trkpt>
      <trkpt lat="44.63858" lon="-1.11728">
        <ele>3.5</ele>
        <time>2020-10-24T14:59:59Z</time>
      </trkpt>
      <trkpt lat="44.63855" lon="-1.11728">
        <ele>3.5</ele>
        <time>2020-10-24T15:00:00Z</time>
      </trkpt>
      <trkpt lat="44.63852" lon="-1.11727">
        <ele>3.5</ele>
        <time>2020-10-24T15:00:01Z</time>
      </trkpt>
      <trkpt lat="44.6385" lon="-1.11726">
        <ele>3.5</ele>
        <time>2020-10-24T15:00:02Z</time>
      </trkpt>
      <trkpt lat="44.63847" lon="-1.11725">
        <ele>3.5</ele>
        <time>2020-10-24T15:00:03Z</time>
      </trkpt>
      <trkpt lat="44.63813" lon="-1.11708">
        <ele>3.98</ele>
        <time>2020-10-24T15:00:16Z</time>
      </trkpt>
      <trkpt lat="44.63771" lon="-1.1169">
        <ele>3.98</ele>
        <time>2020-10-24T15:00:28Z</time>
      </trkpt>
      <trkpt lat="44.63727" lon="-1.11676">
        <ele>3.98</ele>
        <time>2020-10-24T15:00:40Z</time>
      </trkpt>
      <trkpt lat="44.63679" lon="-1.11657">
        <ele>3.98</ele>
        <time>2020-10-24T15:00:52Z</time>
      </trkpt>
      <trkpt lat="44.63625" lon="-1.11633">
        <ele>4.46</ele>
        <time>2020-10-24T15:01:06Z</time>
      </trkpt>
      <trkpt lat="44.63575" lon="-1.11609">
        <ele>4.46</ele>
        <time>2020-10-24T15:01:20Z</time>
      </trkpt>
      <trkpt lat="44.63536" lon="-1.11596">
        <ele>4.46</ele>
        <time>2020-10-24T15:01:30Z</time>
      </trkpt>
      <trkpt lat="44.63487" lon="-1.11576">
        <ele>4.46</ele>
        <time>2020-10-24T15:01:42Z</time>
      </trkpt>
      <trkpt lat="44.6345" lon="-1.11562">
        <ele>4.46</ele>
        <time>2020-10-24T15:01:52Z</time>
      </trkpt>
      <trkpt lat="44.63403" lon="-1.11542">
        <ele>4.46</ele>
        <time>2020-10-24T15:02:04Z</time>
      </trkpt>
      <trkpt lat="44.63346" lon="-1.11516">
        <ele>4.94</ele>
        <time>2020-10-24T15:02:18Z</time>
      </trkpt>
      <trkpt lat="44.63285" lon="-1.11492">
        <ele>4.94</ele>
        <time>2020-10-24T15:02:33Z</time>
      </trkpt>
      <trkpt lat="44.63232" lon="-1.1147">
        <ele>4.94</ele>
        <time>2020-10-24T15:02:45Z</time>
      </trkpt>
      <trkpt lat="44.63224" lon="-1.11464">
        <ele>4.94</ele>
        <time>2020-10-24T15:02:47Z</time>
      </trkpt>
      <trkpt lat="44.63216" lon="-1.1146">
        <ele>4.94</ele>
        <time>2020-10-24T15:02:49Z</time>
      </trkpt>
      <trkpt lat="44.63162" lon="-1.11441">
        <ele>4.94</ele>
        <time>2020-10-24T15:03:01Z</time>
      </trkpt>
      <trkpt lat="44.63137" lon="-1.11429">
        <ele>4.94</ele>
        <time>2020-10-24T15:03:07Z</time>
      </trkpt>
      <trkpt lat="44.63105" lon="-1.11417">
        <ele>4.94</ele>
        <time>2020-10-24T15:03:14Z</time>
      </trkpt>
      <trkpt lat="44.63078" lon="-1.11406">
        <ele>5.42</ele>
        <time>2020-10-24T15:03:20Z</time>
      </trkpt>
      <trkpt lat="44.63031" lon="-1.11383">
        <ele>5.42</ele>
        <time>2020-10-24T15:03:32Z</time>
      </trkpt>
      <trkpt lat="44.62972" lon="-1.11351">
        <ele>4.94</ele>
        <time>2020-10-24T15:03:47Z</time>
      </trkpt>
      <trkpt lat="44.62967" lon="-1.11349">
        <ele>4.94</ele>
        <time>2020-10-24T15:03:48Z</time>
      </trkpt>
      <trkpt lat="44.62963" lon="-1.11347">
        <ele>4.94</ele>
        <time>2020-10-24T15:03:49Z</time>
      </trkpt>
      <trkpt lat="44.62915" lon="-1.11317">
        <ele>5.42</ele>
        <time>2020-10-24T15:04:02Z</time>
      </trkpt>
      <trkpt lat="44.62873" lon="-1.11295">
        <ele>5.42</ele>
        <time>2020-10-24T15:04:14Z</time>
      </trkpt>
      <trkpt lat="44.62826" lon="-1.11276">
        <ele>5.91</ele>
        <time>2020-10-24T15:04:28Z</time>
      </trkpt>
      <trkpt lat="44.62782" lon="-1.11269">
        <ele>6.39</ele>
        <time>2020-10-24T15:04:42Z</time>
      </trkpt>
      <trkpt lat="44.62744" lon="-1.1126">
        <ele>6.87</ele>
        <time>2020-10-24T15:04:54Z</time>
      </trkpt>
      <trkpt lat="44.62699" lon="-1.11242">
        <ele>6.87</ele>
        <time>2020-10-24T15:05:07Z</time>
      </trkpt>
      <trkpt lat="44.62665" lon="-1.11227">
        <ele>6.87</ele>
        <time>2020-10-24T15:05:18Z</time>
      </trkpt>
      <trkpt lat="44.62628" lon="-1.1121">
        <ele>7.35</ele>
        <time>2020-10-24T15:05:30Z</time>
      </trkpt>
      <trkpt lat="44.62603" lon="-1.112">
        <ele>7.35</ele>
        <time>2020-10-24T15:05:39Z</time>
      </trkpt>
      <trkpt lat="44.62572" lon="-1.11185">
        <ele>7.83</ele>
        <time>2020-10-24T15:05:52Z</time>
      </trkpt>
      <trkpt lat="44.62532" lon="-1.11167">
        <ele>7.83</ele>
        <time>2020-10-24T15:06:06Z</time>
      </trkpt>
      <trkpt lat="44.62503" lon="-1.11155">
        <ele>8.31</ele>
        <time>2020-10-24T15:06:15Z</time>
      </trkpt>
      <trkpt lat="44.62461" lon="-1.11138">
        <ele>8.79</ele>
        <time>2020-10-24T15:06:27Z</time>
      </trkpt>
      <trkpt lat="44.62419" lon="-1.11122">
        <ele>8.79</ele>
        <time>2020-10-24T15:06:41Z</time>
      </trkpt>
      <trkpt lat="44.62396" lon="-1.11113">
        <ele>8.79</ele>
        <time>2020-10-24T15:06:48Z</time>
      </trkpt>
      <trkpt lat="44.62362" lon="-1.11099">
        <ele>9.27</ele>
        <time>2020-10-24T15:06:59Z</time>
      </trkpt>
      <trkpt lat="44.6232" lon="-1.11077">
        <ele>9.27</ele>
        <time>2020-10-24T15:07:12Z</time>
      </trkpt>
      <trkpt lat="44.62286" lon="-1.11064">
        <ele>9.27</ele>
        <time>2020-10-24T15:07:22Z</time>
      </trkpt>
      <trkpt lat="44.62245" lon="-1.11056">
        <ele>9.27</ele>
        <time>2020-10-24T15:07:33Z</time>
      </trkpt>
      <trkpt lat="44.62212" lon="-1.11042">
        <ele>8.31</ele>
        <time>2020-10-24T15:07:42Z</time>
      </trkpt>
      <trkpt lat="44.62178" lon="-1.11019">
        <ele>8.31</ele>
        <time>2020-10-24T15:07:52Z</time>
      </trkpt>
      <trkpt lat="44.62142" lon="-1.11005">
        <ele>7.83</ele>
        <time>2020-10-24T15:08:02Z</time>
      </trkpt>
      <trkpt lat="44.6213" lon="-1.11002">
        <ele>9.27</ele>
        <time>2020-10-24T15:08:06Z</time>
      </trkpt>
      <trkpt lat="44.62113" lon="-1.10997">
        <ele>9.27</ele>
        <time>2020-10-24T15:08:11Z</time>
      </trkpt>
      <trkpt lat="44.62077" lon="-1.10977">
        <ele>9.27</ele>
        <time>2020-10-24T15:08:22Z</time>
      </trkpt>
      <trkpt lat="44.62045" lon="-1.10964">
        <ele>9.27</ele>
        <time>2020-10-24T15:08:32Z</time>
      </trkpt>
      <trkpt lat="44.62011" lon="-1.10948">
        <ele>9.27</ele>
        <time>2020-10-24T15:08:43Z</time>
      </trkpt>
      <trkpt lat="44.61964" lon="-1.10935">
        <ele>9.75</ele>
        <time>2020-10-24T15:08:57Z</time>
      </trkpt>
      <trkpt lat="44.61943" lon="-1.10926">
        <ele>9.75</ele>
        <time>2020-10-24T15:09:04Z</time>
      </trkpt>
      <trkpt lat="44.61942" lon="-1.10924">
        <ele>9.75</ele>
        <time>2020-10-24T15:09:05Z</time>
      </trkpt>
      <trkpt lat="44.6194" lon="-1.10922">
        <ele>9.75</ele>
        <time>2020-10-24T15:09:06Z</time>
      </trkpt>
      <trkpt lat="44.61937" lon="-1.1092">
        <ele>9.75</ele>
        <time>2020-10-24T15:09:07Z</time>
      </trkpt>
      <trkpt lat="44.61934" lon="-1.10919">
        <ele>9.75</ele>
        <time>2020-10-24T15:09:08Z</time>
      </trkpt>
      <trkpt lat="44.61898" lon="-1.10902">
        <ele>10.23</ele>
        <time>2020-10-24T15:09:20Z</time>
      </trkpt>
      <trkpt lat="44.61855" lon="-1.10888">
        <ele>10.71</ele>
        <time>2020-10-24T15:09:31Z</time>
      </trkpt>
      <trkpt lat="44.61815" lon="-1.10884">
        <ele>10.71</ele>
        <time>2020-10-24T15:09:42Z</time>
      </trkpt>
      <trkpt lat="44.61774" lon="-1.1088">
        <ele>10.71</ele>
        <time>2020-10-24T15:09:55Z</time>
      </trkpt>
      <trkpt lat="44.61734" lon="-1.10872">
        <ele>10.71</ele>
        <time>2020-10-24T15:10:07Z</time>
      </trkpt>
      <trkpt lat="44.61707" lon="-1.1087">
        <ele>11.19</ele>
        <time>2020-10-24T15:10:19Z</time>
      </trkpt>
      <trkpt lat="44.61705" lon="-1.10868">
        <ele>11.19</ele>
        <time>2020-10-24T15:10:47Z</time>
      </trkpt>
      <trkpt lat="44.61704" lon="-1.10866">
        <ele>11.19</ele>
        <time>2020-10-24T15:11:01Z</time>
      </trkpt>
      <trkpt lat="44.61704" lon="-1.10867">
        <ele>11.19</ele>
        <time>2020-10-24T15:11:30Z</time>
      </trkpt>
      <trkpt lat="44.61705" lon="-1.1087">
        <ele>11.19</ele>
        <time>2020-10-24T15:11:43Z</time>
      </trkpt>
      <trkpt lat="44.61708" lon="-1.10868">
        <ele>11.19</ele>
        <time>2020-10-24T15:12:05Z</time>
      </trkpt>
      <trkpt lat="44.6171" lon="-1.1087">
        <ele>11.19</ele>
        <time>2020-10-24T15:12:23Z</time>
      </trkpt>
      <trkpt lat="44.61705" lon="-1.10872">
        <ele>11.19</ele>
        <time>2020-10-24T15:12:41Z</time>
      </trkpt>
      <trkpt lat="44.61703" lon="-1.10872">
        <ele>11.67</ele>
        <time>2020-10-24T15:12:48Z</time>
      </trkpt>
      <trkpt lat="44.617" lon="-1.10872">
        <ele>11.67</ele>
        <time>2020-10-24T15:12:50Z</time>
      </trkpt>
      <trkpt lat="44.61694" lon="-1.10873">
        <ele>11.67</ele>
        <time>2020-10-24T15:12:54Z</time>
      </trkpt>
      <trkpt lat="44.61692" lon="-1.10873">
        <ele>11.67</ele>
        <time>2020-10-24T15:12:55Z</time>
      </trkpt>
      <trkpt lat="44.61691" lon="-1.10873">
        <ele>11.67</ele>
        <time>2020-10-24T15:12:56Z</time>
      </trkpt>
      <trkpt lat="44.61688" lon="-1.10873">
        <ele>11.67</ele>
        <time>2020-10-24T15:12:57Z</time>
      </trkpt>
      <trkpt lat="44.61686" lon="-1.10871">
        <ele>11.67</ele>
        <time>2020-10-24T15:12:58Z</time>
      </trkpt>
      <trkpt lat="44.61684" lon="-1.10865">
        <ele>11.67</ele>
        <time>2020-10-24T15:13:00Z</time>
      </trkpt>
      <trkpt lat="44.61679" lon="-1.10821">
        <ele>10.71</ele>
        <time>2020-10-24T15:13:08Z</time>
      </trkpt>
      <trkpt lat="44.61678" lon="-1.10815">
        <ele>10.71</ele>
        <time>2020-10-24T15:13:09Z</time>
      </trkpt>
      <trkpt lat="44.61679" lon="-1.10809">
        <ele>10.71</ele>
        <time>2020-10-24T15:13:10Z</time>
      </trkpt>
      <trkpt lat="44.61676" lon="-1.10727">
        <ele>10.23</ele>
        <time>2020-10-24T15:13:25Z</time>
      </trkpt>
      <trkpt lat="44.61678" lon="-1.10724">
        <ele>10.23</ele>
        <time>2020-10-24T15:13:26Z</time>
      </trkpt>
      <trkpt lat="44.61681" lon="-1.10723">
        <ele>10.23</ele>
        <time>2020-10-24T15:13:27Z</time>
      </trkpt>
      <trkpt lat="44.61684" lon="-1.10721">
        <ele>10.23</ele>
        <time>2020-10-24T15:13:28Z</time>
      </trkpt>
      <trkpt lat="44.61688" lon="-1.1072">
        <ele>10.23</ele>
        <time>2020-10-24T15:13:29Z</time>
      </trkpt>
      <trkpt lat="44.61692" lon="-1.10718">
        <ele>10.23</ele>
        <time>2020-10-24T15:13:30Z</time>
      </trkpt>
      <trkpt lat="44.61764" lon="-1.10697">
        <ele>10.23</ele>
        <time>2020-10-24T15:13:45Z</time>
      </trkpt>
      <trkpt lat="44.61835" lon="-1.10679">
        <ele>9.75</ele>
        <time>2020-10-24T15:13:58Z</time>
      </trkpt>
      <trkpt lat="44.61851" lon="-1.10673">
        <ele>9.75</ele>
        <time>2020-10-24T15:14:01Z</time>
      </trkpt>
      <trkpt lat="44.61905" lon="-1.10664">
        <ele>9.75</ele>
        <time>2020-10-24T15:14:11Z</time>
      </trkpt>
      <trkpt lat="44.6192" lon="-1.10657">
        <ele>9.75</ele>
        <time>2020-10-24T15:14:20Z</time>
      </trkpt>
      <trkpt lat="44.61921" lon="-1.10657">
        <ele>9.27</ele>
        <time>2020-10-24T15:14:45Z</time>
      </trkpt>
      <trkpt lat="44.61921" lon="-1.10656">
        <ele>9.27</ele>
        <time>2020-10-24T15:15:06Z</time>
      </trkpt>
      <trkpt lat="44.6192" lon="-1.10657">
        <ele>9.27</ele>
        <time>2020-10-24T15:15:29Z</time>
      </trkpt>
      <trkpt lat="44.61919" lon="-1.10655">
        <ele>10.23</ele>
        <time>2020-10-24T15:15:56Z</time>
      </trkpt>
      <trkpt lat="44.6192" lon="-1.10655">
        <ele>10.23</ele>
        <time>2020-10-24T15:16:19Z</time>
      </trkpt>
      <trkpt lat="44.6192" lon="-1.10657">
        <ele>10.23</ele>
        <time>2020-10-24T15:16:50Z</time>
      </trkpt>
      <trkpt lat="44.61919" lon="-1.10657">
        <ele>10.71</ele>
        <time>2020-10-24T15:17:13Z</time>
      </trkpt>
      <trkpt lat="44.6192" lon="-1.10656">
        <ele>10.23</ele>
        <time>2020-10-24T15:17:34Z</time>
      </trkpt>
      <trkpt lat="44.6192" lon="-1.10657">
        <ele>10.23</ele>
        <time>2020-10-24T15:17:53Z</time>
      </trkpt>
      <trkpt lat="44.6192" lon="-1.10656">
        <ele>10.23</ele>
        <time>2020-10-24T15:18:22Z</time>
      </trkpt>
      <trkpt lat="44.61921" lon="-1.10657">
        <ele>10.23</ele>
        <time>2020-10-24T15:18:51Z</time>
      </trkpt>
      <trkpt lat="44.61923" lon="-1.10657">
        <ele>10.23</ele>
        <time>2020-10-24T15:19:11Z</time>
      </trkpt>
      <trkpt lat="44.61924" lon="-1.10657">
        <ele>10.23</ele>
        <time>2020-10-24T15:19:12Z</time>
      </trkpt>
      <trkpt lat="44.61926" lon="-1.10656">
        <ele>10.23</ele>
        <time>2020-10-24T15:19:13Z</time>
      </trkpt>
      <trkpt lat="44.61928" lon="-1.10655">
        <ele>10.23</ele>
        <time>2020-10-24T15:19:14Z</time>
      </trkpt>
      <trkpt lat="44.6193" lon="-1.10654">
        <ele>10.23</ele>
        <time>2020-10-24T15:19:15Z</time>
      </trkpt>
      <trkpt lat="44.61961" lon="-1.10645">
        <ele>10.23</ele>
        <time>2020-10-24T15:19:26Z</time>
      </trkpt>
      <trkpt lat="44.62" lon="-1.10632">
        <ele>10.23</ele>
        <time>2020-10-24T15:19:38Z</time>
      </trkpt>
      <trkpt lat="44.62061" lon="-1.10615">
        <ele>10.23</ele>
        <time>2020-10-24T15:19:53Z</time>
      </trkpt>
      <trkpt lat="44.62064" lon="-1.10612">
        <ele>10.23</ele>
        <time>2020-10-24T15:19:54Z</time>
      </trkpt>
      <trkpt lat="44.62065" lon="-1.10609">
        <ele>10.23</ele>
        <time>2020-10-24T15:19:55Z</time>
      </trkpt>
      <trkpt lat="44.62064" lon="-1.10605">
        <ele>10.23</ele>
        <time>2020-10-24T15:19:56Z</time>
      </trkpt>
      <trkpt lat="44.62062" lon="-1.106">
        <ele>8.79</ele>
        <time>2020-10-24T15:19:57Z</time>
      </trkpt>
      <trkpt lat="44.62059" lon="-1.10598">
        <ele>8.79</ele>
        <time>2020-10-24T15:19:58Z</time>
      </trkpt>
      <trkpt lat="44.62056" lon="-1.10595">
        <ele>8.79</ele>
        <time>2020-10-24T15:19:59Z</time>
      </trkpt>
      <trkpt lat="44.62053" lon="-1.10592">
        <ele>8.79</ele>
        <time>2020-10-24T15:20:00Z</time>
      </trkpt>
      <trkpt lat="44.62013" lon="-1.10561">
        <ele>8.79</ele>
        <time>2020-10-24T15:20:13Z</time>
      </trkpt>
      <trkpt lat="44.62019" lon="-1.10543">
        <ele>8.79</ele>
        <time>2020-10-24T15:20:19Z</time>
      </trkpt>
      <trkpt lat="44.62027" lon="-1.10535">
        <ele>8.79</ele>
        <time>2020-10-24T15:20:23Z</time>
      </trkpt>
      <trkpt lat="44.6203" lon="-1.10537">
        <ele>8.79</ele>
        <time>2020-10-24T15:20:24Z</time>
      </trkpt>
      <trkpt lat="44.62033" lon="-1.10539">
        <ele>8.79</ele>
        <time>2020-10-24T15:20:25Z</time>
      </trkpt>
      <trkpt lat="44.6204" lon="-1.10545">
        <ele>8.79</ele>
        <time>2020-10-24T15:20:27Z</time>
      </trkpt>
      <trkpt lat="44.62043" lon="-1.10548">
        <ele>8.79</ele>
        <time>2020-10-24T15:20:28Z</time>
      </trkpt>
      <trkpt lat="44.62099" lon="-1.10594">
        <ele>8.79</ele>
        <time>2020-10-24T15:20:41Z</time>
      </trkpt>
      <trkpt lat="44.62172" lon="-1.1066">
        <ele>8.79</ele>
        <time>2020-10-24T15:20:57Z</time>
      </trkpt>
      <trkpt lat="44.62244" lon="-1.10718">
        <ele>8.31</ele>
        <time>2020-10-24T15:21:12Z</time>
      </trkpt>
      <trkpt lat="44.62305" lon="-1.10773">
        <ele>8.31</ele>
        <time>2020-10-24T15:21:27Z</time>
      </trkpt>
      <trkpt lat="44.62316" lon="-1.10782">
        <ele>8.31</ele>
        <time>2020-10-24T15:21:30Z</time>
      </trkpt>
      <trkpt lat="44.62338" lon="-1.10795">
        <ele>8.31</ele>
        <time>2020-10-24T15:21:37Z</time>
      </trkpt>
      <trkpt lat="44.62341" lon="-1.10794">
        <ele>8.31</ele>
        <time>2020-10-24T15:21:38Z</time>
      </trkpt>
      <trkpt lat="44.62344" lon="-1.1079">
        <ele>8.31</ele>
        <time>2020-10-24T15:21:39Z</time>
      </trkpt>
      <trkpt lat="44.62345" lon="-1.10787">
        <ele>8.31</ele>
        <time>2020-10-24T15:21:40Z</time>
      </trkpt>
      <trkpt lat="44.62346" lon="-1.10782">
        <ele>8.31</ele>
        <time>2020-10-24T15:21:41Z</time>
      </trkpt>
      <trkpt lat="44.62382" lon="-1.1071">
        <ele>8.31</ele>
        <time>2020-10-24T15:21:55Z</time>
      </trkpt>
      <trkpt lat="44.6239" lon="-1.107">
        <ele>8.31</ele>
        <time>2020-10-24T15:21:57Z</time>
      </trkpt>
      <trkpt lat="44.62394" lon="-1.10696">
        <ele>8.31</ele>
        <time>2020-10-24T15:21:58Z</time>
      </trkpt>
      <trkpt lat="44.62397" lon="-1.10692">
        <ele>8.31</ele>
        <time>2020-10-24T15:21:59Z</time>
      </trkpt>
      <trkpt lat="44.62411" lon="-1.10679">
        <ele>8.31</ele>
        <time>2020-10-24T15:22:03Z</time>
      </trkpt>
      <trkpt lat="44.6242" lon="-1.10675">
        <ele>8.31</ele>
        <time>2020-10-24T15:22:05Z</time>
      </trkpt>
      <trkpt lat="44.62425" lon="-1.10674">
        <ele>8.31</ele>
        <time>2020-10-24T15:22:06Z</time>
      </trkpt>
      <trkpt lat="44.6243" lon="-1.10673">
        <ele>8.31</ele>
        <time>2020-10-24T15:22:07Z</time>
      </trkpt>
      <trkpt lat="44.62435" lon="-1.10673">
        <ele>8.31</ele>
        <time>2020-10-24T15:22:08Z</time>
      </trkpt>
      <trkpt lat="44.62439" lon="-1.10673">
        <ele>8.31</ele>
        <time>2020-10-24T15:22:09Z</time>
      </trkpt>
      <trkpt lat="44.62444" lon="-1.10672">
        <ele>8.31</ele>
        <time>2020-10-24T15:22:10Z</time>
      </trkpt>
      <trkpt lat="44.62448" lon="-1.10672">
        <ele>8.31</ele>
        <time>2020-10-24T15:22:11Z</time>
      </trkpt>
      <trkpt lat="44.62477" lon="-1.10676">
        <ele>7.83</ele>
        <time>2020-10-24T15:22:19Z</time>
      </trkpt>
      <trkpt lat="44.62479" lon="-1.10673">
        <ele>7.83</ele>
        <time>2020-10-24T15:22:20Z</time>
      </trkpt>
      <trkpt lat="44.62479" lon="-1.1067">
        <ele>7.83</ele>
        <time>2020-10-24T15:22:21Z</time>
      </trkpt>
      <trkpt lat="44.62479" lon="-1.10666">
        <ele>7.35</ele>
        <time>2020-10-24T15:22:22Z</time>
      </trkpt>
      <trkpt lat="44.62479" lon="-1.10661">
        <ele>7.35</ele>
        <time>2020-10-24T15:22:23Z</time>
      </trkpt>
      <trkpt lat="44.62479" lon="-1.10656">
        <ele>7.35</ele>
        <time>2020-10-24T15:22:24Z</time>
      </trkpt>
      <trkpt lat="44.62478" lon="-1.1065">
        <ele>7.35</ele>
        <time>2020-10-24T15:22:25Z</time>
      </trkpt>
      <trkpt lat="44.62476" lon="-1.10645">
        <ele>7.35</ele>
        <time>2020-10-24T15:22:26Z</time>
      </trkpt>
      <trkpt lat="44.62457" lon="-1.10594">
        <ele>7.35</ele>
        <time>2020-10-24T15:22:34Z</time>
      </trkpt>
      <trkpt lat="44.62449" lon="-1.10574">
        <ele>7.35</ele>
        <time>2020-10-24T15:22:37Z</time>
      </trkpt>
      <trkpt lat="44.62437" lon="-1.10541">
        <ele>7.35</ele>
        <time>2020-10-24T15:22:42Z</time>
      </trkpt>
      <trkpt lat="44.6243" lon="-1.1053">
        <ele>6.87</ele>
        <time>2020-10-24T15:22:44Z</time>
      </trkpt>
      <trkpt lat="44.62424" lon="-1.10518">
        <ele>6.87</ele>
        <time>2020-10-24T15:22:46Z</time>
      </trkpt>
      <trkpt lat="44.62423" lon="-1.10513">
        <ele>6.87</ele>
        <time>2020-10-24T15:22:47Z</time>
      </trkpt>
      <trkpt lat="44.62401" lon="-1.10464">
        <ele>6.87</ele>
        <time>2020-10-24T15:22:57Z</time>
      </trkpt>
      <trkpt lat="44.62398" lon="-1.10459">
        <ele>6.87</ele>
        <time>2020-10-24T15:22:58Z</time>
      </trkpt>
      <trkpt lat="44.62394" lon="-1.10456">
        <ele>6.87</ele>
        <time>2020-10-24T15:22:59Z</time>
      </trkpt>
      <trkpt lat="44.62391" lon="-1.10455">
        <ele>6.87</ele>
        <time>2020-10-24T15:23:00Z</time>
      </trkpt>
      <trkpt lat="44.62387" lon="-1.10454">
        <ele>6.87</ele>
        <time>2020-10-24T15:23:01Z</time>
      </trkpt>
      <trkpt lat="44.62383" lon="-1.10455">
        <ele>7.35</ele>
        <time>2020-10-24T15:23:02Z</time>
      </trkpt>
      <trkpt lat="44.62379" lon="-1.10456">
        <ele>7.35</ele>
        <time>2020-10-24T15:23:03Z</time>
      </trkpt>
      <trkpt lat="44.62375" lon="-1.10455">
        <ele>7.35</ele>
        <time>2020-10-24T15:23:04Z</time>
      </trkpt>
      <trkpt lat="44.62371" lon="-1.10454">
        <ele>7.35</ele>
        <time>2020-10-24T15:23:05Z</time>
      </trkpt>
      <trkpt lat="44.62366" lon="-1.10453">
        <ele>8.31</ele>
        <time>2020-10-24T15:23:06Z</time>
      </trkpt>
      <trkpt lat="44.62363" lon="-1.10451">
        <ele>8.31</ele>
        <time>2020-10-24T15:23:07Z</time>
      </trkpt>
      <trkpt lat="44.62358" lon="-1.10448">
        <ele>8.31</ele>
        <time>2020-10-24T15:23:08Z</time>
      </trkpt>
      <trkpt lat="44.6235" lon="-1.10444">
        <ele>8.31</ele>
        <time>2020-10-24T15:23:10Z</time>
      </trkpt>
      <trkpt lat="44.62346" lon="-1.10441">
        <ele>8.31</ele>
        <time>2020-10-24T15:23:11Z</time>
      </trkpt>
      <trkpt lat="44.62342" lon="-1.10437">
        <ele>8.31</ele>
        <time>2020-10-24T15:23:12Z</time>
      </trkpt>
      <trkpt lat="44.62303" lon="-1.10388">
        <ele>8.79</ele>
        <time>2020-10-24T15:23:25Z</time>
      </trkpt>
      <trkpt lat="44.623" lon="-1.10383">
        <ele>8.79</ele>
        <time>2020-10-24T15:23:26Z</time>
      </trkpt>
      <trkpt lat="44.62297" lon="-1.10378">
        <ele>8.79</ele>
        <time>2020-10-24T15:23:27Z</time>
      </trkpt>
      <trkpt lat="44.62295" lon="-1.10372">
        <ele>8.79</ele>
        <time>2020-10-24T15:23:28Z</time>
      </trkpt>
      <trkpt lat="44.62289" lon="-1.10348">
        <ele>8.79</ele>
        <time>2020-10-24T15:23:32Z</time>
      </trkpt>
      <trkpt lat="44.62288" lon="-1.10342">
        <ele>8.79</ele>
        <time>2020-10-24T15:23:33Z</time>
      </trkpt>
      <trkpt lat="44.62287" lon="-1.10336">
        <ele>8.79</ele>
        <time>2020-10-24T15:23:34Z</time>
      </trkpt>
      <trkpt lat="44.62279" lon="-1.10308">
        <ele>7.35</ele>
        <time>2020-10-24T15:23:39Z</time>
      </trkpt>
      <trkpt lat="44.62276" lon="-1.10302">
        <ele>7.35</ele>
        <time>2020-10-24T15:23:40Z</time>
      </trkpt>
      <trkpt lat="44.62274" lon="-1.10296">
        <ele>7.35</ele>
        <time>2020-10-24T15:23:41Z</time>
      </trkpt>
      <trkpt lat="44.62271" lon="-1.1029">
        <ele>7.35</ele>
        <time>2020-10-24T15:23:42Z</time>
      </trkpt>
      <trkpt lat="44.62269" lon="-1.10283">
        <ele>7.35</ele>
        <time>2020-10-24T15:23:43Z</time>
      </trkpt>
      <trkpt lat="44.62268" lon="-1.10276">
        <ele>7.35</ele>
        <time>2020-10-24T15:23:44Z</time>
      </trkpt>
      <trkpt lat="44.62266" lon="-1.10269">
        <ele>7.35</ele>
        <time>2020-10-24T15:23:45Z</time>
      </trkpt>
      <trkpt lat="44.62264" lon="-1.10262">
        <ele>7.35</ele>
        <time>2020-10-24T15:23:46Z</time>
      </trkpt>
      <trkpt lat="44.62263" lon="-1.10256">
        <ele>7.35</ele>
        <time>2020-10-24T15:23:47Z</time>
      </trkpt>
      <trkpt lat="44.62262" lon="-1.1025">
        <ele>7.35</ele>
        <time>2020-10-24T15:23:48Z</time>
      </trkpt>
      <trkpt lat="44.62262" lon="-1.10243">
        <ele>7.35</ele>
        <time>2020-10-24T15:23:49Z</time>
      </trkpt>
      <trkpt lat="44.62262" lon="-1.10237">
        <ele>7.35</ele>
        <time>2020-10-24T15:23:50Z</time>
      </trkpt>
      <trkpt lat="44.62261" lon="-1.1023">
        <ele>7.35</ele>
        <time>2020-10-24T15:23:51Z</time>
      </trkpt>
      <trkpt lat="44.62259" lon="-1.10223">
        <ele>7.35</ele>
        <time>2020-10-24T15:23:52Z</time>
      </trkpt>
      <trkpt lat="44.62257" lon="-1.10216">
        <ele>7.35</ele>
        <time>2020-10-24T15:23:53Z</time>
      </trkpt>
      <trkpt lat="44.62254" lon="-1.1021">
        <ele>7.35</ele>
        <time>2020-10-24T15:23:54Z</time>
      </trkpt>
      <trkpt lat="44.62252" lon="-1.10205">
        <ele>7.35</ele>
        <time>2020-10-24T15:23:55Z</time>
      </trkpt>
      <trkpt lat="44.62249" lon="-1.10199">
        <ele>7.35</ele>
        <time>2020-10-24T15:23:56Z</time>
      </trkpt>
      <trkpt lat="44.62247" lon="-1.10193">
        <ele>7.35</ele>
        <time>2020-10-24T15:23:57Z</time>
      </trkpt>
      <trkpt lat="44.62245" lon="-1.10188">
        <ele>7.35</ele>
        <time>2020-10-24T15:23:58Z</time>
      </trkpt>
      <trkpt lat="44.62235" lon="-1.10155">
        <ele>7.35</ele>
        <time>2020-10-24T15:24:03Z</time>
      </trkpt>
      <trkpt lat="44.62233" lon="-1.10148">
        <ele>7.35</ele>
        <time>2020-10-24T15:24:04Z</time>
      </trkpt>
      <trkpt lat="44.62227" lon="-1.10102">
        <ele>7.35</ele>
        <time>2020-10-24T15:24:11Z</time>
      </trkpt>
      <trkpt lat="44.62224" lon="-1.10088">
        <ele>7.35</ele>
        <time>2020-10-24T15:24:13Z</time>
      </trkpt>
      <trkpt lat="44.6222" lon="-1.10074">
        <ele>7.35</ele>
        <time>2020-10-24T15:24:15Z</time>
      </trkpt>
      <trkpt lat="44.62212" lon="-1.10054">
        <ele>7.35</ele>
        <time>2020-10-24T15:24:18Z</time>
      </trkpt>
      <trkpt lat="44.62209" lon="-1.1005">
        <ele>7.35</ele>
        <time>2020-10-24T15:24:19Z</time>
      </trkpt>
      <trkpt lat="44.62206" lon="-1.10046">
        <ele>7.35</ele>
        <time>2020-10-24T15:24:20Z</time>
      </trkpt>
      <trkpt lat="44.62203" lon="-1.10042">
        <ele>7.35</ele>
        <time>2020-10-24T15:24:21Z</time>
      </trkpt>
      <trkpt lat="44.622" lon="-1.10036">
        <ele>7.35</ele>
        <time>2020-10-24T15:24:22Z</time>
      </trkpt>
      <trkpt lat="44.62199" lon="-1.1003">
        <ele>7.35</ele>
        <time>2020-10-24T15:24:23Z</time>
      </trkpt>
      <trkpt lat="44.62198" lon="-1.10023">
        <ele>7.35</ele>
        <time>2020-10-24T15:24:24Z</time>
      </trkpt>
      <trkpt lat="44.62196" lon="-1.10016">
        <ele>7.35</ele>
        <time>2020-10-24T15:24:25Z</time>
      </trkpt>
      <trkpt lat="44.62195" lon="-1.10009">
        <ele>7.35</ele>
        <time>2020-10-24T15:24:26Z</time>
      </trkpt>
      <trkpt lat="44.62194" lon="-1.10002">
        <ele>7.35</ele>
        <time>2020-10-24T15:24:27Z</time>
      </trkpt>
      <trkpt lat="44.62192" lon="-1.09982">
        <ele>7.35</ele>
        <time>2020-10-24T15:24:30Z</time>
      </trkpt>
      <trkpt lat="44.62188" lon="-1.09957">
        <ele>7.35</ele>
        <time>2020-10-24T15:24:34Z</time>
      </trkpt>
      <trkpt lat="44.62186" lon="-1.0995">
        <ele>7.35</ele>
        <time>2020-10-24T15:24:35Z</time>
      </trkpt>
      <trkpt lat="44.62174" lon="-1.09906">
        <ele>7.35</ele>
        <time>2020-10-24T15:24:41Z</time>
      </trkpt>
      <trkpt lat="44.62168" lon="-1.09876">
        <ele>7.35</ele>
        <time>2020-10-24T15:24:45Z</time>
      </trkpt>
      <trkpt lat="44.62162" lon="-1.09854">
        <ele>7.35</ele>
        <time>2020-10-24T15:24:48Z</time>
      </trkpt>
      <trkpt lat="44.62159" lon="-1.09847">
        <ele>7.35</ele>
        <time>2020-10-24T15:24:49Z</time>
      </trkpt>
      <trkpt lat="44.62141" lon="-1.09792">
        <ele>7.35</ele>
        <time>2020-10-24T15:24:57Z</time>
      </trkpt>
      <trkpt lat="44.62138" lon="-1.09786">
        <ele>7.35</ele>
        <time>2020-10-24T15:24:58Z</time>
      </trkpt>
      <trkpt lat="44.62136" lon="-1.09779">
        <ele>7.35</ele>
        <time>2020-10-24T15:24:59Z</time>
      </trkpt>
      <trkpt lat="44.62119" lon="-1.09713">
        <ele>7.35</ele>
        <time>2020-10-24T15:25:08Z</time>
      </trkpt>
      <trkpt lat="44.62106" lon="-1.09647">
        <ele>7.35</ele>
        <time>2020-10-24T15:25:17Z</time>
      </trkpt>
      <trkpt lat="44.62105" lon="-1.0964">
        <ele>7.35</ele>
        <time>2020-10-24T15:25:18Z</time>
      </trkpt>
      <trkpt lat="44.621" lon="-1.09618">
        <ele>7.35</ele>
        <time>2020-10-24T15:25:21Z</time>
      </trkpt>
      <trkpt lat="44.62098" lon="-1.0961">
        <ele>7.35</ele>
        <time>2020-10-24T15:25:22Z</time>
      </trkpt>
      <trkpt lat="44.62097" lon="-1.09603">
        <ele>7.35</ele>
        <time>2020-10-24T15:25:23Z</time>
      </trkpt>
      <trkpt lat="44.62095" lon="-1.09588">
        <ele>7.35</ele>
        <time>2020-10-24T15:25:25Z</time>
      </trkpt>
      <trkpt lat="44.62093" lon="-1.09568">
        <ele>7.35</ele>
        <time>2020-10-24T15:25:28Z</time>
      </trkpt>
      <trkpt lat="44.62089" lon="-1.09539">
        <ele>7.35</ele>
        <time>2020-10-24T15:25:32Z</time>
      </trkpt>
      <trkpt lat="44.62088" lon="-1.09533">
        <ele>7.35</ele>
        <time>2020-10-24T15:25:33Z</time>
      </trkpt>
      <trkpt lat="44.62087" lon="-1.09527">
        <ele>7.35</ele>
        <time>2020-10-24T15:25:34Z</time>
      </trkpt>
      <trkpt lat="44.62078" lon="-1.09479">
        <ele>7.35</ele>
        <time>2020-10-24T15:25:40Z</time>
      </trkpt>
      <trkpt lat="44.62077" lon="-1.09473">
        <ele>7.35</ele>
        <time>2020-10-24T15:25:41Z</time>
      </trkpt>
      <trkpt lat="44.62072" lon="-1.09449">
        <ele>7.35</ele>
        <time>2020-10-24T15:25:44Z</time>
      </trkpt>
      <trkpt lat="44.6207" lon="-1.09441">
        <ele>7.35</ele>
        <time>2020-10-24T15:25:45Z</time>
      </trkpt>
      <trkpt lat="44.62068" lon="-1.09425">
        <ele>7.35</ele>
        <time>2020-10-24T15:25:47Z</time>
      </trkpt>
      <trkpt lat="44.62066" lon="-1.09417">
        <ele>7.35</ele>
        <time>2020-10-24T15:25:48Z</time>
      </trkpt>
      <trkpt lat="44.62065" lon="-1.0941">
        <ele>7.35</ele>
        <time>2020-10-24T15:25:49Z</time>
      </trkpt>
      <trkpt lat="44.62049" lon="-1.09322">
        <ele>7.35</ele>
        <time>2020-10-24T15:26:00Z</time>
      </trkpt>
      <trkpt lat="44.62042" lon="-1.09266">
        <ele>7.35</ele>
        <time>2020-10-24T15:26:07Z</time>
      </trkpt>
      <trkpt lat="44.62032" lon="-1.09205">
        <ele>7.35</ele>
        <time>2020-10-24T15:26:15Z</time>
      </trkpt>
      <trkpt lat="44.6203" lon="-1.09197">
        <ele>7.35</ele>
        <time>2020-10-24T15:26:16Z</time>
      </trkpt>
      <trkpt lat="44.62027" lon="-1.09189">
        <ele>7.35</ele>
        <time>2020-10-24T15:26:17Z</time>
      </trkpt>
      <trkpt lat="44.62022" lon="-1.09173">
        <ele>7.35</ele>
        <time>2020-10-24T15:26:19Z</time>
      </trkpt>
      <trkpt lat="44.6202" lon="-1.09165">
        <ele>7.35</ele>
        <time>2020-10-24T15:26:20Z</time>
      </trkpt>
      <trkpt lat="44.62018" lon="-1.09132">
        <ele>7.35</ele>
        <time>2020-10-24T15:26:24Z</time>
      </trkpt>
      <trkpt lat="44.62015" lon="-1.09107">
        <ele>7.35</ele>
        <time>2020-10-24T15:26:27Z</time>
      </trkpt>
      <trkpt lat="44.62014" lon="-1.09099">
        <ele>7.35</ele>
        <time>2020-10-24T15:26:28Z</time>
      </trkpt>
      <trkpt lat="44.62012" lon="-1.09091">
        <ele>7.35</ele>
        <time>2020-10-24T15:26:29Z</time>
      </trkpt>
      <trkpt lat="44.62011" lon="-1.09084">
        <ele>7.35</ele>
        <time>2020-10-24T15:26:30Z</time>
      </trkpt>
      <trkpt lat="44.6201" lon="-1.09076">
        <ele>7.35</ele>
        <time>2020-10-24T15:26:31Z</time>
      </trkpt>
      <trkpt lat="44.62008" lon="-1.09045">
        <ele>7.35</ele>
        <time>2020-10-24T15:26:35Z</time>
      </trkpt>
      <trkpt lat="44.62007" lon="-1.09037">
        <ele>7.35</ele>
        <time>2020-10-24T15:26:36Z</time>
      </trkpt>
      <trkpt lat="44.61993" lon="-1.08925">
        <ele>7.35</ele>
        <time>2020-10-24T15:26:50Z</time>
      </trkpt>
      <trkpt lat="44.61985" lon="-1.08873">
        <ele>7.35</ele>
        <time>2020-10-24T15:26:57Z</time>
      </trkpt>
      <trkpt lat="44.6198" lon="-1.08841">
        <ele>7.35</ele>
        <time>2020-10-24T15:27:01Z</time>
      </trkpt>
      <trkpt lat="44.61979" lon="-1.08834">
        <ele>7.35</ele>
        <time>2020-10-24T15:27:02Z</time>
      </trkpt>
      <trkpt lat="44.61973" lon="-1.08797">
        <ele>7.35</ele>
        <time>2020-10-24T15:27:07Z</time>
      </trkpt>
      <trkpt lat="44.61973" lon="-1.0879">
        <ele>7.35</ele>
        <time>2020-10-24T15:27:08Z</time>
      </trkpt>
      <trkpt lat="44.61973" lon="-1.08781">
        <ele>7.35</ele>
        <time>2020-10-24T15:27:09Z</time>
      </trkpt>
      <trkpt lat="44.61973" lon="-1.08753">
        <ele>7.35</ele>
        <time>2020-10-24T15:27:13Z</time>
      </trkpt>
      <trkpt lat="44.61965" lon="-1.08685">
        <ele>7.35</ele>
        <time>2020-10-24T15:27:22Z</time>
      </trkpt>
      <trkpt lat="44.61963" lon="-1.08669">
        <ele>7.35</ele>
        <time>2020-10-24T15:27:24Z</time>
      </trkpt>
      <trkpt lat="44.6196" lon="-1.08655">
        <ele>7.35</ele>
        <time>2020-10-24T15:27:26Z</time>
      </trkpt>
      <trkpt lat="44.61958" lon="-1.08647">
        <ele>7.35</ele>
        <time>2020-10-24T15:27:27Z</time>
      </trkpt>
      <trkpt lat="44.61956" lon="-1.08631">
        <ele>7.35</ele>
        <time>2020-10-24T15:27:29Z</time>
      </trkpt>
      <trkpt lat="44.61954" lon="-1.08614">
        <ele>7.35</ele>
        <time>2020-10-24T15:27:31Z</time>
      </trkpt>
      <trkpt lat="44.61955" lon="-1.08605">
        <ele>7.35</ele>
        <time>2020-10-24T15:27:32Z</time>
      </trkpt>
      <trkpt lat="44.61956" lon="-1.08596">
        <ele>7.35</ele>
        <time>2020-10-24T15:27:33Z</time>
      </trkpt>
      <trkpt lat="44.61957" lon="-1.08587">
        <ele>7.35</ele>
        <time>2020-10-24T15:27:34Z</time>
      </trkpt>
      <trkpt lat="44.61957" lon="-1.08579">
        <ele>7.35</ele>
        <time>2020-10-24T15:27:35Z</time>
      </trkpt>
      <trkpt lat="44.61957" lon="-1.0857">
        <ele>7.35</ele>
        <time>2020-10-24T15:27:36Z</time>
      </trkpt>
      <trkpt lat="44.61955" lon="-1.08564">
        <ele>7.35</ele>
        <time>2020-10-24T15:27:37Z</time>
      </trkpt>
      <trkpt lat="44.61954" lon="-1.08557">
        <ele>7.35</ele>
        <time>2020-10-24T15:27:38Z</time>
      </trkpt>
      <trkpt lat="44.61953" lon="-1.08549">
        <ele>7.35</ele>
        <time>2020-10-24T15:27:39Z</time>
      </trkpt>
      <trkpt lat="44.61953" lon="-1.0854">
        <ele>7.35</ele>
        <time>2020-10-24T15:27:40Z</time>
      </trkpt>
      <trkpt lat="44.61954" lon="-1.08532">
        <ele>7.35</ele>
        <time>2020-10-24T15:27:41Z</time>
      </trkpt>
      <trkpt lat="44.61956" lon="-1.08514">
        <ele>7.35</ele>
        <time>2020-10-24T15:27:43Z</time>
      </trkpt>
      <trkpt lat="44.61956" lon="-1.08505">
        <ele>7.35</ele>
        <time>2020-10-24T15:27:44Z</time>
      </trkpt>
      <trkpt lat="44.61956" lon="-1.08497">
        <ele>7.35</ele>
        <time>2020-10-24T15:27:45Z</time>
      </trkpt>
      <trkpt lat="44.61957" lon="-1.08472">
        <ele>7.35</ele>
        <time>2020-10-24T15:27:48Z</time>
      </trkpt>
      <trkpt lat="44.61957" lon="-1.08464">
        <ele>7.35</ele>
        <time>2020-10-24T15:27:49Z</time>
      </trkpt>
      <trkpt lat="44.61957" lon="-1.08456">
        <ele>7.35</ele>
        <time>2020-10-24T15:27:50Z</time>
      </trkpt>
      <trkpt lat="44.61964" lon="-1.08344">
        <ele>7.35</ele>
        <time>2020-10-24T15:28:04Z</time>
      </trkpt>
      <trkpt lat="44.61966" lon="-1.08328">
        <ele>7.35</ele>
        <time>2020-10-24T15:28:06Z</time>
      </trkpt>
      <trkpt lat="44.61965" lon="-1.08319">
        <ele>7.35</ele>
        <time>2020-10-24T15:28:07Z</time>
      </trkpt>
      <trkpt lat="44.61964" lon="-1.08295">
        <ele>7.35</ele>
        <time>2020-10-24T15:28:10Z</time>
      </trkpt>
      <trkpt lat="44.61964" lon="-1.08288">
        <ele>7.35</ele>
        <time>2020-10-24T15:28:11Z</time>
      </trkpt>
      <trkpt lat="44.61965" lon="-1.08279">
        <ele>7.35</ele>
        <time>2020-10-24T15:28:12Z</time>
      </trkpt>
      <trkpt lat="44.61966" lon="-1.08248">
        <ele>7.35</ele>
        <time>2020-10-24T15:28:16Z</time>
      </trkpt>
      <trkpt lat="44.61966" lon="-1.08239">
        <ele>7.35</ele>
        <time>2020-10-24T15:28:17Z</time>
      </trkpt>
      <trkpt lat="44.61967" lon="-1.08231">
        <ele>7.35</ele>
        <time>2020-10-24T15:28:18Z</time>
      </trkpt>
      <trkpt lat="44.61967" lon="-1.08214">
        <ele>7.35</ele>
        <time>2020-10-24T15:28:20Z</time>
      </trkpt>
      <trkpt lat="44.61969" lon="-1.08088">
        <ele>7.35</ele>
        <time>2020-10-24T15:28:35Z</time>
      </trkpt>
      <trkpt lat="44.61972" lon="-1.08065">
        <ele>7.35</ele>
        <time>2020-10-24T15:28:38Z</time>
      </trkpt>
      <trkpt lat="44.61973" lon="-1.08058">
        <ele>7.35</ele>
        <time>2020-10-24T15:28:39Z</time>
      </trkpt>
      <trkpt lat="44.61973" lon="-1.0805">
        <ele>7.35</ele>
        <time>2020-10-24T15:28:40Z</time>
      </trkpt>
      <trkpt lat="44.61974" lon="-1.08043">
        <ele>7.35</ele>
        <time>2020-10-24T15:28:41Z</time>
      </trkpt>
      <trkpt lat="44.61975" lon="-1.08035">
        <ele>7.35</ele>
        <time>2020-10-24T15:28:42Z</time>
      </trkpt>
      <trkpt lat="44.61985" lon="-1.07948">
        <ele>7.35</ele>
        <time>2020-10-24T15:28:53Z</time>
      </trkpt>
      <trkpt lat="44.61986" lon="-1.0794">
        <ele>7.35</ele>
        <time>2020-10-24T15:28:54Z</time>
      </trkpt>
      <trkpt lat="44.61988" lon="-1.07916">
        <ele>7.35</ele>
        <time>2020-10-24T15:28:57Z</time>
      </trkpt>
      <trkpt lat="44.61988" lon="-1.07908">
        <ele>7.35</ele>
        <time>2020-10-24T15:28:58Z</time>
      </trkpt>
      <trkpt lat="44.61988" lon="-1.079">
        <ele>7.35</ele>
        <time>2020-10-24T15:28:59Z</time>
      </trkpt>
      <trkpt lat="44.61988" lon="-1.07893">
        <ele>7.35</ele>
        <time>2020-10-24T15:29:00Z</time>
      </trkpt>
      <trkpt lat="44.61988" lon="-1.07887">
        <ele>7.35</ele>
        <time>2020-10-24T15:29:01Z</time>
      </trkpt>
      <trkpt lat="44.61993" lon="-1.07795">
        <ele>7.35</ele>
        <time>2020-10-24T15:29:15Z</time>
      </trkpt>
      <trkpt lat="44.61994" lon="-1.07782">
        <ele>7.35</ele>
        <time>2020-10-24T15:29:17Z</time>
      </trkpt>
      <trkpt lat="44.61995" lon="-1.07723">
        <ele>7.35</ele>
        <time>2020-10-24T15:29:29Z</time>
      </trkpt>
      <trkpt lat="44.61998" lon="-1.07698">
        <ele>7.35</ele>
        <time>2020-10-24T15:29:40Z</time>
      </trkpt>
      <trkpt lat="44.61996" lon="-1.07696">
        <ele>6.87</ele>
        <time>2020-10-24T15:30:03Z</time>
      </trkpt>
      <trkpt lat="44.61998" lon="-1.07698">
        <ele>6.87</ele>
        <time>2020-10-24T15:30:33Z</time>
      </trkpt>
      <trkpt lat="44.61997" lon="-1.07698">
        <ele>6.87</ele>
        <time>2020-10-24T15:30:59Z</time>
      </trkpt>
      <trkpt lat="44.61996" lon="-1.07697">
        <ele>8.31</ele>
        <time>2020-10-24T15:31:22Z</time>
      </trkpt>
      <trkpt lat="44.61996" lon="-1.07695">
        <ele>8.31</ele>
        <time>2020-10-24T15:31:31Z</time>
      </trkpt>
      <trkpt lat="44.61996" lon="-1.07693">
        <ele>8.31</ele>
        <time>2020-10-24T15:31:32Z</time>
      </trkpt>
      <trkpt lat="44.61996" lon="-1.07691">
        <ele>8.31</ele>
        <time>2020-10-24T15:31:33Z</time>
      </trkpt>
      <trkpt lat="44.61997" lon="-1.07689">
        <ele>8.31</ele>
        <time>2020-10-24T15:31:34Z</time>
      </trkpt>
      <trkpt lat="44.61997" lon="-1.07685">
        <ele>8.31</ele>
        <time>2020-10-24T15:31:35Z</time>
      </trkpt>
      <trkpt lat="44.61998" lon="-1.07682">
        <ele>8.31</ele>
        <time>2020-10-24T15:31:36Z</time>
      </trkpt>
      <trkpt lat="44.61998" lon="-1.07677">
        <ele>8.31</ele>
        <time>2020-10-24T15:31:37Z</time>
      </trkpt>
      <trkpt lat="44.61998" lon="-1.07673">
        <ele>8.31</ele>
        <time>2020-10-24T15:31:38Z</time>
      </trkpt>
      <trkpt lat="44.61999" lon="-1.07668">
        <ele>8.31</ele>
        <time>2020-10-24T15:31:39Z</time>
      </trkpt>
      <trkpt lat="44.61999" lon="-1.07663">
        <ele>8.31</ele>
        <time>2020-10-24T15:31:40Z</time>
      </trkpt>
      <trkpt lat="44.62001" lon="-1.07645">
        <ele>8.31</ele>
        <time>2020-10-24T15:31:43Z</time>
      </trkpt>
      <trkpt lat="44.62001" lon="-1.07639">
        <ele>8.31</ele>
        <time>2020-10-24T15:31:44Z</time>
      </trkpt>
      <trkpt lat="44.62001" lon="-1.07633">
        <ele>8.31</ele>
        <time>2020-10-24T15:31:45Z</time>
      </trkpt>
      <trkpt lat="44.62001" lon="-1.07627">
        <ele>8.31</ele>
        <time>2020-10-24T15:31:46Z</time>
      </trkpt>
      <trkpt lat="44.62001" lon="-1.07621">
        <ele>8.31</ele>
        <time>2020-10-24T15:31:47Z</time>
      </trkpt>
      <trkpt lat="44.62012" lon="-1.07537">
        <ele>8.31</ele>
        <time>2020-10-24T15:32:00Z</time>
      </trkpt>
      <trkpt lat="44.62014" lon="-1.07523">
        <ele>8.31</ele>
        <time>2020-10-24T15:32:02Z</time>
      </trkpt>
      <trkpt lat="44.62014" lon="-1.07516">
        <ele>8.31</ele>
        <time>2020-10-24T15:32:03Z</time>
      </trkpt>
      <trkpt lat="44.62014" lon="-1.07509">
        <ele>8.31</ele>
        <time>2020-10-24T15:32:04Z</time>
      </trkpt>
      <trkpt lat="44.62013" lon="-1.07501">
        <ele>8.31</ele>
        <time>2020-10-24T15:32:05Z</time>
      </trkpt>
      <trkpt lat="44.62013" lon="-1.07494">
        <ele>8.31</ele>
        <time>2020-10-24T15:32:06Z</time>
      </trkpt>
      <trkpt lat="44.62015" lon="-1.07452">
        <ele>8.31</ele>
        <time>2020-10-24T15:32:12Z</time>
      </trkpt>
      <trkpt lat="44.62016" lon="-1.07446">
        <ele>8.31</ele>
        <time>2020-10-24T15:32:13Z</time>
      </trkpt>
      <trkpt lat="44.62019" lon="-1.07441">
        <ele>8.31</ele>
        <time>2020-10-24T15:32:14Z</time>
      </trkpt>
      <trkpt lat="44.6203" lon="-1.07419">
        <ele>8.31</ele>
        <time>2020-10-24T15:32:18Z</time>
      </trkpt>
      <trkpt lat="44.62031" lon="-1.07413">
        <ele>8.31</ele>
        <time>2020-10-24T15:32:19Z</time>
      </trkpt>
      <trkpt lat="44.62032" lon="-1.07407">
        <ele>8.31</ele>
        <time>2020-10-24T15:32:20Z</time>
      </trkpt>
      <trkpt lat="44.62031" lon="-1.07401">
        <ele>8.31</ele>
        <time>2020-10-24T15:32:21Z</time>
      </trkpt>
      <trkpt lat="44.62032" lon="-1.07396">
        <ele>8.31</ele>
        <time>2020-10-24T15:32:22Z</time>
      </trkpt>
      <trkpt lat="44.62032" lon="-1.0739">
        <ele>8.31</ele>
        <time>2020-10-24T15:32:23Z</time>
      </trkpt>
      <trkpt lat="44.62033" lon="-1.07385">
        <ele>8.31</ele>
        <time>2020-10-24T15:32:24Z</time>
      </trkpt>
      <trkpt lat="44.62049" lon="-1.07363">
        <ele>8.31</ele>
        <time>2020-10-24T15:32:32Z</time>
      </trkpt>
      <trkpt lat="44.62054" lon="-1.07356">
        <ele>8.31</ele>
        <time>2020-10-24T15:32:34Z</time>
      </trkpt>
      <trkpt lat="44.62056" lon="-1.07352">
        <ele>8.31</ele>
        <time>2020-10-24T15:32:35Z</time>
      </trkpt>
      <trkpt lat="44.62057" lon="-1.07349">
        <ele>8.31</ele>
        <time>2020-10-24T15:32:36Z</time>
      </trkpt>
      <trkpt lat="44.62059" lon="-1.07347">
        <ele>8.31</ele>
        <time>2020-10-24T15:32:37Z</time>
      </trkpt>
      <trkpt lat="44.62061" lon="-1.07346">
        <ele>8.31</ele>
        <time>2020-10-24T15:32:38Z</time>
      </trkpt>
      <trkpt lat="44.62064" lon="-1.07345">
        <ele>8.31</ele>
        <time>2020-10-24T15:32:39Z</time>
      </trkpt>
      <trkpt lat="44.62068" lon="-1.07346">
        <ele>8.31</ele>
        <time>2020-10-24T15:32:40Z</time>
      </trkpt>
      <trkpt lat="44.62071" lon="-1.07345">
        <ele>8.31</ele>
        <time>2020-10-24T15:32:41Z</time>
      </trkpt>
      <trkpt lat="44.62075" lon="-1.07344">
        <ele>8.31</ele>
        <time>2020-10-24T15:32:42Z</time>
      </trkpt>
      <trkpt lat="44.62079" lon="-1.07342">
        <ele>8.31</ele>
        <time>2020-10-24T15:32:43Z</time>
      </trkpt>
      <trkpt lat="44.62082" lon="-1.07339">
        <ele>8.31</ele>
        <time>2020-10-24T15:32:44Z</time>
      </trkpt>
      <trkpt lat="44.62087" lon="-1.07337">
        <ele>8.31</ele>
        <time>2020-10-24T15:32:45Z</time>
      </trkpt>
      <trkpt lat="44.62094" lon="-1.07336">
        <ele>8.31</ele>
        <time>2020-10-24T15:32:46Z</time>
      </trkpt>
      <trkpt lat="44.62099" lon="-1.07335">
        <ele>8.31</ele>
        <time>2020-10-24T15:32:47Z</time>
      </trkpt>
      <trkpt lat="44.62114" lon="-1.07333">
        <ele>8.31</ele>
        <time>2020-10-24T15:32:50Z</time>
      </trkpt>
      <trkpt lat="44.62117" lon="-1.07334">
        <ele>8.31</ele>
        <time>2020-10-24T15:32:51Z</time>
      </trkpt>
      <trkpt lat="44.6213" lon="-1.07338">
        <ele>8.31</ele>
        <time>2020-10-24T15:32:54Z</time>
      </trkpt>
      <trkpt lat="44.62133" lon="-1.07337">
        <ele>8.31</ele>
        <time>2020-10-24T15:32:55Z</time>
      </trkpt>
      <trkpt lat="44.62137" lon="-1.07335">
        <ele>8.31</ele>
        <time>2020-10-24T15:32:56Z</time>
      </trkpt>
      <trkpt lat="44.6215" lon="-1.07329">
        <ele>8.31</ele>
        <time>2020-10-24T15:32:59Z</time>
      </trkpt>
      <trkpt lat="44.62155" lon="-1.07328">
        <ele>8.31</ele>
        <time>2020-10-24T15:33:00Z</time>
      </trkpt>
      <trkpt lat="44.62159" lon="-1.07329">
        <ele>8.31</ele>
        <time>2020-10-24T15:33:01Z</time>
      </trkpt>
      <trkpt lat="44.62205" lon="-1.07326">
        <ele>8.31</ele>
        <time>2020-10-24T15:33:12Z</time>
      </trkpt>
      <trkpt lat="44.6221" lon="-1.07326">
        <ele>8.31</ele>
        <time>2020-10-24T15:33:13Z</time>
      </trkpt>
      <trkpt lat="44.62214" lon="-1.07327">
        <ele>7.83</ele>
        <time>2020-10-24T15:33:14Z</time>
      </trkpt>
      <trkpt lat="44.62218" lon="-1.0733">
        <ele>7.83</ele>
        <time>2020-10-24T15:33:15Z</time>
      </trkpt>
      <trkpt lat="44.62222" lon="-1.07333">
        <ele>7.83</ele>
        <time>2020-10-24T15:33:16Z</time>
      </trkpt>
      <trkpt lat="44.62226" lon="-1.07336">
        <ele>7.83</ele>
        <time>2020-10-24T15:33:17Z</time>
      </trkpt>
      <trkpt lat="44.62229" lon="-1.07339">
        <ele>7.83</ele>
        <time>2020-10-24T15:33:18Z</time>
      </trkpt>
      <trkpt lat="44.62232" lon="-1.07339">
        <ele>7.83</ele>
        <time>2020-10-24T15:33:19Z</time>
      </trkpt>
      <trkpt lat="44.62234" lon="-1.0734">
        <ele>7.83</ele>
        <time>2020-10-24T15:33:20Z</time>
      </trkpt>
      <trkpt lat="44.62263" lon="-1.07327">
        <ele>7.83</ele>
        <time>2020-10-24T15:33:31Z</time>
      </trkpt>
      <trkpt lat="44.62267" lon="-1.07325">
        <ele>7.83</ele>
        <time>2020-10-24T15:33:32Z</time>
      </trkpt>
      <trkpt lat="44.62285" lon="-1.07304">
        <ele>7.83</ele>
        <time>2020-10-24T15:33:40Z</time>
      </trkpt>
      <trkpt lat="44.62285" lon="-1.07301">
        <ele>7.83</ele>
        <time>2020-10-24T15:33:41Z</time>
      </trkpt>
      <trkpt lat="44.62283" lon="-1.07293">
        <ele>7.83</ele>
        <time>2020-10-24T15:33:44Z</time>
      </trkpt>
      <trkpt lat="44.62281" lon="-1.07293">
        <ele>7.83</ele>
        <time>2020-10-24T15:33:45Z</time>
      </trkpt>
      <trkpt lat="44.62279" lon="-1.07294">
        <ele>7.83</ele>
        <time>2020-10-24T15:33:46Z</time>
      </trkpt>
      <trkpt lat="44.62277" lon="-1.07294">
        <ele>7.83</ele>
        <time>2020-10-24T15:33:47Z</time>
      </trkpt>
      <trkpt lat="44.62275" lon="-1.07294">
        <ele>7.83</ele>
        <time>2020-10-24T15:33:48Z</time>
      </trkpt>
      <trkpt lat="44.62273" lon="-1.07292">
        <ele>8.31</ele>
        <time>2020-10-24T15:33:49Z</time>
      </trkpt>
      <trkpt lat="44.62271" lon="-1.0729">
        <ele>7.83</ele>
        <time>2020-10-24T15:33:50Z</time>
      </trkpt>
      <trkpt lat="44.62269" lon="-1.07287">
        <ele>7.83</ele>
        <time>2020-10-24T15:33:51Z</time>
      </trkpt>
      <trkpt lat="44.62267" lon="-1.07284">
        <ele>7.83</ele>
        <time>2020-10-24T15:33:52Z</time>
      </trkpt>
      <trkpt lat="44.62265" lon="-1.0728">
        <ele>7.83</ele>
        <time>2020-10-24T15:33:53Z</time>
      </trkpt>
      <trkpt lat="44.62261" lon="-1.07269">
        <ele>7.83</ele>
        <time>2020-10-24T15:33:56Z</time>
      </trkpt>
      <trkpt lat="44.62262" lon="-1.07265">
        <ele>8.31</ele>
        <time>2020-10-24T15:33:57Z</time>
      </trkpt>
      <trkpt lat="44.62262" lon="-1.07261">
        <ele>8.31</ele>
        <time>2020-10-24T15:33:58Z</time>
      </trkpt>
      <trkpt lat="44.62269" lon="-1.0723">
        <ele>8.31</ele>
        <time>2020-10-24T15:34:10Z</time>
      </trkpt>
      <trkpt lat="44.62268" lon="-1.07228">
        <ele>8.31</ele>
        <time>2020-10-24T15:34:11Z</time>
      </trkpt>
      <trkpt lat="44.62266" lon="-1.07227">
        <ele>8.31</ele>
        <time>2020-10-24T15:34:12Z</time>
      </trkpt>
      <trkpt lat="44.62265" lon="-1.07225">
        <ele>8.31</ele>
        <time>2020-10-24T15:34:13Z</time>
      </trkpt>
      <trkpt lat="44.62263" lon="-1.07223">
        <ele>8.31</ele>
        <time>2020-10-24T15:34:14Z</time>
      </trkpt>
      <trkpt lat="44.62263" lon="-1.07219">
        <ele>8.31</ele>
        <time>2020-10-24T15:34:15Z</time>
      </trkpt>
      <trkpt lat="44.62264" lon="-1.07216">
        <ele>8.31</ele>
        <time>2020-10-24T15:34:16Z</time>
      </trkpt>
      <trkpt lat="44.62265" lon="-1.07213">
        <ele>8.31</ele>
        <time>2020-10-24T15:34:17Z</time>
      </trkpt>
      <trkpt lat="44.62266" lon="-1.07209">
        <ele>8.31</ele>
        <time>2020-10-24T15:34:18Z</time>
      </trkpt>
      <trkpt lat="44.62278" lon="-1.07154">
        <ele>8.31</ele>
        <time>2020-10-24T15:34:32Z</time>
      </trkpt>
      <trkpt lat="44.62288" lon="-1.07114">
        <ele>8.31</ele>
        <time>2020-10-24T15:34:46Z</time>
      </trkpt>
      <trkpt lat="44.62298" lon="-1.07066">
        <ele>8.31</ele>
        <time>2020-10-24T15:34:59Z</time>
      </trkpt>
      <trkpt lat="44.62313" lon="-1.0699">
        <ele>8.31</ele>
        <time>2020-10-24T15:35:14Z</time>
      </trkpt>
      <trkpt lat="44.62331" lon="-1.06914">
        <ele>8.31</ele>
        <time>2020-10-24T15:35:28Z</time>
      </trkpt>
      <trkpt lat="44.62332" lon="-1.06908">
        <ele>8.31</ele>
        <time>2020-10-24T15:35:29Z</time>
      </trkpt>
      <trkpt lat="44.62342" lon="-1.06879">
        <ele>8.31</ele>
        <time>2020-10-24T15:35:34Z</time>
      </trkpt>
      <trkpt lat="44.62343" lon="-1.06873">
        <ele>8.31</ele>
        <time>2020-10-24T15:35:35Z</time>
      </trkpt>
      <trkpt lat="44.62363" lon="-1.06799">
        <ele>8.31</ele>
        <time>2020-10-24T15:35:49Z</time>
      </trkpt>
      <trkpt lat="44.62387" lon="-1.06737">
        <ele>8.31</ele>
        <time>2020-10-24T15:36:02Z</time>
      </trkpt>
      <trkpt lat="44.62395" lon="-1.06714">
        <ele>8.31</ele>
        <time>2020-10-24T15:36:07Z</time>
      </trkpt>
      <trkpt lat="44.62398" lon="-1.06712">
        <ele>8.31</ele>
        <time>2020-10-24T15:36:08Z</time>
      </trkpt>
      <trkpt lat="44.62401" lon="-1.0671">
        <ele>8.31</ele>
        <time>2020-10-24T15:36:09Z</time>
      </trkpt>
      <trkpt lat="44.6242" lon="-1.067">
        <ele>8.31</ele>
        <time>2020-10-24T15:36:16Z</time>
      </trkpt>
      <trkpt lat="44.62422" lon="-1.06695">
        <ele>8.31</ele>
        <time>2020-10-24T15:36:17Z</time>
      </trkpt>
      <trkpt lat="44.62439" lon="-1.06639">
        <ele>8.31</ele>
        <time>2020-10-24T15:36:28Z</time>
      </trkpt>
      <trkpt lat="44.6244" lon="-1.06633">
        <ele>8.31</ele>
        <time>2020-10-24T15:36:29Z</time>
      </trkpt>
      <trkpt lat="44.62449" lon="-1.066">
        <ele>8.31</ele>
        <time>2020-10-24T15:36:35Z</time>
      </trkpt>
      <trkpt lat="44.62472" lon="-1.065">
        <ele>8.31</ele>
        <time>2020-10-24T15:36:52Z</time>
      </trkpt>
      <trkpt lat="44.62492" lon="-1.06395">
        <ele>8.31</ele>
        <time>2020-10-24T15:37:10Z</time>
      </trkpt>
      <trkpt lat="44.62509" lon="-1.06354">
        <ele>8.31</ele>
        <time>2020-10-24T15:37:19Z</time>
      </trkpt>
      <trkpt lat="44.62555" lon="-1.06285">
        <ele>8.31</ele>
        <time>2020-10-24T15:37:35Z</time>
      </trkpt>
      <trkpt lat="44.62559" lon="-1.06276">
        <ele>8.31</ele>
        <time>2020-10-24T15:37:37Z</time>
      </trkpt>
      <trkpt lat="44.62559" lon="-1.06271">
        <ele>8.31</ele>
        <time>2020-10-24T15:37:38Z</time>
      </trkpt>
      <trkpt lat="44.62558" lon="-1.06268">
        <ele>8.31</ele>
        <time>2020-10-24T15:37:39Z</time>
      </trkpt>
      <trkpt lat="44.62558" lon="-1.06264">
        <ele>8.31</ele>
        <time>2020-10-24T15:37:40Z</time>
      </trkpt>
      <trkpt lat="44.62558" lon="-1.06261">
        <ele>8.31</ele>
        <time>2020-10-24T15:37:41Z</time>
      </trkpt>
      <trkpt lat="44.62558" lon="-1.06255">
        <ele>8.31</ele>
        <time>2020-10-24T15:37:51Z</time>
      </trkpt>
      <trkpt lat="44.62556" lon="-1.06253">
        <ele>8.31</ele>
        <time>2020-10-24T15:38:24Z</time>
      </trkpt>
      <trkpt lat="44.62554" lon="-1.06248">
        <ele>8.31</ele>
        <time>2020-10-24T15:38:29Z</time>
      </trkpt>
      <trkpt lat="44.62553" lon="-1.06246">
        <ele>8.31</ele>
        <time>2020-10-24T15:38:30Z</time>
      </trkpt>
      <trkpt lat="44.62552" lon="-1.06244">
        <ele>8.31</ele>
        <time>2020-10-24T15:38:31Z</time>
      </trkpt>
      <trkpt lat="44.6255" lon="-1.0624">
        <ele>8.31</ele>
        <time>2020-10-24T15:38:32Z</time>
      </trkpt>
      <trkpt lat="44.62548" lon="-1.06238">
        <ele>8.31</ele>
        <time>2020-10-24T15:38:33Z</time>
      </trkpt>
      <trkpt lat="44.62547" lon="-1.06234">
        <ele>8.31</ele>
        <time>2020-10-24T15:38:34Z</time>
      </trkpt>
      <trkpt lat="44.62547" lon="-1.0623">
        <ele>8.31</ele>
        <time>2020-10-24T15:38:35Z</time>
      </trkpt>
      <trkpt lat="44.62546" lon="-1.06225">
        <ele>8.31</ele>
        <time>2020-10-24T15:38:36Z</time>
      </trkpt>
      <trkpt lat="44.62538" lon="-1.0619">
        <ele>8.31</ele>
        <time>2020-10-24T15:38:43Z</time>
      </trkpt>
      <trkpt lat="44.62536" lon="-1.06182">
        <ele>8.31</ele>
        <time>2020-10-24T15:38:44Z</time>
      </trkpt>
      <trkpt lat="44.62535" lon="-1.06178">
        <ele>8.31</ele>
        <time>2020-10-24T15:38:45Z</time>
      </trkpt>
      <trkpt lat="44.62535" lon="-1.06171">
        <ele>8.31</ele>
        <time>2020-10-24T15:38:46Z</time>
      </trkpt>
      <trkpt lat="44.62534" lon="-1.06166">
        <ele>8.31</ele>
        <time>2020-10-24T15:38:47Z</time>
      </trkpt>
      <trkpt lat="44.62533" lon="-1.06145">
        <ele>8.31</ele>
        <time>2020-10-24T15:38:51Z</time>
      </trkpt>
      <trkpt lat="44.62535" lon="-1.06053">
        <ele>8.31</ele>
        <time>2020-10-24T15:39:06Z</time>
      </trkpt>
      <trkpt lat="44.62536" lon="-1.05947">
        <ele>8.31</ele>
        <time>2020-10-24T15:39:21Z</time>
      </trkpt>
      <trkpt lat="44.62534" lon="-1.05851">
        <ele>8.31</ele>
        <time>2020-10-24T15:39:38Z</time>
      </trkpt>
      <trkpt lat="44.62531" lon="-1.05745">
        <ele>8.31</ele>
        <time>2020-10-24T15:39:56Z</time>
      </trkpt>
      <trkpt lat="44.62531" lon="-1.05739">
        <ele>8.31</ele>
        <time>2020-10-24T15:39:57Z</time>
      </trkpt>
      <trkpt lat="44.6253" lon="-1.05733">
        <ele>8.31</ele>
        <time>2020-10-24T15:39:58Z</time>
      </trkpt>
      <trkpt lat="44.62532" lon="-1.05636">
        <ele>8.31</ele>
        <time>2020-10-24T15:40:13Z</time>
      </trkpt>
      <trkpt lat="44.62535" lon="-1.05542">
        <ele>8.31</ele>
        <time>2020-10-24T15:40:28Z</time>
      </trkpt>
      <trkpt lat="44.62528" lon="-1.05491">
        <ele>8.31</ele>
        <time>2020-10-24T15:40:39Z</time>
      </trkpt>
      <trkpt lat="44.62512" lon="-1.05374">
        <ele>8.31</ele>
        <time>2020-10-24T15:40:57Z</time>
      </trkpt>
      <trkpt lat="44.6251" lon="-1.05361">
        <ele>8.31</ele>
        <time>2020-10-24T15:40:59Z</time>
      </trkpt>
      <trkpt lat="44.62509" lon="-1.05355">
        <ele>8.31</ele>
        <time>2020-10-24T15:41:00Z</time>
      </trkpt>
      <trkpt lat="44.62508" lon="-1.05349">
        <ele>8.31</ele>
        <time>2020-10-24T15:41:01Z</time>
      </trkpt>
      <trkpt lat="44.62507" lon="-1.05343">
        <ele>8.31</ele>
        <time>2020-10-24T15:41:02Z</time>
      </trkpt>
      <trkpt lat="44.62506" lon="-1.05337">
        <ele>8.31</ele>
        <time>2020-10-24T15:41:03Z</time>
      </trkpt>
      <trkpt lat="44.62505" lon="-1.05331">
        <ele>8.31</ele>
        <time>2020-10-24T15:41:04Z</time>
      </trkpt>
      <trkpt lat="44.62501" lon="-1.05304">
        <ele>8.31</ele>
        <time>2020-10-24T15:41:08Z</time>
      </trkpt>
      <trkpt lat="44.62498" lon="-1.05284">
        <ele>8.31</ele>
        <time>2020-10-24T15:41:11Z</time>
      </trkpt>
      <trkpt lat="44.62496" lon="-1.05264">
        <ele>8.31</ele>
        <time>2020-10-24T15:41:14Z</time>
      </trkpt>
      <trkpt lat="44.62495" lon="-1.05258">
        <ele>8.31</ele>
        <time>2020-10-24T15:41:15Z</time>
      </trkpt>
      <trkpt lat="44.62494" lon="-1.05246">
        <ele>8.31</ele>
        <time>2020-10-24T15:41:17Z</time>
      </trkpt>
      <trkpt lat="44.62492" lon="-1.05234">
        <ele>7.83</ele>
        <time>2020-10-24T15:41:19Z</time>
      </trkpt>
      <trkpt lat="44.62491" lon="-1.05227">
        <ele>7.83</ele>
        <time>2020-10-24T15:41:20Z</time>
      </trkpt>
      <trkpt lat="44.62486" lon="-1.05199">
        <ele>7.83</ele>
        <time>2020-10-24T15:41:24Z</time>
      </trkpt>
      <trkpt lat="44.62479" lon="-1.05157">
        <ele>7.83</ele>
        <time>2020-10-24T15:41:30Z</time>
      </trkpt>
      <trkpt lat="44.62471" lon="-1.05102">
        <ele>7.83</ele>
        <time>2020-10-24T15:41:38Z</time>
      </trkpt>
      <trkpt lat="44.62462" lon="-1.05023">
        <ele>7.83</ele>
        <time>2020-10-24T15:41:53Z</time>
      </trkpt>
      <trkpt lat="44.62462" lon="-1.05017">
        <ele>7.83</ele>
        <time>2020-10-24T15:41:55Z</time>
      </trkpt>
      <trkpt lat="44.62464" lon="-1.05014">
        <ele>7.83</ele>
        <time>2020-10-24T15:41:56Z</time>
      </trkpt>
      <trkpt lat="44.62466" lon="-1.05013">
        <ele>7.83</ele>
        <time>2020-10-24T15:41:57Z</time>
      </trkpt>
      <trkpt lat="44.62468" lon="-1.05012">
        <ele>7.83</ele>
        <time>2020-10-24T15:41:58Z</time>
      </trkpt>
      <trkpt lat="44.62471" lon="-1.0501">
        <ele>7.83</ele>
        <time>2020-10-24T15:41:59Z</time>
      </trkpt>
      <trkpt lat="44.62495" lon="-1.05004">
        <ele>7.83</ele>
        <time>2020-10-24T15:42:11Z</time>
      </trkpt>
      <trkpt lat="44.62499" lon="-1.05003">
        <ele>7.83</ele>
        <time>2020-10-24T15:42:24Z</time>
      </trkpt>
      <trkpt lat="44.62513" lon="-1.05">
        <ele>7.83</ele>
        <time>2020-10-24T15:42:34Z</time>
      </trkpt>
      <trkpt lat="44.62525" lon="-1.04998">
        <ele>7.83</ele>
        <time>2020-10-24T15:42:40Z</time>
      </trkpt>
      <trkpt lat="44.62526" lon="-1.04997">
        <ele>7.83</ele>
        <time>2020-10-24T15:42:41Z</time>
      </trkpt>
      <trkpt lat="44.62528" lon="-1.04996">
        <ele>7.83</ele>
        <time>2020-10-24T15:42:42Z</time>
      </trkpt>
      <trkpt lat="44.62531" lon="-1.04997">
        <ele>7.83</ele>
        <time>2020-10-24T15:42:44Z</time>
      </trkpt>
      <trkpt lat="44.62533" lon="-1.04996">
        <ele>7.83</ele>
        <time>2020-10-24T15:42:45Z</time>
      </trkpt>
      <trkpt lat="44.6257" lon="-1.0499">
        <ele>7.83</ele>
        <time>2020-10-24T15:42:59Z</time>
      </trkpt>
      <trkpt lat="44.62596" lon="-1.04986">
        <ele>7.83</ele>
        <time>2020-10-24T15:43:09Z</time>
      </trkpt>
      <trkpt lat="44.62621" lon="-1.04982">
        <ele>7.83</ele>
        <time>2020-10-24T15:43:18Z</time>
      </trkpt>
      <trkpt lat="44.62663" lon="-1.04976">
        <ele>7.83</ele>
        <time>2020-10-24T15:43:32Z</time>
      </trkpt>
      <trkpt lat="44.62704" lon="-1.04965">
        <ele>7.83</ele>
        <time>2020-10-24T15:43:45Z</time>
      </trkpt>
      <trkpt lat="44.62746" lon="-1.04952">
        <ele>7.83</ele>
        <time>2020-10-24T15:43:59Z</time>
      </trkpt>
      <trkpt lat="44.62783" lon="-1.04939">
        <ele>7.83</ele>
        <time>2020-10-24T15:44:11Z</time>
      </trkpt>
      <trkpt lat="44.62792" lon="-1.04937">
        <ele>7.83</ele>
        <time>2020-10-24T15:44:14Z</time>
      </trkpt>
      <trkpt lat="44.62794" lon="-1.04936">
        <ele>7.83</ele>
        <time>2020-10-24T15:44:15Z</time>
      </trkpt>
      <trkpt lat="44.62796" lon="-1.04935">
        <ele>7.83</ele>
        <time>2020-10-24T15:44:16Z</time>
      </trkpt>
      <trkpt lat="44.62799" lon="-1.04934">
        <ele>7.83</ele>
        <time>2020-10-24T15:44:17Z</time>
      </trkpt>
      <trkpt lat="44.62801" lon="-1.04932">
        <ele>7.83</ele>
        <time>2020-10-24T15:44:18Z</time>
      </trkpt>
      <trkpt lat="44.62804" lon="-1.04931">
        <ele>7.83</ele>
        <time>2020-10-24T15:44:19Z</time>
      </trkpt>
      <trkpt lat="44.62807" lon="-1.0493">
        <ele>7.83</ele>
        <time>2020-10-24T15:44:20Z</time>
      </trkpt>
      <trkpt lat="44.62842" lon="-1.04921">
        <ele>7.83</ele>
        <time>2020-10-24T15:44:32Z</time>
      </trkpt>
      <trkpt lat="44.62872" lon="-1.04904">
        <ele>6.87</ele>
        <time>2020-10-24T15:44:42Z</time>
      </trkpt>
      <trkpt lat="44.629" lon="-1.04893">
        <ele>6.87</ele>
        <time>2020-10-24T15:44:52Z</time>
      </trkpt>
      <trkpt lat="44.62931" lon="-1.04877">
        <ele>6.87</ele>
        <time>2020-10-24T15:45:03Z</time>
      </trkpt>
      <trkpt lat="44.62965" lon="-1.04861">
        <ele>6.87</ele>
        <time>2020-10-24T15:45:15Z</time>
      </trkpt>
      <trkpt lat="44.62998" lon="-1.04843">
        <ele>6.87</ele>
        <time>2020-10-24T15:45:27Z</time>
      </trkpt>
      <trkpt lat="44.63029" lon="-1.0483">
        <ele>6.87</ele>
        <time>2020-10-24T15:45:38Z</time>
      </trkpt>
      <trkpt lat="44.63045" lon="-1.04822">
        <ele>6.87</ele>
        <time>2020-10-24T15:45:50Z</time>
      </trkpt>
      <trkpt lat="44.6305" lon="-1.04821">
        <ele>6.87</ele>
        <time>2020-10-24T15:46:14Z</time>
      </trkpt>
      <trkpt lat="44.63053" lon="-1.04821">
        <ele>6.87</ele>
        <time>2020-10-24T15:46:37Z</time>
      </trkpt>
      <trkpt lat="44.63056" lon="-1.04817">
        <ele>6.87</ele>
        <time>2020-10-24T15:46:44Z</time>
      </trkpt>
      <trkpt lat="44.63057" lon="-1.04816">
        <ele>6.87</ele>
        <time>2020-10-24T15:46:45Z</time>
      </trkpt>
      <trkpt lat="44.63058" lon="-1.04814">
        <ele>6.87</ele>
        <time>2020-10-24T15:46:46Z</time>
      </trkpt>
      <trkpt lat="44.6306" lon="-1.04814">
        <ele>6.87</ele>
        <time>2020-10-24T15:46:47Z</time>
      </trkpt>
      <trkpt lat="44.63061" lon="-1.04814">
        <ele>6.87</ele>
        <time>2020-10-24T15:46:48Z</time>
      </trkpt>
      <trkpt lat="44.63063" lon="-1.04814">
        <ele>6.87</ele>
        <time>2020-10-24T15:46:49Z</time>
      </trkpt>
      <trkpt lat="44.63065" lon="-1.04814">
        <ele>6.87</ele>
        <time>2020-10-24T15:46:50Z</time>
      </trkpt>
      <trkpt lat="44.63094" lon="-1.04805">
        <ele>6.87</ele>
        <time>2020-10-24T15:47:01Z</time>
      </trkpt>
      <trkpt lat="44.63129" lon="-1.04788">
        <ele>6.87</ele>
        <time>2020-10-24T15:47:12Z</time>
      </trkpt>
      <trkpt lat="44.63175" lon="-1.04769">
        <ele>6.39</ele>
        <time>2020-10-24T15:47:25Z</time>
      </trkpt>
      <trkpt lat="44.63218" lon="-1.04754">
        <ele>6.39</ele>
        <time>2020-10-24T15:47:38Z</time>
      </trkpt>
      <trkpt lat="44.63247" lon="-1.04738">
        <ele>6.39</ele>
        <time>2020-10-24T15:47:47Z</time>
      </trkpt>
      <trkpt lat="44.63286" lon="-1.04722">
        <ele>6.39</ele>
        <time>2020-10-24T15:47:59Z</time>
      </trkpt>
      <trkpt lat="44.63325" lon="-1.04708">
        <ele>5.91</ele>
        <time>2020-10-24T15:48:11Z</time>
      </trkpt>
      <trkpt lat="44.63354" lon="-1.04699">
        <ele>5.91</ele>
        <time>2020-10-24T15:48:22Z</time>
      </trkpt>
      <trkpt lat="44.6339" lon="-1.04685">
        <ele>5.91</ele>
        <time>2020-10-24T15:48:35Z</time>
      </trkpt>
      <trkpt lat="44.63432" lon="-1.04668">
        <ele>5.91</ele>
        <time>2020-10-24T15:48:49Z</time>
      </trkpt>
      <trkpt lat="44.63458" lon="-1.04652">
        <ele>5.91</ele>
        <time>2020-10-24T15:48:59Z</time>
      </trkpt>
      <trkpt lat="44.63487" lon="-1.04639">
        <ele>5.91</ele>
        <time>2020-10-24T15:49:10Z</time>
      </trkpt>
      <trkpt lat="44.63533" lon="-1.0462">
        <ele>5.91</ele>
        <time>2020-10-24T15:49:23Z</time>
      </trkpt>
      <trkpt lat="44.63574" lon="-1.04599">
        <ele>5.91</ele>
        <time>2020-10-24T15:49:35Z</time>
      </trkpt>
      <trkpt lat="44.63612" lon="-1.0458">
        <ele>5.91</ele>
        <time>2020-10-24T15:49:47Z</time>
      </trkpt>
      <trkpt lat="44.63644" lon="-1.0456">
        <ele>5.91</ele>
        <time>2020-10-24T15:49:58Z</time>
      </trkpt>
      <trkpt lat="44.63679" lon="-1.0454">
        <ele>5.42</ele>
        <time>2020-10-24T15:50:10Z</time>
      </trkpt>
      <trkpt lat="44.63694" lon="-1.04536">
        <ele>5.42</ele>
        <time>2020-10-24T15:50:21Z</time>
      </trkpt>
      <trkpt lat="44.63698" lon="-1.04537">
        <ele>5.42</ele>
        <time>2020-10-24T15:50:38Z</time>
      </trkpt>
      <trkpt lat="44.63713" lon="-1.04527">
        <ele>5.42</ele>
        <time>2020-10-24T15:50:50Z</time>
      </trkpt>
      <trkpt lat="44.63748" lon="-1.04509">
        <ele>5.42</ele>
        <time>2020-10-24T15:51:01Z</time>
      </trkpt>
      <trkpt lat="44.63797" lon="-1.04495">
        <ele>5.91</ele>
        <time>2020-10-24T15:51:14Z</time>
      </trkpt>
      <trkpt lat="44.63855" lon="-1.04478">
        <ele>5.91</ele>
        <time>2020-10-24T15:51:28Z</time>
      </trkpt>
      <trkpt lat="44.63915" lon="-1.0446">
        <ele>5.91</ele>
        <time>2020-10-24T15:51:42Z</time>
      </trkpt>
      <trkpt lat="44.63964" lon="-1.04445">
        <ele>5.91</ele>
        <time>2020-10-24T15:51:55Z</time>
      </trkpt>
      <trkpt lat="44.64003" lon="-1.04436">
        <ele>5.91</ele>
        <time>2020-10-24T15:52:08Z</time>
      </trkpt>
      <trkpt lat="44.64004" lon="-1.04437">
        <ele>5.91</ele>
        <time>2020-10-24T15:52:23Z</time>
      </trkpt>
      <trkpt lat="44.64008" lon="-1.04436">
        <ele>5.91</ele>
        <time>2020-10-24T15:52:38Z</time>
      </trkpt>
      <trkpt lat="44.64008" lon="-1.04434">
        <ele>5.91</ele>
        <time>2020-10-24T15:52:56Z</time>
      </trkpt>
      <trkpt lat="44.64008" lon="-1.04433">
        <ele>5.91</ele>
        <time>2020-10-24T15:53:01Z</time>
      </trkpt>
      <trkpt lat="44.64008" lon="-1.04431">
        <ele>5.91</ele>
        <time>2020-10-24T15:53:02Z</time>
      </trkpt>
      <trkpt lat="44.64007" lon="-1.04426">
        <ele>5.91</ele>
        <time>2020-10-24T15:53:05Z</time>
      </trkpt>
      <trkpt lat="44.64007" lon="-1.04424">
        <ele>5.91</ele>
        <time>2020-10-24T15:53:06Z</time>
      </trkpt>
      <trkpt lat="44.64007" lon="-1.04422">
        <ele>5.91</ele>
        <time>2020-10-24T15:53:07Z</time>
      </trkpt>
      <trkpt lat="44.64006" lon="-1.04419">
        <ele>5.91</ele>
        <time>2020-10-24T15:53:08Z</time>
      </trkpt>
      <trkpt lat="44.64005" lon="-1.04416">
        <ele>5.91</ele>
        <time>2020-10-24T15:53:09Z</time>
      </trkpt>
      <trkpt lat="44.63997" lon="-1.04347">
        <ele>5.91</ele>
        <time>2020-10-24T15:53:21Z</time>
      </trkpt>
      <trkpt lat="44.63986" lon="-1.04235">
        <ele>5.91</ele>
        <time>2020-10-24T15:53:38Z</time>
      </trkpt>
      <trkpt lat="44.63979" lon="-1.04153">
        <ele>6.87</ele>
        <time>2020-10-24T15:53:50Z</time>
      </trkpt>
      <trkpt lat="44.63972" lon="-1.04069">
        <ele>6.87</ele>
        <time>2020-10-24T15:54:02Z</time>
      </trkpt>
      <trkpt lat="44.63972" lon="-1.04063">
        <ele>6.87</ele>
        <time>2020-10-24T15:54:03Z</time>
      </trkpt>
      <trkpt lat="44.63971" lon="-1.04056">
        <ele>6.87</ele>
        <time>2020-10-24T15:54:04Z</time>
      </trkpt>
      <trkpt lat="44.63952" lon="-1.03927">
        <ele>6.87</ele>
        <time>2020-10-24T15:54:23Z</time>
      </trkpt>
      <trkpt lat="44.63949" lon="-1.03907">
        <ele>6.87</ele>
        <time>2020-10-24T15:54:26Z</time>
      </trkpt>
      <trkpt lat="44.63948" lon="-1.039">
        <ele>6.87</ele>
        <time>2020-10-24T15:54:27Z</time>
      </trkpt>
      <trkpt lat="44.63928" lon="-1.03792">
        <ele>6.87</ele>
        <time>2020-10-24T15:54:43Z</time>
      </trkpt>
      <trkpt lat="44.63927" lon="-1.03786">
        <ele>6.87</ele>
        <time>2020-10-24T15:54:44Z</time>
      </trkpt>
      <trkpt lat="44.63909" lon="-1.03681">
        <ele>7.35</ele>
        <time>2020-10-24T15:55:00Z</time>
      </trkpt>
      <trkpt lat="44.63905" lon="-1.03656">
        <ele>7.35</ele>
        <time>2020-10-24T15:55:04Z</time>
      </trkpt>
      <trkpt lat="44.6389" lon="-1.0356">
        <ele>7.35</ele>
        <time>2020-10-24T15:55:19Z</time>
      </trkpt>
      <trkpt lat="44.63868" lon="-1.03427">
        <ele>7.35</ele>
        <time>2020-10-24T15:55:37Z</time>
      </trkpt>
      <trkpt lat="44.63866" lon="-1.03411">
        <ele>5.91</ele>
        <time>2020-10-24T15:55:39Z</time>
      </trkpt>
      <trkpt lat="44.63843" lon="-1.03272">
        <ele>5.91</ele>
        <time>2020-10-24T15:55:57Z</time>
      </trkpt>
      <trkpt lat="44.63821" lon="-1.03132">
        <ele>5.91</ele>
        <time>2020-10-24T15:56:16Z</time>
      </trkpt>
      <trkpt lat="44.63803" lon="-1.03014">
        <ele>5.91</ele>
        <time>2020-10-24T15:56:33Z</time>
      </trkpt>
      <trkpt lat="44.63801" lon="-1.03">
        <ele>5.91</ele>
        <time>2020-10-24T15:56:35Z</time>
      </trkpt>
      <trkpt lat="44.63781" lon="-1.02872">
        <ele>6.87</ele>
        <time>2020-10-24T15:56:54Z</time>
      </trkpt>
      <trkpt lat="44.63758" lon="-1.0274">
        <ele>6.87</ele>
        <time>2020-10-24T15:57:12Z</time>
      </trkpt>
      <trkpt lat="44.63725" lon="-1.02636">
        <ele>6.87</ele>
        <time>2020-10-24T15:57:28Z</time>
      </trkpt>
      <trkpt lat="44.63709" lon="-1.02586">
        <ele>6.87</ele>
        <time>2020-10-24T15:57:37Z</time>
      </trkpt>
      <trkpt lat="44.63663" lon="-1.02487">
        <ele>6.87</ele>
        <time>2020-10-24T15:57:56Z</time>
      </trkpt>
      <trkpt lat="44.63615" lon="-1.02387">
        <ele>6.87</ele>
        <time>2020-10-24T15:58:15Z</time>
      </trkpt>
      <trkpt lat="44.63584" lon="-1.02316">
        <ele>7.35</ele>
        <time>2020-10-24T15:58:30Z</time>
      </trkpt>
      <trkpt lat="44.63572" lon="-1.02269">
        <ele>7.35</ele>
        <time>2020-10-24T15:58:40Z</time>
      </trkpt>
      <trkpt lat="44.63558" lon="-1.02182">
        <ele>7.35</ele>
        <time>2020-10-24T15:58:54Z</time>
      </trkpt>
      <trkpt lat="44.63557" lon="-1.02176">
        <ele>7.35</ele>
        <time>2020-10-24T15:58:55Z</time>
      </trkpt>
      <trkpt lat="44.6355" lon="-1.02154">
        <ele>7.35</ele>
        <time>2020-10-24T15:58:59Z</time>
      </trkpt>
      <trkpt lat="44.63547" lon="-1.02149">
        <ele>7.35</ele>
        <time>2020-10-24T15:59:00Z</time>
      </trkpt>
      <trkpt lat="44.63534" lon="-1.02126">
        <ele>7.35</ele>
        <time>2020-10-24T15:59:05Z</time>
      </trkpt>
      <trkpt lat="44.63531" lon="-1.02122">
        <ele>7.35</ele>
        <time>2020-10-24T15:59:06Z</time>
      </trkpt>
      <trkpt lat="44.63527" lon="-1.02118">
        <ele>7.35</ele>
        <time>2020-10-24T15:59:07Z</time>
      </trkpt>
      <trkpt lat="44.63518" lon="-1.02081">
        <ele>7.35</ele>
        <time>2020-10-24T15:59:15Z</time>
      </trkpt>
      <trkpt lat="44.63518" lon="-1.02076">
        <ele>7.35</ele>
        <time>2020-10-24T15:59:16Z</time>
      </trkpt>
      <trkpt lat="44.63516" lon="-1.02071">
        <ele>7.35</ele>
        <time>2020-10-24T15:59:17Z</time>
      </trkpt>
      <trkpt lat="44.63511" lon="-1.02062">
        <ele>7.35</ele>
        <time>2020-10-24T15:59:26Z</time>
      </trkpt>
      <trkpt lat="44.63513" lon="-1.02059">
        <ele>7.35</ele>
        <time>2020-10-24T15:59:51Z</time>
      </trkpt>
      <trkpt lat="44.63512" lon="-1.0206">
        <ele>7.35</ele>
        <time>2020-10-24T16:00:25Z</time>
      </trkpt>
      <trkpt lat="44.63514" lon="-1.02058">
        <ele>7.35</ele>
        <time>2020-10-24T16:00:43Z</time>
      </trkpt>
      <trkpt lat="44.63513" lon="-1.02057">
        <ele>7.35</ele>
        <time>2020-10-24T16:00:44Z</time>
      </trkpt>
      <trkpt lat="44.63512" lon="-1.02055">
        <ele>6.87</ele>
        <time>2020-10-24T16:00:45Z</time>
      </trkpt>
      <trkpt lat="44.63511" lon="-1.02054">
        <ele>6.87</ele>
        <time>2020-10-24T16:00:46Z</time>
      </trkpt>
      <trkpt lat="44.6351" lon="-1.02052">
        <ele>6.87</ele>
        <time>2020-10-24T16:00:47Z</time>
      </trkpt>
      <trkpt lat="44.6349" lon="-1.02004">
        <ele>6.87</ele>
        <time>2020-10-24T16:00:59Z</time>
      </trkpt>
      <trkpt lat="44.63445" lon="-1.01895">
        <ele>6.87</ele>
        <time>2020-10-24T16:01:20Z</time>
      </trkpt>
      <trkpt lat="44.63416" lon="-1.01843">
        <ele>6.87</ele>
        <time>2020-10-24T16:01:35Z</time>
      </trkpt>
      <trkpt lat="44.63371" lon="-1.01867">
        <ele>6.87</ele>
        <time>2020-10-24T16:01:49Z</time>
      </trkpt>
      <trkpt lat="44.63363" lon="-1.0187">
        <ele>6.87</ele>
        <time>2020-10-24T16:01:51Z</time>
      </trkpt>
      <trkpt lat="44.63306" lon="-1.01909">
        <ele>6.87</ele>
        <time>2020-10-24T16:02:05Z</time>
      </trkpt>
      <trkpt lat="44.63281" lon="-1.01956">
        <ele>7.35</ele>
        <time>2020-10-24T16:02:15Z</time>
      </trkpt>
      <trkpt lat="44.63279" lon="-1.01961">
        <ele>7.35</ele>
        <time>2020-10-24T16:02:16Z</time>
      </trkpt>
      <trkpt lat="44.6325" lon="-1.01995">
        <ele>7.83</ele>
        <time>2020-10-24T16:02:26Z</time>
      </trkpt>
      <trkpt lat="44.63246" lon="-1.01995">
        <ele>7.83</ele>
        <time>2020-10-24T16:02:27Z</time>
      </trkpt>
      <trkpt lat="44.63242" lon="-1.01995">
        <ele>7.83</ele>
        <time>2020-10-24T16:02:28Z</time>
      </trkpt>
      <trkpt lat="44.6324" lon="-1.01997">
        <ele>7.83</ele>
        <time>2020-10-24T16:02:29Z</time>
      </trkpt>
      <trkpt lat="44.63237" lon="-1.01998">
        <ele>7.83</ele>
        <time>2020-10-24T16:02:30Z</time>
      </trkpt>
      <trkpt lat="44.63234" lon="-1.01999">
        <ele>7.83</ele>
        <time>2020-10-24T16:02:31Z</time>
      </trkpt>
      <trkpt lat="44.63229" lon="-1.01999">
        <ele>7.83</ele>
        <time>2020-10-24T16:02:33Z</time>
      </trkpt>
      <trkpt lat="44.63227" lon="-1.01997">
        <ele>7.83</ele>
        <time>2020-10-24T16:02:34Z</time>
      </trkpt>
      <trkpt lat="44.63218" lon="-1.01989">
        <ele>7.83</ele>
        <time>2020-10-24T16:02:39Z</time>
      </trkpt>
      <trkpt lat="44.63217" lon="-1.01989">
        <ele>7.83</ele>
        <time>2020-10-24T16:02:40Z</time>
      </trkpt>
      <trkpt lat="44.63215" lon="-1.0199">
        <ele>7.83</ele>
        <time>2020-10-24T16:02:41Z</time>
      </trkpt>
      <trkpt lat="44.63213" lon="-1.0199">
        <ele>7.83</ele>
        <time>2020-10-24T16:02:42Z</time>
      </trkpt>
      <trkpt lat="44.63211" lon="-1.01989">
        <ele>7.83</ele>
        <time>2020-10-24T16:02:43Z</time>
      </trkpt>
      <trkpt lat="44.63209" lon="-1.01988">
        <ele>7.83</ele>
        <time>2020-10-24T16:02:44Z</time>
      </trkpt>
      <trkpt lat="44.63207" lon="-1.01985">
        <ele>7.83</ele>
        <time>2020-10-24T16:02:45Z</time>
      </trkpt>
      <trkpt lat="44.63164" lon="-1.01948">
        <ele>7.83</ele>
        <time>2020-10-24T16:02:58Z</time>
      </trkpt>
      <trkpt lat="44.63142" lon="-1.01927">
        <ele>7.83</ele>
        <time>2020-10-24T16:03:04Z</time>
      </trkpt>
      <trkpt lat="44.63138" lon="-1.01923">
        <ele>7.83</ele>
        <time>2020-10-24T16:03:05Z</time>
      </trkpt>
      <trkpt lat="44.63135" lon="-1.0192">
        <ele>7.83</ele>
        <time>2020-10-24T16:03:06Z</time>
      </trkpt>
      <trkpt lat="44.63131" lon="-1.01917">
        <ele>7.83</ele>
        <time>2020-10-24T16:03:07Z</time>
      </trkpt>
      <trkpt lat="44.63127" lon="-1.01913">
        <ele>7.83</ele>
        <time>2020-10-24T16:03:08Z</time>
      </trkpt>
      <trkpt lat="44.63081" lon="-1.0187">
        <ele>7.83</ele>
        <time>2020-10-24T16:03:20Z</time>
      </trkpt>
      <trkpt lat="44.63073" lon="-1.01864">
        <ele>7.83</ele>
        <time>2020-10-24T16:03:22Z</time>
      </trkpt>
      <trkpt lat="44.63042" lon="-1.01851">
        <ele>7.83</ele>
        <time>2020-10-24T16:03:30Z</time>
      </trkpt>
      <trkpt lat="44.63037" lon="-1.01851">
        <ele>7.83</ele>
        <time>2020-10-24T16:03:31Z</time>
      </trkpt>
      <trkpt lat="44.63029" lon="-1.01852">
        <ele>7.83</ele>
        <time>2020-10-24T16:03:33Z</time>
      </trkpt>
      <trkpt lat="44.63025" lon="-1.01851">
        <ele>7.83</ele>
        <time>2020-10-24T16:03:34Z</time>
      </trkpt>
      <trkpt lat="44.63021" lon="-1.01848">
        <ele>7.83</ele>
        <time>2020-10-24T16:03:35Z</time>
      </trkpt>
      <trkpt lat="44.63019" lon="-1.01844">
        <ele>7.83</ele>
        <time>2020-10-24T16:03:36Z</time>
      </trkpt>
      <trkpt lat="44.63017" lon="-1.01839">
        <ele>7.83</ele>
        <time>2020-10-24T16:03:37Z</time>
      </trkpt>
      <trkpt lat="44.63014" lon="-1.01833">
        <ele>7.83</ele>
        <time>2020-10-24T16:03:38Z</time>
      </trkpt>
      <trkpt lat="44.62998" lon="-1.01797">
        <ele>7.83</ele>
        <time>2020-10-24T16:03:45Z</time>
      </trkpt>
      <trkpt lat="44.62994" lon="-1.01793">
        <ele>7.83</ele>
        <time>2020-10-24T16:03:46Z</time>
      </trkpt>
      <trkpt lat="44.62987" lon="-1.01785">
        <ele>7.83</ele>
        <time>2020-10-24T16:03:48Z</time>
      </trkpt>
      <trkpt lat="44.62919" lon="-1.01723">
        <ele>8.31</ele>
        <time>2020-10-24T16:04:07Z</time>
      </trkpt>
      <trkpt lat="44.6291" lon="-1.0171">
        <ele>8.31</ele>
        <time>2020-10-24T16:04:10Z</time>
      </trkpt>
      <trkpt lat="44.62908" lon="-1.01705">
        <ele>8.31</ele>
        <time>2020-10-24T16:04:11Z</time>
      </trkpt>
      <trkpt lat="44.62895" lon="-1.01671">
        <ele>8.31</ele>
        <time>2020-10-24T16:04:17Z</time>
      </trkpt>
      <trkpt lat="44.62879" lon="-1.01563">
        <ele>8.31</ele>
        <time>2020-10-24T16:04:33Z</time>
      </trkpt>
      <trkpt lat="44.62859" lon="-1.01441">
        <ele>8.31</ele>
        <time>2020-10-24T16:04:51Z</time>
      </trkpt>
      <trkpt lat="44.62848" lon="-1.01375">
        <ele>8.31</ele>
        <time>2020-10-24T16:05:02Z</time>
      </trkpt>
      <trkpt lat="44.62821" lon="-1.01262">
        <ele>8.31</ele>
        <time>2020-10-24T16:05:20Z</time>
      </trkpt>
      <trkpt lat="44.6279" lon="-1.0116">
        <ele>8.31</ele>
        <time>2020-10-24T16:05:38Z</time>
      </trkpt>
      <trkpt lat="44.62788" lon="-1.01154">
        <ele>8.31</ele>
        <time>2020-10-24T16:05:39Z</time>
      </trkpt>
      <trkpt lat="44.62775" lon="-1.01128">
        <ele>8.31</ele>
        <time>2020-10-24T16:05:44Z</time>
      </trkpt>
      <trkpt lat="44.62774" lon="-1.01122">
        <ele>8.31</ele>
        <time>2020-10-24T16:05:45Z</time>
      </trkpt>
      <trkpt lat="44.62774" lon="-1.01115">
        <ele>8.31</ele>
        <time>2020-10-24T16:05:46Z</time>
      </trkpt>
      <trkpt lat="44.62773" lon="-1.01103">
        <ele>8.31</ele>
        <time>2020-10-24T16:05:48Z</time>
      </trkpt>
      <trkpt lat="44.62772" lon="-1.01097">
        <ele>8.31</ele>
        <time>2020-10-24T16:05:49Z</time>
      </trkpt>
      <trkpt lat="44.62771" lon="-1.01091">
        <ele>8.31</ele>
        <time>2020-10-24T16:05:50Z</time>
      </trkpt>
      <trkpt lat="44.62747" lon="-1.01">
        <ele>8.31</ele>
        <time>2020-10-24T16:06:06Z</time>
      </trkpt>
      <trkpt lat="44.62728" lon="-1.00937">
        <ele>8.31</ele>
        <time>2020-10-24T16:06:16Z</time>
      </trkpt>
      <trkpt lat="44.62703" lon="-1.00848">
        <ele>8.31</ele>
        <time>2020-10-24T16:06:30Z</time>
      </trkpt>
      <trkpt lat="44.62679" lon="-1.00767">
        <ele>7.83</ele>
        <time>2020-10-24T16:06:42Z</time>
      </trkpt>
      <trkpt lat="44.62656" lon="-1.00689">
        <ele>8.31</ele>
        <time>2020-10-24T16:06:53Z</time>
      </trkpt>
      <trkpt lat="44.62622" lon="-1.0057">
        <ele>8.31</ele>
        <time>2020-10-24T16:07:11Z</time>
      </trkpt>
      <trkpt lat="44.62592" lon="-1.0047">
        <ele>7.83</ele>
        <time>2020-10-24T16:07:28Z</time>
      </trkpt>
      <trkpt lat="44.62569" lon="-1.00366">
        <ele>8.31</ele>
        <time>2020-10-24T16:07:47Z</time>
      </trkpt>
      <trkpt lat="44.62575" lon="-1.00284">
        <ele>8.31</ele>
        <time>2020-10-24T16:08:03Z</time>
      </trkpt>
      <trkpt lat="44.62581" lon="-1.00259">
        <ele>7.35</ele>
        <time>2020-10-24T16:08:08Z</time>
      </trkpt>
      <trkpt lat="44.62591" lon="-1.00197">
        <ele>6.87</ele>
        <time>2020-10-24T16:08:19Z</time>
      </trkpt>
      <trkpt lat="44.62603" lon="-1.00086">
        <ele>5.91</ele>
        <time>2020-10-24T16:08:35Z</time>
      </trkpt>
      <trkpt lat="44.62618" lon="-1.00026">
        <ele>5.91</ele>
        <time>2020-10-24T16:08:47Z</time>
      </trkpt>
      <trkpt lat="44.62645" lon="-0.99971">
        <ele>5.42</ele>
        <time>2020-10-24T16:08:59Z</time>
      </trkpt>
      <trkpt lat="44.6265" lon="-0.9996">
        <ele>5.42</ele>
        <time>2020-10-24T16:09:01Z</time>
      </trkpt>
      <trkpt lat="44.62651" lon="-0.99955">
        <ele>5.42</ele>
        <time>2020-10-24T16:09:02Z</time>
      </trkpt>
      <trkpt lat="44.62652" lon="-0.99949">
        <ele>5.42</ele>
        <time>2020-10-24T16:09:03Z</time>
      </trkpt>
      <trkpt lat="44.62653" lon="-0.99943">
        <ele>5.42</ele>
        <time>2020-10-24T16:09:04Z</time>
      </trkpt>
      <trkpt lat="44.62653" lon="-0.99938">
        <ele>5.42</ele>
        <time>2020-10-24T16:09:05Z</time>
      </trkpt>
      <trkpt lat="44.62648" lon="-0.99903">
        <ele>5.42</ele>
        <time>2020-10-24T16:09:12Z</time>
      </trkpt>
      <trkpt lat="44.62642" lon="-0.99897">
        <ele>5.42</ele>
        <time>2020-10-24T16:09:14Z</time>
      </trkpt>
      <trkpt lat="44.62638" lon="-0.99894">
        <ele>5.42</ele>
        <time>2020-10-24T16:09:15Z</time>
      </trkpt>
      <trkpt lat="44.62635" lon="-0.9989">
        <ele>5.42</ele>
        <time>2020-10-24T16:09:16Z</time>
      </trkpt>
      <trkpt lat="44.62633" lon="-0.99886">
        <ele>5.42</ele>
        <time>2020-10-24T16:09:17Z</time>
      </trkpt>
      <trkpt lat="44.62631" lon="-0.99882">
        <ele>6.87</ele>
        <time>2020-10-24T16:09:18Z</time>
      </trkpt>
      <trkpt lat="44.62629" lon="-0.99877">
        <ele>6.87</ele>
        <time>2020-10-24T16:09:19Z</time>
      </trkpt>
      <trkpt lat="44.62629" lon="-0.99818">
        <ele>7.83</ele>
        <time>2020-10-24T16:09:30Z</time>
      </trkpt>
      <trkpt lat="44.62634" lon="-0.99744">
        <ele>8.31</ele>
        <time>2020-10-24T16:09:44Z</time>
      </trkpt>
      <trkpt lat="44.62644" lon="-0.99644">
        <ele>9.27</ele>
        <time>2020-10-24T16:10:04Z</time>
      </trkpt>
      <trkpt lat="44.62651" lon="-0.99579">
        <ele>9.75</ele>
        <time>2020-10-24T16:10:21Z</time>
      </trkpt>
      <trkpt lat="44.62655" lon="-0.99536">
        <ele>8.31</ele>
        <time>2020-10-24T16:10:31Z</time>
      </trkpt>
      <trkpt lat="44.62663" lon="-0.99454">
        <ele>7.83</ele>
        <time>2020-10-24T16:10:47Z</time>
      </trkpt>
      <trkpt lat="44.62673" lon="-0.99347">
        <ele>6.87</ele>
        <time>2020-10-24T16:11:04Z</time>
      </trkpt>
      <trkpt lat="44.62696" lon="-0.99241">
        <ele>6.87</ele>
        <time>2020-10-24T16:11:21Z</time>
      </trkpt>
      <trkpt lat="44.62697" lon="-0.99236">
        <ele>6.87</ele>
        <time>2020-10-24T16:11:22Z</time>
      </trkpt>
      <trkpt lat="44.62705" lon="-0.99215">
        <ele>6.87</ele>
        <time>2020-10-24T16:11:26Z</time>
      </trkpt>
      <trkpt lat="44.62744" lon="-0.99131">
        <ele>6.87</ele>
        <time>2020-10-24T16:11:42Z</time>
      </trkpt>
      <trkpt lat="44.62788" lon="-0.99037">
        <ele>6.87</ele>
        <time>2020-10-24T16:12:01Z</time>
      </trkpt>
      <trkpt lat="44.628" lon="-0.99011">
        <ele>6.87</ele>
        <time>2020-10-24T16:12:06Z</time>
      </trkpt>
      <trkpt lat="44.62837" lon="-0.9893">
        <ele>6.87</ele>
        <time>2020-10-24T16:12:22Z</time>
      </trkpt>
      <trkpt lat="44.62848" lon="-0.98905">
        <ele>6.87</ele>
        <time>2020-10-24T16:12:27Z</time>
      </trkpt>
      <trkpt lat="44.62866" lon="-0.98863">
        <ele>6.87</ele>
        <time>2020-10-24T16:12:35Z</time>
      </trkpt>
      <trkpt lat="44.62899" lon="-0.98789">
        <ele>6.87</ele>
        <time>2020-10-24T16:12:50Z</time>
      </trkpt>
      <trkpt lat="44.62937" lon="-0.98706">
        <ele>7.83</ele>
        <time>2020-10-24T16:13:08Z</time>
      </trkpt>
      <trkpt lat="44.62966" lon="-0.98643">
        <ele>8.31</ele>
        <time>2020-10-24T16:13:24Z</time>
      </trkpt>
      <trkpt lat="44.62988" lon="-0.98593">
        <ele>8.31</ele>
        <time>2020-10-24T16:13:36Z</time>
      </trkpt>
      <trkpt lat="44.63011" lon="-0.98543">
        <ele>7.35</ele>
        <time>2020-10-24T16:13:46Z</time>
      </trkpt>
      <trkpt lat="44.63054" lon="-0.98447">
        <ele>6.87</ele>
        <time>2020-10-24T16:14:04Z</time>
      </trkpt>
      <trkpt lat="44.63093" lon="-0.98359">
        <ele>6.87</ele>
        <time>2020-10-24T16:14:22Z</time>
      </trkpt>
      <trkpt lat="44.63114" lon="-0.98323">
        <ele>6.87</ele>
        <time>2020-10-24T16:14:36Z</time>
      </trkpt>
      <trkpt lat="44.63114" lon="-0.98323">
        <ele>6.39</ele>
        <time>2020-10-24T16:14:53Z</time>
      </trkpt>
      <trkpt lat="44.63112" lon="-0.98324">
        <ele>6.39</ele>
        <time>2020-10-24T16:15:25Z</time>
      </trkpt>
      <trkpt lat="44.63114" lon="-0.98323">
        <ele>6.39</ele>
        <time>2020-10-24T16:15:37Z</time>
      </trkpt>
      <trkpt lat="44.63135" lon="-0.98338">
        <ele>6.39</ele>
        <time>2020-10-24T16:15:48Z</time>
      </trkpt>
      <trkpt lat="44.63167" lon="-0.98335">
        <ele>6.39</ele>
        <time>2020-10-24T16:15:57Z</time>
      </trkpt>
      <trkpt lat="44.6321" lon="-0.98287">
        <ele>6.39</ele>
        <time>2020-10-24T16:16:13Z</time>
      </trkpt>
      <trkpt lat="44.63249" lon="-0.98236">
        <ele>6.39</ele>
        <time>2020-10-24T16:16:28Z</time>
      </trkpt>
      <trkpt lat="44.63289" lon="-0.98204">
        <ele>7.83</ele>
        <time>2020-10-24T16:16:42Z</time>
      </trkpt>
      <trkpt lat="44.6333" lon="-0.98189">
        <ele>8.31</ele>
        <time>2020-10-24T16:16:57Z</time>
      </trkpt>
      <trkpt lat="44.63379" lon="-0.98172">
        <ele>8.79</ele>
        <time>2020-10-24T16:17:15Z</time>
      </trkpt>
      <trkpt lat="44.63428" lon="-0.98151">
        <ele>8.79</ele>
        <time>2020-10-24T16:17:29Z</time>
      </trkpt>
      <trkpt lat="44.63475" lon="-0.98133">
        <ele>9.75</ele>
        <time>2020-10-24T16:17:44Z</time>
      </trkpt>
      <trkpt lat="44.63505" lon="-0.98117">
        <ele>10.23</ele>
        <time>2020-10-24T16:17:57Z</time>
      </trkpt>
      <trkpt lat="44.63515" lon="-0.98122">
        <ele>10.23</ele>
        <time>2020-10-24T16:18:08Z</time>
      </trkpt>
      <trkpt lat="44.63514" lon="-0.98126">
        <ele>10.23</ele>
        <time>2020-10-24T16:18:38Z</time>
      </trkpt>
      <trkpt lat="44.63515" lon="-0.98127">
        <ele>10.23</ele>
        <time>2020-10-24T16:18:39Z</time>
      </trkpt>
      <trkpt lat="44.63526" lon="-0.98166">
        <ele>10.23</ele>
        <time>2020-10-24T16:18:50Z</time>
      </trkpt>
      <trkpt lat="44.63553" lon="-0.98248">
        <ele>10.23</ele>
        <time>2020-10-24T16:19:08Z</time>
      </trkpt>
      <trkpt lat="44.63587" lon="-0.98315">
        <ele>10.23</ele>
        <time>2020-10-24T16:19:24Z</time>
      </trkpt>
      <trkpt lat="44.63637" lon="-0.98371">
        <ele>8.79</ele>
        <time>2020-10-24T16:19:41Z</time>
      </trkpt>
      <trkpt lat="44.63676" lon="-0.98415">
        <ele>8.79</ele>
        <time>2020-10-24T16:19:57Z</time>
      </trkpt>
      <trkpt lat="44.6371" lon="-0.98452">
        <ele>8.79</ele>
        <time>2020-10-24T16:20:11Z</time>
      </trkpt>
      <trkpt lat="44.63732" lon="-0.98477">
        <ele>8.79</ele>
        <time>2020-10-24T16:20:22Z</time>
      </trkpt>
      <trkpt lat="44.63734" lon="-0.98482">
        <ele>8.79</ele>
        <time>2020-10-24T16:20:33Z</time>
      </trkpt>
      <trkpt lat="44.63717" lon="-0.98508">
        <ele>8.79</ele>
        <time>2020-10-24T16:20:44Z</time>
      </trkpt>
      <trkpt lat="44.63689" lon="-0.98556">
        <ele>8.79</ele>
        <time>2020-10-24T16:20:58Z</time>
      </trkpt>
      <trkpt lat="44.63674" lon="-0.98593">
        <ele>7.35</ele>
        <time>2020-10-24T16:21:05Z</time>
      </trkpt>
      <trkpt lat="44.63673" lon="-0.98599">
        <ele>7.35</ele>
        <time>2020-10-24T16:21:06Z</time>
      </trkpt>
      <trkpt lat="44.63673" lon="-0.98604">
        <ele>6.87</ele>
        <time>2020-10-24T16:21:07Z</time>
      </trkpt>
      <trkpt lat="44.63676" lon="-0.9862">
        <ele>6.87</ele>
        <time>2020-10-24T16:21:11Z</time>
      </trkpt>
      <trkpt lat="44.63678" lon="-0.98621">
        <ele>6.87</ele>
        <time>2020-10-24T16:21:12Z</time>
      </trkpt>
      <trkpt lat="44.63679" lon="-0.98622">
        <ele>6.87</ele>
        <time>2020-10-24T16:21:13Z</time>
      </trkpt>
      <trkpt lat="44.63681" lon="-0.98623">
        <ele>6.87</ele>
        <time>2020-10-24T16:21:14Z</time>
      </trkpt>
      <trkpt lat="44.63682" lon="-0.98623">
        <ele>6.87</ele>
        <time>2020-10-24T16:21:15Z</time>
      </trkpt>
      <trkpt lat="44.63684" lon="-0.98624">
        <ele>6.87</ele>
        <time>2020-10-24T16:21:16Z</time>
      </trkpt>
      <trkpt lat="44.63711" lon="-0.98625">
        <ele>9.27</ele>
        <time>2020-10-24T16:21:28Z</time>
      </trkpt>
      <trkpt lat="44.63763" lon="-0.98633">
        <ele>8.31</ele>
        <time>2020-10-24T16:21:43Z</time>
      </trkpt>
      <trkpt lat="44.63826" lon="-0.9864">
        <ele>7.83</ele>
        <time>2020-10-24T16:21:56Z</time>
      </trkpt>
      <trkpt lat="44.63852" lon="-0.98639">
        <ele>9.27</ele>
        <time>2020-10-24T16:22:04Z</time>
      </trkpt>
      <trkpt lat="44.63882" lon="-0.9864">
        <ele>9.75</ele>
        <time>2020-10-24T16:22:17Z</time>
      </trkpt>
      <trkpt lat="44.63922" lon="-0.98648">
        <ele>8.79</ele>
        <time>2020-10-24T16:22:31Z</time>
      </trkpt>
      <trkpt lat="44.63926" lon="-0.98651">
        <ele>8.79</ele>
        <time>2020-10-24T16:22:32Z</time>
      </trkpt>
      <trkpt lat="44.63967" lon="-0.98691">
        <ele>9.27</ele>
        <time>2020-10-24T16:22:47Z</time>
      </trkpt>
      <trkpt lat="44.63974" lon="-0.98703">
        <ele>9.27</ele>
        <time>2020-10-24T16:22:52Z</time>
      </trkpt>
      <trkpt lat="44.63976" lon="-0.98711">
        <ele>9.27</ele>
        <time>2020-10-24T16:22:55Z</time>
      </trkpt>
      <trkpt lat="44.63977" lon="-0.98713">
        <ele>9.27</ele>
        <time>2020-10-24T16:22:56Z</time>
      </trkpt>
      <trkpt lat="44.63986" lon="-0.98758">
        <ele>9.27</ele>
        <time>2020-10-24T16:23:06Z</time>
      </trkpt>
      <trkpt lat="44.64013" lon="-0.98847">
        <ele>7.83</ele>
        <time>2020-10-24T16:23:20Z</time>
      </trkpt>
      <trkpt lat="44.64045" lon="-0.98931">
        <ele>7.83</ele>
        <time>2020-10-24T16:23:37Z</time>
      </trkpt>
      <trkpt lat="44.64063" lon="-0.98982">
        <ele>7.83</ele>
        <time>2020-10-24T16:23:48Z</time>
      </trkpt>
      <trkpt lat="44.64082" lon="-0.99035">
        <ele>7.35</ele>
        <time>2020-10-24T16:23:59Z</time>
      </trkpt>
      <trkpt lat="44.64097" lon="-0.99077">
        <ele>7.35</ele>
        <time>2020-10-24T16:24:07Z</time>
      </trkpt>
      <trkpt lat="44.64099" lon="-0.99083">
        <ele>7.35</ele>
        <time>2020-10-24T16:24:08Z</time>
      </trkpt>
      <trkpt lat="44.64119" lon="-0.99132">
        <ele>7.35</ele>
        <time>2020-10-24T16:24:19Z</time>
      </trkpt>
      <trkpt lat="44.64144" lon="-0.99189">
        <ele>7.35</ele>
        <time>2020-10-24T16:24:31Z</time>
      </trkpt>
      <trkpt lat="44.64179" lon="-0.99245">
        <ele>7.35</ele>
        <time>2020-10-24T16:24:44Z</time>
      </trkpt>
      <trkpt lat="44.64188" lon="-0.99259">
        <ele>6.87</ele>
        <time>2020-10-24T16:24:47Z</time>
      </trkpt>
      <trkpt lat="44.64204" lon="-0.99293">
        <ele>6.87</ele>
        <time>2020-10-24T16:24:54Z</time>
      </trkpt>
      <trkpt lat="44.64207" lon="-0.99304">
        <ele>6.39</ele>
        <time>2020-10-24T16:24:56Z</time>
      </trkpt>
      <trkpt lat="44.64219" lon="-0.99379">
        <ele>6.39</ele>
        <time>2020-10-24T16:25:08Z</time>
      </trkpt>
      <trkpt lat="44.6422" lon="-0.99385">
        <ele>6.39</ele>
        <time>2020-10-24T16:25:09Z</time>
      </trkpt>
      <trkpt lat="44.64234" lon="-0.99454">
        <ele>6.39</ele>
        <time>2020-10-24T16:25:21Z</time>
      </trkpt>
      <trkpt lat="44.64244" lon="-0.99527">
        <ele>5.91</ele>
        <time>2020-10-24T16:25:35Z</time>
      </trkpt>
      <trkpt lat="44.64253" lon="-0.99588">
        <ele>5.91</ele>
        <time>2020-10-24T16:25:48Z</time>
      </trkpt>
      <trkpt lat="44.64275" lon="-0.99636">
        <ele>5.91</ele>
        <time>2020-10-24T16:25:59Z</time>
      </trkpt>
      <trkpt lat="44.64284" lon="-0.99683">
        <ele>5.91</ele>
        <time>2020-10-24T16:26:09Z</time>
      </trkpt>
      <trkpt lat="44.64305" lon="-0.99734">
        <ele>5.91</ele>
        <time>2020-10-24T16:26:22Z</time>
      </trkpt>
      <trkpt lat="44.6433" lon="-0.99788">
        <ele>5.91</ele>
        <time>2020-10-24T16:26:36Z</time>
      </trkpt>
      <trkpt lat="44.64358" lon="-0.99848">
        <ele>5.91</ele>
        <time>2020-10-24T16:26:51Z</time>
      </trkpt>
      <trkpt lat="44.64387" lon="-0.99877">
        <ele>5.91</ele>
        <time>2020-10-24T16:27:03Z</time>
      </trkpt>
      <trkpt lat="44.64393" lon="-0.99896">
        <ele>5.91</ele>
        <time>2020-10-24T16:27:14Z</time>
      </trkpt>
    </trkseg>
  </trk>
</gpx>